<?xml version="1.0" encoding="utf-8"?>
<gpx xmlns:xsi="http://www.w3.org/2001/XMLSchema-instance" xmlns:xsd="http://www.w3.org/2001/XMLSchema" version="1.1" creator="Shapelink.com" xmlns="http://www.topografix.com/GPX/1/1" xmlns:gpxtpx="http://www.garmin.com/xmlschemas/TrackPointExtension/v1">
  <metadata>
    <name>Cykling - Mtb 35.86 km, 2012-11-11</name>
    <desc></desc>
    <author><name>Alexander Engvall</name></author> 
    <time>2012-11-11T14:32:39Z</time>
  </metadata>
  <trk>
    <name>Cykling - Mtb 35.86 km, 2012-11-11</name>
    <trkseg>
      <trkpt lat="59.4582397055" lon="17.8045991308">
        <ele>129.2</ele>
        <time>2012-11-11T14:32:39Z</time>
      </trkpt>
      <trkpt lat="59.4582624204" lon="17.8046081833">
        <ele>129.4</ele>
        <time>2012-11-11T14:32:42Z</time>
      </trkpt>
      <trkpt lat="59.4583110355" lon="17.8046325746">
        <ele>129.4</ele>
        <time>2012-11-11T14:32:44Z</time>
      </trkpt>
      <trkpt lat="59.4584739796" lon="17.8046500928">
        <ele>129.4</ele>
        <time>2012-11-11T14:32:50Z</time>
      </trkpt>
      <trkpt lat="59.4586379296" lon="17.8046412918">
        <ele>129.4</ele>
        <time>2012-11-11T14:32:55Z</time>
      </trkpt>
      <trkpt lat="59.4587577069" lon="17.8045878153">
        <ele>129.4</ele>
        <time>2012-11-11T14:32:58Z</time>
      </trkpt>
      <trkpt lat="59.4588510813" lon="17.8045757453">
        <ele>129.4</ele>
        <time>2012-11-11T14:33:00Z</time>
      </trkpt>
      <trkpt lat="59.4589595431" lon="17.8046644258">
        <ele>129.4</ele>
        <time>2012-11-11T14:33:03Z</time>
      </trkpt>
      <trkpt lat="59.4589942441" lon="17.8046912479">
        <ele>130</ele>
        <time>2012-11-11T14:33:04Z</time>
      </trkpt>
      <trkpt lat="59.4590254248" lon="17.804707425">
        <ele>130.4</ele>
        <time>2012-11-11T14:33:05Z</time>
      </trkpt>
      <trkpt lat="59.459061467" lon="17.8047107777">
        <ele>131</ele>
        <time>2012-11-11T14:33:06Z</time>
      </trkpt>
      <trkpt lat="59.4590981797" lon="17.8047082632">
        <ele>131.4</ele>
        <time>2012-11-11T14:33:07Z</time>
      </trkpt>
      <trkpt lat="59.459136485" lon="17.8046982049">
        <ele>132</ele>
        <time>2012-11-11T14:33:08Z</time>
      </trkpt>
      <trkpt lat="59.459177221" lon="17.8046826145">
        <ele>132.6</ele>
        <time>2012-11-11T14:33:09Z</time>
      </trkpt>
      <trkpt lat="59.4592140175" lon="17.8046505957">
        <ele>133</ele>
        <time>2012-11-11T14:33:10Z</time>
      </trkpt>
      <trkpt lat="59.4592445277" lon="17.8046148888">
        <ele>133.6</ele>
        <time>2012-11-11T14:33:11Z</time>
      </trkpt>
      <trkpt lat="59.4592736967" lon="17.8045780922">
        <ele>134</ele>
        <time>2012-11-11T14:33:12Z</time>
      </trkpt>
      <trkpt lat="59.4594144288" lon="17.8043861467">
        <ele>134</ele>
        <time>2012-11-11T14:33:16Z</time>
      </trkpt>
      <trkpt lat="59.459452315" lon="17.8043292336">
        <ele>134</ele>
        <time>2012-11-11T14:33:17Z</time>
      </trkpt>
      <trkpt lat="59.4596416621" lon="17.8040321791">
        <ele>134</ele>
        <time>2012-11-11T14:33:22Z</time>
      </trkpt>
      <trkpt lat="59.4596777881" lon="17.8039815524">
        <ele>134</ele>
        <time>2012-11-11T14:33:23Z</time>
      </trkpt>
      <trkpt lat="59.4597470226" lon="17.8038839871">
        <ele>134</ele>
        <time>2012-11-11T14:33:25Z</time>
      </trkpt>
      <trkpt lat="59.459805612" lon="17.8037944684">
        <ele>134</ele>
        <time>2012-11-11T14:33:27Z</time>
      </trkpt>
      <trkpt lat="59.4598658779" lon="17.8036966516">
        <ele>134</ele>
        <time>2012-11-11T14:33:29Z</time>
      </trkpt>
      <trkpt lat="59.4599833083" lon="17.8035937219">
        <ele>134</ele>
        <time>2012-11-11T14:33:33Z</time>
      </trkpt>
      <trkpt lat="59.460079784" lon="17.8035615354">
        <ele>134</ele>
        <time>2012-11-11T14:33:38Z</time>
      </trkpt>
      <trkpt lat="59.4600864057" lon="17.8035566739">
        <ele>134</ele>
        <time>2012-11-11T14:33:43Z</time>
      </trkpt>
      <trkpt lat="59.4600940332" lon="17.8035124175">
        <ele>134</ele>
        <time>2012-11-11T14:35:02Z</time>
      </trkpt>
      <trkpt lat="59.4601485156" lon="17.8034637186">
        <ele>134</ele>
        <time>2012-11-11T14:35:06Z</time>
      </trkpt>
      <trkpt lat="59.4603441491" lon="17.8032641456">
        <ele>134</ele>
        <time>2012-11-11T14:35:11Z</time>
      </trkpt>
      <trkpt lat="59.4603922612" lon="17.8032053885">
        <ele>134</ele>
        <time>2012-11-11T14:35:12Z</time>
      </trkpt>
      <trkpt lat="59.4605391121" lon="17.8029724555">
        <ele>134</ele>
        <time>2012-11-11T14:35:15Z</time>
      </trkpt>
      <trkpt lat="59.4605939297" lon="17.8028904805">
        <ele>133.6</ele>
        <time>2012-11-11T14:35:16Z</time>
      </trkpt>
      <trkpt lat="59.4606541956" lon="17.8028102657">
        <ele>133.2</ele>
        <time>2012-11-11T14:35:17Z</time>
      </trkpt>
      <trkpt lat="59.4607206641" lon="17.8027415341">
        <ele>132.6</ele>
        <time>2012-11-11T14:35:18Z</time>
      </trkpt>
      <trkpt lat="59.4607914911" lon="17.8026825256">
        <ele>132</ele>
        <time>2012-11-11T14:35:19Z</time>
      </trkpt>
      <trkpt lat="59.4608618153" lon="17.8026424601">
        <ele>131.4</ele>
        <time>2012-11-11T14:35:20Z</time>
      </trkpt>
      <trkpt lat="59.4609359113" lon="17.8026018079">
        <ele>130.8</ele>
        <time>2012-11-11T14:35:21Z</time>
      </trkpt>
      <trkpt lat="59.4610136953" lon="17.8025635026">
        <ele>130.2</ele>
        <time>2012-11-11T14:35:22Z</time>
      </trkpt>
      <trkpt lat="59.4610737097" lon="17.8025268737">
        <ele>129.6</ele>
        <time>2012-11-11T14:35:23Z</time>
      </trkpt>
      <trkpt lat="59.4611171279" lon="17.8024928432">
        <ele>129.2</ele>
        <time>2012-11-11T14:35:24Z</time>
      </trkpt>
      <trkpt lat="59.4611611329" lon="17.8024181604">
        <ele>128.8</ele>
        <time>2012-11-11T14:35:25Z</time>
      </trkpt>
      <trkpt lat="59.4611777291" lon="17.8023148116">
        <ele>128.4</ele>
        <time>2012-11-11T14:35:26Z</time>
      </trkpt>
      <trkpt lat="59.4611753821" lon="17.8022081938">
        <ele>128</ele>
        <time>2012-11-11T14:35:27Z</time>
      </trkpt>
      <trkpt lat="59.461170353" lon="17.8020916854">
        <ele>127.6</ele>
        <time>2012-11-11T14:35:28Z</time>
      </trkpt>
      <trkpt lat="59.4611544274" lon="17.8019628556">
        <ele>127.6</ele>
        <time>2012-11-11T14:35:29Z</time>
      </trkpt>
      <trkpt lat="59.461119894" lon="17.8014070518">
        <ele>127.6</ele>
        <time>2012-11-11T14:35:33Z</time>
      </trkpt>
      <trkpt lat="59.4611128532" lon="17.8010702671">
        <ele>126.8</ele>
        <time>2012-11-11T14:35:36Z</time>
      </trkpt>
      <trkpt lat="59.4611332212" lon="17.8009930698">
        <ele>126.2</ele>
        <time>2012-11-11T14:35:37Z</time>
      </trkpt>
      <trkpt lat="59.4611699339" lon="17.8009396771">
        <ele>125.6</ele>
        <time>2012-11-11T14:35:38Z</time>
      </trkpt>
      <trkpt lat="59.4612156153" lon="17.8009206502">
        <ele>125</ele>
        <time>2012-11-11T14:35:39Z</time>
      </trkpt>
      <trkpt lat="59.4612664934" lon="17.8009245897">
        <ele>124.2</ele>
        <time>2012-11-11T14:35:40Z</time>
      </trkpt>
      <trkpt lat="59.4613218977" lon="17.8009292835">
        <ele>124.2</ele>
        <time>2012-11-11T14:35:41Z</time>
      </trkpt>
      <trkpt lat="59.4616196228" lon="17.800989717">
        <ele>124.2</ele>
        <time>2012-11-11T14:35:46Z</time>
      </trkpt>
      <trkpt lat="59.4618234706" lon="17.801031878">
        <ele>123.8</ele>
        <time>2012-11-11T14:35:49Z</time>
      </trkpt>
      <trkpt lat="59.4619008356" lon="17.8010493962">
        <ele>123.4</ele>
        <time>2012-11-11T14:35:50Z</time>
      </trkpt>
      <trkpt lat="59.4619778652" lon="17.801068926">
        <ele>123</ele>
        <time>2012-11-11T14:35:51Z</time>
      </trkpt>
      <trkpt lat="59.4620518774" lon="17.8010847678">
        <ele>122.4</ele>
        <time>2012-11-11T14:35:52Z</time>
      </trkpt>
      <trkpt lat="59.4621230398" lon="17.8010931497">
        <ele>122</ele>
        <time>2012-11-11T14:35:53Z</time>
      </trkpt>
      <trkpt lat="59.4621942859" lon="17.8010899646">
        <ele>122</ele>
        <time>2012-11-11T14:35:54Z</time>
      </trkpt>
      <trkpt lat="59.4623249597" lon="17.8011067284">
        <ele>122</ele>
        <time>2012-11-11T14:35:56Z</time>
      </trkpt>
      <trkpt lat="59.4624542086" lon="17.8011036271">
        <ele>121.6</ele>
        <time>2012-11-11T14:35:58Z</time>
      </trkpt>
      <trkpt lat="59.4625238622" lon="17.8011039623">
        <ele>121.2</ele>
        <time>2012-11-11T14:35:59Z</time>
      </trkpt>
      <trkpt lat="59.462599886" lon="17.801112931">
        <ele>120.8</ele>
        <time>2012-11-11T14:36:00Z</time>
      </trkpt>
      <trkpt lat="59.4626711322" lon="17.8011105002">
        <ele>120.2</ele>
        <time>2012-11-11T14:36:01Z</time>
      </trkpt>
      <trkpt lat="59.4627408696" lon="17.801111087">
        <ele>119.8</ele>
        <time>2012-11-11T14:36:02Z</time>
      </trkpt>
      <trkpt lat="59.4629603916" lon="17.8011093268">
        <ele>119.8</ele>
        <time>2012-11-11T14:36:05Z</time>
      </trkpt>
      <trkpt lat="59.4631560251" lon="17.8010658247">
        <ele>119.8</ele>
        <time>2012-11-11T14:36:08Z</time>
      </trkpt>
      <trkpt lat="59.4632897164" lon="17.8009736238">
        <ele>119.8</ele>
        <time>2012-11-11T14:36:10Z</time>
      </trkpt>
      <trkpt lat="59.4634355615" lon="17.8008569477">
        <ele>119.4</ele>
        <time>2012-11-11T14:36:12Z</time>
      </trkpt>
      <trkpt lat="59.4635180394" lon="17.8008515833">
        <ele>119</ele>
        <time>2012-11-11T14:36:13Z</time>
      </trkpt>
      <trkpt lat="59.4636006011" lon="17.800861474">
        <ele>118.6</ele>
        <time>2012-11-11T14:36:14Z</time>
      </trkpt>
      <trkpt lat="59.4636825761" lon="17.8008908944">
        <ele>118.2</ele>
        <time>2012-11-11T14:36:15Z</time>
      </trkpt>
      <trkpt lat="59.4637570912" lon="17.8009204825">
        <ele>117.6</ele>
        <time>2012-11-11T14:36:16Z</time>
      </trkpt>
      <trkpt lat="59.4639082168" lon="17.8009756354">
        <ele>117.6</ele>
        <time>2012-11-11T14:36:18Z</time>
      </trkpt>
      <trkpt lat="59.4640694008" lon="17.8010020384">
        <ele>117.2</ele>
        <time>2012-11-11T14:36:20Z</time>
      </trkpt>
      <trkpt lat="59.4641529683" lon="17.8010048883">
        <ele>116.6</ele>
        <time>2012-11-11T14:36:21Z</time>
      </trkpt>
      <trkpt lat="59.4642333507" lon="17.8010068161">
        <ele>116.2</ele>
        <time>2012-11-11T14:36:22Z</time>
      </trkpt>
      <trkpt lat="59.4643159962" lon="17.8010127673">
        <ele>115.6</ele>
        <time>2012-11-11T14:36:23Z</time>
      </trkpt>
      <trkpt lat="59.4643977198" lon="17.8010232446">
        <ele>114.8</ele>
        <time>2012-11-11T14:36:24Z</time>
      </trkpt>
      <trkpt lat="59.4644786051" lon="17.8010271841">
        <ele>114.2</ele>
        <time>2012-11-11T14:36:25Z</time>
      </trkpt>
      <trkpt lat="59.4645527849" lon="17.8010271003">
        <ele>113.6</ele>
        <time>2012-11-11T14:36:26Z</time>
      </trkpt>
      <trkpt lat="59.4646133861" lon="17.8010153657">
        <ele>112.8</ele>
        <time>2012-11-11T14:36:27Z</time>
      </trkpt>
      <trkpt lat="59.4646683713" lon="17.8009826762">
        <ele>112.2</ele>
        <time>2012-11-11T14:36:28Z</time>
      </trkpt>
      <trkpt lat="59.464723608" lon="17.8009474723">
        <ele>111.6</ele>
        <time>2012-11-11T14:36:29Z</time>
      </trkpt>
      <trkpt lat="59.4647780066" lon="17.8009280263">
        <ele>110.8</ele>
        <time>2012-11-11T14:36:30Z</time>
      </trkpt>
      <trkpt lat="59.4648359255" lon="17.8009236677">
        <ele>110.2</ele>
        <time>2012-11-11T14:36:31Z</time>
      </trkpt>
      <trkpt lat="59.4648900726" lon="17.8009365758">
        <ele>109.6</ele>
        <time>2012-11-11T14:36:32Z</time>
      </trkpt>
      <trkpt lat="59.4649486621" lon="17.8009690137">
        <ele>108.8</ele>
        <time>2012-11-11T14:36:33Z</time>
      </trkpt>
      <trkpt lat="59.4650107719" lon="17.800990639">
        <ele>108.2</ele>
        <time>2012-11-11T14:36:34Z</time>
      </trkpt>
      <trkpt lat="59.4651438765" lon="17.8010121805">
        <ele>108.2</ele>
        <time>2012-11-11T14:36:36Z</time>
      </trkpt>
      <trkpt lat="59.4652784898" lon="17.8010354822">
        <ele>108.2</ele>
        <time>2012-11-11T14:36:38Z</time>
      </trkpt>
      <trkpt lat="59.4655537514" lon="17.8010732846">
        <ele>108.2</ele>
        <time>2012-11-11T14:36:42Z</time>
      </trkpt>
      <trkpt lat="59.4656246623" lon="17.8010396732">
        <ele>108.2</ele>
        <time>2012-11-11T14:36:43Z</time>
      </trkpt>
      <trkpt lat="59.4657735248" lon="17.8009935727">
        <ele>108.2</ele>
        <time>2012-11-11T14:36:45Z</time>
      </trkpt>
      <trkpt lat="59.4659242314" lon="17.8010322971">
        <ele>108.2</ele>
        <time>2012-11-11T14:36:47Z</time>
      </trkpt>
      <trkpt lat="59.4661297556" lon="17.8010743742">
        <ele>108.2</ele>
        <time>2012-11-11T14:36:50Z</time>
      </trkpt>
      <trkpt lat="59.4662604294" lon="17.8010667467">
        <ele>108.2</ele>
        <time>2012-11-11T14:36:52Z</time>
      </trkpt>
      <trkpt lat="59.466632502" lon="17.8009475561">
        <ele>108.2</ele>
        <time>2012-11-11T14:36:58Z</time>
      </trkpt>
      <trkpt lat="59.4669063386" lon="17.8008749688">
        <ele>108.6</ele>
        <time>2012-11-11T14:37:02Z</time>
      </trkpt>
      <trkpt lat="59.4669709631" lon="17.8008514995">
        <ele>109</ele>
        <time>2012-11-11T14:37:03Z</time>
      </trkpt>
      <trkpt lat="59.4670338273" lon="17.8008233363">
        <ele>109.4</ele>
        <time>2012-11-11T14:37:04Z</time>
      </trkpt>
      <trkpt lat="59.4670951828" lon="17.8007909822">
        <ele>109.8</ele>
        <time>2012-11-11T14:37:05Z</time>
      </trkpt>
      <trkpt lat="59.467153437" lon="17.8007545209">
        <ele>110.2</ele>
        <time>2012-11-11T14:37:06Z</time>
      </trkpt>
      <trkpt lat="59.4673172194" lon="17.8006718754">
        <ele>110.2</ele>
        <time>2012-11-11T14:37:09Z</time>
      </trkpt>
      <trkpt lat="59.4674721169" lon="17.8005763217">
        <ele>110.6</ele>
        <time>2012-11-11T14:37:12Z</time>
      </trkpt>
      <trkpt lat="59.4675232465" lon="17.8005358372">
        <ele>111</ele>
        <time>2012-11-11T14:37:13Z</time>
      </trkpt>
      <trkpt lat="59.4675740408" lon="17.8004971966">
        <ele>111.4</ele>
        <time>2012-11-11T14:37:14Z</time>
      </trkpt>
      <trkpt lat="59.4676251704" lon="17.8004536107">
        <ele>111.8</ele>
        <time>2012-11-11T14:37:15Z</time>
      </trkpt>
      <trkpt lat="59.467678144" lon="17.8003996313">
        <ele>112.2</ele>
        <time>2012-11-11T14:37:16Z</time>
      </trkpt>
      <trkpt lat="59.4677298603" lon="17.8003405389">
        <ele>112.2</ele>
        <time>2012-11-11T14:37:17Z</time>
      </trkpt>
      <trkpt lat="59.4678383221" lon="17.8002051712">
        <ele>112.2</ele>
        <time>2012-11-11T14:37:19Z</time>
      </trkpt>
      <trkpt lat="59.4680077203" lon="17.7999425663">
        <ele>112.2</ele>
        <time>2012-11-11T14:37:22Z</time>
      </trkpt>
      <trkpt lat="59.4682987399" lon="17.7994584277">
        <ele>112.2</ele>
        <time>2012-11-11T14:37:27Z</time>
      </trkpt>
      <trkpt lat="59.4683733388" lon="17.7994135846">
        <ele>112.2</ele>
        <time>2012-11-11T14:37:28Z</time>
      </trkpt>
      <trkpt lat="59.4684532183" lon="17.7993988324">
        <ele>111.8</ele>
        <time>2012-11-11T14:37:29Z</time>
      </trkpt>
      <trkpt lat="59.4685412282" lon="17.7993990839">
        <ele>111.4</ele>
        <time>2012-11-11T14:37:30Z</time>
      </trkpt>
      <trkpt lat="59.468625634" lon="17.7994266603">
        <ele>111</ele>
        <time>2012-11-11T14:37:31Z</time>
      </trkpt>
      <trkpt lat="59.4687050105" lon="17.7994776223">
        <ele>110.6</ele>
        <time>2012-11-11T14:37:32Z</time>
      </trkpt>
      <trkpt lat="59.4687771787" lon="17.799557418">
        <ele>110.2</ele>
        <time>2012-11-11T14:37:33Z</time>
      </trkpt>
      <trkpt lat="59.4688428928" lon="17.7996405664">
        <ele>110.2</ele>
        <time>2012-11-11T14:37:34Z</time>
      </trkpt>
      <trkpt lat="59.4689044998" lon="17.799723212">
        <ele>110.2</ele>
        <time>2012-11-11T14:37:35Z</time>
      </trkpt>
      <trkpt lat="59.4689672802" lon="17.7997907701">
        <ele>110.2</ele>
        <time>2012-11-11T14:37:36Z</time>
      </trkpt>
      <trkpt lat="59.4690874766" lon="17.7999029199">
        <ele>110.2</ele>
        <time>2012-11-11T14:37:38Z</time>
      </trkpt>
      <trkpt lat="59.4693254388" lon="17.800300641">
        <ele>110.2</ele>
        <time>2012-11-11T14:37:42Z</time>
      </trkpt>
      <trkpt lat="59.4695478106" lon="17.8007516711">
        <ele>110.2</ele>
        <time>2012-11-11T14:37:47Z</time>
      </trkpt>
      <trkpt lat="59.4695864511" lon="17.8008436205">
        <ele>110.2</ele>
        <time>2012-11-11T14:37:50Z</time>
      </trkpt>
      <trkpt lat="59.4696089985" lon="17.8008902239">
        <ele>110.2</ele>
        <time>2012-11-11T14:37:56Z</time>
      </trkpt>
      <trkpt lat="59.4696857767" lon="17.8008368312">
        <ele>110.2</ele>
        <time>2012-11-11T14:37:59Z</time>
      </trkpt>
      <trkpt lat="59.4698010278" lon="17.8006668463">
        <ele>110.2</ele>
        <time>2012-11-11T14:38:02Z</time>
      </trkpt>
      <trkpt lat="59.4698515706" lon="17.8006325643">
        <ele>110.2</ele>
        <time>2012-11-11T14:38:03Z</time>
      </trkpt>
      <trkpt lat="59.4700193763" lon="17.8007271121">
        <ele>110.2</ele>
        <time>2012-11-11T14:38:06Z</time>
      </trkpt>
      <trkpt lat="59.4701211326" lon="17.8009144476">
        <ele>109.8</ele>
        <time>2012-11-11T14:38:08Z</time>
      </trkpt>
      <trkpt lat="59.4701687417" lon="17.8010022899">
        <ele>109.4</ele>
        <time>2012-11-11T14:38:09Z</time>
      </trkpt>
      <trkpt lat="59.4702163509" lon="17.8010885396">
        <ele>109</ele>
        <time>2012-11-11T14:38:10Z</time>
      </trkpt>
      <trkpt lat="59.4702621999" lon="17.8011867755">
        <ele>108.6</ele>
        <time>2012-11-11T14:38:11Z</time>
      </trkpt>
      <trkpt lat="59.4703058696" lon="17.8012874421">
        <ele>108</ele>
        <time>2012-11-11T14:38:12Z</time>
      </trkpt>
      <trkpt lat="59.4703474439" lon="17.8014048725">
        <ele>108</ele>
        <time>2012-11-11T14:38:13Z</time>
      </trkpt>
      <trkpt lat="59.4703810553" lon="17.8015271645">
        <ele>108</ele>
        <time>2012-11-11T14:38:14Z</time>
      </trkpt>
      <trkpt lat="59.470508544" lon="17.8019980596">
        <ele>108</ele>
        <time>2012-11-11T14:38:18Z</time>
      </trkpt>
      <trkpt lat="59.4705488609" lon="17.802096966">
        <ele>108</ele>
        <time>2012-11-11T14:38:19Z</time>
      </trkpt>
      <trkpt lat="59.4705939555" lon="17.8021862333">
        <ele>108.6</ele>
        <time>2012-11-11T14:38:20Z</time>
      </trkpt>
      <trkpt lat="59.4706473482" lon="17.8022584014">
        <ele>109</ele>
        <time>2012-11-11T14:38:21Z</time>
      </trkpt>
      <trkpt lat="59.4706996513" lon="17.8023262948">
        <ele>109.4</ele>
        <time>2012-11-11T14:38:22Z</time>
      </trkpt>
      <trkpt lat="59.4707558938" lon="17.8023869798">
        <ele>109.8</ele>
        <time>2012-11-11T14:38:23Z</time>
      </trkpt>
      <trkpt lat="59.4708115497" lon="17.8024467427">
        <ele>110.2</ele>
        <time>2012-11-11T14:38:24Z</time>
      </trkpt>
      <trkpt lat="59.4711867235" lon="17.8028630717">
        <ele>110.6</ele>
        <time>2012-11-11T14:38:31Z</time>
      </trkpt>
      <trkpt lat="59.4712405353" lon="17.8029203201">
        <ele>111</ele>
        <time>2012-11-11T14:38:32Z</time>
      </trkpt>
      <trkpt lat="59.4712968617" lon="17.802974048">
        <ele>111.4</ele>
        <time>2012-11-11T14:38:33Z</time>
      </trkpt>
      <trkpt lat="59.471352266" lon="17.8030320508">
        <ele>111.8</ele>
        <time>2012-11-11T14:38:34Z</time>
      </trkpt>
      <trkpt lat="59.4714068322" lon="17.8030928196">
        <ele>112.2</ele>
        <time>2012-11-11T14:38:35Z</time>
      </trkpt>
      <trkpt lat="59.4716221632" lon="17.8033284348">
        <ele>112.2</ele>
        <time>2012-11-11T14:38:39Z</time>
      </trkpt>
      <trkpt lat="59.4718878694" lon="17.8036207116">
        <ele>112.8</ele>
        <time>2012-11-11T14:38:44Z</time>
      </trkpt>
      <trkpt lat="59.4719407592" lon="17.8036767027">
        <ele>113.2</ele>
        <time>2012-11-11T14:38:45Z</time>
      </trkpt>
      <trkpt lat="59.4719938166" lon="17.803733532">
        <ele>113.6</ele>
        <time>2012-11-11T14:38:46Z</time>
      </trkpt>
      <trkpt lat="59.4720463712" lon="17.8037896069">
        <ele>114</ele>
        <time>2012-11-11T14:38:47Z</time>
      </trkpt>
      <trkpt lat="59.4721004344" lon="17.8038486155">
        <ele>114.6</ele>
        <time>2012-11-11T14:38:48Z</time>
      </trkpt>
      <trkpt lat="59.4724064576" lon="17.804174839">
        <ele>114.6</ele>
        <time>2012-11-11T14:38:54Z</time>
      </trkpt>
      <trkpt lat="59.4724566652" lon="17.8042292376">
        <ele>115</ele>
        <time>2012-11-11T14:38:55Z</time>
      </trkpt>
      <trkpt lat="59.4725094711" lon="17.8042808701">
        <ele>115.4</ele>
        <time>2012-11-11T14:38:56Z</time>
      </trkpt>
      <trkpt lat="59.4725597625" lon="17.8043275573">
        <ele>115.8</ele>
        <time>2012-11-11T14:38:57Z</time>
      </trkpt>
      <trkpt lat="59.4726053601" lon="17.8043827102">
        <ele>116.2</ele>
        <time>2012-11-11T14:38:58Z</time>
      </trkpt>
      <trkpt lat="59.4726491974" lon="17.8044390365">
        <ele>116.6</ele>
        <time>2012-11-11T14:38:59Z</time>
      </trkpt>
      <trkpt lat="59.4726963875" lon="17.8044925969">
        <ele>116.6</ele>
        <time>2012-11-11T14:39:00Z</time>
      </trkpt>
      <trkpt lat="59.4729123891" lon="17.8046826145">
        <ele>117</ele>
        <time>2012-11-11T14:39:04Z</time>
      </trkpt>
      <trkpt lat="59.4729652789" lon="17.8047176509">
        <ele>117.4</ele>
        <time>2012-11-11T14:39:05Z</time>
      </trkpt>
      <trkpt lat="59.4730193421" lon="17.8047448921">
        <ele>117.8</ele>
        <time>2012-11-11T14:39:06Z</time>
      </trkpt>
      <trkpt lat="59.4730732377" lon="17.804762494">
        <ele>118.2</ele>
        <time>2012-11-11T14:39:07Z</time>
      </trkpt>
      <trkpt lat="59.4731335874" lon="17.8047724685">
        <ele>118.6</ele>
        <time>2012-11-11T14:39:08Z</time>
      </trkpt>
      <trkpt lat="59.4733198332" lon="17.8047823592">
        <ele>118.6</ele>
        <time>2012-11-11T14:39:11Z</time>
      </trkpt>
      <trkpt lat="59.4736152114" lon="17.8047304752">
        <ele>119.2</ele>
        <time>2012-11-11T14:39:16Z</time>
      </trkpt>
      <trkpt lat="59.4736749743" lon="17.8047221771">
        <ele>119.6</ele>
        <time>2012-11-11T14:39:17Z</time>
      </trkpt>
      <trkpt lat="59.4737375871" lon="17.8047168965">
        <ele>120</ele>
        <time>2012-11-11T14:39:18Z</time>
      </trkpt>
      <trkpt lat="59.4737967633" lon="17.8047169803">
        <ele>120.4</ele>
        <time>2012-11-11T14:39:19Z</time>
      </trkpt>
      <trkpt lat="59.4738565263" lon="17.8047224286">
        <ele>120.8</ele>
        <time>2012-11-11T14:39:20Z</time>
      </trkpt>
      <trkpt lat="59.4742159422" lon="17.8047964407">
        <ele>120.8</ele>
        <time>2012-11-11T14:39:26Z</time>
      </trkpt>
      <trkpt lat="59.4745078837" lon="17.8048416192">
        <ele>120.8</ele>
        <time>2012-11-11T14:39:31Z</time>
      </trkpt>
      <trkpt lat="59.4746311815" lon="17.8047979495">
        <ele>120.8</ele>
        <time>2012-11-11T14:39:33Z</time>
      </trkpt>
      <trkpt lat="59.4748007473" lon="17.8046802676">
        <ele>121.2</ele>
        <time>2012-11-11T14:39:36Z</time>
      </trkpt>
      <trkpt lat="59.4748544753" lon="17.8046480811">
        <ele>121.8</ele>
        <time>2012-11-11T14:39:37Z</time>
      </trkpt>
      <trkpt lat="59.4749071136" lon="17.8046202532">
        <ele>122.2</ele>
        <time>2012-11-11T14:39:38Z</time>
      </trkpt>
      <trkpt lat="59.4749513701" lon="17.8046178225">
        <ele>122.6</ele>
        <time>2012-11-11T14:39:39Z</time>
      </trkpt>
      <trkpt lat="59.4749923576" lon="17.8046373523">
        <ele>123</ele>
        <time>2012-11-11T14:39:40Z</time>
      </trkpt>
      <trkpt lat="59.4750192635" lon="17.8047142143">
        <ele>123</ele>
        <time>2012-11-11T14:39:41Z</time>
      </trkpt>
      <trkpt lat="59.475016246" lon="17.8050297928">
        <ele>123</ele>
        <time>2012-11-11T14:39:44Z</time>
      </trkpt>
      <trkpt lat="59.4750063553" lon="17.8051405177">
        <ele>123</ele>
        <time>2012-11-11T14:39:45Z</time>
      </trkpt>
      <trkpt lat="59.4749572374" lon="17.8056585192">
        <ele>123</ele>
        <time>2012-11-11T14:39:50Z</time>
      </trkpt>
      <trkpt lat="59.4749450836" lon="17.8059312662">
        <ele>123</ele>
        <time>2012-11-11T14:39:53Z</time>
      </trkpt>
      <trkpt lat="59.4750091214" lon="17.8060814698">
        <ele>123</ele>
        <time>2012-11-11T14:39:55Z</time>
      </trkpt>
      <trkpt lat="59.4751121349" lon="17.8061443341">
        <ele>123.4</ele>
        <time>2012-11-11T14:39:57Z</time>
      </trkpt>
      <trkpt lat="59.4751637674" lon="17.8061635286">
        <ele>123.8</ele>
        <time>2012-11-11T14:39:58Z</time>
      </trkpt>
      <trkpt lat="59.4752163219" lon="17.8061872494">
        <ele>124.2</ele>
        <time>2012-11-11T14:39:59Z</time>
      </trkpt>
      <trkpt lat="59.4752703014" lon="17.806212898">
        <ele>124.6</ele>
        <time>2012-11-11T14:40:00Z</time>
      </trkpt>
      <trkpt lat="59.4753238617" lon="17.8062372055">
        <ele>125</ele>
        <time>2012-11-11T14:40:01Z</time>
      </trkpt>
      <trkpt lat="59.4755363429" lon="17.806326808">
        <ele>125</ele>
        <time>2012-11-11T14:40:05Z</time>
      </trkpt>
      <trkpt lat="59.4759010393" lon="17.8064550511">
        <ele>125</ele>
        <time>2012-11-11T14:40:11Z</time>
      </trkpt>
      <trkpt lat="59.4759684298" lon="17.8064689651">
        <ele>125</ele>
        <time>2012-11-11T14:40:12Z</time>
      </trkpt>
      <trkpt lat="59.4760296177" lon="17.8064955357">
        <ele>125</ele>
        <time>2012-11-11T14:40:13Z</time>
      </trkpt>
      <trkpt lat="59.476324912" lon="17.8066035784">
        <ele>125</ele>
        <time>2012-11-11T14:40:18Z</time>
      </trkpt>
      <trkpt lat="59.4764970762" lon="17.8066643472">
        <ele>125</ele>
        <time>2012-11-11T14:40:21Z</time>
      </trkpt>
      <trkpt lat="59.4766019338" lon="17.8067212603">
        <ele>125</ele>
        <time>2012-11-11T14:40:23Z</time>
      </trkpt>
      <trkpt lat="59.4766545721" lon="17.8067470765">
        <ele>125</ele>
        <time>2012-11-11T14:40:24Z</time>
      </trkpt>
      <trkpt lat="59.4767057856" lon="17.8067858009">
        <ele>125</ele>
        <time>2012-11-11T14:40:25Z</time>
      </trkpt>
      <trkpt lat="59.4768201147" lon="17.8068572985">
        <ele>125.4</ele>
        <time>2012-11-11T14:40:27Z</time>
      </trkpt>
      <trkpt lat="59.4768767763" lon="17.8068927539">
        <ele>126</ele>
        <time>2012-11-11T14:40:28Z</time>
      </trkpt>
      <trkpt lat="59.4769269001" lon="17.8069262815">
        <ele>126.4</ele>
        <time>2012-11-11T14:40:29Z</time>
      </trkpt>
      <trkpt lat="59.4769754313" lon="17.8069616532">
        <ele>126.8</ele>
        <time>2012-11-11T14:40:30Z</time>
      </trkpt>
      <trkpt lat="59.4770279858" lon="17.8070048199">
        <ele>127.4</ele>
        <time>2012-11-11T14:40:31Z</time>
      </trkpt>
      <trkpt lat="59.47720015" lon="17.8071567">
        <ele>127.4</ele>
        <time>2012-11-11T14:40:34Z</time>
      </trkpt>
      <trkpt lat="59.4774790158" lon="17.8074192211">
        <ele>127.8</ele>
        <time>2012-11-11T14:40:39Z</time>
      </trkpt>
      <trkpt lat="59.4775364318" lon="17.8074693448">
        <ele>128.2</ele>
        <time>2012-11-11T14:40:40Z</time>
      </trkpt>
      <trkpt lat="59.4775889864" lon="17.8075280181">
        <ele>128.6</ele>
        <time>2012-11-11T14:40:41Z</time>
      </trkpt>
      <trkpt lat="59.4776387748" lon="17.8075871943">
        <ele>129</ele>
        <time>2012-11-11T14:40:42Z</time>
      </trkpt>
      <trkpt lat="59.4776899044" lon="17.8076440236">
        <ele>129.4</ele>
        <time>2012-11-11T14:40:43Z</time>
      </trkpt>
      <trkpt lat="59.4777889785" lon="17.8077566764">
        <ele>129.4</ele>
        <time>2012-11-11T14:40:45Z</time>
      </trkpt>
      <trkpt lat="59.4781000308" lon="17.8081220434">
        <ele>129.8</ele>
        <time>2012-11-11T14:40:52Z</time>
      </trkpt>
      <trkpt lat="59.4781442034" lon="17.8081812196">
        <ele>130.2</ele>
        <time>2012-11-11T14:40:53Z</time>
      </trkpt>
      <trkpt lat="59.4781821734" lon="17.8082358696">
        <ele>130.6</ele>
        <time>2012-11-11T14:40:54Z</time>
      </trkpt>
      <trkpt lat="59.4782213169" lon="17.8082915254">
        <ele>131</ele>
        <time>2012-11-11T14:40:55Z</time>
      </trkpt>
      <trkpt lat="59.4782571914" lon="17.8083437446">
        <ele>131.4</ele>
        <time>2012-11-11T14:40:56Z</time>
      </trkpt>
      <trkpt lat="59.4782904676" lon="17.8084035076">
        <ele>131.4</ele>
        <time>2012-11-11T14:40:57Z</time>
      </trkpt>
      <trkpt lat="59.4783526613" lon="17.8085309125">
        <ele>131.4</ele>
        <time>2012-11-11T14:40:59Z</time>
      </trkpt>
      <trkpt lat="59.4784048805" lon="17.8086489296">
        <ele>131.8</ele>
        <time>2012-11-11T14:41:01Z</time>
      </trkpt>
      <trkpt lat="59.4784305291" lon="17.8087130512">
        <ele>132.2</ele>
        <time>2012-11-11T14:41:02Z</time>
      </trkpt>
      <trkpt lat="59.4784588599" lon="17.8087831238">
        <ele>132.6</ele>
        <time>2012-11-11T14:41:03Z</time>
      </trkpt>
      <trkpt lat="59.4784881966" lon="17.8088538671">
        <ele>133.2</ele>
        <time>2012-11-11T14:41:04Z</time>
      </trkpt>
      <trkpt lat="59.4785164436" lon="17.8089288013">
        <ele>133.6</ele>
        <time>2012-11-11T14:41:05Z</time>
      </trkpt>
      <trkpt lat="59.4786219717" lon="17.8091919091">
        <ele>134</ele>
        <time>2012-11-11T14:41:09Z</time>
      </trkpt>
      <trkpt lat="59.4786436808" lon="17.8092543543">
        <ele>134.4</ele>
        <time>2012-11-11T14:41:10Z</time>
      </trkpt>
      <trkpt lat="59.4786689942" lon="17.8093264386">
        <ele>135</ele>
        <time>2012-11-11T14:41:11Z</time>
      </trkpt>
      <trkpt lat="59.4787008454" lon="17.8093986906">
        <ele>135.4</ele>
        <time>2012-11-11T14:41:12Z</time>
      </trkpt>
      <trkpt lat="59.4787329481" lon="17.8094815876">
        <ele>135.8</ele>
        <time>2012-11-11T14:41:13Z</time>
      </trkpt>
      <trkpt lat="59.4787671462" lon="17.8095530014">
        <ele>135.8</ele>
        <time>2012-11-11T14:41:14Z</time>
      </trkpt>
      <trkpt lat="59.478879296" lon="17.8097485511">
        <ele>135.8</ele>
        <time>2012-11-11T14:41:17Z</time>
      </trkpt>
      <trkpt lat="59.478954817" lon="17.80986573">
        <ele>136.2</ele>
        <time>2012-11-11T14:41:19Z</time>
      </trkpt>
      <trkpt lat="59.4789910268" lon="17.8099235652">
        <ele>136.6</ele>
        <time>2012-11-11T14:41:20Z</time>
      </trkpt>
      <trkpt lat="59.4790269013" lon="17.8099785504">
        <ele>137.2</ele>
        <time>2012-11-11T14:41:21Z</time>
      </trkpt>
      <trkpt lat="59.4790598422" lon="17.8100316078">
        <ele>137.6</ele>
        <time>2012-11-11T14:41:22Z</time>
      </trkpt>
      <trkpt lat="59.4790922801" lon="17.8100898621">
        <ele>138</ele>
        <time>2012-11-11T14:41:23Z</time>
      </trkpt>
      <trkpt lat="59.4791229579" lon="17.8101619464">
        <ele>138</ele>
        <time>2012-11-11T14:41:24Z</time>
      </trkpt>
      <trkpt lat="59.4791558149" lon="17.8102123216">
        <ele>138</ele>
        <time>2012-11-11T14:41:25Z</time>
      </trkpt>
      <trkpt lat="59.4792828007" lon="17.8103826418">
        <ele>138.4</ele>
        <time>2012-11-11T14:41:28Z</time>
      </trkpt>
      <trkpt lat="59.4793190943" lon="17.8104317598">
        <ele>138.8</ele>
        <time>2012-11-11T14:41:29Z</time>
      </trkpt>
      <trkpt lat="59.4793604171" lon="17.8104833084">
        <ele>139.2</ele>
        <time>2012-11-11T14:41:30Z</time>
      </trkpt>
      <trkpt lat="59.4794022428" lon="17.8105445801">
        <ele>139.8</ele>
        <time>2012-11-11T14:41:31Z</time>
      </trkpt>
      <trkpt lat="59.479433172" lon="17.8106172512">
        <ele>140.2</ele>
        <time>2012-11-11T14:41:32Z</time>
      </trkpt>
      <trkpt lat="59.4794666158" lon="17.8108042514">
        <ele>140.6</ele>
        <time>2012-11-11T14:41:34Z</time>
      </trkpt>
      <trkpt lat="59.4794730698" lon="17.8108764195">
        <ele>141.2</ele>
        <time>2012-11-11T14:41:35Z</time>
      </trkpt>
      <trkpt lat="59.4794722316" lon="17.8109460731">
        <ele>141.6</ele>
        <time>2012-11-11T14:41:36Z</time>
      </trkpt>
      <trkpt lat="59.4794687951" lon="17.8109946043">
        <ele>142</ele>
        <time>2012-11-11T14:41:37Z</time>
      </trkpt>
      <trkpt lat="59.4794599103" lon="17.8110453148">
        <ele>142.6</ele>
        <time>2012-11-11T14:41:38Z</time>
      </trkpt>
      <trkpt lat="59.4794433979" lon="17.8111745637">
        <ele>142.6</ele>
        <time>2012-11-11T14:41:40Z</time>
      </trkpt>
      <trkpt lat="59.47944893" lon="17.81139023">
        <ele>142.6</ele>
        <time>2012-11-11T14:41:43Z</time>
      </trkpt>
      <trkpt lat="59.4794512769" lon="17.8115109294">
        <ele>143</ele>
        <time>2012-11-11T14:41:45Z</time>
      </trkpt>
      <trkpt lat="59.479450774" lon="17.8115755538">
        <ele>143.4</ele>
        <time>2012-11-11T14:41:46Z</time>
      </trkpt>
      <trkpt lat="59.4794512769" lon="17.8116386695">
        <ele>143.8</ele>
        <time>2012-11-11T14:41:47Z</time>
      </trkpt>
      <trkpt lat="59.4794581501" lon="17.8116991869">
        <ele>144.2</ele>
        <time>2012-11-11T14:41:48Z</time>
      </trkpt>
      <trkpt lat="59.4794603293" lon="17.8117561838">
        <ele>144.6</ele>
        <time>2012-11-11T14:41:49Z</time>
      </trkpt>
      <trkpt lat="59.4794752491" lon="17.8120637995">
        <ele>144.6</ele>
        <time>2012-11-11T14:41:54Z</time>
      </trkpt>
      <trkpt lat="59.4794925997" lon="17.812251135">
        <ele>145.2</ele>
        <time>2012-11-11T14:41:57Z</time>
      </trkpt>
      <trkpt lat="59.4795028256" lon="17.8123150889">
        <ele>146</ele>
        <time>2012-11-11T14:41:58Z</time>
      </trkpt>
      <trkpt lat="59.4795223554" lon="17.8123828984">
        <ele>146.4</ele>
        <time>2012-11-11T14:41:59Z</time>
      </trkpt>
      <trkpt lat="59.4795350121" lon="17.8124377999">
        <ele>146.8</ele>
        <time>2012-11-11T14:42:00Z</time>
      </trkpt>
      <trkpt lat="59.4796330803" lon="17.8126835572">
        <ele>146.8</ele>
        <time>2012-11-11T14:42:05Z</time>
      </trkpt>
      <trkpt lat="59.4797822781" lon="17.8128829626">
        <ele>146.8</ele>
        <time>2012-11-11T14:42:10Z</time>
      </trkpt>
      <trkpt lat="59.4799607288" lon="17.8131690368">
        <ele>146.8</ele>
        <time>2012-11-11T14:42:16Z</time>
      </trkpt>
      <trkpt lat="59.4800538517" lon="17.8134672648">
        <ele>147.4</ele>
        <time>2012-11-11T14:42:21Z</time>
      </trkpt>
      <trkpt lat="59.4800643291" lon="17.8135344039">
        <ele>148.2</ele>
        <time>2012-11-11T14:42:22Z</time>
      </trkpt>
      <trkpt lat="59.480064832" lon="17.8135846114">
        <ele>148.6</ele>
        <time>2012-11-11T14:42:23Z</time>
      </trkpt>
      <trkpt lat="59.4800601381" lon="17.8136398482">
        <ele>149</ele>
        <time>2012-11-11T14:42:24Z</time>
      </trkpt>
      <trkpt lat="59.4800593837" lon="17.8136986891">
        <ele>149</ele>
        <time>2012-11-11T14:42:25Z</time>
      </trkpt>
      <trkpt lat="59.4800466433" lon="17.8139879485">
        <ele>149</ele>
        <time>2012-11-11T14:42:30Z</time>
      </trkpt>
      <trkpt lat="59.4800441287" lon="17.8140559257">
        <ele>149.6</ele>
        <time>2012-11-11T14:42:31Z</time>
      </trkpt>
      <trkpt lat="59.4800385128" lon="17.8141191252">
        <ele>150</ele>
        <time>2012-11-11T14:42:32Z</time>
      </trkpt>
      <trkpt lat="59.4800319749" lon="17.8141787205">
        <ele>150.4</ele>
        <time>2012-11-11T14:42:33Z</time>
      </trkpt>
      <trkpt lat="59.4800246827" lon="17.8142360527">
        <ele>150.8</ele>
        <time>2012-11-11T14:42:34Z</time>
      </trkpt>
      <trkpt lat="59.4800175581" lon="17.8142955642">
        <ele>151.2</ele>
        <time>2012-11-11T14:42:35Z</time>
      </trkpt>
      <trkpt lat="59.4800105173" lon="17.814500334">
        <ele>151.2</ele>
        <time>2012-11-11T14:42:38Z</time>
      </trkpt>
      <trkpt lat="59.4800106849" lon="17.8147600053">
        <ele>151.6</ele>
        <time>2012-11-11T14:42:41Z</time>
      </trkpt>
      <trkpt lat="59.4800095953" lon="17.8148390466">
        <ele>152</ele>
        <time>2012-11-11T14:42:42Z</time>
      </trkpt>
      <trkpt lat="59.4800091762" lon="17.8149144837">
        <ele>152.4</ele>
        <time>2012-11-11T14:42:43Z</time>
      </trkpt>
      <trkpt lat="59.4800099305" lon="17.8149930221">
        <ele>152.8</ele>
        <time>2012-11-11T14:42:44Z</time>
      </trkpt>
      <trkpt lat="59.4800060749" lon="17.8150618375">
        <ele>153.2</ele>
        <time>2012-11-11T14:42:45Z</time>
      </trkpt>
      <trkpt lat="59.4799810968" lon="17.8155817668">
        <ele>153.2</ele>
        <time>2012-11-11T14:42:52Z</time>
      </trkpt>
      <trkpt lat="59.4799664285" lon="17.8157458844">
        <ele>153.6</ele>
        <time>2012-11-11T14:42:54Z</time>
      </trkpt>
      <trkpt lat="59.4799620699" lon="17.8158317988">
        <ele>154</ele>
        <time>2012-11-11T14:42:55Z</time>
      </trkpt>
      <trkpt lat="59.4799551967" lon="17.8159100858">
        <ele>154.4</ele>
        <time>2012-11-11T14:42:56Z</time>
      </trkpt>
      <trkpt lat="59.4799522631" lon="17.8159930666">
        <ele>154.8</ele>
        <time>2012-11-11T14:42:57Z</time>
      </trkpt>
      <trkpt lat="59.4799558673" lon="17.8160745387">
        <ele>155.2</ele>
        <time>2012-11-11T14:42:58Z</time>
      </trkpt>
      <trkpt lat="59.4799873832" lon="17.8164571724">
        <ele>155.2</ele>
        <time>2012-11-11T14:43:02Z</time>
      </trkpt>
      <trkpt lat="59.4800280354" lon="17.8168301669">
        <ele>155.2</ele>
        <time>2012-11-11T14:43:06Z</time>
      </trkpt>
      <trkpt lat="59.4800476491" lon="17.8170216934">
        <ele>155.2</ele>
        <time>2012-11-11T14:43:08Z</time>
      </trkpt>
      <trkpt lat="59.4800616469" lon="17.8171155706">
        <ele>155.2</ele>
        <time>2012-11-11T14:43:09Z</time>
      </trkpt>
      <trkpt lat="59.4801575358" lon="17.8174363459">
        <ele>155.2</ele>
        <time>2012-11-11T14:43:13Z</time>
      </trkpt>
      <trkpt lat="59.4801898061" lon="17.8175162255">
        <ele>155.2</ele>
        <time>2012-11-11T14:43:14Z</time>
      </trkpt>
      <trkpt lat="59.4802328053" lon="17.8176020561">
        <ele>155.2</ele>
        <time>2012-11-11T14:43:15Z</time>
      </trkpt>
      <trkpt lat="59.480374627" lon="17.8178297923">
        <ele>155.2</ele>
        <time>2012-11-11T14:43:18Z</time>
      </trkpt>
      <trkpt lat="59.4805120063" lon="17.8180328858">
        <ele>155.2</ele>
        <time>2012-11-11T14:43:21Z</time>
      </trkpt>
      <trkpt lat="59.4806140141" lon="17.8181627214">
        <ele>155.2</ele>
        <time>2012-11-11T14:43:23Z</time>
      </trkpt>
      <trkpt lat="59.4808376432" lon="17.8184599436">
        <ele>155.2</ele>
        <time>2012-11-11T14:43:28Z</time>
      </trkpt>
      <trkpt lat="59.4809649642" lon="17.8186049504">
        <ele>155.2</ele>
        <time>2012-11-11T14:43:31Z</time>
      </trkpt>
      <trkpt lat="59.4810615237" lon="17.8186808066">
        <ele>155.2</ele>
        <time>2012-11-11T14:43:33Z</time>
      </trkpt>
      <trkpt lat="59.4813445805" lon="17.818792705">
        <ele>155.2</ele>
        <time>2012-11-11T14:43:38Z</time>
      </trkpt>
      <trkpt lat="59.4814028347" lon="17.8188329381">
        <ele>155.2</ele>
        <time>2012-11-11T14:43:39Z</time>
      </trkpt>
      <trkpt lat="59.4815546309" lon="17.8189939544">
        <ele>155.2</ele>
        <time>2012-11-11T14:43:42Z</time>
      </trkpt>
      <trkpt lat="59.4817007274" lon="17.8191874087">
        <ele>155.2</ele>
        <time>2012-11-11T14:43:45Z</time>
      </trkpt>
      <trkpt lat="59.4818013102" lon="17.8192952837">
        <ele>155.2</ele>
        <time>2012-11-11T14:43:47Z</time>
      </trkpt>
      <trkpt lat="59.4820299684" lon="17.8194914202">
        <ele>155.2</ele>
        <time>2012-11-11T14:43:52Z</time>
      </trkpt>
      <trkpt lat="59.4823054815" lon="17.8198299651">
        <ele>155.2</ele>
        <time>2012-11-11T14:43:58Z</time>
      </trkpt>
      <trkpt lat="59.4824765561" lon="17.8202534187">
        <ele>155.2</ele>
        <time>2012-11-11T14:44:03Z</time>
      </trkpt>
      <trkpt lat="59.482551155" lon="17.8204254153">
        <ele>155.2</ele>
        <time>2012-11-11T14:44:05Z</time>
      </trkpt>
      <trkpt lat="59.4826749556" lon="17.8207017665">
        <ele>155.2</ele>
        <time>2012-11-11T14:44:08Z</time>
      </trkpt>
      <trkpt lat="59.4827216428" lon="17.8207781257">
        <ele>155.2</ele>
        <time>2012-11-11T14:44:09Z</time>
      </trkpt>
      <trkpt lat="59.4827712637" lon="17.8208576699">
        <ele>155.2</ele>
        <time>2012-11-11T14:44:10Z</time>
      </trkpt>
      <trkpt lat="59.4829667296" lon="17.8212704785">
        <ele>155.2</ele>
        <time>2012-11-11T14:44:15Z</time>
      </trkpt>
      <trkpt lat="59.4830327789" lon="17.8214260465">
        <ele>155.2</ele>
        <time>2012-11-11T14:44:17Z</time>
      </trkpt>
      <trkpt lat="59.4832714955" lon="17.8219057427">
        <ele>155.2</ele>
        <time>2012-11-11T14:44:23Z</time>
      </trkpt>
      <trkpt lat="59.4834365351" lon="17.822327017">
        <ele>155.2</ele>
        <time>2012-11-11T14:44:28Z</time>
      </trkpt>
      <trkpt lat="59.4835273949" lon="17.8225870235">
        <ele>155.2</ele>
        <time>2012-11-11T14:44:31Z</time>
      </trkpt>
      <trkpt lat="59.4835681309" lon="17.8226607004">
        <ele>155.2</ele>
        <time>2012-11-11T14:44:32Z</time>
      </trkpt>
      <trkpt lat="59.4836088669" lon="17.8227501353">
        <ele>155.2</ele>
        <time>2012-11-11T14:44:33Z</time>
      </trkpt>
      <trkpt lat="59.4838526126" lon="17.8232965513">
        <ele>155.2</ele>
        <time>2012-11-11T14:44:39Z</time>
      </trkpt>
      <trkpt lat="59.483959398" lon="17.8234453301">
        <ele>155.2</ele>
        <time>2012-11-11T14:44:41Z</time>
      </trkpt>
      <trkpt lat="59.4840344998" lon="17.8235382853">
        <ele>155.2</ele>
        <time>2012-11-11T14:44:43Z</time>
      </trkpt>
      <trkpt lat="59.4840711287" lon="17.8235950308">
        <ele>155.2</ele>
        <time>2012-11-11T14:44:44Z</time>
      </trkpt>
      <trkpt lat="59.4842092624" lon="17.8237452344">
        <ele>155.2</ele>
        <time>2012-11-11T14:44:47Z</time>
      </trkpt>
      <trkpt lat="59.4843939995" lon="17.823932989">
        <ele>154.4</ele>
        <time>2012-11-11T14:44:51Z</time>
      </trkpt>
      <trkpt lat="59.4844391779" lon="17.8239598111">
        <ele>154</ele>
        <time>2012-11-11T14:44:52Z</time>
      </trkpt>
      <trkpt lat="59.4844897208" lon="17.8239925843">
        <ele>153.6</ele>
        <time>2012-11-11T14:44:53Z</time>
      </trkpt>
      <trkpt lat="59.4845411019" lon="17.8240331527">
        <ele>153.2</ele>
        <time>2012-11-11T14:44:54Z</time>
      </trkpt>
      <trkpt lat="59.4846493122" lon="17.8241412792">
        <ele>153.2</ele>
        <time>2012-11-11T14:44:56Z</time>
      </trkpt>
      <trkpt lat="59.4847047165" lon="17.8242084182">
        <ele>153.2</ele>
        <time>2012-11-11T14:44:57Z</time>
      </trkpt>
      <trkpt lat="59.4847602047" lon="17.8242927401">
        <ele>153.2</ele>
        <time>2012-11-11T14:44:58Z</time>
      </trkpt>
      <trkpt lat="59.4849268369" lon="17.824534055">
        <ele>153.2</ele>
        <time>2012-11-11T14:45:01Z</time>
      </trkpt>
      <trkpt lat="59.4849844205" lon="17.8246017808">
        <ele>153.2</ele>
        <time>2012-11-11T14:45:02Z</time>
      </trkpt>
      <trkpt lat="59.4850906192" lon="17.824748045">
        <ele>152.8</ele>
        <time>2012-11-11T14:45:04Z</time>
      </trkpt>
      <trkpt lat="59.4851435928" lon="17.8248042037">
        <ele>152.4</ele>
        <time>2012-11-11T14:45:05Z</time>
      </trkpt>
      <trkpt lat="59.4851905315" lon="17.8248627932">
        <ele>152</ele>
        <time>2012-11-11T14:45:06Z</time>
      </trkpt>
      <trkpt lat="59.4852360452" lon="17.8249211312">
        <ele>151.6</ele>
        <time>2012-11-11T14:45:07Z</time>
      </trkpt>
      <trkpt lat="59.4852725903" lon="17.8249933832">
        <ele>151</ele>
        <time>2012-11-11T14:45:08Z</time>
      </trkpt>
      <trkpt lat="59.485369485" lon="17.8252554852">
        <ele>151</ele>
        <time>2012-11-11T14:45:11Z</time>
      </trkpt>
      <trkpt lat="59.4854537231" lon="17.8254726602">
        <ele>151</ele>
        <time>2012-11-11T14:45:14Z</time>
      </trkpt>
      <trkpt lat="59.4855081217" lon="17.8256311619">
        <ele>151</ele>
        <time>2012-11-11T14:45:16Z</time>
      </trkpt>
      <trkpt lat="59.4856976364" lon="17.8260949325">
        <ele>151</ele>
        <time>2012-11-11T14:45:22Z</time>
      </trkpt>
      <trkpt lat="59.4859213493" lon="17.8264201502">
        <ele>151</ele>
        <time>2012-11-11T14:45:27Z</time>
      </trkpt>
      <trkpt lat="59.4859528653" lon="17.8264868701">
        <ele>151</ele>
        <time>2012-11-11T14:45:28Z</time>
      </trkpt>
      <trkpt lat="59.4860848802" lon="17.8267747046">
        <ele>151</ele>
        <time>2012-11-11T14:45:32Z</time>
      </trkpt>
      <trkpt lat="59.4862676894" lon="17.8272573344">
        <ele>151</ele>
        <time>2012-11-11T14:45:38Z</time>
      </trkpt>
      <trkpt lat="59.4864200724" lon="17.8277466697">
        <ele>151</ele>
        <time>2012-11-11T14:45:43Z</time>
      </trkpt>
      <trkpt lat="59.4864570366" lon="17.827845157">
        <ele>151</ele>
        <time>2012-11-11T14:45:44Z</time>
      </trkpt>
      <trkpt lat="59.4865407717" lon="17.8281088516">
        <ele>151</ele>
        <time>2012-11-11T14:45:47Z</time>
      </trkpt>
      <trkpt lat="59.4866788216" lon="17.8285320537">
        <ele>150.6</ele>
        <time>2012-11-11T14:45:51Z</time>
      </trkpt>
      <trkpt lat="59.4867141094" lon="17.8286336423">
        <ele>150.2</ele>
        <time>2012-11-11T14:45:52Z</time>
      </trkpt>
      <trkpt lat="59.4867468827" lon="17.8287396734">
        <ele>149.8</ele>
        <time>2012-11-11T14:45:53Z</time>
      </trkpt>
      <trkpt lat="59.486779153" lon="17.8288486381">
        <ele>149.4</ele>
        <time>2012-11-11T14:45:54Z</time>
      </trkpt>
      <trkpt lat="59.4868082382" lon="17.8289559264">
        <ele>149</ele>
        <time>2012-11-11T14:45:55Z</time>
      </trkpt>
      <trkpt lat="59.4868855193" lon="17.8292781266">
        <ele>149</ele>
        <time>2012-11-11T14:45:58Z</time>
      </trkpt>
      <trkpt lat="59.4869031213" lon="17.8293721715">
        <ele>149</ele>
        <time>2012-11-11T14:45:59Z</time>
      </trkpt>
      <trkpt lat="59.4869401693" lon="17.8295579983">
        <ele>149</ele>
        <time>2012-11-11T14:46:01Z</time>
      </trkpt>
      <trkpt lat="59.4869989264" lon="17.8299258799">
        <ele>149</ele>
        <time>2012-11-11T14:46:05Z</time>
      </trkpt>
      <trkpt lat="59.4870539955" lon="17.8302888161">
        <ele>149</ele>
        <time>2012-11-11T14:46:09Z</time>
      </trkpt>
      <trkpt lat="59.4870727709" lon="17.830381017">
        <ele>149.4</ele>
        <time>2012-11-11T14:46:10Z</time>
      </trkpt>
      <trkpt lat="59.4870908758" lon="17.8304603098">
        <ele>149.8</ele>
        <time>2012-11-11T14:46:11Z</time>
      </trkpt>
      <trkpt lat="59.4871090646" lon="17.8305420333">
        <ele>150.2</ele>
        <time>2012-11-11T14:46:12Z</time>
      </trkpt>
      <trkpt lat="59.4871119144" lon="17.8306270258">
        <ele>150.6</ele>
        <time>2012-11-11T14:46:13Z</time>
      </trkpt>
      <trkpt lat="59.4871240682" lon="17.8307082464">
        <ele>151</ele>
        <time>2012-11-11T14:46:14Z</time>
      </trkpt>
      <trkpt lat="59.4871624573" lon="17.8308650718">
        <ele>151</ele>
        <time>2012-11-11T14:46:16Z</time>
      </trkpt>
      <trkpt lat="59.4871848369" lon="17.8309511539">
        <ele>151</ele>
        <time>2012-11-11T14:46:17Z</time>
      </trkpt>
      <trkpt lat="59.4872699132" lon="17.8313541556">
        <ele>151</ele>
        <time>2012-11-11T14:46:22Z</time>
      </trkpt>
      <trkpt lat="59.4873678976" lon="17.8317263958">
        <ele>151</ele>
        <time>2012-11-11T14:46:26Z</time>
      </trkpt>
      <trkpt lat="59.4874912792" lon="17.8321210156">
        <ele>151</ele>
        <time>2012-11-11T14:46:30Z</time>
      </trkpt>
      <trkpt lat="59.4875132398" lon="17.8322247836">
        <ele>151</ele>
        <time>2012-11-11T14:46:31Z</time>
      </trkpt>
      <trkpt lat="59.4875940413" lon="17.8325055772">
        <ele>151</ele>
        <time>2012-11-11T14:46:34Z</time>
      </trkpt>
      <trkpt lat="59.4876745075" lon="17.8326482372">
        <ele>151</ele>
        <time>2012-11-11T14:46:36Z</time>
      </trkpt>
      <trkpt lat="59.4879272218" lon="17.8331251673">
        <ele>151</ele>
        <time>2012-11-11T14:46:42Z</time>
      </trkpt>
      <trkpt lat="59.4882426327" lon="17.8336487846">
        <ele>151</ele>
        <time>2012-11-11T14:46:49Z</time>
      </trkpt>
      <trkpt lat="59.4882820276" lon="17.8337253951">
        <ele>151</ele>
        <time>2012-11-11T14:46:50Z</time>
      </trkpt>
      <trkpt lat="59.4884097678" lon="17.8340048477">
        <ele>151</ele>
        <time>2012-11-11T14:46:53Z</time>
      </trkpt>
      <trkpt lat="59.488447654" lon="17.8341103758">
        <ele>151</ele>
        <time>2012-11-11T14:46:54Z</time>
      </trkpt>
      <trkpt lat="59.4886758093" lon="17.8348325603">
        <ele>151</ele>
        <time>2012-11-11T14:47:01Z</time>
      </trkpt>
      <trkpt lat="59.4887526713" lon="17.835005898">
        <ele>151</ele>
        <time>2012-11-11T14:47:03Z</time>
      </trkpt>
      <trkpt lat="59.488838502" lon="17.8350795749">
        <ele>151</ele>
        <time>2012-11-11T14:47:05Z</time>
      </trkpt>
      <trkpt lat="59.4889598719" lon="17.8349483143">
        <ele>151</ele>
        <time>2012-11-11T14:47:08Z</time>
      </trkpt>
      <trkpt lat="59.4890048827" lon="17.8348778226">
        <ele>151</ele>
        <time>2012-11-11T14:47:09Z</time>
      </trkpt>
      <trkpt lat="59.4890407572" lon="17.834805822">
        <ele>151</ele>
        <time>2012-11-11T14:47:10Z</time>
      </trkpt>
      <trkpt lat="59.4891166972" lon="17.8345427142">
        <ele>151</ele>
        <time>2012-11-11T14:47:13Z</time>
      </trkpt>
      <trkpt lat="59.4891098241" lon="17.8341685462">
        <ele>151</ele>
        <time>2012-11-11T14:47:17Z</time>
      </trkpt>
      <trkpt lat="59.4891064713" lon="17.8340833023">
        <ele>151</ele>
        <time>2012-11-11T14:47:18Z</time>
      </trkpt>
      <trkpt lat="59.4891135121" lon="17.833984312">
        <ele>151</ele>
        <time>2012-11-11T14:47:19Z</time>
      </trkpt>
      <trkpt lat="59.4891333772" lon="17.8336926219">
        <ele>151</ele>
        <time>2012-11-11T14:47:22Z</time>
      </trkpt>
      <trkpt lat="59.4891513145" lon="17.8336008401">
        <ele>151</ele>
        <time>2012-11-11T14:47:23Z</time>
      </trkpt>
      <trkpt lat="59.4892492989" lon="17.8332249119">
        <ele>151</ele>
        <time>2012-11-11T14:47:27Z</time>
      </trkpt>
      <trkpt lat="59.4893630413" lon="17.8328234189">
        <ele>151</ele>
        <time>2012-11-11T14:47:32Z</time>
      </trkpt>
      <trkpt lat="59.489529422" lon="17.8324344987">
        <ele>151</ele>
        <time>2012-11-11T14:47:38Z</time>
      </trkpt>
      <trkpt lat="59.4896499537" lon="17.8319879111">
        <ele>151</ele>
        <time>2012-11-11T14:47:44Z</time>
      </trkpt>
      <trkpt lat="59.4896630295" lon="17.8315362105">
        <ele>151</ele>
        <time>2012-11-11T14:47:50Z</time>
      </trkpt>
      <trkpt lat="59.4896466848" lon="17.8314290898">
        <ele>151</ele>
        <time>2012-11-11T14:47:51Z</time>
      </trkpt>
      <trkpt lat="59.4896482773" lon="17.8311273414">
        <ele>151</ele>
        <time>2012-11-11T14:47:54Z</time>
      </trkpt>
      <trkpt lat="59.489710974" lon="17.8306147882">
        <ele>151</ele>
        <time>2012-11-11T14:47:59Z</time>
      </trkpt>
      <trkpt lat="59.4897281568" lon="17.8305533489">
        <ele>151</ele>
        <time>2012-11-11T14:48:00Z</time>
      </trkpt>
      <trkpt lat="59.4899086192" lon="17.8300978764">
        <ele>151</ele>
        <time>2012-11-11T14:48:06Z</time>
      </trkpt>
      <trkpt lat="59.4901224414" lon="17.8295688947">
        <ele>151</ele>
        <time>2012-11-11T14:48:13Z</time>
      </trkpt>
      <trkpt lat="59.4903080167" lon="17.8292648832">
        <ele>151</ele>
        <time>2012-11-11T14:48:19Z</time>
      </trkpt>
      <trkpt lat="59.4904321526" lon="17.8290761228">
        <ele>151</ele>
        <time>2012-11-11T14:48:23Z</time>
      </trkpt>
      <trkpt lat="59.490477834" lon="17.8289070599">
        <ele>151</ele>
        <time>2012-11-11T14:48:25Z</time>
      </trkpt>
      <trkpt lat="59.4905339089" lon="17.8287146953">
        <ele>151</ele>
        <time>2012-11-11T14:48:27Z</time>
      </trkpt>
      <trkpt lat="59.4906957634" lon="17.8284598017">
        <ele>151</ele>
        <time>2012-11-11T14:48:31Z</time>
      </trkpt>
      <trkpt lat="59.4907783251" lon="17.8283696963">
        <ele>151</ele>
        <time>2012-11-11T14:48:33Z</time>
      </trkpt>
      <trkpt lat="59.490886284" lon="17.8283451373">
        <ele>151</ele>
        <time>2012-11-11T14:48:35Z</time>
      </trkpt>
      <trkpt lat="59.491042774" lon="17.8283567882">
        <ele>151</ele>
        <time>2012-11-11T14:48:38Z</time>
      </trkpt>
      <trkpt lat="59.4911390821" lon="17.8283980271">
        <ele>151</ele>
        <time>2012-11-11T14:48:40Z</time>
      </trkpt>
      <trkpt lat="59.4912669899" lon="17.8283421199">
        <ele>151</ele>
        <time>2012-11-11T14:48:43Z</time>
      </trkpt>
      <trkpt lat="59.4913078935" lon="17.8283100172">
        <ele>151</ele>
        <time>2012-11-11T14:48:44Z</time>
      </trkpt>
      <trkpt lat="59.4914451891" lon="17.8282063331">
        <ele>151</ele>
        <time>2012-11-11T14:48:47Z</time>
      </trkpt>
      <trkpt lat="59.4915676486" lon="17.8281174011">
        <ele>151</ele>
        <time>2012-11-11T14:48:50Z</time>
      </trkpt>
      <trkpt lat="59.4916507971" lon="17.8280902438">
        <ele>151</ele>
        <time>2012-11-11T14:48:52Z</time>
      </trkpt>
      <trkpt lat="59.4917495359" lon="17.8280458197">
        <ele>151</ele>
        <time>2012-11-11T14:48:54Z</time>
      </trkpt>
      <trkpt lat="59.491896722" lon="17.8279798541">
        <ele>151</ele>
        <time>2012-11-11T14:48:57Z</time>
      </trkpt>
      <trkpt lat="59.4919844805" lon="17.8279290598">
        <ele>151</ele>
        <time>2012-11-11T14:48:59Z</time>
      </trkpt>
      <trkpt lat="59.4921144" lon="17.827834512">
        <ele>151</ele>
        <time>2012-11-11T14:49:02Z</time>
      </trkpt>
      <trkpt lat="59.4923791842" lon="17.8276480985">
        <ele>151</ele>
        <time>2012-11-11T14:49:08Z</time>
      </trkpt>
      <trkpt lat="59.4925455649" lon="17.8274186021">
        <ele>151</ele>
        <time>2012-11-11T14:49:12Z</time>
      </trkpt>
      <trkpt lat="59.4925837025" lon="17.8273429136">
        <ele>151</ele>
        <time>2012-11-11T14:49:13Z</time>
      </trkpt>
      <trkpt lat="59.4928142886" lon="17.8269778818">
        <ele>151</ele>
        <time>2012-11-11T14:49:18Z</time>
      </trkpt>
      <trkpt lat="59.4928758956" lon="17.8269245729">
        <ele>151</ele>
        <time>2012-11-11T14:49:19Z</time>
      </trkpt>
      <trkpt lat="59.4931555158" lon="17.8266976749">
        <ele>151</ele>
        <time>2012-11-11T14:49:24Z</time>
      </trkpt>
      <trkpt lat="59.4932472976" lon="17.8266253391">
        <ele>151</ele>
        <time>2012-11-11T14:49:26Z</time>
      </trkpt>
      <trkpt lat="59.493392053" lon="17.8265388379">
        <ele>151</ele>
        <time>2012-11-11T14:49:29Z</time>
      </trkpt>
      <trkpt lat="59.4935842499" lon="17.826518889">
        <ele>151</ele>
        <time>2012-11-11T14:49:33Z</time>
      </trkpt>
      <trkpt lat="59.4936336193" lon="17.8265172126">
        <ele>151</ele>
        <time>2012-11-11T14:49:34Z</time>
      </trkpt>
      <trkpt lat="59.4938838191" lon="17.8265435318">
        <ele>151</ele>
        <time>2012-11-11T14:49:39Z</time>
      </trkpt>
      <trkpt lat="59.4939827255" lon="17.8265810827">
        <ele>151</ele>
        <time>2012-11-11T14:49:41Z</time>
      </trkpt>
      <trkpt lat="59.4941225356" lon="17.826704548">
        <ele>151</ele>
        <time>2012-11-11T14:49:44Z</time>
      </trkpt>
      <trkpt lat="59.4941724079" lon="17.8267306158">
        <ele>151</ele>
        <time>2012-11-11T14:49:45Z</time>
      </trkpt>
      <trkpt lat="59.4943677061" lon="17.8268250798">
        <ele>151</ele>
        <time>2012-11-11T14:49:49Z</time>
      </trkpt>
      <trkpt lat="59.4944314924" lon="17.8268733595">
        <ele>151</ele>
        <time>2012-11-11T14:49:50Z</time>
      </trkpt>
      <trkpt lat="59.4945925925" lon="17.8270223897">
        <ele>151</ele>
        <time>2012-11-11T14:49:53Z</time>
      </trkpt>
      <trkpt lat="59.4947382699" lon="17.8271321926">
        <ele>151</ele>
        <time>2012-11-11T14:49:56Z</time>
      </trkpt>
      <trkpt lat="59.4948332369" lon="17.8271954759">
        <ele>151</ele>
        <time>2012-11-11T14:49:58Z</time>
      </trkpt>
      <trkpt lat="59.4948846179" lon="17.8272075459">
        <ele>151</ele>
        <time>2012-11-11T14:49:59Z</time>
      </trkpt>
      <trkpt lat="59.4950303792" lon="17.827306117">
        <ele>151</ele>
        <time>2012-11-11T14:50:02Z</time>
      </trkpt>
      <trkpt lat="59.4950811735" lon="17.8273408181">
        <ele>151</ele>
        <time>2012-11-11T14:50:03Z</time>
      </trkpt>
      <trkpt lat="59.4951261004" lon="17.8273613537">
        <ele>151</ele>
        <time>2012-11-11T14:50:04Z</time>
      </trkpt>
      <trkpt lat="59.495291643" lon="17.8273724178">
        <ele>151</ele>
        <time>2012-11-11T14:50:07Z</time>
      </trkpt>
      <trkpt lat="59.4954762124" lon="17.8272736791">
        <ele>151</ele>
        <time>2012-11-11T14:50:11Z</time>
      </trkpt>
      <trkpt lat="59.4958006758" lon="17.8270167738">
        <ele>151</ele>
        <time>2012-11-11T14:50:17Z</time>
      </trkpt>
      <trkpt lat="59.495860774" lon="17.8269850064">
        <ele>151</ele>
        <time>2012-11-11T14:50:18Z</time>
      </trkpt>
      <trkpt lat="59.4961070342" lon="17.8268229005">
        <ele>151</ele>
        <time>2012-11-11T14:50:22Z</time>
      </trkpt>
      <trkpt lat="59.496429905" lon="17.8265008679">
        <ele>151</ele>
        <time>2012-11-11T14:50:28Z</time>
      </trkpt>
      <trkpt lat="59.496714722" lon="17.8262579604">
        <ele>151</ele>
        <time>2012-11-11T14:50:33Z</time>
      </trkpt>
      <trkpt lat="59.4970420352" lon="17.8259729758">
        <ele>151</ele>
        <time>2012-11-11T14:50:39Z</time>
      </trkpt>
      <trkpt lat="59.4970911531" lon="17.8259502609">
        <ele>151</ele>
        <time>2012-11-11T14:50:40Z</time>
      </trkpt>
      <trkpt lat="59.4972640717" lon="17.825807098">
        <ele>151</ele>
        <time>2012-11-11T14:50:43Z</time>
      </trkpt>
      <trkpt lat="59.4975959949" lon="17.8255175034">
        <ele>151</ele>
        <time>2012-11-11T14:50:49Z</time>
      </trkpt>
      <trkpt lat="59.4978174447" lon="17.8253194391">
        <ele>151</ele>
        <time>2012-11-11T14:50:53Z</time>
      </trkpt>
      <trkpt lat="59.4979351266" lon="17.8252105582">
        <ele>151</ele>
        <time>2012-11-11T14:50:55Z</time>
      </trkpt>
      <trkpt lat="59.4981564926" lon="17.8250061237">
        <ele>151</ele>
        <time>2012-11-11T14:50:59Z</time>
      </trkpt>
      <trkpt lat="59.4982624398" lon="17.8249071334">
        <ele>151</ele>
        <time>2012-11-11T14:51:01Z</time>
      </trkpt>
      <trkpt lat="59.4986281421" lon="17.824578982">
        <ele>151</ele>
        <time>2012-11-11T14:51:08Z</time>
      </trkpt>
      <trkpt lat="59.4986573949" lon="17.8244673351">
        <ele>151</ele>
        <time>2012-11-11T14:51:10Z</time>
      </trkpt>
      <trkpt lat="59.4986382842" lon="17.8244317959">
        <ele>151</ele>
        <time>2012-11-11T14:51:11Z</time>
      </trkpt>
      <trkpt lat="59.498553627" lon="17.8242966796">
        <ele>151</ele>
        <time>2012-11-11T14:51:14Z</time>
      </trkpt>
      <trkpt lat="59.4984796148" lon="17.8241023034">
        <ele>151</ele>
        <time>2012-11-11T14:51:17Z</time>
      </trkpt>
      <trkpt lat="59.4984472607" lon="17.8239251938">
        <ele>151</ele>
        <time>2012-11-11T14:51:19Z</time>
      </trkpt>
      <trkpt lat="59.498348019" lon="17.8234599984">
        <ele>151</ele>
        <time>2012-11-11T14:51:25Z</time>
      </trkpt>
      <trkpt lat="59.4982926985" lon="17.8230339464">
        <ele>151</ele>
        <time>2012-11-11T14:51:30Z</time>
      </trkpt>
      <trkpt lat="59.4982737554" lon="17.8229481996">
        <ele>151</ele>
        <time>2012-11-11T14:51:31Z</time>
      </trkpt>
      <trkpt lat="59.4982545608" lon="17.8227571761">
        <ele>151</ele>
        <time>2012-11-11T14:51:33Z</time>
      </trkpt>
      <trkpt lat="59.4982513757" lon="17.8225601176">
        <ele>151</ele>
        <time>2012-11-11T14:51:35Z</time>
      </trkpt>
      <trkpt lat="59.4983673812" lon="17.8223801582">
        <ele>151</ele>
        <time>2012-11-11T14:51:38Z</time>
      </trkpt>
      <trkpt lat="59.4985024136" lon="17.8222986023">
        <ele>151</ele>
        <time>2012-11-11T14:51:41Z</time>
      </trkpt>
      <trkpt lat="59.4985454966" lon="17.8222501549">
        <ele>151</ele>
        <time>2012-11-11T14:51:42Z</time>
      </trkpt>
      <trkpt lat="59.4986419722" lon="17.8219665114">
        <ele>151</ele>
        <time>2012-11-11T14:51:45Z</time>
      </trkpt>
      <trkpt lat="59.4986946944" lon="17.8216649307">
        <ele>151</ele>
        <time>2012-11-11T14:51:48Z</time>
      </trkpt>
      <trkpt lat="59.4987008132" lon="17.8214400443">
        <ele>151</ele>
        <time>2012-11-11T14:51:50Z</time>
      </trkpt>
      <trkpt lat="59.4986330874" lon="17.8208541495">
        <ele>151</ele>
        <time>2012-11-11T14:51:55Z</time>
      </trkpt>
      <trkpt lat="59.4986111268" lon="17.8207379764">
        <ele>151</ele>
        <time>2012-11-11T14:51:56Z</time>
      </trkpt>
      <trkpt lat="59.4985656131" lon="17.8203842602">
        <ele>150.6</ele>
        <time>2012-11-11T14:51:59Z</time>
      </trkpt>
      <trkpt lat="59.4985569798" lon="17.8202732838">
        <ele>150.2</ele>
        <time>2012-11-11T14:52:00Z</time>
      </trkpt>
      <trkpt lat="59.4985641882" lon="17.8201877884">
        <ele>149.6</ele>
        <time>2012-11-11T14:52:01Z</time>
      </trkpt>
      <trkpt lat="59.4985742465" lon="17.8201033827">
        <ele>149.2</ele>
        <time>2012-11-11T14:52:02Z</time>
      </trkpt>
      <trkpt lat="59.498593441" lon="17.8199980222">
        <ele>148.8</ele>
        <time>2012-11-11T14:52:03Z</time>
      </trkpt>
      <trkpt lat="59.4986568082" lon="17.8198670969">
        <ele>148.8</ele>
        <time>2012-11-11T14:52:05Z</time>
      </trkpt>
      <trkpt lat="59.4988055031" lon="17.8197190726">
        <ele>148.8</ele>
        <time>2012-11-11T14:52:08Z</time>
      </trkpt>
      <trkpt lat="59.4988530285" lon="17.8196499219">
        <ele>148.4</ele>
        <time>2012-11-11T14:52:09Z</time>
      </trkpt>
      <trkpt lat="59.4989027331" lon="17.8195726408">
        <ele>147.8</ele>
        <time>2012-11-11T14:52:10Z</time>
      </trkpt>
      <trkpt lat="59.4989507614" lon="17.8194806914">
        <ele>147.4</ele>
        <time>2012-11-11T14:52:11Z</time>
      </trkpt>
      <trkpt lat="59.499003735" lon="17.8193777616">
        <ele>147</ele>
        <time>2012-11-11T14:52:12Z</time>
      </trkpt>
      <trkpt lat="59.4990608996" lon="17.8192900869">
        <ele>146.6</ele>
        <time>2012-11-11T14:52:13Z</time>
      </trkpt>
      <trkpt lat="59.4991250211" lon="17.8192195113">
        <ele>146.2</ele>
        <time>2012-11-11T14:52:14Z</time>
      </trkpt>
      <trkpt lat="59.4991932498" lon="17.8191444933">
        <ele>145.6</ele>
        <time>2012-11-11T14:52:15Z</time>
      </trkpt>
      <trkpt lat="59.4992581257" lon="17.8190682181">
        <ele>144.6</ele>
        <time>2012-11-11T14:52:16Z</time>
      </trkpt>
      <trkpt lat="59.4993155417" lon="17.8190039289">
        <ele>144</ele>
        <time>2012-11-11T14:52:17Z</time>
      </trkpt>
      <trkpt lat="59.4993804176" lon="17.8189489436">
        <ele>143.4</ele>
        <time>2012-11-11T14:52:18Z</time>
      </trkpt>
      <trkpt lat="59.4994416055" lon="17.8188854088">
        <ele>142.8</ele>
        <time>2012-11-11T14:52:19Z</time>
      </trkpt>
      <trkpt lat="59.4995046374" lon="17.8188204491">
        <ele>142.2</ele>
        <time>2012-11-11T14:52:20Z</time>
      </trkpt>
      <trkpt lat="59.4995615505" lon="17.8187415754">
        <ele>142.2</ele>
        <time>2012-11-11T14:52:21Z</time>
      </trkpt>
      <trkpt lat="59.4996206429" lon="17.81867276">
        <ele>142.2</ele>
        <time>2012-11-11T14:52:22Z</time>
      </trkpt>
      <trkpt lat="59.4998763746" lon="17.8183389928">
        <ele>142.2</ele>
        <time>2012-11-11T14:52:27Z</time>
      </trkpt>
      <trkpt lat="59.4999278395" lon="17.8182623822">
        <ele>141.8</ele>
        <time>2012-11-11T14:52:28Z</time>
      </trkpt>
      <trkpt lat="59.4999795558" lon="17.8181762163">
        <ele>141.4</ele>
        <time>2012-11-11T14:52:29Z</time>
      </trkpt>
      <trkpt lat="59.5000317751" lon="17.8180809141">
        <ele>141</ele>
        <time>2012-11-11T14:52:30Z</time>
      </trkpt>
      <trkpt lat="59.50009246" lon="17.8179354881">
        <ele>140.6</ele>
        <time>2012-11-11T14:52:31Z</time>
      </trkpt>
      <trkpt lat="59.5001366326" lon="17.817769275">
        <ele>140.2</ele>
        <time>2012-11-11T14:52:32Z</time>
      </trkpt>
      <trkpt lat="59.5001479482" lon="17.8175844541">
        <ele>139.8</ele>
        <time>2012-11-11T14:52:33Z</time>
      </trkpt>
      <trkpt lat="59.5001562463" lon="17.817420588">
        <ele>139.4</ele>
        <time>2012-11-11T14:52:34Z</time>
      </trkpt>
      <trkpt lat="59.5001688191" lon="17.8172647685">
        <ele>139</ele>
        <time>2012-11-11T14:52:35Z</time>
      </trkpt>
      <trkpt lat="59.500204526" lon="17.8171536245">
        <ele>138.6</ele>
        <time>2012-11-11T14:52:36Z</time>
      </trkpt>
      <trkpt lat="59.5002409873" lon="17.8170418937">
        <ele>138.2</ele>
        <time>2012-11-11T14:52:37Z</time>
      </trkpt>
      <trkpt lat="59.5003648718" lon="17.8168175103">
        <ele>138.2</ele>
        <time>2012-11-11T14:52:39Z</time>
      </trkpt>
      <trkpt lat="59.5004219525" lon="17.8166566616">
        <ele>138.2</ele>
        <time>2012-11-11T14:52:40Z</time>
      </trkpt>
      <trkpt lat="59.5004778598" lon="17.8165034405">
        <ele>137.4</ele>
        <time>2012-11-11T14:52:41Z</time>
      </trkpt>
      <trkpt lat="59.5005369522" lon="17.8163719285">
        <ele>137</ele>
        <time>2012-11-11T14:52:42Z</time>
      </trkpt>
      <trkpt lat="59.5006000679" lon="17.8162415061">
        <ele>136.6</ele>
        <time>2012-11-11T14:52:43Z</time>
      </trkpt>
      <trkpt lat="59.5006640218" lon="17.8161122572">
        <ele>136.2</ele>
        <time>2012-11-11T14:52:44Z</time>
      </trkpt>
      <trkpt lat="59.5007362738" lon="17.8159814996">
        <ele>136.2</ele>
        <time>2012-11-11T14:52:45Z</time>
      </trkpt>
      <trkpt lat="59.5007965396" lon="17.8158433658">
        <ele>135.8</ele>
        <time>2012-11-11T14:52:46Z</time>
      </trkpt>
      <trkpt lat="59.5008627566" lon="17.8156956768">
        <ele>135.4</ele>
        <time>2012-11-11T14:52:47Z</time>
      </trkpt>
      <trkpt lat="59.5009167361" lon="17.8155420365">
        <ele>135</ele>
        <time>2012-11-11T14:52:48Z</time>
      </trkpt>
      <trkpt lat="59.5009469109" lon="17.8153804335">
        <ele>134.6</ele>
        <time>2012-11-11T14:52:49Z</time>
      </trkpt>
      <trkpt lat="59.5009715537" lon="17.8152216803">
        <ele>134</ele>
        <time>2012-11-11T14:52:50Z</time>
      </trkpt>
      <trkpt lat="59.5009919217" lon="17.8150677886">
        <ele>133.6</ele>
        <time>2012-11-11T14:52:51Z</time>
      </trkpt>
      <trkpt lat="59.5010143014" lon="17.8149162439">
        <ele>133.2</ele>
        <time>2012-11-11T14:52:52Z</time>
      </trkpt>
      <trkpt lat="59.5010463202" lon="17.8147792836">
        <ele>132.8</ele>
        <time>2012-11-11T14:52:53Z</time>
      </trkpt>
      <trkpt lat="59.5010851284" lon="17.8146475202">
        <ele>132.4</ele>
        <time>2012-11-11T14:52:54Z</time>
      </trkpt>
      <trkpt lat="59.5011277923" lon="17.8145396451">
        <ele>132</ele>
        <time>2012-11-11T14:52:55Z</time>
      </trkpt>
      <trkpt lat="59.5012067498" lon="17.8143207937">
        <ele>132</ele>
        <time>2012-11-11T14:52:57Z</time>
      </trkpt>
      <trkpt lat="59.5012841986" lon="17.8139906307">
        <ele>131.6</ele>
        <time>2012-11-11T14:53:00Z</time>
      </trkpt>
      <trkpt lat="59.5013068297" lon="17.8138678358">
        <ele>131</ele>
        <time>2012-11-11T14:53:01Z</time>
      </trkpt>
      <trkpt lat="59.5013306343" lon="17.8137356533">
        <ele>130.6</ele>
        <time>2012-11-11T14:53:02Z</time>
      </trkpt>
      <trkpt lat="59.5013494936" lon="17.8136244255">
        <ele>130.2</ele>
        <time>2012-11-11T14:53:03Z</time>
      </trkpt>
      <trkpt lat="59.5013759804" lon="17.8135195679">
        <ele>129.8</ele>
        <time>2012-11-11T14:53:04Z</time>
      </trkpt>
      <trkpt lat="59.5014032215" lon="17.8134371738">
        <ele>129.8</ele>
        <time>2012-11-11T14:53:05Z</time>
      </trkpt>
      <trkpt lat="59.5014249307" lon="17.8133694481">
        <ele>129.8</ele>
        <time>2012-11-11T14:53:06Z</time>
      </trkpt>
      <trkpt lat="59.5014336478" lon="17.813283366">
        <ele>129.8</ele>
        <time>2012-11-11T14:53:07Z</time>
      </trkpt>
      <trkpt lat="59.5014535129" lon="17.8129830425">
        <ele>129.8</ele>
        <time>2012-11-11T14:53:10Z</time>
      </trkpt>
      <trkpt lat="59.5015113481" lon="17.8124276578">
        <ele>129.8</ele>
        <time>2012-11-11T14:53:15Z</time>
      </trkpt>
      <trkpt lat="59.5015222445" lon="17.8123336129">
        <ele>129.4</ele>
        <time>2012-11-11T14:53:16Z</time>
      </trkpt>
      <trkpt lat="59.5015359908" lon="17.8122260731">
        <ele>128.8</ele>
        <time>2012-11-11T14:53:17Z</time>
      </trkpt>
      <trkpt lat="59.5015427802" lon="17.8121297651">
        <ele>128.4</ele>
        <time>2012-11-11T14:53:18Z</time>
      </trkpt>
      <trkpt lat="59.5015499048" lon="17.8120286793">
        <ele>128</ele>
        <time>2012-11-11T14:53:19Z</time>
      </trkpt>
      <trkpt lat="59.5015554368" lon="17.8119387416">
        <ele>127.6</ele>
        <time>2012-11-11T14:53:20Z</time>
      </trkpt>
      <trkpt lat="59.5015677582" lon="17.8118612928">
        <ele>127.6</ele>
        <time>2012-11-11T14:53:21Z</time>
      </trkpt>
      <trkpt lat="59.501634562" lon="17.8113399386">
        <ele>127.6</ele>
        <time>2012-11-11T14:53:27Z</time>
      </trkpt>
      <trkpt lat="59.5017073169" lon="17.8112688601">
        <ele>127.6</ele>
        <time>2012-11-11T14:53:30Z</time>
      </trkpt>
      <trkpt lat="59.5017908844" lon="17.8110620786">
        <ele>127.6</ele>
        <time>2012-11-11T14:53:33Z</time>
      </trkpt>
      <trkpt lat="59.501939244" lon="17.8110707958">
        <ele>127.6</ele>
        <time>2012-11-11T14:53:36Z</time>
      </trkpt>
      <trkpt lat="59.5020736059" lon="17.8112086781">
        <ele>127.6</ele>
        <time>2012-11-11T14:53:38Z</time>
      </trkpt>
      <trkpt lat="59.5021520605" lon="17.8112898987">
        <ele>127.6</ele>
        <time>2012-11-11T14:53:39Z</time>
      </trkpt>
      <trkpt lat="59.502374097" lon="17.8115436188">
        <ele>127.2</ele>
        <time>2012-11-11T14:53:42Z</time>
      </trkpt>
      <trkpt lat="59.5024462652" lon="17.8116144458">
        <ele>126.8</ele>
        <time>2012-11-11T14:53:43Z</time>
      </trkpt>
      <trkpt lat="59.5025192715" lon="17.8116940739">
        <ele>126.4</ele>
        <time>2012-11-11T14:53:44Z</time>
      </trkpt>
      <trkpt lat="59.5025842313" lon="17.8117679184">
        <ele>125.8</ele>
        <time>2012-11-11T14:53:45Z</time>
      </trkpt>
      <trkpt lat="59.5026453353" lon="17.8118363986">
        <ele>125.4</ele>
        <time>2012-11-11T14:53:46Z</time>
      </trkpt>
      <trkpt lat="59.502933505" lon="17.812103865">
        <ele>125.4</ele>
        <time>2012-11-11T14:53:50Z</time>
      </trkpt>
      <trkpt lat="59.5030098641" lon="17.81215248">
        <ele>125</ele>
        <time>2012-11-11T14:53:51Z</time>
      </trkpt>
      <trkpt lat="59.5030860556" lon="17.8122155957">
        <ele>124.4</ele>
        <time>2012-11-11T14:53:52Z</time>
      </trkpt>
      <trkpt lat="59.50316275" lon="17.8122938827">
        <ele>124</ele>
        <time>2012-11-11T14:53:53Z</time>
      </trkpt>
      <trkpt lat="59.5032376842" lon="17.8123673919">
        <ele>123.6</ele>
        <time>2012-11-11T14:53:54Z</time>
      </trkpt>
      <trkpt lat="59.5033099362" lon="17.8124630294">
        <ele>123</ele>
        <time>2012-11-11T14:53:55Z</time>
      </trkpt>
      <trkpt lat="59.5033736386" lon="17.8125667973">
        <ele>122.6</ele>
        <time>2012-11-11T14:53:56Z</time>
      </trkpt>
      <trkpt lat="59.5034328986" lon="17.8126771031">
        <ele>122.2</ele>
        <time>2012-11-11T14:53:57Z</time>
      </trkpt>
      <trkpt lat="59.5034754787" lon="17.8127918513">
        <ele>121.8</ele>
        <time>2012-11-11T14:53:58Z</time>
      </trkpt>
      <trkpt lat="59.5035300448" lon="17.8128930209">
        <ele>121.4</ele>
        <time>2012-11-11T14:53:59Z</time>
      </trkpt>
      <trkpt lat="59.5035692721" lon="17.8130008959">
        <ele>121</ele>
        <time>2012-11-11T14:54:00Z</time>
      </trkpt>
      <trkpt lat="59.5036276102" lon="17.8132213399">
        <ele>121</ele>
        <time>2012-11-11T14:54:02Z</time>
      </trkpt>
      <trkpt lat="59.503667508" lon="17.8134137883">
        <ele>121</ele>
        <time>2012-11-11T14:54:04Z</time>
      </trkpt>
      <trkpt lat="59.5036955874" lon="17.8134945898">
        <ele>121.4</ele>
        <time>2012-11-11T14:54:05Z</time>
      </trkpt>
      <trkpt lat="59.5037157878" lon="17.8135728768">
        <ele>122</ele>
        <time>2012-11-11T14:54:06Z</time>
      </trkpt>
      <trkpt lat="59.5037386703" lon="17.8136458831">
        <ele>122.4</ele>
        <time>2012-11-11T14:54:07Z</time>
      </trkpt>
      <trkpt lat="59.5037589545" lon="17.8137113458">
        <ele>122.8</ele>
        <time>2012-11-11T14:54:08Z</time>
      </trkpt>
      <trkpt lat="59.5037803284" lon="17.8137785686">
        <ele>123.2</ele>
        <time>2012-11-11T14:54:09Z</time>
      </trkpt>
      <trkpt lat="59.5038002773" lon="17.8138570232">
        <ele>123.6</ele>
        <time>2012-11-11T14:54:10Z</time>
      </trkpt>
      <trkpt lat="59.5038141913" lon="17.8139273473">
        <ele>124</ele>
        <time>2012-11-11T14:54:11Z</time>
      </trkpt>
      <trkpt lat="59.5038264288" lon="17.8139892896">
        <ele>124.4</ele>
        <time>2012-11-11T14:54:12Z</time>
      </trkpt>
      <trkpt lat="59.5038358166" lon="17.8140518185">
        <ele>125</ele>
        <time>2012-11-11T14:54:13Z</time>
      </trkpt>
      <trkpt lat="59.5038505687" lon="17.8141057142">
        <ele>125.4</ele>
        <time>2012-11-11T14:54:14Z</time>
      </trkpt>
      <trkpt lat="59.5038878682" lon="17.8142794709">
        <ele>125.8</ele>
        <time>2012-11-11T14:54:17Z</time>
      </trkpt>
      <trkpt lat="59.5039002734" lon="17.8143352106">
        <ele>126.2</ele>
        <time>2012-11-11T14:54:18Z</time>
      </trkpt>
      <trkpt lat="59.5039153608" lon="17.8143963146">
        <ele>126.6</ele>
        <time>2012-11-11T14:54:19Z</time>
      </trkpt>
      <trkpt lat="59.5039273469" lon="17.8144608553">
        <ele>127.4</ele>
        <time>2012-11-11T14:54:20Z</time>
      </trkpt>
      <trkpt lat="59.5039313702" lon="17.8146009168">
        <ele>127.4</ele>
        <time>2012-11-11T14:54:22Z</time>
      </trkpt>
      <trkpt lat="59.5039485531" lon="17.8148524576">
        <ele>127.8</ele>
        <time>2012-11-11T14:54:26Z</time>
      </trkpt>
      <trkpt lat="59.5039565997" lon="17.8148997315">
        <ele>128.4</ele>
        <time>2012-11-11T14:54:27Z</time>
      </trkpt>
      <trkpt lat="59.5039650655" lon="17.8149618414">
        <ele>128.8</ele>
        <time>2012-11-11T14:54:28Z</time>
      </trkpt>
      <trkpt lat="59.5039792309" lon="17.8150234484">
        <ele>129.2</ele>
        <time>2012-11-11T14:54:29Z</time>
      </trkpt>
      <trkpt lat="59.5039881157" lon="17.8150675372">
        <ele>129.6</ele>
        <time>2012-11-11T14:54:30Z</time>
      </trkpt>
      <trkpt lat="59.5040462861" lon="17.8152032401">
        <ele>129.6</ele>
        <time>2012-11-11T14:54:33Z</time>
      </trkpt>
      <trkpt lat="59.5040897881" lon="17.8152915016">
        <ele>130</ele>
        <time>2012-11-11T14:54:35Z</time>
      </trkpt>
      <trkpt lat="59.5041135089" lon="17.8153334949">
        <ele>130.4</ele>
        <time>2012-11-11T14:54:36Z</time>
      </trkpt>
      <trkpt lat="59.5041350504" lon="17.8153795115">
        <ele>130.8</ele>
        <time>2012-11-11T14:54:37Z</time>
      </trkpt>
      <trkpt lat="59.5041498864" lon="17.8154163919">
        <ele>131.2</ele>
        <time>2012-11-11T14:54:38Z</time>
      </trkpt>
      <trkpt lat="59.5041760379" lon="17.8154557868">
        <ele>131.8</ele>
        <time>2012-11-11T14:54:39Z</time>
      </trkpt>
      <trkpt lat="59.5042034467" lon="17.8154862969">
        <ele>131.8</ele>
        <time>2012-11-11T14:54:40Z</time>
      </trkpt>
      <trkpt lat="59.5042813145" lon="17.8155912383">
        <ele>132.2</ele>
        <time>2012-11-11T14:54:43Z</time>
      </trkpt>
      <trkpt lat="59.5043041133" lon="17.8156268614">
        <ele>132.6</ele>
        <time>2012-11-11T14:54:44Z</time>
      </trkpt>
      <trkpt lat="59.5043293428" lon="17.8156570362">
        <ele>133.4</ele>
        <time>2012-11-11T14:54:45Z</time>
      </trkpt>
      <trkpt lat="59.5043483697" lon="17.8157095907">
        <ele>133.8</ele>
        <time>2012-11-11T14:54:46Z</time>
      </trkpt>
      <trkpt lat="59.5043640439" lon="17.815748818">
        <ele>133.8</ele>
        <time>2012-11-11T14:54:47Z</time>
      </trkpt>
      <trkpt lat="59.5044289198" lon="17.8159486425">
        <ele>134.2</ele>
        <time>2012-11-11T14:54:52Z</time>
      </trkpt>
      <trkpt lat="59.5044434205" lon="17.8159765542">
        <ele>134.6</ele>
        <time>2012-11-11T14:54:53Z</time>
      </trkpt>
      <trkpt lat="59.5044637047" lon="17.8160293602">
        <ele>135</ele>
        <time>2012-11-11T14:54:54Z</time>
      </trkpt>
      <trkpt lat="59.5044832345" lon="17.816085016">
        <ele>135.6</ele>
        <time>2012-11-11T14:54:55Z</time>
      </trkpt>
      <trkpt lat="59.5044985734" lon="17.8161324576">
        <ele>136</ele>
        <time>2012-11-11T14:54:56Z</time>
      </trkpt>
      <trkpt lat="59.5045111462" lon="17.8161725231">
        <ele>136</ele>
        <time>2012-11-11T14:54:57Z</time>
      </trkpt>
      <trkpt lat="59.5045714959" lon="17.8162990059">
        <ele>136.4</ele>
        <time>2012-11-11T14:55:00Z</time>
      </trkpt>
      <trkpt lat="59.5045962225" lon="17.8163331203">
        <ele>136.8</ele>
        <time>2012-11-11T14:55:01Z</time>
      </trkpt>
      <trkpt lat="59.504621452" lon="17.8163709226">
        <ele>137.2</ele>
        <time>2012-11-11T14:55:02Z</time>
      </trkpt>
      <trkpt lat="59.5046456757" lon="17.816407803">
        <ele>137.6</ele>
        <time>2012-11-11T14:55:03Z</time>
      </trkpt>
      <trkpt lat="59.5046745095" lon="17.8164522271">
        <ele>138</ele>
        <time>2012-11-11T14:55:04Z</time>
      </trkpt>
      <trkpt lat="59.5048240426" lon="17.8166688154">
        <ele>138</ele>
        <time>2012-11-11T14:55:09Z</time>
      </trkpt>
      <trkpt lat="59.5050132221" lon="17.8167900176">
        <ele>138.4</ele>
        <time>2012-11-11T14:55:15Z</time>
      </trkpt>
      <trkpt lat="59.5050545448" lon="17.8168174264">
        <ele>138.8</ele>
        <time>2012-11-11T14:55:16Z</time>
      </trkpt>
      <trkpt lat="59.5051036628" lon="17.8168652871">
        <ele>139.2</ele>
        <time>2012-11-11T14:55:17Z</time>
      </trkpt>
      <trkpt lat="59.5051438121" lon="17.8169040953">
        <ele>139.6</ele>
        <time>2012-11-11T14:55:18Z</time>
      </trkpt>
      <trkpt lat="59.5051775911" lon="17.8169507825">
        <ele>140</ele>
        <time>2012-11-11T14:55:19Z</time>
      </trkpt>
      <trkpt lat="59.5052505975" lon="17.8170485993">
        <ele>140</ele>
        <time>2012-11-11T14:55:21Z</time>
      </trkpt>
      <trkpt lat="59.5054620728" lon="17.8173147246">
        <ele>140</ele>
        <time>2012-11-11T14:55:27Z</time>
      </trkpt>
      <trkpt lat="59.5055517591" lon="17.8174366812">
        <ele>140.4</ele>
        <time>2012-11-11T14:55:30Z</time>
      </trkpt>
      <trkpt lat="59.505598111" lon="17.8175064186">
        <ele>140.8</ele>
        <time>2012-11-11T14:55:31Z</time>
      </trkpt>
      <trkpt lat="59.5056328121" lon="17.8175637508">
        <ele>141.2</ele>
        <time>2012-11-11T14:55:32Z</time>
      </trkpt>
      <trkpt lat="59.5056706983" lon="17.8176232623">
        <ele>141.6</ele>
        <time>2012-11-11T14:55:33Z</time>
      </trkpt>
      <trkpt lat="59.5057022981" lon="17.8176879706">
        <ele>142</ele>
        <time>2012-11-11T14:55:34Z</time>
      </trkpt>
      <trkpt lat="59.5058040543" lon="17.8178723724">
        <ele>142</ele>
        <time>2012-11-11T14:55:37Z</time>
      </trkpt>
      <trkpt lat="59.505906565" lon="17.8182897072">
        <ele>142</ele>
        <time>2012-11-11T14:55:43Z</time>
      </trkpt>
      <trkpt lat="59.5058923157" lon="17.8184417548">
        <ele>142.6</ele>
        <time>2012-11-11T14:55:45Z</time>
      </trkpt>
      <trkpt lat="59.5058796591" lon="17.8185158508">
        <ele>143</ele>
        <time>2012-11-11T14:55:46Z</time>
      </trkpt>
      <trkpt lat="59.505865326" lon="17.818588941">
        <ele>143.4</ele>
        <time>2012-11-11T14:55:47Z</time>
      </trkpt>
      <trkpt lat="59.5058437007" lon="17.818645435">
        <ele>143.8</ele>
        <time>2012-11-11T14:55:48Z</time>
      </trkpt>
      <trkpt lat="59.5058210696" lon="17.818694972">
        <ele>144.2</ele>
        <time>2012-11-11T14:55:49Z</time>
      </trkpt>
      <trkpt lat="59.5057918167" lon="17.8187311819">
        <ele>144.2</ele>
        <time>2012-11-11T14:55:50Z</time>
      </trkpt>
      <trkpt lat="59.5057223308" lon="17.8187524719">
        <ele>144.2</ele>
        <time>2012-11-11T14:55:52Z</time>
      </trkpt>
      <trkpt lat="59.5056529287" lon="17.8187433356">
        <ele>144.2</ele>
        <time>2012-11-11T14:55:54Z</time>
      </trkpt>
      <trkpt lat="59.5054769926" lon="17.8187630331">
        <ele>144.2</ele>
        <time>2012-11-11T14:55:59Z</time>
      </trkpt>
      <trkpt lat="59.5053324886" lon="17.8188403142">
        <ele>144.2</ele>
        <time>2012-11-11T14:56:03Z</time>
      </trkpt>
      <trkpt lat="59.5051618331" lon="17.8189481054">
        <ele>144.2</ele>
        <time>2012-11-11T14:56:08Z</time>
      </trkpt>
      <trkpt lat="59.5050575623" lon="17.8189860754">
        <ele>144.2</ele>
        <time>2012-11-11T14:56:12Z</time>
      </trkpt>
      <trkpt lat="59.5050384516" lon="17.8190421503">
        <ele>144.2</ele>
        <time>2012-11-11T14:56:17Z</time>
      </trkpt>
      <trkpt lat="59.505070219" lon="17.8191151567">
        <ele>144.2</ele>
        <time>2012-11-11T14:56:22Z</time>
      </trkpt>
      <trkpt lat="59.5050821213" lon="17.819128903">
        <ele>144.2</ele>
        <time>2012-11-11T14:56:23Z</time>
      </trkpt>
      <trkpt lat="59.5051186664" lon="17.8191802002">
        <ele>144.2</ele>
        <time>2012-11-11T14:56:26Z</time>
      </trkpt>
      <trkpt lat="59.5051406269" lon="17.8192374486">
        <ele>144.2</ele>
        <time>2012-11-11T14:56:28Z</time>
      </trkpt>
      <trkpt lat="59.5052116216" lon="17.819333589">
        <ele>144.2</ele>
        <time>2012-11-11T14:56:34Z</time>
      </trkpt>
      <trkpt lat="59.5052844603" lon="17.819458647">
        <ele>144.8</ele>
        <time>2012-11-11T14:56:42Z</time>
      </trkpt>
      <trkpt lat="59.5052950215" lon="17.8194801884">
        <ele>145.6</ele>
        <time>2012-11-11T14:56:43Z</time>
      </trkpt>
      <trkpt lat="59.5053078458" lon="17.8194980419">
        <ele>146.2</ele>
        <time>2012-11-11T14:56:44Z</time>
      </trkpt>
      <trkpt lat="59.5053134617" lon="17.8195134646">
        <ele>146.8</ele>
        <time>2012-11-11T14:56:45Z</time>
      </trkpt>
      <trkpt lat="59.5053187423" lon="17.8195292226">
        <ele>147.6</ele>
        <time>2012-11-11T14:56:46Z</time>
      </trkpt>
      <trkpt lat="59.5053409543" lon="17.8195648456">
        <ele>147.6</ele>
        <time>2012-11-11T14:56:49Z</time>
      </trkpt>
      <trkpt lat="59.5053840373" lon="17.8196544481">
        <ele>147.6</ele>
        <time>2012-11-11T14:56:56Z</time>
      </trkpt>
      <trkpt lat="59.5054237675" lon="17.8197090143">
        <ele>147.6</ele>
        <time>2012-11-11T14:57:03Z</time>
      </trkpt>
      <trkpt lat="59.5054283776" lon="17.8197146302">
        <ele>147.6</ele>
        <time>2012-11-11T14:57:15Z</time>
      </trkpt>
      <trkpt lat="59.5054363404" lon="17.8197299691">
        <ele>147.6</ele>
        <time>2012-11-11T14:57:25Z</time>
      </trkpt>
      <trkpt lat="59.5054820217" lon="17.819761485">
        <ele>147.6</ele>
        <time>2012-11-11T14:57:29Z</time>
      </trkpt>
      <trkpt lat="59.5054977797" lon="17.8197914084">
        <ele>147.6</ele>
        <time>2012-11-11T14:57:30Z</time>
      </trkpt>
      <trkpt lat="59.5055364202" lon="17.8198525124">
        <ele>147.6</ele>
        <time>2012-11-11T14:57:33Z</time>
      </trkpt>
      <trkpt lat="59.505548574" lon="17.8198644147">
        <ele>147.6</ele>
        <time>2012-11-11T14:57:34Z</time>
      </trkpt>
      <trkpt lat="59.5056036431" lon="17.8199021333">
        <ele>147.6</ele>
        <time>2012-11-11T14:57:39Z</time>
      </trkpt>
      <trkpt lat="59.5056081693" lon="17.819906911">
        <ele>147.6</ele>
        <time>2012-11-11T14:57:47Z</time>
      </trkpt>
      <trkpt lat="59.5056081693" lon="17.819906911">
        <ele>147.6</ele>
        <time>2012-11-11T14:57:50Z</time>
      </trkpt>
      <trkpt lat="59.5056068282" lon="17.8199104314">
        <ele>145.4</ele>
        <time>2012-11-11T14:58:25Z</time>
      </trkpt>
      <trkpt lat="59.5056085884" lon="17.8199271113">
        <ele>145.4</ele>
        <time>2012-11-11T14:58:31Z</time>
      </trkpt>
      <trkpt lat="59.505611103" lon="17.8199492396">
        <ele>145.4</ele>
        <time>2012-11-11T14:58:32Z</time>
      </trkpt>
      <trkpt lat="59.5056401044" lon="17.8200059012">
        <ele>145.4</ele>
        <time>2012-11-11T14:58:36Z</time>
      </trkpt>
      <trkpt lat="59.5056498274" lon="17.8200179711">
        <ele>145.4</ele>
        <time>2012-11-11T14:58:37Z</time>
      </trkpt>
      <trkpt lat="59.5057173017" lon="17.8201325517">
        <ele>145.4</ele>
        <time>2012-11-11T14:58:43Z</time>
      </trkpt>
      <trkpt lat="59.5057638212" lon="17.82025191">
        <ele>145.4</ele>
        <time>2012-11-11T14:58:49Z</time>
      </trkpt>
      <trkpt lat="59.50577455" lon="17.8203191328">
        <ele>145.4</ele>
        <time>2012-11-11T14:58:52Z</time>
      </trkpt>
      <trkpt lat="59.5057861171" lon="17.8203678316">
        <ele>145.4</ele>
        <time>2012-11-11T14:58:54Z</time>
      </trkpt>
      <trkpt lat="59.5057896374" lon="17.8204361441">
        <ele>145.4</ele>
        <time>2012-11-11T14:58:57Z</time>
      </trkpt>
      <trkpt lat="59.5058090835" lon="17.8204855135">
        <ele>145.4</ele>
        <time>2012-11-11T14:58:59Z</time>
      </trkpt>
      <trkpt lat="59.5058171301" lon="17.8205118327">
        <ele>145.4</ele>
        <time>2012-11-11T14:59:00Z</time>
      </trkpt>
      <trkpt lat="59.5058460476" lon="17.8206893613">
        <ele>145.4</ele>
        <time>2012-11-11T14:59:05Z</time>
      </trkpt>
      <trkpt lat="59.5058374981" lon="17.8207518065">
        <ele>145.4</ele>
        <time>2012-11-11T14:59:07Z</time>
      </trkpt>
      <trkpt lat="59.5058183874" lon="17.8208154251">
        <ele>145.4</ele>
        <time>2012-11-11T14:59:10Z</time>
      </trkpt>
      <trkpt lat="59.5057965944" lon="17.8209313468">
        <ele>145.4</ele>
        <time>2012-11-11T14:59:16Z</time>
      </trkpt>
      <trkpt lat="59.5057669225" lon="17.82111139">
        <ele>145.4</ele>
        <time>2012-11-11T14:59:22Z</time>
      </trkpt>
      <trkpt lat="59.5057391784" lon="17.821255894">
        <ele>145.4</ele>
        <time>2012-11-11T14:59:28Z</time>
      </trkpt>
      <trkpt lat="59.5057302098" lon="17.8212827999">
        <ele>145.4</ele>
        <time>2012-11-11T14:59:29Z</time>
      </trkpt>
      <trkpt lat="59.505710177" lon="17.8213862325">
        <ele>145.8</ele>
        <time>2012-11-11T14:59:33Z</time>
      </trkpt>
      <trkpt lat="59.5057062375" lon="17.8214170779">
        <ele>146.2</ele>
        <time>2012-11-11T14:59:34Z</time>
      </trkpt>
      <trkpt lat="59.5057022981" lon="17.8214511084">
        <ele>146.6</ele>
        <time>2012-11-11T14:59:35Z</time>
      </trkpt>
      <trkpt lat="59.5056991129" lon="17.8214857257">
        <ele>147</ele>
        <time>2012-11-11T14:59:36Z</time>
      </trkpt>
      <trkpt lat="59.5056983586" lon="17.8215149785">
        <ele>147.4</ele>
        <time>2012-11-11T14:59:37Z</time>
      </trkpt>
      <trkpt lat="59.5056841093" lon="17.8216205904">
        <ele>147.4</ele>
        <time>2012-11-11T14:59:41Z</time>
      </trkpt>
      <trkpt lat="59.505692156" lon="17.8217510128">
        <ele>147.4</ele>
        <time>2012-11-11T14:59:45Z</time>
      </trkpt>
      <trkpt lat="59.5057026333" lon="17.8218211693">
        <ele>147.4</ele>
        <time>2012-11-11T14:59:47Z</time>
      </trkpt>
      <trkpt lat="59.5057075786" lon="17.8218484943">
        <ele>147.4</ele>
        <time>2012-11-11T14:59:48Z</time>
      </trkpt>
      <trkpt lat="59.5057123563" lon="17.8219386835">
        <ele>147.4</ele>
        <time>2012-11-11T14:59:51Z</time>
      </trkpt>
      <trkpt lat="59.5056991129" lon="17.8220003743">
        <ele>147.4</ele>
        <time>2012-11-11T14:59:53Z</time>
      </trkpt>
      <trkpt lat="59.5056887194" lon="17.8220629871">
        <ele>147.4</ele>
        <time>2012-11-11T14:59:58Z</time>
      </trkpt>
      <trkpt lat="59.5056895576" lon="17.8220634062">
        <ele>147.4</ele>
        <time>2012-11-11T15:00:07Z</time>
      </trkpt>
      <trkpt lat="59.505700454" lon="17.8220724587">
        <ele>147.4</ele>
        <time>2012-11-11T15:00:08Z</time>
      </trkpt>
      <trkpt lat="59.5057753882" lon="17.8221413579">
        <ele>147.4</ele>
        <time>2012-11-11T15:00:12Z</time>
      </trkpt>
      <trkpt lat="59.5058825089" lon="17.8222621411">
        <ele>147.4</ele>
        <time>2012-11-11T15:00:16Z</time>
      </trkpt>
      <trkpt lat="59.5060532482" lon="17.8224256719">
        <ele>147.4</ele>
        <time>2012-11-11T15:00:21Z</time>
      </trkpt>
      <trkpt lat="59.5063402445" lon="17.8225639733">
        <ele>147.4</ele>
        <time>2012-11-11T15:00:27Z</time>
      </trkpt>
      <trkpt lat="59.5065241433" lon="17.8226579344">
        <ele>147.4</ele>
        <time>2012-11-11T15:00:31Z</time>
      </trkpt>
      <trkpt lat="59.5065686512" lon="17.8226836668">
        <ele>147.4</ele>
        <time>2012-11-11T15:00:32Z</time>
      </trkpt>
      <trkpt lat="59.5067463475" lon="17.8229142529">
        <ele>147.4</ele>
        <time>2012-11-11T15:00:36Z</time>
      </trkpt>
      <trkpt lat="59.5068103014" lon="17.8231041867">
        <ele>147.4</ele>
        <time>2012-11-11T15:00:38Z</time>
      </trkpt>
      <trkpt lat="59.5068785301" lon="17.8232817154">
        <ele>147.4</ele>
        <time>2012-11-11T15:00:40Z</time>
      </trkpt>
      <trkpt lat="59.5071194259" lon="17.8235901693">
        <ele>147.4</ele>
        <time>2012-11-11T15:00:45Z</time>
      </trkpt>
      <trkpt lat="59.5072324139" lon="17.8236822864">
        <ele>147.4</ele>
        <time>2012-11-11T15:00:47Z</time>
      </trkpt>
      <trkpt lat="59.5074634191" lon="17.8238387764">
        <ele>147.4</ele>
        <time>2012-11-11T15:00:51Z</time>
      </trkpt>
      <trkpt lat="59.5076266147" lon="17.8239896506">
        <ele>147.4</ele>
        <time>2012-11-11T15:00:54Z</time>
      </trkpt>
      <trkpt lat="59.5077215816" lon="17.8241155468">
        <ele>147.4</ele>
        <time>2012-11-11T15:00:56Z</time>
      </trkpt>
      <trkpt lat="59.507973793" lon="17.824520644">
        <ele>147.4</ele>
        <time>2012-11-11T15:01:01Z</time>
      </trkpt>
      <trkpt lat="59.5082482164" lon="17.825017523">
        <ele>147.4</ele>
        <time>2012-11-11T15:01:07Z</time>
      </trkpt>
      <trkpt lat="59.5082842585" lon="17.8251048624">
        <ele>147.4</ele>
        <time>2012-11-11T15:01:08Z</time>
      </trkpt>
      <trkpt lat="59.5083713465" lon="17.8253879192">
        <ele>147.4</ele>
        <time>2012-11-11T15:01:11Z</time>
      </trkpt>
      <trkpt lat="59.5083940614" lon="17.8254840596">
        <ele>147.4</ele>
        <time>2012-11-11T15:01:12Z</time>
      </trkpt>
      <trkpt lat="59.5084740247" lon="17.825885385">
        <ele>147.8</ele>
        <time>2012-11-11T15:01:16Z</time>
      </trkpt>
      <trkpt lat="59.508497997" lon="17.8259809386">
        <ele>148.2</ele>
        <time>2012-11-11T15:01:17Z</time>
      </trkpt>
      <trkpt lat="59.5085266631" lon="17.8260676075">
        <ele>148.8</ele>
        <time>2012-11-11T15:01:18Z</time>
      </trkpt>
      <trkpt lat="59.5085585143" lon="17.8261519294">
        <ele>149.2</ele>
        <time>2012-11-11T15:01:19Z</time>
      </trkpt>
      <trkpt lat="59.5085958137" lon="17.82623315">
        <ele>149.6</ele>
        <time>2012-11-11T15:01:20Z</time>
      </trkpt>
      <trkpt lat="59.5086839913" lon="17.8263829345">
        <ele>149.6</ele>
        <time>2012-11-11T15:01:22Z</time>
      </trkpt>
      <trkpt lat="59.5088858275" lon="17.8266335534">
        <ele>149.6</ele>
        <time>2012-11-11T15:01:26Z</time>
      </trkpt>
      <trkpt lat="59.5090047667" lon="17.8267154445">
        <ele>149.6</ele>
        <time>2012-11-11T15:01:28Z</time>
      </trkpt>
      <trkpt lat="59.5092380349" lon="17.8267271792">
        <ele>149.6</ele>
        <time>2012-11-11T15:01:32Z</time>
      </trkpt>
      <trkpt lat="59.5093423896" lon="17.8267407579">
        <ele>149.6</ele>
        <time>2012-11-11T15:01:34Z</time>
      </trkpt>
      <trkpt lat="59.5095041603" lon="17.8267620479">
        <ele>149.6</ele>
        <time>2012-11-11T15:01:37Z</time>
      </trkpt>
      <trkpt lat="59.509715887" lon="17.8267317892">
        <ele>149.6</ele>
        <time>2012-11-11T15:01:41Z</time>
      </trkpt>
      <trkpt lat="59.5098168051" lon="17.8266960823">
        <ele>149.6</ele>
        <time>2012-11-11T15:01:43Z</time>
      </trkpt>
      <trkpt lat="59.510148896" lon="17.8265687613">
        <ele>149.6</ele>
        <time>2012-11-11T15:01:49Z</time>
      </trkpt>
      <trkpt lat="59.5102670808" lon="17.8265601279">
        <ele>149.6</ele>
        <time>2012-11-11T15:01:51Z</time>
      </trkpt>
      <trkpt lat="59.510440167" lon="17.826606396">
        <ele>149.6</ele>
        <time>2012-11-11T15:01:54Z</time>
      </trkpt>
      <trkpt lat="59.5104974154" lon="17.8266474673">
        <ele>149.6</ele>
        <time>2012-11-11T15:01:55Z</time>
      </trkpt>
      <trkpt lat="59.5106813143" lon="17.8267788117">
        <ele>149.6</ele>
        <time>2012-11-11T15:01:58Z</time>
      </trkpt>
      <trkpt lat="59.5107439271" lon="17.8267932286">
        <ele>149.6</ele>
        <time>2012-11-11T15:01:59Z</time>
      </trkpt>
      <trkpt lat="59.5108670572" lon="17.8267405902">
        <ele>149.6</ele>
        <time>2012-11-11T15:02:02Z</time>
      </trkpt>
      <trkpt lat="59.510985242" lon="17.826655933">
        <ele>149.6</ele>
        <time>2012-11-11T15:02:06Z</time>
      </trkpt>
      <trkpt lat="59.5110371259" lon="17.8265872853">
        <ele>149.2</ele>
        <time>2012-11-11T15:02:09Z</time>
      </trkpt>
      <trkpt lat="59.5110573263" lon="17.826578149">
        <ele>148.8</ele>
        <time>2012-11-11T15:02:10Z</time>
      </trkpt>
      <trkpt lat="59.5110794545" lon="17.8265784005">
        <ele>148.4</ele>
        <time>2012-11-11T15:02:11Z</time>
      </trkpt>
      <trkpt lat="59.511100996" lon="17.8265852736">
        <ele>148</ele>
        <time>2012-11-11T15:02:12Z</time>
      </trkpt>
      <trkpt lat="59.5111244653" lon="17.8265872853">
        <ele>147.6</ele>
        <time>2012-11-11T15:02:13Z</time>
      </trkpt>
      <trkpt lat="59.5111455877" lon="17.826583262">
        <ele>147.6</ele>
        <time>2012-11-11T15:02:14Z</time>
      </trkpt>
      <trkpt lat="59.5111863238" lon="17.8265602117">
        <ele>147.6</ele>
        <time>2012-11-11T15:02:16Z</time>
      </trkpt>
      <trkpt lat="59.5113030836" lon="17.8265442861">
        <ele>147.6</ele>
        <time>2012-11-11T15:02:20Z</time>
      </trkpt>
      <trkpt lat="59.5115456558" lon="17.8265807474">
        <ele>147.6</ele>
        <time>2012-11-11T15:02:25Z</time>
      </trkpt>
      <trkpt lat="59.5118479071" lon="17.8265625587">
        <ele>147.6</ele>
        <time>2012-11-11T15:02:30Z</time>
      </trkpt>
      <trkpt lat="59.5122413535" lon="17.8265404304">
        <ele>147.6</ele>
        <time>2012-11-11T15:02:36Z</time>
      </trkpt>
      <trkpt lat="59.5126145157" lon="17.8266048873">
        <ele>147.6</ele>
        <time>2012-11-11T15:02:42Z</time>
      </trkpt>
      <trkpt lat="59.5130456806" lon="17.8268255827">
        <ele>147.6</ele>
        <time>2012-11-11T15:02:49Z</time>
      </trkpt>
      <trkpt lat="59.5131338582" lon="17.8271473638">
        <ele>147.6</ele>
        <time>2012-11-11T15:02:52Z</time>
      </trkpt>
      <trkpt lat="59.5131559864" lon="17.8272830668">
        <ele>147.6</ele>
        <time>2012-11-11T15:02:53Z</time>
      </trkpt>
      <trkpt lat="59.513245086" lon="17.8277503577">
        <ele>147.2</ele>
        <time>2012-11-11T15:02:56Z</time>
      </trkpt>
      <trkpt lat="59.5132723272" lon="17.8279306524">
        <ele>146.8</ele>
        <time>2012-11-11T15:02:57Z</time>
      </trkpt>
      <trkpt lat="59.5132975567" lon="17.8281339973">
        <ele>146</ele>
        <time>2012-11-11T15:02:58Z</time>
      </trkpt>
      <trkpt lat="59.5133169189" lon="17.8283432933">
        <ele>145.4</ele>
        <time>2012-11-11T15:02:59Z</time>
      </trkpt>
      <trkpt lat="59.5133332636" lon="17.8285537628">
        <ele>144.8</ele>
        <time>2012-11-11T15:03:00Z</time>
      </trkpt>
      <trkpt lat="59.5133434057" lon="17.8287720275">
        <ele>144</ele>
        <time>2012-11-11T15:03:01Z</time>
      </trkpt>
      <trkpt lat="59.5133509494" lon="17.8289751209">
        <ele>143.4</ele>
        <time>2012-11-11T15:03:02Z</time>
      </trkpt>
      <trkpt lat="59.5133616783" lon="17.829171928">
        <ele>141.8</ele>
        <time>2012-11-11T15:03:03Z</time>
      </trkpt>
      <trkpt lat="59.5133876622" lon="17.8293537314">
        <ele>141.4</ele>
        <time>2012-11-11T15:03:04Z</time>
      </trkpt>
      <trkpt lat="59.5134250454" lon="17.8295279072">
        <ele>140.8</ele>
        <time>2012-11-11T15:03:05Z</time>
      </trkpt>
      <trkpt lat="59.5134694695" lon="17.8296896779">
        <ele>140.2</ele>
        <time>2012-11-11T15:03:06Z</time>
      </trkpt>
      <trkpt lat="59.5135140612" lon="17.8298418932">
        <ele>139.6</ele>
        <time>2012-11-11T15:03:07Z</time>
      </trkpt>
      <trkpt lat="59.5135553002" lon="17.8299946953">
        <ele>139</ele>
        <time>2012-11-11T15:03:08Z</time>
      </trkpt>
      <trkpt lat="59.5136601577" lon="17.8304606451">
        <ele>138.6</ele>
        <time>2012-11-11T15:03:11Z</time>
      </trkpt>
      <trkpt lat="59.5136895782" lon="17.8306270258">
        <ele>138.2</ele>
        <time>2012-11-11T15:03:12Z</time>
      </trkpt>
      <trkpt lat="59.5137111197" lon="17.8307920654">
        <ele>137.6</ele>
        <time>2012-11-11T15:03:13Z</time>
      </trkpt>
      <trkpt lat="59.513723944" lon="17.8309474658">
        <ele>137.2</ele>
        <time>2012-11-11T15:03:14Z</time>
      </trkpt>
      <trkpt lat="59.5137295599" lon="17.8311031177">
        <ele>136.8</ele>
        <time>2012-11-11T15:03:15Z</time>
      </trkpt>
      <trkpt lat="59.5137338346" lon="17.831416936">
        <ele>136.8</ele>
        <time>2012-11-11T15:03:17Z</time>
      </trkpt>
      <trkpt lat="59.5137479162" lon="17.831826811">
        <ele>136.8</ele>
        <time>2012-11-11T15:03:20Z</time>
      </trkpt>
      <trkpt lat="59.5137724752" lon="17.8319405533">
        <ele>137.2</ele>
        <time>2012-11-11T15:03:21Z</time>
      </trkpt>
      <trkpt lat="59.5138082659" lon="17.8320356041">
        <ele>137.6</ele>
        <time>2012-11-11T15:03:22Z</time>
      </trkpt>
      <trkpt lat="59.5138497563" lon="17.8321289785">
        <ele>138</ele>
        <time>2012-11-11T15:03:23Z</time>
      </trkpt>
      <trkpt lat="59.5138926716" lon="17.8322215146">
        <ele>138.4</ele>
        <time>2012-11-11T15:03:24Z</time>
      </trkpt>
      <trkpt lat="59.5139317313" lon="17.8323068424">
        <ele>139</ele>
        <time>2012-11-11T15:03:25Z</time>
      </trkpt>
      <trkpt lat="59.5141991139" lon="17.8328079962">
        <ele>139</ele>
        <time>2012-11-11T15:03:31Z</time>
      </trkpt>
      <trkpt lat="59.5143167958" lon="17.8330676674">
        <ele>139</ele>
        <time>2012-11-11T15:03:34Z</time>
      </trkpt>
      <trkpt lat="59.5143798277" lon="17.833242011">
        <ele>139</ele>
        <time>2012-11-11T15:03:36Z</time>
      </trkpt>
      <trkpt lat="59.5144219886" lon="17.8333317811">
        <ele>139.4</ele>
        <time>2012-11-11T15:03:37Z</time>
      </trkpt>
      <trkpt lat="59.5144714418" lon="17.8334200425">
        <ele>139.8</ele>
        <time>2012-11-11T15:03:38Z</time>
      </trkpt>
      <trkpt lat="59.5145249184" lon="17.8335037777">
        <ele>140.2</ele>
        <time>2012-11-11T15:03:39Z</time>
      </trkpt>
      <trkpt lat="59.5145846813" lon="17.8335870938">
        <ele>140.6</ele>
        <time>2012-11-11T15:03:40Z</time>
      </trkpt>
      <trkpt lat="59.5146383255" lon="17.8336651293">
        <ele>141</ele>
        <time>2012-11-11T15:03:41Z</time>
      </trkpt>
      <trkpt lat="59.5148784669" lon="17.833986156">
        <ele>141</ele>
        <time>2012-11-11T15:03:45Z</time>
      </trkpt>
      <trkpt lat="59.5150412434" lon="17.8341693006">
        <ele>140.6</ele>
        <time>2012-11-11T15:03:47Z</time>
      </trkpt>
      <trkpt lat="59.5151251462" lon="17.8342577296">
        <ele>140</ele>
        <time>2012-11-11T15:03:48Z</time>
      </trkpt>
      <trkpt lat="59.5152150002" lon="17.8343588153">
        <ele>139.6</ele>
        <time>2012-11-11T15:03:49Z</time>
      </trkpt>
      <trkpt lat="59.5153071173" lon="17.8344713004">
        <ele>138.8</ele>
        <time>2012-11-11T15:03:50Z</time>
      </trkpt>
      <trkpt lat="59.5153956301" lon="17.8345905748">
        <ele>138</ele>
        <time>2012-11-11T15:03:51Z</time>
      </trkpt>
      <trkpt lat="59.5154769346" lon="17.8347250205">
        <ele>137.4</ele>
        <time>2012-11-11T15:03:52Z</time>
      </trkpt>
      <trkpt lat="59.5155436545" lon="17.8348785769">
        <ele>135.8</ele>
        <time>2012-11-11T15:03:53Z</time>
      </trkpt>
      <trkpt lat="59.5155906769" lon="17.8350487295">
        <ele>135.2</ele>
        <time>2012-11-11T15:03:54Z</time>
      </trkpt>
      <trkpt lat="59.515635101" lon="17.8352238274">
        <ele>134.4</ele>
        <time>2012-11-11T15:03:55Z</time>
      </trkpt>
      <trkpt lat="59.5156762561" lon="17.8353814909">
        <ele>133.8</ele>
        <time>2012-11-11T15:03:56Z</time>
      </trkpt>
      <trkpt lat="59.5157053413" lon="17.835543094">
        <ele>133.8</ele>
        <time>2012-11-11T15:03:57Z</time>
      </trkpt>
      <trkpt lat="59.5157232786" lon="17.8358749334">
        <ele>133.8</ele>
        <time>2012-11-11T15:03:59Z</time>
      </trkpt>
      <trkpt lat="59.5157068501" lon="17.8363551324">
        <ele>133.2</ele>
        <time>2012-11-11T15:04:02Z</time>
      </trkpt>
      <trkpt lat="59.5156950316" lon="17.8365180766">
        <ele>132.8</ele>
        <time>2012-11-11T15:04:03Z</time>
      </trkpt>
      <trkpt lat="59.515684638" lon="17.8366787576">
        <ele>132.4</ele>
        <time>2012-11-11T15:04:04Z</time>
      </trkpt>
      <trkpt lat="59.5156716461" lon="17.836837427">
        <ele>132</ele>
        <time>2012-11-11T15:04:05Z</time>
      </trkpt>
      <trkpt lat="59.5156583189" lon="17.8369930788">
        <ele>131.4</ele>
        <time>2012-11-11T15:04:06Z</time>
      </trkpt>
      <trkpt lat="59.5155834685" lon="17.837620045">
        <ele>131.4</ele>
        <time>2012-11-11T15:04:10Z</time>
      </trkpt>
      <trkpt lat="59.5154391322" lon="17.8385057603">
        <ele>131.4</ele>
        <time>2012-11-11T15:04:16Z</time>
      </trkpt>
      <trkpt lat="59.5152990706" lon="17.8392711116">
        <ele>131.4</ele>
        <time>2012-11-11T15:04:22Z</time>
      </trkpt>
      <trkpt lat="59.5152103901" lon="17.839961864">
        <ele>131</ele>
        <time>2012-11-11T15:04:27Z</time>
      </trkpt>
      <trkpt lat="59.5151896868" lon="17.8401148337">
        <ele>130.4</ele>
        <time>2012-11-11T15:04:28Z</time>
      </trkpt>
      <trkpt lat="59.5151679777" lon="17.8402658755">
        <ele>129.8</ele>
        <time>2012-11-11T15:04:29Z</time>
      </trkpt>
      <trkpt lat="59.5151463524" lon="17.8404085355">
        <ele>129.2</ele>
        <time>2012-11-11T15:04:30Z</time>
      </trkpt>
      <trkpt lat="59.5151291695" lon="17.8405434002">
        <ele>128.6</ele>
        <time>2012-11-11T15:04:31Z</time>
      </trkpt>
      <trkpt lat="59.5150974859" lon="17.8408164825">
        <ele>128.6</ele>
        <time>2012-11-11T15:04:33Z</time>
      </trkpt>
      <trkpt lat="59.5150674787" lon="17.8410952645">
        <ele>128.6</ele>
        <time>2012-11-11T15:04:35Z</time>
      </trkpt>
      <trkpt lat="59.5150556603" lon="17.8412278662">
        <ele>128.2</ele>
        <time>2012-11-11T15:04:36Z</time>
      </trkpt>
      <trkpt lat="59.5150430036" lon="17.8413604678">
        <ele>127.8</ele>
        <time>2012-11-11T15:04:37Z</time>
      </trkpt>
      <trkpt lat="59.5150212945" lon="17.84149374">
        <ele>127.4</ele>
        <time>2012-11-11T15:04:38Z</time>
      </trkpt>
      <trkpt lat="59.5149945562" lon="17.8416267608">
        <ele>127</ele>
        <time>2012-11-11T15:04:39Z</time>
      </trkpt>
      <trkpt lat="59.514959939" lon="17.8417602845">
        <ele>126.4</ele>
        <time>2012-11-11T15:04:40Z</time>
      </trkpt>
      <trkpt lat="59.5148655588" lon="17.8420287567">
        <ele>126.4</ele>
        <time>2012-11-11T15:04:42Z</time>
      </trkpt>
      <trkpt lat="59.5148161056" lon="17.8421570836">
        <ele>126</ele>
        <time>2012-11-11T15:04:43Z</time>
      </trkpt>
      <trkpt lat="59.5147666523" lon="17.8422818063">
        <ele>125.6</ele>
        <time>2012-11-11T15:04:44Z</time>
      </trkpt>
      <trkpt lat="59.514718205" lon="17.8424068642">
        <ele>125</ele>
        <time>2012-11-11T15:04:45Z</time>
      </trkpt>
      <trkpt lat="59.514670512" lon="17.8425330118">
        <ele>124.6</ele>
        <time>2012-11-11T15:04:46Z</time>
      </trkpt>
      <trkpt lat="59.5146225675" lon="17.8426631827">
        <ele>124</ele>
        <time>2012-11-11T15:04:47Z</time>
      </trkpt>
      <trkpt lat="59.5145774729" lon="17.842799221">
        <ele>123.6</ele>
        <time>2012-11-11T15:04:48Z</time>
      </trkpt>
      <trkpt lat="59.5145319591" lon="17.8429533641">
        <ele>123</ele>
        <time>2012-11-11T15:04:49Z</time>
      </trkpt>
      <trkpt lat="59.5144960008" lon="17.8431064176">
        <ele>122.4</ele>
        <time>2012-11-11T15:04:50Z</time>
      </trkpt>
      <trkpt lat="59.5144690111" lon="17.8432612313">
        <ele>122</ele>
        <time>2012-11-11T15:04:51Z</time>
      </trkpt>
      <trkpt lat="59.5144610483" lon="17.843433647">
        <ele>121.4</ele>
        <time>2012-11-11T15:04:52Z</time>
      </trkpt>
      <trkpt lat="59.5144760519" lon="17.8436063141">
        <ele>121</ele>
        <time>2012-11-11T15:04:53Z</time>
      </trkpt>
      <trkpt lat="59.514501449" lon="17.8437716052">
        <ele>120.2</ele>
        <time>2012-11-11T15:04:54Z</time>
      </trkpt>
      <trkpt lat="59.5145184643" lon="17.8439394108">
        <ele>119.4</ele>
        <time>2012-11-11T15:04:55Z</time>
      </trkpt>
      <trkpt lat="59.5145168717" lon="17.8441110721">
        <ele>118.4</ele>
        <time>2012-11-11T15:04:56Z</time>
      </trkpt>
      <trkpt lat="59.514497761" lon="17.844283404">
        <ele>117.4</ele>
        <time>2012-11-11T15:04:57Z</time>
      </trkpt>
      <trkpt lat="59.514461635" lon="17.8444310093">
        <ele>116.4</ele>
        <time>2012-11-11T15:04:58Z</time>
      </trkpt>
      <trkpt lat="59.5144126009" lon="17.8445558158">
        <ele>115.4</ele>
        <time>2012-11-11T15:04:59Z</time>
      </trkpt>
      <trkpt lat="59.5143599626" lon="17.8446690552">
        <ele>114.4</ele>
        <time>2012-11-11T15:05:00Z</time>
      </trkpt>
      <trkpt lat="59.5143090006" lon="17.8447806183">
        <ele>114.4</ele>
        <time>2012-11-11T15:05:01Z</time>
      </trkpt>
      <trkpt lat="59.5142561946" lon="17.8448834642">
        <ele>114.4</ele>
        <time>2012-11-11T15:05:02Z</time>
      </trkpt>
      <trkpt lat="59.5140616507" lon="17.8453172276">
        <ele>114.4</ele>
        <time>2012-11-11T15:05:06Z</time>
      </trkpt>
      <trkpt lat="59.5140278717" lon="17.845429545">
        <ele>114.4</ele>
        <time>2012-11-11T15:05:07Z</time>
      </trkpt>
      <trkpt lat="59.5139718806" lon="17.845794912">
        <ele>114.4</ele>
        <time>2012-11-11T15:05:10Z</time>
      </trkpt>
      <trkpt lat="59.5139751495" lon="17.8462952276">
        <ele>114.4</ele>
        <time>2012-11-11T15:05:14Z</time>
      </trkpt>
      <trkpt lat="59.5139795919" lon="17.8464232193">
        <ele>114.4</ele>
        <time>2012-11-11T15:05:15Z</time>
      </trkpt>
      <trkpt lat="59.5139908237" lon="17.8472224334">
        <ele>114.4</ele>
        <time>2012-11-11T15:05:21Z</time>
      </trkpt>
      <trkpt lat="59.5140031451" lon="17.8478155367">
        <ele>114.4</ele>
        <time>2012-11-11T15:05:26Z</time>
      </trkpt>
      <trkpt lat="59.514014293" lon="17.8479346435">
        <ele>114.4</ele>
        <time>2012-11-11T15:05:27Z</time>
      </trkpt>
      <trkpt lat="59.5140505028" lon="17.8481872739">
        <ele>114.4</ele>
        <time>2012-11-11T15:05:29Z</time>
      </trkpt>
      <trkpt lat="59.5141075836" lon="17.8484254037">
        <ele>114.4</ele>
        <time>2012-11-11T15:05:31Z</time>
      </trkpt>
      <trkpt lat="59.5142361619" lon="17.8488724943">
        <ele>114</ele>
        <time>2012-11-11T15:05:34Z</time>
      </trkpt>
      <trkpt lat="59.5142659176" lon="17.8489847279">
        <ele>113.6</ele>
        <time>2012-11-11T15:05:36Z</time>
      </trkpt>
      <trkpt lat="59.5142939132" lon="17.8491008172">
        <ele>113</ele>
        <time>2012-11-11T15:05:37Z</time>
      </trkpt>
      <trkpt lat="59.514324088" lon="17.8492195049">
        <ele>112.6</ele>
        <time>2012-11-11T15:05:38Z</time>
      </trkpt>
      <trkpt lat="59.514356526" lon="17.8493428865">
        <ele>112.2</ele>
        <time>2012-11-11T15:05:39Z</time>
      </trkpt>
      <trkpt lat="59.5145059753" lon="17.8498244266">
        <ele>112.2</ele>
        <time>2012-11-11T15:05:43Z</time>
      </trkpt>
      <trkpt lat="59.5147478769" lon="17.8503284303">
        <ele>112.2</ele>
        <time>2012-11-11T15:05:48Z</time>
      </trkpt>
      <trkpt lat="59.5149815643" lon="17.8507548175">
        <ele>112.2</ele>
        <time>2012-11-11T15:05:53Z</time>
      </trkpt>
      <trkpt lat="59.5150697419" lon="17.8509294125">
        <ele>112.2</ele>
        <time>2012-11-11T15:05:55Z</time>
      </trkpt>
      <trkpt lat="59.5152086299" lon="17.8512022434">
        <ele>112.2</ele>
        <time>2012-11-11T15:05:58Z</time>
      </trkpt>
      <trkpt lat="59.5155293214" lon="17.8518059916">
        <ele>112.2</ele>
        <time>2012-11-11T15:06:05Z</time>
      </trkpt>
      <trkpt lat="59.5157715583" lon="17.8523051338">
        <ele>112.2</ele>
        <time>2012-11-11T15:06:11Z</time>
      </trkpt>
      <trkpt lat="59.5158126296" lon="17.8523805709">
        <ele>112.2</ele>
        <time>2012-11-11T15:06:12Z</time>
      </trkpt>
      <trkpt lat="59.5159633362" lon="17.852670417">
        <ele>112.2</ele>
        <time>2012-11-11T15:06:16Z</time>
      </trkpt>
      <trkpt lat="59.5160754022" lon="17.8528822276">
        <ele>112.6</ele>
        <time>2012-11-11T15:06:19Z</time>
      </trkpt>
      <trkpt lat="59.5161103547" lon="17.8529480255">
        <ele>113</ele>
        <time>2012-11-11T15:06:20Z</time>
      </trkpt>
      <trkpt lat="59.5161459778" lon="17.8530107221">
        <ele>113.8</ele>
        <time>2012-11-11T15:06:21Z</time>
      </trkpt>
      <trkpt lat="59.5161770747" lon="17.8530656236">
        <ele>114.2</ele>
        <time>2012-11-11T15:06:22Z</time>
      </trkpt>
      <trkpt lat="59.5163020488" lon="17.853303921">
        <ele>114.8</ele>
        <time>2012-11-11T15:06:26Z</time>
      </trkpt>
      <trkpt lat="59.5163261048" lon="17.8533687969">
        <ele>115.2</ele>
        <time>2012-11-11T15:06:27Z</time>
      </trkpt>
      <trkpt lat="59.5163437907" lon="17.8534501851">
        <ele>115.6</ele>
        <time>2012-11-11T15:06:28Z</time>
      </trkpt>
      <trkpt lat="59.5163583752" lon="17.8535349261">
        <ele>116</ele>
        <time>2012-11-11T15:06:29Z</time>
      </trkpt>
      <trkpt lat="59.5163688525" lon="17.8536246125">
        <ele>116.4</ele>
        <time>2012-11-11T15:06:30Z</time>
      </trkpt>
      <trkpt lat="59.5163853649" lon="17.853790155">
        <ele>117</ele>
        <time>2012-11-11T15:06:32Z</time>
      </trkpt>
      <trkpt lat="59.5164017934" lon="17.8538490797">
        <ele>117.4</ele>
        <time>2012-11-11T15:06:33Z</time>
      </trkpt>
      <trkpt lat="59.5164296213" lon="17.853882775">
        <ele>117.8</ele>
        <time>2012-11-11T15:06:34Z</time>
      </trkpt>
      <trkpt lat="59.516468681" lon="17.853885541">
        <ele>118.4</ele>
        <time>2012-11-11T15:06:35Z</time>
      </trkpt>
      <trkpt lat="59.5165082435" lon="17.8538551147">
        <ele>118.8</ele>
        <time>2012-11-11T15:06:36Z</time>
      </trkpt>
      <trkpt lat="59.5165529191" lon="17.8538152169">
        <ele>118.8</ele>
        <time>2012-11-11T15:06:37Z</time>
      </trkpt>
      <trkpt lat="59.5167494746" lon="17.8536026519">
        <ele>118.8</ele>
        <time>2012-11-11T15:06:41Z</time>
      </trkpt>
      <trkpt lat="59.5169943937" lon="17.8533171644">
        <ele>118.8</ele>
        <time>2012-11-11T15:06:46Z</time>
      </trkpt>
      <trkpt lat="59.5170364709" lon="17.8532449962">
        <ele>118.8</ele>
        <time>2012-11-11T15:06:47Z</time>
      </trkpt>
      <trkpt lat="59.5171529793" lon="17.8529827266">
        <ele>118.8</ele>
        <time>2012-11-11T15:06:50Z</time>
      </trkpt>
      <trkpt lat="59.5173852417" lon="17.8523994301">
        <ele>118.8</ele>
        <time>2012-11-11T15:06:55Z</time>
      </trkpt>
      <trkpt lat="59.5175440787" lon="17.852080415">
        <ele>118.8</ele>
        <time>2012-11-11T15:06:58Z</time>
      </trkpt>
      <trkpt lat="59.517664359" lon="17.8518980249">
        <ele>118.4</ele>
        <time>2012-11-11T15:07:00Z</time>
      </trkpt>
      <trkpt lat="59.5177272232" lon="17.8518032256">
        <ele>117.8</ele>
        <time>2012-11-11T15:07:01Z</time>
      </trkpt>
      <trkpt lat="59.5177930212" lon="17.851708091">
        <ele>117.4</ele>
        <time>2012-11-11T15:07:02Z</time>
      </trkpt>
      <trkpt lat="59.517861166" lon="17.8516197458">
        <ele>117</ele>
        <time>2012-11-11T15:07:03Z</time>
      </trkpt>
      <trkpt lat="59.517930652" lon="17.8515364297">
        <ele>116.4</ele>
        <time>2012-11-11T15:07:04Z</time>
      </trkpt>
      <trkpt lat="59.5180806042" lon="17.8513943565">
        <ele>116</ele>
        <time>2012-11-11T15:07:06Z</time>
      </trkpt>
      <trkpt lat="59.5181562089" lon="17.8513397065">
        <ele>115.6</ele>
        <time>2012-11-11T15:07:07Z</time>
      </trkpt>
      <trkpt lat="59.5182337415" lon="17.8512890798">
        <ele>115</ele>
        <time>2012-11-11T15:07:08Z</time>
      </trkpt>
      <trkpt lat="59.5183092624" lon="17.8512340946">
        <ele>114.6</ele>
        <time>2012-11-11T15:07:09Z</time>
      </trkpt>
      <trkpt lat="59.5183836098" lon="17.851179277">
        <ele>114</ele>
        <time>2012-11-11T15:07:10Z</time>
      </trkpt>
      <trkpt lat="59.5184570353" lon="17.8511248784">
        <ele>114</ele>
        <time>2012-11-11T15:07:11Z</time>
      </trkpt>
      <trkpt lat="59.5189058022" lon="17.850883815">
        <ele>114</ele>
        <time>2012-11-11T15:07:17Z</time>
      </trkpt>
      <trkpt lat="59.5194427467" lon="17.8507140815">
        <ele>114</ele>
        <time>2012-11-11T15:07:24Z</time>
      </trkpt>
      <trkpt lat="59.5197397174" lon="17.8504981638">
        <ele>114</ele>
        <time>2012-11-11T15:07:29Z</time>
      </trkpt>
      <trkpt lat="59.5201283861" lon="17.8501036277">
        <ele>114</ele>
        <time>2012-11-11T15:07:36Z</time>
      </trkpt>
      <trkpt lat="59.5204713735" lon="17.8496323973">
        <ele>114</ele>
        <time>2012-11-11T15:07:42Z</time>
      </trkpt>
      <trkpt lat="59.5205717887" lon="17.8494947665">
        <ele>114</ele>
        <time>2012-11-11T15:07:44Z</time>
      </trkpt>
      <trkpt lat="59.520700367" lon="17.8492578102">
        <ele>114</ele>
        <time>2012-11-11T15:07:47Z</time>
      </trkpt>
      <trkpt lat="59.5207439529" lon="17.8491739912">
        <ele>114.4</ele>
        <time>2012-11-11T15:07:48Z</time>
      </trkpt>
      <trkpt lat="59.5207857786" lon="17.8490946984">
        <ele>114.8</ele>
        <time>2012-11-11T15:07:49Z</time>
      </trkpt>
      <trkpt lat="59.5208270175" lon="17.8490068561">
        <ele>115.2</ele>
        <time>2012-11-11T15:07:50Z</time>
      </trkpt>
      <trkpt lat="59.5208703519" lon="17.8489246297">
        <ele>115.6</ele>
        <time>2012-11-11T15:07:51Z</time>
      </trkpt>
      <trkpt lat="59.5209135187" lon="17.8488375417">
        <ele>116</ele>
        <time>2012-11-11T15:07:52Z</time>
      </trkpt>
      <trkpt lat="59.5209563502" lon="17.8487502862">
        <ele>116</ele>
        <time>2012-11-11T15:07:53Z</time>
      </trkpt>
      <trkpt lat="59.5210446954" lon="17.8485756074">
        <ele>116</ele>
        <time>2012-11-11T15:07:55Z</time>
      </trkpt>
      <trkpt lat="59.5212296002" lon="17.8482542453">
        <ele>116</ele>
        <time>2012-11-11T15:07:59Z</time>
      </trkpt>
      <trkpt lat="59.5216109766" lon="17.8476197355">
        <ele>116</ele>
        <time>2012-11-11T15:08:07Z</time>
      </trkpt>
      <trkpt lat="59.5218832207" lon="17.8470734032">
        <ele>116</ele>
        <time>2012-11-11T15:08:14Z</time>
      </trkpt>
      <trkpt lat="59.5219166645" lon="17.8470138079">
        <ele>116</ele>
        <time>2012-11-11T15:08:15Z</time>
      </trkpt>
      <trkpt lat="59.5219884974" lon="17.8470009836">
        <ele>116</ele>
        <time>2012-11-11T15:08:17Z</time>
      </trkpt>
      <trkpt lat="59.5220353522" lon="17.847124449">
        <ele>116</ele>
        <time>2012-11-11T15:08:20Z</time>
      </trkpt>
      <trkpt lat="59.5220398784" lon="17.8471756624">
        <ele>116</ele>
        <time>2012-11-11T15:08:21Z</time>
      </trkpt>
      <trkpt lat="59.5220433988" lon="17.8472899915">
        <ele>116.6</ele>
        <time>2012-11-11T15:08:23Z</time>
      </trkpt>
      <trkpt lat="59.5220454105" lon="17.8473538616">
        <ele>117</ele>
        <time>2012-11-11T15:08:24Z</time>
      </trkpt>
      <trkpt lat="59.5220495176" lon="17.8474206654">
        <ele>117.4</ele>
        <time>2012-11-11T15:08:25Z</time>
      </trkpt>
      <trkpt lat="59.5220563908" lon="17.8474927497">
        <ele>118.4</ele>
        <time>2012-11-11T15:08:26Z</time>
      </trkpt>
      <trkpt lat="59.5220615876" lon="17.8475756467">
        <ele>118.8</ele>
        <time>2012-11-11T15:08:27Z</time>
      </trkpt>
      <trkpt lat="59.5220628448" lon="17.8476463061">
        <ele>119.2</ele>
        <time>2012-11-11T15:08:28Z</time>
      </trkpt>
      <trkpt lat="59.5220604979" lon="17.8477211565">
        <ele>119.8</ele>
        <time>2012-11-11T15:08:29Z</time>
      </trkpt>
      <trkpt lat="59.5220583186" lon="17.8477896366">
        <ele>120.2</ele>
        <time>2012-11-11T15:08:30Z</time>
      </trkpt>
      <trkpt lat="59.5220587377" lon="17.8478576976">
        <ele>120.6</ele>
        <time>2012-11-11T15:08:31Z</time>
      </trkpt>
      <trkpt lat="59.5220593244" lon="17.847930704">
        <ele>121.2</ele>
        <time>2012-11-11T15:08:32Z</time>
      </trkpt>
      <trkpt lat="59.5220596597" lon="17.8480000223">
        <ele>121.8</ele>
        <time>2012-11-11T15:08:33Z</time>
      </trkpt>
      <trkpt lat="59.5220589053" lon="17.8480740345">
        <ele>122.4</ele>
        <time>2012-11-11T15:08:34Z</time>
      </trkpt>
      <trkpt lat="59.5220570613" lon="17.848139078">
        <ele>122.8</ele>
        <time>2012-11-11T15:08:35Z</time>
      </trkpt>
      <trkpt lat="59.5220537924" lon="17.8482072229">
        <ele>123.4</ele>
        <time>2012-11-11T15:08:36Z</time>
      </trkpt>
      <trkpt lat="59.5220504396" lon="17.8482695004">
        <ele>124</ele>
        <time>2012-11-11T15:08:37Z</time>
      </trkpt>
      <trkpt lat="59.5220479251" lon="17.8483290957">
        <ele>124.6</ele>
        <time>2012-11-11T15:08:38Z</time>
      </trkpt>
      <trkpt lat="59.5220500205" lon="17.8483885233">
        <ele>125</ele>
        <time>2012-11-11T15:08:39Z</time>
      </trkpt>
      <trkpt lat="59.5220513616" lon="17.8484501303">
        <ele>125.4</ele>
        <time>2012-11-11T15:08:40Z</time>
      </trkpt>
      <trkpt lat="59.5220542115" lon="17.8485147548">
        <ele>125.8</ele>
        <time>2012-11-11T15:08:41Z</time>
      </trkpt>
      <trkpt lat="59.5220583186" lon="17.8485832349">
        <ele>126.4</ele>
        <time>2012-11-11T15:08:42Z</time>
      </trkpt>
      <trkpt lat="59.5220593244" lon="17.8486512121">
        <ele>126.8</ele>
        <time>2012-11-11T15:08:43Z</time>
      </trkpt>
      <trkpt lat="59.5220598274" lon="17.8487155851">
        <ele>127.2</ele>
        <time>2012-11-11T15:08:44Z</time>
      </trkpt>
      <trkpt lat="59.5220564746" lon="17.8487800419">
        <ele>127.6</ele>
        <time>2012-11-11T15:08:45Z</time>
      </trkpt>
      <trkpt lat="59.5220512778" lon="17.8488507013">
        <ele>128</ele>
        <time>2012-11-11T15:08:46Z</time>
      </trkpt>
      <trkpt lat="59.5220444885" lon="17.8489197682">
        <ele>128.6</ele>
        <time>2012-11-11T15:08:47Z</time>
      </trkpt>
      <trkpt lat="59.5220393755" lon="17.8489946185">
        <ele>129</ele>
        <time>2012-11-11T15:08:48Z</time>
      </trkpt>
      <trkpt lat="59.5220343464" lon="17.8490733246">
        <ele>129.6</ele>
        <time>2012-11-11T15:08:49Z</time>
      </trkpt>
      <trkpt lat="59.5220294011" lon="17.8491599096">
        <ele>130.4</ele>
        <time>2012-11-11T15:08:50Z</time>
      </trkpt>
      <trkpt lat="59.5220242043" lon="17.8492405435">
        <ele>130.8</ele>
        <time>2012-11-11T15:08:51Z</time>
      </trkpt>
      <trkpt lat="59.522018337" lon="17.8493091074">
        <ele>131.2</ele>
        <time>2012-11-11T15:08:52Z</time>
      </trkpt>
      <trkpt lat="59.5220117991" lon="17.8493746539">
        <ele>131.8</ele>
        <time>2012-11-11T15:08:53Z</time>
      </trkpt>
      <trkpt lat="59.5220092007" lon="17.8494404518">
        <ele>132.2</ele>
        <time>2012-11-11T15:08:54Z</time>
      </trkpt>
      <trkpt lat="59.5220167444" lon="17.849513542">
        <ele>132.8</ele>
        <time>2012-11-11T15:08:55Z</time>
      </trkpt>
      <trkpt lat="59.5220264674" lon="17.8495801781">
        <ele>133.2</ele>
        <time>2012-11-11T15:08:56Z</time>
      </trkpt>
      <trkpt lat="59.5220351846" lon="17.8496526815">
        <ele>133.8</ele>
        <time>2012-11-11T15:08:57Z</time>
      </trkpt>
      <trkpt lat="59.5220435665" lon="17.8497290406">
        <ele>134.2</ele>
        <time>2012-11-11T15:08:58Z</time>
      </trkpt>
      <trkpt lat="59.5220518646" lon="17.8497995324">
        <ele>134.8</ele>
        <time>2012-11-11T15:08:59Z</time>
      </trkpt>
      <trkpt lat="59.5220594921" lon="17.84987103">
        <ele>135.4</ele>
        <time>2012-11-11T15:09:00Z</time>
      </trkpt>
      <trkpt lat="59.5220711429" lon="17.8499374147">
        <ele>135.8</ele>
        <time>2012-11-11T15:09:01Z</time>
      </trkpt>
      <trkpt lat="59.522082207" lon="17.8500007818">
        <ele>136.2</ele>
        <time>2012-11-11T15:09:02Z</time>
      </trkpt>
      <trkpt lat="59.5220950313" lon="17.8500602933">
        <ele>136.8</ele>
        <time>2012-11-11T15:09:03Z</time>
      </trkpt>
      <trkpt lat="59.5221080233" lon="17.8501174579">
        <ele>137.2</ele>
        <time>2012-11-11T15:09:04Z</time>
      </trkpt>
      <trkpt lat="59.5221148964" lon="17.8501811603">
        <ele>137.6</ele>
        <time>2012-11-11T15:09:05Z</time>
      </trkpt>
      <trkpt lat="59.5221295648" lon="17.8502421805">
        <ele>138</ele>
        <time>2012-11-11T15:09:06Z</time>
      </trkpt>
      <trkpt lat="59.5222281359" lon="17.850601345">
        <ele>138.4</ele>
        <time>2012-11-11T15:09:12Z</time>
      </trkpt>
      <trkpt lat="59.5222483363" lon="17.8506584257">
        <ele>138.8</ele>
        <time>2012-11-11T15:09:13Z</time>
      </trkpt>
      <trkpt lat="59.5222713027" lon="17.8507028498">
        <ele>139.4</ele>
        <time>2012-11-11T15:09:14Z</time>
      </trkpt>
      <trkpt lat="59.5222963646" lon="17.8507486149">
        <ele>140.2</ele>
        <time>2012-11-11T15:09:15Z</time>
      </trkpt>
      <trkpt lat="59.5223575524" lon="17.8508164245">
        <ele>140.2</ele>
        <time>2012-11-11T15:09:17Z</time>
      </trkpt>
      <trkpt lat="59.5224925849" lon="17.8508174303">
        <ele>140.2</ele>
        <time>2012-11-11T15:09:22Z</time>
      </trkpt>
      <trkpt lat="59.5225591371" lon="17.8507725872">
        <ele>140.6</ele>
        <time>2012-11-11T15:09:25Z</time>
      </trkpt>
      <trkpt lat="59.522577745" lon="17.8507637862">
        <ele>141</ele>
        <time>2012-11-11T15:09:26Z</time>
      </trkpt>
      <trkpt lat="59.5225941735" lon="17.8507536441">
        <ele>141.6</ele>
        <time>2012-11-11T15:09:27Z</time>
      </trkpt>
      <trkpt lat="59.5226152121" lon="17.8507419094">
        <ele>142</ele>
        <time>2012-11-11T15:09:28Z</time>
      </trkpt>
      <trkpt lat="59.5226340713" lon="17.8507287498">
        <ele>142.4</ele>
        <time>2012-11-11T15:09:29Z</time>
      </trkpt>
      <trkpt lat="59.5227919025" lon="17.8506225512">
        <ele>142.4</ele>
        <time>2012-11-11T15:09:35Z</time>
      </trkpt>
      <trkpt lat="59.5228707762" lon="17.8505632911">
        <ele>142.8</ele>
        <time>2012-11-11T15:09:37Z</time>
      </trkpt>
      <trkpt lat="59.5229105902" lon="17.8505532328">
        <ele>143.4</ele>
        <time>2012-11-11T15:09:38Z</time>
      </trkpt>
      <trkpt lat="59.5229553496" lon="17.8505418335">
        <ele>143.8</ele>
        <time>2012-11-11T15:09:39Z</time>
      </trkpt>
      <trkpt lat="59.5229969238" lon="17.8505213816">
        <ele>144.6</ele>
        <time>2012-11-11T15:09:40Z</time>
      </trkpt>
      <trkpt lat="59.5230393362" lon="17.8505067971">
        <ele>144.6</ele>
        <time>2012-11-11T15:09:41Z</time>
      </trkpt>
      <trkpt lat="59.5232273422" lon="17.8504617025">
        <ele>144.6</ele>
        <time>2012-11-11T15:09:45Z</time>
      </trkpt>
      <trkpt lat="59.5232690841" lon="17.8504662287">
        <ele>144.6</ele>
        <time>2012-11-11T15:09:46Z</time>
      </trkpt>
      <trkpt lat="59.5234078883" lon="17.8504959006">
        <ele>144.6</ele>
        <time>2012-11-11T15:09:49Z</time>
      </trkpt>
      <trkpt lat="59.5235251511" lon="17.8505475332">
        <ele>144.6</ele>
        <time>2012-11-11T15:09:52Z</time>
      </trkpt>
      <trkpt lat="59.5235579243" lon="17.8505741038">
        <ele>145</ele>
        <time>2012-11-11T15:09:53Z</time>
      </trkpt>
      <trkpt lat="59.5235902785" lon="17.8506026022">
        <ele>145.4</ele>
        <time>2012-11-11T15:09:54Z</time>
      </trkpt>
      <trkpt lat="59.5236245604" lon="17.8506392311">
        <ele>145.8</ele>
        <time>2012-11-11T15:09:55Z</time>
      </trkpt>
      <trkpt lat="59.5236573337" lon="17.8506794643">
        <ele>146.2</ele>
        <time>2012-11-11T15:09:56Z</time>
      </trkpt>
      <trkpt lat="59.5236867541" lon="17.8507195297">
        <ele>146.6</ele>
        <time>2012-11-11T15:09:57Z</time>
      </trkpt>
      <trkpt lat="59.5237170966" lon="17.8507519677">
        <ele>146.6</ele>
        <time>2012-11-11T15:09:58Z</time>
      </trkpt>
      <trkpt lat="59.5238729161" lon="17.850941231">
        <ele>146.6</ele>
        <time>2012-11-11T15:10:03Z</time>
      </trkpt>
      <trkpt lat="59.5240868222" lon="17.8511023311">
        <ele>146.6</ele>
        <time>2012-11-11T15:10:09Z</time>
      </trkpt>
      <trkpt lat="59.5243259578" lon="17.8511901734">
        <ele>146.6</ele>
        <time>2012-11-11T15:10:15Z</time>
      </trkpt>
      <trkpt lat="59.5245256147" lon="17.8511502756">
        <ele>146.6</ele>
        <time>2012-11-11T15:10:20Z</time>
      </trkpt>
      <trkpt lat="59.5246035664" lon="17.8511312487">
        <ele>147</ele>
        <time>2012-11-11T15:10:22Z</time>
      </trkpt>
      <trkpt lat="59.5246391894" lon="17.8511171671">
        <ele>147.4</ele>
        <time>2012-11-11T15:10:23Z</time>
      </trkpt>
      <trkpt lat="59.5246779976" lon="17.8510957094">
        <ele>147.8</ele>
        <time>2012-11-11T15:10:24Z</time>
      </trkpt>
      <trkpt lat="59.5247177278" lon="17.851077856">
        <ele>148.2</ele>
        <time>2012-11-11T15:10:25Z</time>
      </trkpt>
      <trkpt lat="59.5247508364" lon="17.8510734136">
        <ele>148.6</ele>
        <time>2012-11-11T15:10:26Z</time>
      </trkpt>
      <trkpt lat="59.5248701946" lon="17.8510720725">
        <ele>148.6</ele>
        <time>2012-11-11T15:10:30Z</time>
      </trkpt>
      <trkpt lat="59.5250152853" lon="17.8510589129">
        <ele>149</ele>
        <time>2012-11-11T15:10:34Z</time>
      </trkpt>
      <trkpt lat="59.525054764" lon="17.8510532132">
        <ele>149.4</ele>
        <time>2012-11-11T15:10:35Z</time>
      </trkpt>
      <trkpt lat="59.5250942428" lon="17.8510575718">
        <ele>150</ele>
        <time>2012-11-11T15:10:36Z</time>
      </trkpt>
      <trkpt lat="59.5251277704" lon="17.8510670433">
        <ele>150.4</ele>
        <time>2012-11-11T15:10:37Z</time>
      </trkpt>
      <trkpt lat="59.5251639802" lon="17.8510876628">
        <ele>150.8</ele>
        <time>2012-11-11T15:10:38Z</time>
      </trkpt>
      <trkpt lat="59.5252289399" lon="17.8511454979">
        <ele>150.8</ele>
        <time>2012-11-11T15:10:40Z</time>
      </trkpt>
      <trkpt lat="59.5254115815" lon="17.8514185802">
        <ele>150.8</ele>
        <time>2012-11-11T15:10:46Z</time>
      </trkpt>
      <trkpt lat="59.5255057103" lon="17.8515954383">
        <ele>150.8</ele>
        <time>2012-11-11T15:10:49Z</time>
      </trkpt>
      <trkpt lat="59.5255860927" lon="17.8517809297">
        <ele>150.8</ele>
        <time>2012-11-11T15:10:52Z</time>
      </trkpt>
      <trkpt lat="59.5256155132" lon="17.8518380105">
        <ele>150.8</ele>
        <time>2012-11-11T15:10:53Z</time>
      </trkpt>
      <trkpt lat="59.5257418284" lon="17.8522136034">
        <ele>150.8</ele>
        <time>2012-11-11T15:10:59Z</time>
      </trkpt>
      <trkpt lat="59.5257548203" lon="17.8522965842">
        <ele>150.8</ele>
        <time>2012-11-11T15:11:00Z</time>
      </trkpt>
      <trkpt lat="59.5257596818" lon="17.8525962371">
        <ele>150.8</ele>
        <time>2012-11-11T15:11:03Z</time>
      </trkpt>
      <trkpt lat="59.525735542" lon="17.8527989953">
        <ele>150.8</ele>
        <time>2012-11-11T15:11:05Z</time>
      </trkpt>
      <trkpt lat="59.52570587" lon="17.8530836446">
        <ele>150.8</ele>
        <time>2012-11-11T15:11:08Z</time>
      </trkpt>
      <trkpt lat="59.5256899444" lon="17.8538118641">
        <ele>150.8</ele>
        <time>2012-11-11T15:11:15Z</time>
      </trkpt>
      <trkpt lat="59.5256862564" lon="17.8543233276">
        <ele>150.8</ele>
        <time>2012-11-11T15:11:20Z</time>
      </trkpt>
      <trkpt lat="59.5256368032" lon="17.8549360445">
        <ele>150.8</ele>
        <time>2012-11-11T15:11:26Z</time>
      </trkpt>
      <trkpt lat="59.5256188659" lon="17.8552593344">
        <ele>150.8</ele>
        <time>2012-11-11T15:11:29Z</time>
      </trkpt>
      <trkpt lat="59.5256392339" lon="17.8555029124">
        <ele>150.8</ele>
        <time>2012-11-11T15:11:31Z</time>
      </trkpt>
      <trkpt lat="59.5256823169" lon="17.8557303972">
        <ele>150.4</ele>
        <time>2012-11-11T15:11:33Z</time>
      </trkpt>
      <trkpt lat="59.525698494" lon="17.8558385237">
        <ele>150</ele>
        <time>2012-11-11T15:11:34Z</time>
      </trkpt>
      <trkpt lat="59.5257080493" lon="17.8559497515">
        <ele>149.6</ele>
        <time>2012-11-11T15:11:35Z</time>
      </trkpt>
      <trkpt lat="59.5257088875" lon="17.8560603088">
        <ele>149.2</ele>
        <time>2012-11-11T15:11:36Z</time>
      </trkpt>
      <trkpt lat="59.5257041937" lon="17.8561731292">
        <ele>148.8</ele>
        <time>2012-11-11T15:11:37Z</time>
      </trkpt>
      <trkpt lat="59.5256384796" lon="17.8565172062">
        <ele>148.8</ele>
        <time>2012-11-11T15:11:40Z</time>
      </trkpt>
      <trkpt lat="59.5255653056" lon="17.8568932182">
        <ele>148.8</ele>
        <time>2012-11-11T15:11:43Z</time>
      </trkpt>
      <trkpt lat="59.5255205462" lon="17.8572620218">
        <ele>148.8</ele>
        <time>2012-11-11T15:11:46Z</time>
      </trkpt>
      <trkpt lat="59.5254648904" lon="17.8577367726">
        <ele>148.8</ele>
        <time>2012-11-11T15:11:50Z</time>
      </trkpt>
      <trkpt lat="59.5254182032" lon="17.8579649279">
        <ele>148.8</ele>
        <time>2012-11-11T15:11:52Z</time>
      </trkpt>
      <trkpt lat="59.5253695044" lon="17.8582148762">
        <ele>148.8</ele>
        <time>2012-11-11T15:11:54Z</time>
      </trkpt>
      <trkpt lat="59.525377551" lon="17.8584831808">
        <ele>148.8</ele>
        <time>2012-11-11T15:11:56Z</time>
      </trkpt>
      <trkpt lat="59.5254069715" lon="17.8586165368">
        <ele>148.2</ele>
        <time>2012-11-11T15:11:57Z</time>
      </trkpt>
      <trkpt lat="59.5254343803" lon="17.8587540838">
        <ele>147.8</ele>
        <time>2012-11-11T15:11:58Z</time>
      </trkpt>
      <trkpt lat="59.5254694166" lon="17.8588755375">
        <ele>147.4</ele>
        <time>2012-11-11T15:11:59Z</time>
      </trkpt>
      <trkpt lat="59.5255058779" lon="17.8589852566">
        <ele>147</ele>
        <time>2012-11-11T15:12:00Z</time>
      </trkpt>
      <trkpt lat="59.5255389026" lon="17.8590856718">
        <ele>146.6</ele>
        <time>2012-11-11T15:12:01Z</time>
      </trkpt>
      <trkpt lat="59.5256550757" lon="17.8593714107">
        <ele>146.6</ele>
        <time>2012-11-11T15:12:04Z</time>
      </trkpt>
      <trkpt lat="59.5259383001" lon="17.8600458184">
        <ele>146.6</ele>
        <time>2012-11-11T15:12:11Z</time>
      </trkpt>
      <trkpt lat="59.5260227059" lon="17.8603940025">
        <ele>146.6</ele>
        <time>2012-11-11T15:12:14Z</time>
      </trkpt>
      <trkpt lat="59.5260271483" lon="17.8605168812">
        <ele>146.6</ele>
        <time>2012-11-11T15:12:15Z</time>
      </trkpt>
      <trkpt lat="59.5259745938" lon="17.8609503931">
        <ele>146.6</ele>
        <time>2012-11-11T15:12:19Z</time>
      </trkpt>
      <trkpt lat="59.5259124839" lon="17.8614276584">
        <ele>146.6</ele>
        <time>2012-11-11T15:12:23Z</time>
      </trkpt>
      <trkpt lat="59.5259157528" lon="17.8615662951">
        <ele>146.6</ele>
        <time>2012-11-11T15:12:24Z</time>
      </trkpt>
      <trkpt lat="59.5259679721" lon="17.8620085241">
        <ele>146.6</ele>
        <time>2012-11-11T15:12:28Z</time>
      </trkpt>
      <trkpt lat="59.525987921" lon="17.8621103642">
        <ele>146.6</ele>
        <time>2012-11-11T15:12:29Z</time>
      </trkpt>
      <trkpt lat="59.5261226181" lon="17.8626198161">
        <ele>146.6</ele>
        <time>2012-11-11T15:12:34Z</time>
      </trkpt>
      <trkpt lat="59.5263221073" lon="17.8629923077">
        <ele>146.6</ele>
        <time>2012-11-11T15:12:38Z</time>
      </trkpt>
      <trkpt lat="59.526400981" lon="17.86326539">
        <ele>146.2</ele>
        <time>2012-11-11T15:12:40Z</time>
      </trkpt>
      <trkpt lat="59.5264178286" lon="17.863423305">
        <ele>145.8</ele>
        <time>2012-11-11T15:12:41Z</time>
      </trkpt>
      <trkpt lat="59.5264169904" lon="17.8635982353">
        <ele>145.4</ele>
        <time>2012-11-11T15:12:42Z</time>
      </trkpt>
      <trkpt lat="59.5263929344" lon="17.8637676335">
        <ele>144.6</ele>
        <time>2012-11-11T15:12:43Z</time>
      </trkpt>
      <trkpt lat="59.5263608317" lon="17.8639315834">
        <ele>144</ele>
        <time>2012-11-11T15:12:44Z</time>
      </trkpt>
      <trkpt lat="59.5263285614" lon="17.864094779">
        <ele>143.2</ele>
        <time>2012-11-11T15:12:45Z</time>
      </trkpt>
      <trkpt lat="59.5263068523" lon="17.8642622494">
        <ele>142.4</ele>
        <time>2012-11-11T15:12:46Z</time>
      </trkpt>
      <trkpt lat="59.5262927707" lon="17.8644194938">
        <ele>141.8</ele>
        <time>2012-11-11T15:12:47Z</time>
      </trkpt>
      <trkpt lat="59.5262851431" lon="17.8645831923">
        <ele>141.4</ele>
        <time>2012-11-11T15:12:48Z</time>
      </trkpt>
      <trkpt lat="59.5262797787" lon="17.8647307138">
        <ele>140.8</ele>
        <time>2012-11-11T15:12:49Z</time>
      </trkpt>
      <trkpt lat="59.5262744981" lon="17.864880666">
        <ele>140.2</ele>
        <time>2012-11-11T15:12:50Z</time>
      </trkpt>
      <trkpt lat="59.5262656133" lon="17.8650270139">
        <ele>139.6</ele>
        <time>2012-11-11T15:12:51Z</time>
      </trkpt>
      <trkpt lat="59.5262513641" lon="17.8653115795">
        <ele>139.6</ele>
        <time>2012-11-11T15:12:53Z</time>
      </trkpt>
      <trkpt lat="59.5262204349" lon="17.8659965483">
        <ele>139.6</ele>
        <time>2012-11-11T15:12:58Z</time>
      </trkpt>
      <trkpt lat="59.5261930261" lon="17.8662681219">
        <ele>139.2</ele>
        <time>2012-11-11T15:13:00Z</time>
      </trkpt>
      <trkpt lat="59.5261781901" lon="17.8663943533">
        <ele>138.8</ele>
        <time>2012-11-11T15:13:01Z</time>
      </trkpt>
      <trkpt lat="59.5261631027" lon="17.8665225964">
        <ele>138.4</ele>
        <time>2012-11-11T15:13:02Z</time>
      </trkpt>
      <trkpt lat="59.5261550561" lon="17.8666590537">
        <ele>137.8</ele>
        <time>2012-11-11T15:13:03Z</time>
      </trkpt>
      <trkpt lat="59.5261529606" lon="17.8667914877">
        <ele>137.4</ele>
        <time>2012-11-11T15:13:04Z</time>
      </trkpt>
      <trkpt lat="59.5262061018" lon="17.8673030351">
        <ele>137.4</ele>
        <time>2012-11-11T15:13:08Z</time>
      </trkpt>
      <trkpt lat="59.5262295712" lon="17.8674169451">
        <ele>137.4</ele>
        <time>2012-11-11T15:13:09Z</time>
      </trkpt>
      <trkpt lat="59.5263314951" lon="17.8678058653">
        <ele>137.4</ele>
        <time>2012-11-11T15:13:13Z</time>
      </trkpt>
      <trkpt lat="59.526352366" lon="17.86789815">
        <ele>137.4</ele>
        <time>2012-11-11T15:13:14Z</time>
      </trkpt>
      <trkpt lat="59.5264482549" lon="17.8682472561">
        <ele>137.4</ele>
        <time>2012-11-11T15:13:18Z</time>
      </trkpt>
      <trkpt lat="59.5265938485" lon="17.8684785127">
        <ele>137.4</ele>
        <time>2012-11-11T15:13:22Z</time>
      </trkpt>
      <trkpt lat="59.526635758" lon="17.8685324083">
        <ele>137.4</ele>
        <time>2012-11-11T15:13:23Z</time>
      </trkpt>
      <trkpt lat="59.526675572" lon="17.8685982901">
        <ele>137.8</ele>
        <time>2012-11-11T15:13:24Z</time>
      </trkpt>
      <trkpt lat="59.5267139612" lon="17.8686552032">
        <ele>138.2</ele>
        <time>2012-11-11T15:13:25Z</time>
      </trkpt>
      <trkpt lat="59.5267508415" lon="17.8687089312">
        <ele>138.6</ele>
        <time>2012-11-11T15:13:26Z</time>
      </trkpt>
      <trkpt lat="59.5267877219" lon="17.8687722145">
        <ele>139.2</ele>
        <time>2012-11-11T15:13:27Z</time>
      </trkpt>
      <trkpt lat="59.5268245184" lon="17.868831726">
        <ele>139.6</ele>
        <time>2012-11-11T15:13:28Z</time>
      </trkpt>
      <trkpt lat="59.5269308009" lon="17.8690340651">
        <ele>139.6</ele>
        <time>2012-11-11T15:13:31Z</time>
      </trkpt>
      <trkpt lat="59.5269832716" lon="17.8691720311">
        <ele>139.6</ele>
        <time>2012-11-11T15:13:33Z</time>
      </trkpt>
      <trkpt lat="59.527165075" lon="17.869544439">
        <ele>140</ele>
        <time>2012-11-11T15:13:39Z</time>
      </trkpt>
      <trkpt lat="59.5271906398" lon="17.86960043">
        <ele>140.4</ele>
        <time>2012-11-11T15:13:40Z</time>
      </trkpt>
      <trkpt lat="59.527207236" lon="17.8696519787">
        <ele>140.8</ele>
        <time>2012-11-11T15:13:41Z</time>
      </trkpt>
      <trkpt lat="59.5272238321" lon="17.8697096462">
        <ele>141.2</ele>
        <time>2012-11-11T15:13:42Z</time>
      </trkpt>
      <trkpt lat="59.5272383328" lon="17.8697665593">
        <ele>141.6</ele>
        <time>2012-11-11T15:13:43Z</time>
      </trkpt>
      <trkpt lat="59.5272963356" lon="17.8699453452">
        <ele>141.6</ele>
        <time>2012-11-11T15:13:46Z</time>
      </trkpt>
      <trkpt lat="59.5273162845" lon="17.8700113108">
        <ele>142.2</ele>
        <time>2012-11-11T15:13:47Z</time>
      </trkpt>
      <trkpt lat="59.5273285221" lon="17.8700846524">
        <ele>142.6</ele>
        <time>2012-11-11T15:13:48Z</time>
      </trkpt>
      <trkpt lat="59.52734428" lon="17.8701646157">
        <ele>143</ele>
        <time>2012-11-11T15:13:49Z</time>
      </trkpt>
      <trkpt lat="59.5273622173" lon="17.8702384603">
        <ele>143.4</ele>
        <time>2012-11-11T15:13:50Z</time>
      </trkpt>
      <trkpt lat="59.5273774724" lon="17.870311299">
        <ele>144</ele>
        <time>2012-11-11T15:13:51Z</time>
      </trkpt>
      <trkpt lat="59.5274894545" lon="17.8707874747">
        <ele>144</ele>
        <time>2012-11-11T15:13:57Z</time>
      </trkpt>
      <trkpt lat="59.5275460324" lon="17.8712403488">
        <ele>144</ele>
        <time>2012-11-11T15:14:03Z</time>
      </trkpt>
      <trkpt lat="59.527530442" lon="17.8714208949">
        <ele>144</ele>
        <time>2012-11-11T15:14:05Z</time>
      </trkpt>
      <trkpt lat="59.5274832519" lon="17.8716073084">
        <ele>144</ele>
        <time>2012-11-11T15:14:07Z</time>
      </trkpt>
      <trkpt lat="59.5272907197" lon="17.8721387208">
        <ele>144</ele>
        <time>2012-11-11T15:14:12Z</time>
      </trkpt>
      <trkpt lat="59.5271631472" lon="17.8724729072">
        <ele>143.4</ele>
        <time>2012-11-11T15:14:15Z</time>
      </trkpt>
      <trkpt lat="59.5271246743" lon="17.8725923492">
        <ele>143</ele>
        <time>2012-11-11T15:14:16Z</time>
      </trkpt>
      <trkpt lat="59.5270847764" lon="17.8727173234">
        <ele>142.6</ele>
        <time>2012-11-11T15:14:17Z</time>
      </trkpt>
      <trkpt lat="59.5270573676" lon="17.8728384418">
        <ele>142.2</ele>
        <time>2012-11-11T15:14:18Z</time>
      </trkpt>
      <trkpt lat="59.5270287853" lon="17.8729585545">
        <ele>141.8</ele>
        <time>2012-11-11T15:14:19Z</time>
      </trkpt>
      <trkpt lat="59.5269535997" lon="17.8733359914">
        <ele>141.8</ele>
        <time>2012-11-11T15:14:22Z</time>
      </trkpt>
      <trkpt lat="59.5269454692" lon="17.8734915595">
        <ele>141.4</ele>
        <time>2012-11-11T15:14:23Z</time>
      </trkpt>
      <trkpt lat="59.5269436252" lon="17.8736532463">
        <ele>140.8</ele>
        <time>2012-11-11T15:14:24Z</time>
      </trkpt>
      <trkpt lat="59.5269478162" lon="17.8738252429">
        <ele>140.4</ele>
        <time>2012-11-11T15:14:25Z</time>
      </trkpt>
      <trkpt lat="59.5269513366" lon="17.8739907016">
        <ele>140</ele>
        <time>2012-11-11T15:14:26Z</time>
      </trkpt>
      <trkpt lat="59.5269524262" lon="17.8741568309">
        <ele>139.4</ele>
        <time>2012-11-11T15:14:27Z</time>
      </trkpt>
      <trkpt lat="59.5269479838" lon="17.8743209485">
        <ele>139</ele>
        <time>2012-11-11T15:14:28Z</time>
      </trkpt>
      <trkpt lat="59.5269463074" lon="17.8744680508">
        <ele>138.4</ele>
        <time>2012-11-11T15:14:29Z</time>
      </trkpt>
      <trkpt lat="59.5269439605" lon="17.8746097049">
        <ele>137.6</ele>
        <time>2012-11-11T15:14:30Z</time>
      </trkpt>
      <trkpt lat="59.5269336508" lon="17.8747418875">
        <ele>137</ele>
        <time>2012-11-11T15:14:31Z</time>
      </trkpt>
      <trkpt lat="59.5269149591" lon="17.8748723937">
        <ele>136.4</ele>
        <time>2012-11-11T15:14:32Z</time>
      </trkpt>
      <trkpt lat="59.526905739" lon="17.8749928416">
        <ele>135.6</ele>
        <time>2012-11-11T15:14:33Z</time>
      </trkpt>
      <trkpt lat="59.526900207" lon="17.875104237">
        <ele>135</ele>
        <time>2012-11-11T15:14:34Z</time>
      </trkpt>
      <trkpt lat="59.5268805933" lon="17.875341361">
        <ele>135</ele>
        <time>2012-11-11T15:14:36Z</time>
      </trkpt>
      <trkpt lat="59.5268693616" lon="17.8755486454">
        <ele>135</ele>
        <time>2012-11-11T15:14:38Z</time>
      </trkpt>
      <trkpt lat="59.5268604768" lon="17.8757001063">
        <ele>135</ele>
        <time>2012-11-11T15:14:40Z</time>
      </trkpt>
      <trkpt lat="59.5267907394" lon="17.8761290081">
        <ele>135</ele>
        <time>2012-11-11T15:14:46Z</time>
      </trkpt>
      <trkpt lat="59.5267798429" lon="17.8762240589">
        <ele>135</ele>
        <time>2012-11-11T15:14:47Z</time>
      </trkpt>
      <trkpt lat="59.5267448904" lon="17.8764903518">
        <ele>135</ele>
        <time>2012-11-11T15:14:50Z</time>
      </trkpt>
      <trkpt lat="59.5266997119" lon="17.8770096944">
        <ele>135</ele>
        <time>2012-11-11T15:14:55Z</time>
      </trkpt>
      <trkpt lat="59.5266413739" lon="17.8775804179">
        <ele>135</ele>
        <time>2012-11-11T15:15:00Z</time>
      </trkpt>
      <trkpt lat="59.5266297231" lon="17.8776902208">
        <ele>135</ele>
        <time>2012-11-11T15:15:01Z</time>
      </trkpt>
      <trkpt lat="59.5265604886" lon="17.8782659735">
        <ele>135</ele>
        <time>2012-11-11T15:15:07Z</time>
      </trkpt>
      <trkpt lat="59.5265300623" lon="17.878422296">
        <ele>135</ele>
        <time>2012-11-11T15:15:09Z</time>
      </trkpt>
      <trkpt lat="59.5265009771" lon="17.8786067816">
        <ele>135</ele>
        <time>2012-11-11T15:15:12Z</time>
      </trkpt>
      <trkpt lat="59.5265067606" lon="17.8788690512">
        <ele>135.4</ele>
        <time>2012-11-11T15:15:16Z</time>
      </trkpt>
      <trkpt lat="59.5265142205" lon="17.8789276407">
        <ele>135.8</ele>
        <time>2012-11-11T15:15:17Z</time>
      </trkpt>
      <trkpt lat="59.526520004" lon="17.8790007309">
        <ele>136.2</ele>
        <time>2012-11-11T15:15:18Z</time>
      </trkpt>
      <trkpt lat="59.5265289726" lon="17.8790806104">
        <ele>136.6</ele>
        <time>2012-11-11T15:15:19Z</time>
      </trkpt>
      <trkpt lat="59.5265368516" lon="17.8791672792">
        <ele>137</ele>
        <time>2012-11-11T15:15:20Z</time>
      </trkpt>
      <trkpt lat="59.5265475804" lon="17.8792517688">
        <ele>137</ele>
        <time>2012-11-11T15:15:21Z</time>
      </trkpt>
      <trkpt lat="59.5265613268" lon="17.8793450593">
        <ele>137</ele>
        <time>2012-11-11T15:15:22Z</time>
      </trkpt>
      <trkpt lat="59.5265726423" lon="17.8794313091">
        <ele>137</ele>
        <time>2012-11-11T15:15:23Z</time>
      </trkpt>
      <trkpt lat="59.5265974527" lon="17.8795872963">
        <ele>137</ele>
        <time>2012-11-11T15:15:25Z</time>
      </trkpt>
      <trkpt lat="59.5266175693" lon="17.8796580395">
        <ele>137</ele>
        <time>2012-11-11T15:15:26Z</time>
      </trkpt>
      <trkpt lat="59.5266664358" lon="17.8799104185">
        <ele>137</ele>
        <time>2012-11-11T15:15:29Z</time>
      </trkpt>
      <trkpt lat="59.5267162243" lon="17.8801590257">
        <ele>137</ele>
        <time>2012-11-11T15:15:32Z</time>
      </trkpt>
      <trkpt lat="59.5267779989" lon="17.8805041923">
        <ele>137</ele>
        <time>2012-11-11T15:15:36Z</time>
      </trkpt>
      <trkpt lat="59.5267804296" lon="17.8806807151">
        <ele>137</ele>
        <time>2012-11-11T15:15:38Z</time>
      </trkpt>
      <trkpt lat="59.5267739756" lon="17.8807652885">
        <ele>137.4</ele>
        <time>2012-11-11T15:15:39Z</time>
      </trkpt>
      <trkpt lat="59.5267627438" lon="17.8808541366">
        <ele>137.8</ele>
        <time>2012-11-11T15:15:40Z</time>
      </trkpt>
      <trkpt lat="59.5267506739" lon="17.8809477624">
        <ele>138.2</ele>
        <time>2012-11-11T15:15:41Z</time>
      </trkpt>
      <trkpt lat="59.5267357541" lon="17.881035018">
        <ele>138.8</ele>
        <time>2012-11-11T15:15:42Z</time>
      </trkpt>
      <trkpt lat="59.5267178168" lon="17.881118837">
        <ele>139.2</ele>
        <time>2012-11-11T15:15:43Z</time>
      </trkpt>
      <trkpt lat="59.5266585568" lon="17.8813505127">
        <ele>139.2</ele>
        <time>2012-11-11T15:15:46Z</time>
      </trkpt>
      <trkpt lat="59.5266196648" lon="17.8814998782">
        <ele>139.2</ele>
        <time>2012-11-11T15:15:48Z</time>
      </trkpt>
      <trkpt lat="59.5266066728" lon="17.8815721302">
        <ele>139.2</ele>
        <time>2012-11-11T15:15:49Z</time>
      </trkpt>
      <trkpt lat="59.5266008055" lon="17.8816377605">
        <ele>140</ele>
        <time>2012-11-11T15:15:50Z</time>
      </trkpt>
      <trkpt lat="59.5266028172" lon="17.8817054862">
        <ele>140.4</ele>
        <time>2012-11-11T15:15:51Z</time>
      </trkpt>
      <trkpt lat="59.5266166473" lon="17.88176022">
        <ele>140.8</ele>
        <time>2012-11-11T15:15:52Z</time>
      </trkpt>
      <trkpt lat="59.5266374344" lon="17.8818213241">
        <ele>141.2</ele>
        <time>2012-11-11T15:15:53Z</time>
      </trkpt>
      <trkpt lat="59.5267319822" lon="17.8820650697">
        <ele>141.2</ele>
        <time>2012-11-11T15:15:57Z</time>
      </trkpt>
      <trkpt lat="59.5267645878" lon="17.8821782254">
        <ele>141.6</ele>
        <time>2012-11-11T15:15:59Z</time>
      </trkpt>
      <trkpt lat="59.5267836147" lon="17.88224">
        <ele>142</ele>
        <time>2012-11-11T15:16:00Z</time>
      </trkpt>
      <trkpt lat="59.5268017196" lon="17.8822988409">
        <ele>142.4</ele>
        <time>2012-11-11T15:16:01Z</time>
      </trkpt>
      <trkpt lat="59.5268246861" lon="17.8823708414">
        <ele>142.8</ele>
        <time>2012-11-11T15:16:02Z</time>
      </trkpt>
      <trkpt lat="59.5268458084" lon="17.8824309396">
        <ele>143.2</ele>
        <time>2012-11-11T15:16:03Z</time>
      </trkpt>
      <trkpt lat="59.5269208264" lon="17.8826677283">
        <ele>143.2</ele>
        <time>2012-11-11T15:16:07Z</time>
      </trkpt>
      <trkpt lat="59.5269762308" lon="17.8829066125">
        <ele>143.8</ele>
        <time>2012-11-11T15:16:10Z</time>
      </trkpt>
      <trkpt lat="59.5269897257" lon="17.8829936166">
        <ele>144.2</ele>
        <time>2012-11-11T15:16:11Z</time>
      </trkpt>
      <trkpt lat="59.5270033882" lon="17.8830864042">
        <ele>144.6</ele>
        <time>2012-11-11T15:16:12Z</time>
      </trkpt>
      <trkpt lat="59.5270131112" lon="17.8831841372">
        <ele>145.2</ele>
        <time>2012-11-11T15:16:13Z</time>
      </trkpt>
      <trkpt lat="59.5270262707" lon="17.8832817025">
        <ele>145.6</ele>
        <time>2012-11-11T15:16:14Z</time>
      </trkpt>
      <trkpt lat="59.5270385921" lon="17.8835976163">
        <ele>145.6</ele>
        <time>2012-11-11T15:16:17Z</time>
      </trkpt>
      <trkpt lat="59.527038173" lon="17.8837978599">
        <ele>145.6</ele>
        <time>2012-11-11T15:16:19Z</time>
      </trkpt>
      <trkpt lat="59.5270112671" lon="17.8841021229">
        <ele>145.6</ele>
        <time>2012-11-11T15:16:22Z</time>
      </trkpt>
      <trkpt lat="59.5269662563" lon="17.8843853473">
        <ele>145.6</ele>
        <time>2012-11-11T15:16:25Z</time>
      </trkpt>
      <trkpt lat="59.5269222514" lon="17.8845532367">
        <ele>145.6</ele>
        <time>2012-11-11T15:16:27Z</time>
      </trkpt>
      <trkpt lat="59.5268080061" lon="17.8848831483">
        <ele>145.6</ele>
        <time>2012-11-11T15:16:31Z</time>
      </trkpt>
      <trkpt lat="59.5267577985" lon="17.8849451744">
        <ele>145.6</ele>
        <time>2012-11-11T15:16:32Z</time>
      </trkpt>
      <trkpt lat="59.5264650187" lon="17.8852102101">
        <ele>145.6</ele>
        <time>2012-11-11T15:16:37Z</time>
      </trkpt>
      <trkpt lat="59.5261496916" lon="17.8854582305">
        <ele>145.6</ele>
        <time>2012-11-11T15:16:43Z</time>
      </trkpt>
      <trkpt lat="59.5260025893" lon="17.8856192468">
        <ele>145.6</ele>
        <time>2012-11-11T15:16:46Z</time>
      </trkpt>
      <trkpt lat="59.5259245538" lon="17.8857857951">
        <ele>145.6</ele>
        <time>2012-11-11T15:16:48Z</time>
      </trkpt>
      <trkpt lat="59.5258526371" lon="17.8861329734">
        <ele>145.6</ele>
        <time>2012-11-11T15:16:51Z</time>
      </trkpt>
      <trkpt lat="59.5258331073" lon="17.8862592048">
        <ele>145.6</ele>
        <time>2012-11-11T15:16:52Z</time>
      </trkpt>
      <trkpt lat="59.5258233843" lon="17.8863963327">
        <ele>145.6</ele>
        <time>2012-11-11T15:16:53Z</time>
      </trkpt>
      <trkpt lat="59.5258103923" lon="17.8865399147">
        <ele>145.2</ele>
        <time>2012-11-11T15:16:54Z</time>
      </trkpt>
      <trkpt lat="59.5257963107" lon="17.88668006">
        <ele>144.8</ele>
        <time>2012-11-11T15:16:55Z</time>
      </trkpt>
      <trkpt lat="59.5257801337" lon="17.8868233905">
        <ele>144.4</ele>
        <time>2012-11-11T15:16:56Z</time>
      </trkpt>
      <trkpt lat="59.5257676446" lon="17.8869729236">
        <ele>144</ele>
        <time>2012-11-11T15:16:57Z</time>
      </trkpt>
      <trkpt lat="59.5257553232" lon="17.8871219538">
        <ele>143.6</ele>
        <time>2012-11-11T15:16:58Z</time>
      </trkpt>
      <trkpt lat="59.5256768687" lon="17.8877169011">
        <ele>143</ele>
        <time>2012-11-11T15:17:02Z</time>
      </trkpt>
      <trkpt lat="59.5256525612" lon="17.887847994">
        <ele>142.6</ele>
        <time>2012-11-11T15:17:03Z</time>
      </trkpt>
      <trkpt lat="59.5256261582" lon="17.887986463">
        <ele>141.6</ele>
        <time>2012-11-11T15:17:04Z</time>
      </trkpt>
      <trkpt lat="59.5255851707" lon="17.8881113533">
        <ele>141</ele>
        <time>2012-11-11T15:17:05Z</time>
      </trkpt>
      <trkpt lat="59.5255330353" lon="17.8882349025">
        <ele>140.4</ele>
        <time>2012-11-11T15:17:06Z</time>
      </trkpt>
      <trkpt lat="59.5254825762" lon="17.8883688452">
        <ele>140</ele>
        <time>2012-11-11T15:17:07Z</time>
      </trkpt>
      <trkpt lat="59.5254421755" lon="17.8884847669">
        <ele>139.4</ele>
        <time>2012-11-11T15:17:08Z</time>
      </trkpt>
      <trkpt lat="59.5254116653" lon="17.8886022812">
        <ele>139</ele>
        <time>2012-11-11T15:17:09Z</time>
      </trkpt>
      <trkpt lat="59.5253973323" lon="17.8887218071">
        <ele>139</ele>
        <time>2012-11-11T15:17:10Z</time>
      </trkpt>
      <trkpt lat="59.525410911" lon="17.8889264931">
        <ele>138.4</ele>
        <time>2012-11-11T15:17:12Z</time>
      </trkpt>
      <trkpt lat="59.5254250764" lon="17.8890301772">
        <ele>138</ele>
        <time>2012-11-11T15:17:13Z</time>
      </trkpt>
      <trkpt lat="59.5254433489" lon="17.8891341127">
        <ele>137.6</ele>
        <time>2012-11-11T15:17:14Z</time>
      </trkpt>
      <trkpt lat="59.5254684946" lon="17.8892369586">
        <ele>137.2</ele>
        <time>2012-11-11T15:17:15Z</time>
      </trkpt>
      <trkpt lat="59.5254966578" lon="17.8893514554">
        <ele>136.8</ele>
        <time>2012-11-11T15:17:16Z</time>
      </trkpt>
      <trkpt lat="59.5255486256" lon="17.8894858172">
        <ele>136.4</ele>
        <time>2012-11-11T15:17:17Z</time>
      </trkpt>
      <trkpt lat="59.5256047005" lon="17.889635518">
        <ele>135.8</ele>
        <time>2012-11-11T15:17:18Z</time>
      </trkpt>
      <trkpt lat="59.5256496275" lon="17.8897801057">
        <ele>135.2</ele>
        <time>2012-11-11T15:17:19Z</time>
      </trkpt>
      <trkpt lat="59.5256728454" lon="17.8899106958">
        <ele>134.8</ele>
        <time>2012-11-11T15:17:20Z</time>
      </trkpt>
      <trkpt lat="59.5256777069" lon="17.8900376815">
        <ele>134.2</ele>
        <time>2012-11-11T15:17:21Z</time>
      </trkpt>
      <trkpt lat="59.525673935" lon="17.8901504181">
        <ele>133.6</ele>
        <time>2012-11-11T15:17:22Z</time>
      </trkpt>
      <trkpt lat="59.5256647149" lon="17.8902535155">
        <ele>133.2</ele>
        <time>2012-11-11T15:17:23Z</time>
      </trkpt>
      <trkpt lat="59.5256248171" lon="17.8903382565">
        <ele>132.6</ele>
        <time>2012-11-11T15:17:24Z</time>
      </trkpt>
      <trkpt lat="59.5255639645" lon="17.8904038029">
        <ele>132.2</ele>
        <time>2012-11-11T15:17:25Z</time>
      </trkpt>
      <trkpt lat="59.5254976636" lon="17.8904340616">
        <ele>132.2</ele>
        <time>2012-11-11T15:17:26Z</time>
      </trkpt>
      <trkpt lat="59.5253660678" lon="17.8904618895">
        <ele>131.8</ele>
        <time>2012-11-11T15:17:28Z</time>
      </trkpt>
      <trkpt lat="59.5252919718" lon="17.8904691817">
        <ele>131</ele>
        <time>2012-11-11T15:17:29Z</time>
      </trkpt>
      <trkpt lat="59.5252178758" lon="17.8904750491">
        <ele>130.6</ele>
        <time>2012-11-11T15:17:30Z</time>
      </trkpt>
      <trkpt lat="59.5251421873" lon="17.8904815031">
        <ele>130.2</ele>
        <time>2012-11-11T15:17:31Z</time>
      </trkpt>
      <trkpt lat="59.5249279459" lon="17.8905003624">
        <ele>129.6</ele>
        <time>2012-11-11T15:17:34Z</time>
      </trkpt>
      <trkpt lat="59.5248661713" lon="17.8905061459">
        <ele>129</ele>
        <time>2012-11-11T15:17:35Z</time>
      </trkpt>
      <trkpt lat="59.5248116889" lon="17.8905289447">
        <ele>128.6</ele>
        <time>2012-11-11T15:17:36Z</time>
      </trkpt>
      <trkpt lat="59.5247580448" lon="17.8905742908">
        <ele>128</ele>
        <time>2012-11-11T15:17:37Z</time>
      </trkpt>
      <trkpt lat="59.5247080048" lon="17.8906408431">
        <ele>127.4</ele>
        <time>2012-11-11T15:17:38Z</time>
      </trkpt>
      <trkpt lat="59.5246572943" lon="17.8907337145">
        <ele>127</ele>
        <time>2012-11-11T15:17:39Z</time>
      </trkpt>
      <trkpt lat="59.5246146305" lon="17.8908518993">
        <ele>126.4</ele>
        <time>2012-11-11T15:17:40Z</time>
      </trkpt>
      <trkpt lat="59.5245757385" lon="17.8909833275">
        <ele>125.8</ele>
        <time>2012-11-11T15:17:41Z</time>
      </trkpt>
      <trkpt lat="59.524541205" lon="17.8911231376">
        <ele>125.2</ele>
        <time>2012-11-11T15:17:42Z</time>
      </trkpt>
      <trkpt lat="59.5245045761" lon="17.8912509616">
        <ele>125.2</ele>
        <time>2012-11-11T15:17:43Z</time>
      </trkpt>
      <trkpt lat="59.5243645984" lon="17.8917230302">
        <ele>124.6</ele>
        <time>2012-11-11T15:17:47Z</time>
      </trkpt>
      <trkpt lat="59.5243330825" lon="17.8918178295">
        <ele>124.2</ele>
        <time>2012-11-11T15:17:48Z</time>
      </trkpt>
      <trkpt lat="59.5243037458" lon="17.8919168197">
        <ele>123.6</ele>
        <time>2012-11-11T15:17:49Z</time>
      </trkpt>
      <trkpt lat="59.5242729004" lon="17.8920209229">
        <ele>123</ele>
        <time>2012-11-11T15:17:50Z</time>
      </trkpt>
      <trkpt lat="59.5242381993" lon="17.8921247746">
        <ele>122.4</ele>
        <time>2012-11-11T15:17:51Z</time>
      </trkpt>
      <trkpt lat="59.5242076892" lon="17.8922252736">
        <ele>122.4</ele>
        <time>2012-11-11T15:17:52Z</time>
      </trkpt>
      <trkpt lat="59.5240527917" lon="17.8927110885">
        <ele>122.4</ele>
        <time>2012-11-11T15:17:57Z</time>
      </trkpt>
      <trkpt lat="59.5240225331" lon="17.8927877829">
        <ele>122.4</ele>
        <time>2012-11-11T15:17:58Z</time>
      </trkpt>
      <trkpt lat="59.5239928611" lon="17.8928623818">
        <ele>122.8</ele>
        <time>2012-11-11T15:17:59Z</time>
      </trkpt>
      <trkpt lat="59.5239676316" lon="17.8929412555">
        <ele>123.4</ele>
        <time>2012-11-11T15:18:00Z</time>
      </trkpt>
      <trkpt lat="59.5239448328" lon="17.8930208836">
        <ele>124</ele>
        <time>2012-11-11T15:18:01Z</time>
      </trkpt>
      <trkpt lat="59.5239181784" lon="17.8931183651">
        <ele>124.6</ele>
        <time>2012-11-11T15:18:02Z</time>
      </trkpt>
      <trkpt lat="59.5238960502" lon="17.8931979093">
        <ele>125.2</ele>
        <time>2012-11-11T15:18:03Z</time>
      </trkpt>
      <trkpt lat="59.5238726647" lon="17.8932640425">
        <ele>126</ele>
        <time>2012-11-11T15:18:04Z</time>
      </trkpt>
      <trkpt lat="59.523850285" lon="17.8933305948">
        <ele>126.6</ele>
        <time>2012-11-11T15:18:05Z</time>
      </trkpt>
      <trkpt lat="59.5238294141" lon="17.893393459">
        <ele>127.2</ele>
        <time>2012-11-11T15:18:06Z</time>
      </trkpt>
      <trkpt lat="59.5238145781" lon="17.8934412359">
        <ele>127.2</ele>
        <time>2012-11-11T15:18:07Z</time>
      </trkpt>
      <trkpt lat="59.5237761052" lon="17.8935559841">
        <ele>127.2</ele>
        <time>2012-11-11T15:18:12Z</time>
      </trkpt>
      <trkpt lat="59.523757665" lon="17.8936030903">
        <ele>127.2</ele>
        <time>2012-11-11T15:18:14Z</time>
      </trkpt>
      <trkpt lat="59.5237485288" lon="17.8936924414">
        <ele>127.2</ele>
        <time>2012-11-11T15:18:16Z</time>
      </trkpt>
      <trkpt lat="59.5236714153" lon="17.8939177469">
        <ele>127.2</ele>
        <time>2012-11-11T15:18:20Z</time>
      </trkpt>
      <trkpt lat="59.5235026876" lon="17.8942982013">
        <ele>127.2</ele>
        <time>2012-11-11T15:18:26Z</time>
      </trkpt>
      <trkpt lat="59.5233792222" lon="17.894523423">
        <ele>127.2</ele>
        <time>2012-11-11T15:18:29Z</time>
      </trkpt>
      <trkpt lat="59.5232850935" lon="17.8946570304">
        <ele>127.2</ele>
        <time>2012-11-11T15:18:31Z</time>
      </trkpt>
      <trkpt lat="59.5229989354" lon="17.8949584436">
        <ele>126.8</ele>
        <time>2012-11-11T15:18:36Z</time>
      </trkpt>
      <trkpt lat="59.5229331375" lon="17.8950027838">
        <ele>126.4</ele>
        <time>2012-11-11T15:18:37Z</time>
      </trkpt>
      <trkpt lat="59.5228691836" lon="17.8950442742">
        <ele>126</ele>
        <time>2012-11-11T15:18:38Z</time>
      </trkpt>
      <trkpt lat="59.5228060679" lon="17.8950852617">
        <ele>125.6</ele>
        <time>2012-11-11T15:18:39Z</time>
      </trkpt>
      <trkpt lat="59.5227438742" lon="17.8951324518">
        <ele>125.2</ele>
        <time>2012-11-11T15:18:40Z</time>
      </trkpt>
      <trkpt lat="59.5225002124" lon="17.8952737706">
        <ele>125.2</ele>
        <time>2012-11-11T15:18:44Z</time>
      </trkpt>
      <trkpt lat="59.5223789263" lon="17.8953129979">
        <ele>124.8</ele>
        <time>2012-11-11T15:18:46Z</time>
      </trkpt>
      <trkpt lat="59.52231514" lon="17.8953257384">
        <ele>124.4</ele>
        <time>2012-11-11T15:18:47Z</time>
      </trkpt>
      <trkpt lat="59.5222472466" lon="17.8953356291">
        <ele>124</ele>
        <time>2012-11-11T15:18:48Z</time>
      </trkpt>
      <trkpt lat="59.5221872322" lon="17.895337976">
        <ele>123.6</ele>
        <time>2012-11-11T15:18:49Z</time>
      </trkpt>
      <trkpt lat="59.522126212" lon="17.895337976">
        <ele>123.2</ele>
        <time>2012-11-11T15:18:50Z</time>
      </trkpt>
      <trkpt lat="59.5217114756" lon="17.8952290951">
        <ele>123.2</ele>
        <time>2012-11-11T15:18:57Z</time>
      </trkpt>
      <trkpt lat="59.5214406564" lon="17.8950826633">
        <ele>123.2</ele>
        <time>2012-11-11T15:19:02Z</time>
      </trkpt>
      <trkpt lat="59.521388521" lon="17.8950451124">
        <ele>123.2</ele>
        <time>2012-11-11T15:19:03Z</time>
      </trkpt>
      <trkpt lat="59.5212913748" lon="17.8949733634">
        <ele>123.2</ele>
        <time>2012-11-11T15:19:05Z</time>
      </trkpt>
      <trkpt lat="59.5212063823" lon="17.8950065557">
        <ele>123.2</ele>
        <time>2012-11-11T15:19:07Z</time>
      </trkpt>
      <trkpt lat="59.5211110801" lon="17.8952679871">
        <ele>123.2</ele>
        <time>2012-11-11T15:19:10Z</time>
      </trkpt>
      <trkpt lat="59.5210697573" lon="17.8953664745">
        <ele>123.2</ele>
        <time>2012-11-11T15:19:11Z</time>
      </trkpt>
      <trkpt lat="59.5209221521" lon="17.8956896805">
        <ele>123.2</ele>
        <time>2012-11-11T15:19:15Z</time>
      </trkpt>
      <trkpt lat="59.5208181327" lon="17.8958206896">
        <ele>122.8</ele>
        <time>2012-11-11T15:19:17Z</time>
      </trkpt>
      <trkpt lat="59.5207617225" lon="17.8958759263">
        <ele>122.4</ele>
        <time>2012-11-11T15:19:18Z</time>
      </trkpt>
      <trkpt lat="59.5206977686" lon="17.8959302411">
        <ele>122</ele>
        <time>2012-11-11T15:19:19Z</time>
      </trkpt>
      <trkpt lat="59.5206375027" lon="17.8959804486">
        <ele>121.4</ele>
        <time>2012-11-11T15:19:20Z</time>
      </trkpt>
      <trkpt lat="59.5205904803" lon="17.8960184186">
        <ele>121</ele>
        <time>2012-11-11T15:19:21Z</time>
      </trkpt>
      <trkpt lat="59.5205552763" lon="17.8960495993">
        <ele>120.6</ele>
        <time>2012-11-11T15:19:22Z</time>
      </trkpt>
      <trkpt lat="59.5205288733" lon="17.8960741583">
        <ele>120.2</ele>
        <time>2012-11-11T15:19:23Z</time>
      </trkpt>
      <trkpt lat="59.5205126963" lon="17.8961281377">
        <ele>119.8</ele>
        <time>2012-11-11T15:19:24Z</time>
      </trkpt>
      <trkpt lat="59.5205014645" lon="17.896204413">
        <ele>119.4</ele>
        <time>2012-11-11T15:19:25Z</time>
      </trkpt>
      <trkpt lat="59.5204950943" lon="17.8962899084">
        <ele>119</ele>
        <time>2012-11-11T15:19:26Z</time>
      </trkpt>
      <trkpt lat="59.520466512" lon="17.8967769806">
        <ele>119</ele>
        <time>2012-11-11T15:19:30Z</time>
      </trkpt>
      <trkpt lat="59.5204174779" lon="17.897128266">
        <ele>118.6</ele>
        <time>2012-11-11T15:19:33Z</time>
      </trkpt>
      <trkpt lat="59.5204013008" lon="17.8972513123">
        <ele>118.2</ele>
        <time>2012-11-11T15:19:34Z</time>
      </trkpt>
      <trkpt lat="59.5203852076" lon="17.8973668149">
        <ele>117.8</ele>
        <time>2012-11-11T15:19:35Z</time>
      </trkpt>
      <trkpt lat="59.520367857" lon="17.8974858379">
        <ele>117.4</ele>
        <time>2012-11-11T15:19:36Z</time>
      </trkpt>
      <trkpt lat="59.5203480757" lon="17.897603855">
        <ele>116.8</ele>
        <time>2012-11-11T15:19:37Z</time>
      </trkpt>
      <trkpt lat="59.5202568807" lon="17.8981621734">
        <ele>116.8</ele>
        <time>2012-11-11T15:19:42Z</time>
      </trkpt>
      <trkpt lat="59.5201028213" lon="17.8990391716">
        <ele>116.8</ele>
        <time>2012-11-11T15:19:50Z</time>
      </trkpt>
      <trkpt lat="59.5200232771" lon="17.8994911236">
        <ele>116.4</ele>
        <time>2012-11-11T15:19:54Z</time>
      </trkpt>
      <trkpt lat="59.5200165716" lon="17.8996464402">
        <ele>116</ele>
        <time>2012-11-11T15:19:55Z</time>
      </trkpt>
      <trkpt lat="59.5200070162" lon="17.8997741804">
        <ele>115.2</ele>
        <time>2012-11-11T15:19:56Z</time>
      </trkpt>
      <trkpt lat="59.519993689" lon="17.8998548981">
        <ele>114.6</ele>
        <time>2012-11-11T15:19:57Z</time>
      </trkpt>
      <trkpt lat="59.5199698006" lon="17.8999180976">
        <ele>114</ele>
        <time>2012-11-11T15:19:58Z</time>
      </trkpt>
      <trkpt lat="59.5199336746" lon="17.8999414831">
        <ele>113.4</ele>
        <time>2012-11-11T15:19:59Z</time>
      </trkpt>
      <trkpt lat="59.519894112" lon="17.8999283235">
        <ele>113</ele>
        <time>2012-11-11T15:20:00Z</time>
      </trkpt>
      <trkpt lat="59.5198497718" lon="17.8999062791">
        <ele>112.4</ele>
        <time>2012-11-11T15:20:01Z</time>
      </trkpt>
      <trkpt lat="59.5198042581" lon="17.899879038">
        <ele>112.4</ele>
        <time>2012-11-11T15:20:02Z</time>
      </trkpt>
      <trkpt lat="59.5197196009" lon="17.8998117313">
        <ele>112.4</ele>
        <time>2012-11-11T15:20:04Z</time>
      </trkpt>
      <trkpt lat="59.5197030047" lon="17.8997509625">
        <ele>112.4</ele>
        <time>2012-11-11T15:20:05Z</time>
      </trkpt>
      <trkpt lat="59.5197651984" lon="17.8996201211">
        <ele>112</ele>
        <time>2012-11-11T15:20:08Z</time>
      </trkpt>
      <trkpt lat="59.5198115503" lon="17.8996514694">
        <ele>111.4</ele>
        <time>2012-11-11T15:20:09Z</time>
      </trkpt>
      <trkpt lat="59.5198527054" lon="17.8996841588">
        <ele>111</ele>
        <time>2012-11-11T15:20:10Z</time>
      </trkpt>
      <trkpt lat="59.5198925195" lon="17.8997161776">
        <ele>110.6</ele>
        <time>2012-11-11T15:20:11Z</time>
      </trkpt>
      <trkpt lat="59.519933507" lon="17.8997403175">
        <ele>110.2</ele>
        <time>2012-11-11T15:20:12Z</time>
      </trkpt>
      <trkpt lat="59.5201174059" lon="17.8998967238">
        <ele>109.8</ele>
        <time>2012-11-11T15:20:16Z</time>
      </trkpt>
      <trkpt lat="59.5201443118" lon="17.8999306705">
        <ele>109.4</ele>
        <time>2012-11-11T15:20:17Z</time>
      </trkpt>
      <trkpt lat="59.5201578066" lon="17.8999333527">
        <ele>109</ele>
        <time>2012-11-11T15:20:18Z</time>
      </trkpt>
      <trkpt lat="59.5201706309" lon="17.8999250546">
        <ele>108.6</ele>
        <time>2012-11-11T15:20:19Z</time>
      </trkpt>
      <trkpt lat="59.5201755762" lon="17.8998918623">
        <ele>108.2</ele>
        <time>2012-11-11T15:20:20Z</time>
      </trkpt>
      <trkpt lat="59.5201570522" lon="17.8998057802">
        <ele>108.2</ele>
        <time>2012-11-11T15:20:22Z</time>
      </trkpt>
      <trkpt lat="59.5200506021" lon="17.8996805546">
        <ele>108.2</ele>
        <time>2012-11-11T15:20:25Z</time>
      </trkpt>
      <trkpt lat="59.5200016518" lon="17.8996518047">
        <ele>108.2</ele>
        <time>2012-11-11T15:20:26Z</time>
      </trkpt>
      <trkpt lat="59.5198492689" lon="17.8995658064">
        <ele>108.2</ele>
        <time>2012-11-11T15:20:29Z</time>
      </trkpt>
      <trkpt lat="59.5198019111" lon="17.8995293451">
        <ele>107.6</ele>
        <time>2012-11-11T15:20:30Z</time>
      </trkpt>
      <trkpt lat="59.5197543858" lon="17.8994879385">
        <ele>107.2</ele>
        <time>2012-11-11T15:20:31Z</time>
      </trkpt>
      <trkpt lat="59.5197118895" lon="17.8994290138">
        <ele>106.8</ele>
        <time>2012-11-11T15:20:32Z</time>
      </trkpt>
      <trkpt lat="59.5196688904" lon="17.8993723521">
        <ele>106.4</ele>
        <time>2012-11-11T15:20:33Z</time>
      </trkpt>
      <trkpt lat="59.5196242149" lon="17.8993170316">
        <ele>106</ele>
        <time>2012-11-11T15:20:34Z</time>
      </trkpt>
      <trkpt lat="59.5195265657" lon="17.8992029539">
        <ele>106</ele>
        <time>2012-11-11T15:20:36Z</time>
      </trkpt>
      <trkpt lat="59.5193315189" lon="17.8989789895">
        <ele>106</ele>
        <time>2012-11-11T15:20:40Z</time>
      </trkpt>
      <trkpt lat="59.5192821495" lon="17.8989354037">
        <ele>106</ele>
        <time>2012-11-11T15:20:41Z</time>
      </trkpt>
      <trkpt lat="59.5192331154" lon="17.898875054">
        <ele>106</ele>
        <time>2012-11-11T15:20:42Z</time>
      </trkpt>
      <trkpt lat="59.5190777988" lon="17.8987665084">
        <ele>106</ele>
        <time>2012-11-11T15:20:45Z</time>
      </trkpt>
      <trkpt lat="59.5187891262" lon="17.8985881415">
        <ele>106</ele>
        <time>2012-11-11T15:20:50Z</time>
      </trkpt>
      <trkpt lat="59.5185514993" lon="17.898454115">
        <ele>106</ele>
        <time>2012-11-11T15:20:54Z</time>
      </trkpt>
      <trkpt lat="59.5184316381" lon="17.8984177375">
        <ele>106</ele>
        <time>2012-11-11T15:20:56Z</time>
      </trkpt>
      <trkpt lat="59.51825017" lon="17.8983252013">
        <ele>106</ele>
        <time>2012-11-11T15:20:59Z</time>
      </trkpt>
      <trkpt lat="59.5181423788" lon="17.8982472497">
        <ele>106</ele>
        <time>2012-11-11T15:21:01Z</time>
      </trkpt>
      <trkpt lat="59.5178847191" lon="17.8980719841">
        <ele>106.4</ele>
        <time>2012-11-11T15:21:06Z</time>
      </trkpt>
      <trkpt lat="59.5178288119" lon="17.8980474252">
        <ele>106.8</ele>
        <time>2012-11-11T15:21:07Z</time>
      </trkpt>
      <trkpt lat="59.5177755868" lon="17.8980208546">
        <ele>107.2</ele>
        <time>2012-11-11T15:21:08Z</time>
      </trkpt>
      <trkpt lat="59.5177232838" lon="17.8979933619">
        <ele>107.6</ele>
        <time>2012-11-11T15:21:09Z</time>
      </trkpt>
      <trkpt lat="59.5176807037" lon="17.8979595829">
        <ele>108</ele>
        <time>2012-11-11T15:21:10Z</time>
      </trkpt>
      <trkpt lat="59.5175808753" lon="17.8979130633">
        <ele>108</ele>
        <time>2012-11-11T15:21:12Z</time>
      </trkpt>
      <trkpt lat="59.5173366267" lon="17.8977514603">
        <ele>108</ele>
        <time>2012-11-11T15:21:17Z</time>
      </trkpt>
      <trkpt lat="59.5169517299" lon="17.8975283341">
        <ele>108</ele>
        <time>2012-11-11T15:21:24Z</time>
      </trkpt>
      <trkpt lat="59.5168911287" lon="17.8975118218">
        <ele>108</ele>
        <time>2012-11-11T15:21:25Z</time>
      </trkpt>
      <trkpt lat="59.5166769712" lon="17.897422806">
        <ele>108</ele>
        <time>2012-11-11T15:21:29Z</time>
      </trkpt>
      <trkpt lat="59.5163675952" lon="17.8972033678">
        <ele>108</ele>
        <time>2012-11-11T15:21:35Z</time>
      </trkpt>
      <trkpt lat="59.5160632485" lon="17.8970227379">
        <ele>108</ele>
        <time>2012-11-11T15:21:41Z</time>
      </trkpt>
      <trkpt lat="59.5156551337" lon="17.8967810877">
        <ele>108</ele>
        <time>2012-11-11T15:21:49Z</time>
      </trkpt>
      <trkpt lat="59.5154424011" lon="17.896670279">
        <ele>108</ele>
        <time>2012-11-11T15:21:53Z</time>
      </trkpt>
      <trkpt lat="59.5153930317" lon="17.8966922396">
        <ele>108</ele>
        <time>2012-11-11T15:21:54Z</time>
      </trkpt>
      <trkpt lat="59.5152019244" lon="17.8966773198">
        <ele>108</ele>
        <time>2012-11-11T15:21:58Z</time>
      </trkpt>
      <trkpt lat="59.5150598512" lon="17.8965462269">
        <ele>108</ele>
        <time>2012-11-11T15:22:01Z</time>
      </trkpt>
      <trkpt lat="59.5150202048" lon="17.8964708736">
        <ele>108</ele>
        <time>2012-11-11T15:22:02Z</time>
      </trkpt>
      <trkpt lat="59.5149490425" lon="17.8963517668">
        <ele>108</ele>
        <time>2012-11-11T15:22:04Z</time>
      </trkpt>
      <trkpt lat="59.5148534888" lon="17.8962975359">
        <ele>108</ele>
        <time>2012-11-11T15:22:06Z</time>
      </trkpt>
      <trkpt lat="59.5146084859" lon="17.8962109509">
        <ele>108</ele>
        <time>2012-11-11T15:22:11Z</time>
      </trkpt>
      <trkpt lat="59.5145626369" lon="17.8962128787">
        <ele>108</ele>
        <time>2012-11-11T15:22:12Z</time>
      </trkpt>
      <trkpt lat="59.5145146086" lon="17.8962048321">
        <ele>108</ele>
        <time>2012-11-11T15:22:13Z</time>
      </trkpt>
      <trkpt lat="59.5143980164" lon="17.8960626751">
        <ele>108</ele>
        <time>2012-11-11T15:22:16Z</time>
      </trkpt>
      <trkpt lat="59.5143659137" lon="17.8959952846">
        <ele>108</ele>
        <time>2012-11-11T15:22:17Z</time>
      </trkpt>
      <trkpt lat="59.5143249262" lon="17.8959382877">
        <ele>108</ele>
        <time>2012-11-11T15:22:18Z</time>
      </trkpt>
      <trkpt lat="59.5142228347" lon="17.8959273912">
        <ele>108</ele>
        <time>2012-11-11T15:22:20Z</time>
      </trkpt>
      <trkpt lat="59.5140312244" lon="17.8958865714">
        <ele>108</ele>
        <time>2012-11-11T15:22:23Z</time>
      </trkpt>
      <trkpt lat="59.5139741437" lon="17.895850613">
        <ele>108</ele>
        <time>2012-11-11T15:22:24Z</time>
      </trkpt>
      <trkpt lat="59.5137601538" lon="17.8957382955">
        <ele>108</ele>
        <time>2012-11-11T15:22:28Z</time>
      </trkpt>
      <trkpt lat="59.5136579784" lon="17.8956967213">
        <ele>108</ele>
        <time>2012-11-11T15:22:30Z</time>
      </trkpt>
      <trkpt lat="59.5135542943" lon="17.8956549795">
        <ele>108</ele>
        <time>2012-11-11T15:22:32Z</time>
      </trkpt>
      <trkpt lat="59.5134032525" lon="17.8955929534">
        <ele>108</ele>
        <time>2012-11-11T15:22:35Z</time>
      </trkpt>
      <trkpt lat="59.5133061901" lon="17.8955906065">
        <ele>108</ele>
        <time>2012-11-11T15:22:37Z</time>
      </trkpt>
      <trkpt lat="59.513247433" lon="17.8955904388">
        <ele>108</ele>
        <time>2012-11-11T15:22:38Z</time>
      </trkpt>
      <trkpt lat="59.5131901846" lon="17.8955665504">
        <ele>108</ele>
        <time>2012-11-11T15:22:39Z</time>
      </trkpt>
      <trkpt lat="59.5130408191" lon="17.8954901913">
        <ele>108</ele>
        <time>2012-11-11T15:22:42Z</time>
      </trkpt>
      <trkpt lat="59.5127349636" lon="17.8953951406">
        <ele>108</ele>
        <time>2012-11-11T15:22:48Z</time>
      </trkpt>
      <trkpt lat="59.5124519068" lon="17.8953948053">
        <ele>108</ele>
        <time>2012-11-11T15:22:53Z</time>
      </trkpt>
      <trkpt lat="59.5123067323" lon="17.8952752794">
        <ele>108</ele>
        <time>2012-11-11T15:22:56Z</time>
      </trkpt>
      <trkpt lat="59.5122118492" lon="17.895210152">
        <ele>108</ele>
        <time>2012-11-11T15:22:58Z</time>
      </trkpt>
      <trkpt lat="59.511960979" lon="17.895072186">
        <ele>108</ele>
        <time>2012-11-11T15:23:03Z</time>
      </trkpt>
      <trkpt lat="59.5118572949" lon="17.8950270913">
        <ele>108</ele>
        <time>2012-11-11T15:23:05Z</time>
      </trkpt>
      <trkpt lat="59.5116474959" lon="17.8949341361">
        <ele>108</ele>
        <time>2012-11-11T15:23:09Z</time>
      </trkpt>
      <trkpt lat="59.5115463264" lon="17.8948835094">
        <ele>108</ele>
        <time>2012-11-11T15:23:11Z</time>
      </trkpt>
      <trkpt lat="59.5114412173" lon="17.8948430248">
        <ele>108</ele>
        <time>2012-11-11T15:23:13Z</time>
      </trkpt>
      <trkpt lat="59.5112366152" lon="17.8947730359">
        <ele>108</ele>
        <time>2012-11-11T15:23:17Z</time>
      </trkpt>
      <trkpt lat="59.5109186897" lon="17.8947328028">
        <ele>108</ele>
        <time>2012-11-11T15:23:23Z</time>
      </trkpt>
      <trkpt lat="59.5105041209" lon="17.8946425298">
        <ele>108</ele>
        <time>2012-11-11T15:23:31Z</time>
      </trkpt>
      <trkpt lat="59.5100083315" lon="17.894497942">
        <ele>108</ele>
        <time>2012-11-11T15:23:41Z</time>
      </trkpt>
      <trkpt lat="59.5098586308" lon="17.8944642467">
        <ele>108</ele>
        <time>2012-11-11T15:23:44Z</time>
      </trkpt>
      <trkpt lat="59.5096601474" lon="17.8944095129">
        <ele>108</ele>
        <time>2012-11-11T15:23:48Z</time>
      </trkpt>
      <trkpt lat="59.5096137117" lon="17.8943883906">
        <ele>108</ele>
        <time>2012-11-11T15:23:49Z</time>
      </trkpt>
      <trkpt lat="59.5094809424" lon="17.894250173">
        <ele>108</ele>
        <time>2012-11-11T15:23:52Z</time>
      </trkpt>
      <trkpt lat="59.5093388692" lon="17.8942097723">
        <ele>108</ele>
        <time>2012-11-11T15:23:55Z</time>
      </trkpt>
      <trkpt lat="59.5090788626" lon="17.8941280487">
        <ele>108</ele>
        <time>2012-11-11T15:24:00Z</time>
      </trkpt>
      <trkpt lat="59.5087150882" lon="17.8939766716">
        <ele>108</ele>
        <time>2012-11-11T15:24:07Z</time>
      </trkpt>
      <trkpt lat="59.5082987592" lon="17.8937808704">
        <ele>108</ele>
        <time>2012-11-11T15:24:15Z</time>
      </trkpt>
      <trkpt lat="59.508052499" lon="17.8935996538">
        <ele>108</ele>
        <time>2012-11-11T15:24:20Z</time>
      </trkpt>
      <trkpt lat="59.5080032134" lon="17.8935743404">
        <ele>108</ele>
        <time>2012-11-11T15:24:21Z</time>
      </trkpt>
      <trkpt lat="59.5076515927" lon="17.8934343627">
        <ele>108</ele>
        <time>2012-11-11T15:24:28Z</time>
      </trkpt>
      <trkpt lat="59.5073511854" lon="17.8932352926">
        <ele>108</ele>
        <time>2012-11-11T15:24:34Z</time>
      </trkpt>
      <trkpt lat="59.5073008102" lon="17.8932125776">
        <ele>108</ele>
        <time>2012-11-11T15:24:35Z</time>
      </trkpt>
      <trkpt lat="59.5071540431" lon="17.8931864261">
        <ele>108</ele>
        <time>2012-11-11T15:24:38Z</time>
      </trkpt>
      <trkpt lat="59.5069370357" lon="17.8929739449">
        <ele>108</ele>
        <time>2012-11-11T15:24:43Z</time>
      </trkpt>
      <trkpt lat="59.5068569048" lon="17.8928705961">
        <ele>108</ele>
        <time>2012-11-11T15:24:45Z</time>
      </trkpt>
      <trkpt lat="59.5067771929" lon="17.8926471346">
        <ele>108</ele>
        <time>2012-11-11T15:24:48Z</time>
      </trkpt>
      <trkpt lat="59.5066927872" lon="17.892574715">
        <ele>108</ele>
        <time>2012-11-11T15:24:51Z</time>
      </trkpt>
      <trkpt lat="59.5066405679" lon="17.892738665">
        <ele>108</ele>
        <time>2012-11-11T15:24:55Z</time>
      </trkpt>
      <trkpt lat="59.5065716687" lon="17.8928622142">
        <ele>108</ele>
        <time>2012-11-11T15:24:59Z</time>
      </trkpt>
      <trkpt lat="59.5064889394" lon="17.8927430236">
        <ele>108</ele>
        <time>2012-11-11T15:25:02Z</time>
      </trkpt>
      <trkpt lat="59.5064491253" lon="17.8926930675">
        <ele>108</ele>
        <time>2012-11-11T15:25:03Z</time>
      </trkpt>
      <trkpt lat="59.5062673219" lon="17.8924275289">
        <ele>108</ele>
        <time>2012-11-11T15:25:08Z</time>
      </trkpt>
      <trkpt lat="59.5060493087" lon="17.8922860424">
        <ele>108</ele>
        <time>2012-11-11T15:25:13Z</time>
      </trkpt>
      <trkpt lat="59.506003795" lon="17.8922717932">
        <ele>108</ele>
        <time>2012-11-11T15:25:14Z</time>
      </trkpt>
      <trkpt lat="59.5059581136" lon="17.8922696977">
        <ele>108</ele>
        <time>2012-11-11T15:25:15Z</time>
      </trkpt>
      <trkpt lat="59.5057808365" lon="17.8922741401">
        <ele>108</ele>
        <time>2012-11-11T15:25:19Z</time>
      </trkpt>
      <trkpt lat="59.5054609831" lon="17.8922735534">
        <ele>108</ele>
        <time>2012-11-11T15:25:26Z</time>
      </trkpt>
      <trkpt lat="59.5054165591" lon="17.8922919097">
        <ele>108</ele>
        <time>2012-11-11T15:25:27Z</time>
      </trkpt>
      <trkpt lat="59.5052226019" lon="17.892347817">
        <ele>108</ele>
        <time>2012-11-11T15:25:31Z</time>
      </trkpt>
      <trkpt lat="59.5051306525" lon="17.8923471464">
        <ele>108</ele>
        <time>2012-11-11T15:25:33Z</time>
      </trkpt>
      <trkpt lat="59.5050376972" lon="17.8923137865">
        <ele>108</ele>
        <time>2012-11-11T15:25:35Z</time>
      </trkpt>
      <trkpt lat="59.5049957039" lon="17.8922766547">
        <ele>108</ele>
        <time>2012-11-11T15:25:36Z</time>
      </trkpt>
      <trkpt lat="59.5048862363" lon="17.8921252776">
        <ele>108</ele>
        <time>2012-11-11T15:25:39Z</time>
      </trkpt>
      <trkpt lat="59.504844662" lon="17.8920918338">
        <ele>108</ele>
        <time>2012-11-11T15:25:40Z</time>
      </trkpt>
      <trkpt lat="59.5048040936" lon="17.892065347">
        <ele>108</ele>
        <time>2012-11-11T15:25:41Z</time>
      </trkpt>
      <trkpt lat="59.5046192728" lon="17.8920311488">
        <ele>108</ele>
        <time>2012-11-11T15:25:46Z</time>
      </trkpt>
      <trkpt lat="59.5045119844" lon="17.8919550412">
        <ele>108</ele>
        <time>2012-11-11T15:25:50Z</time>
      </trkpt>
      <trkpt lat="59.5043356293" lon="17.8919073481">
        <ele>108</ele>
        <time>2012-11-11T15:25:56Z</time>
      </trkpt>
      <trkpt lat="59.5043005091" lon="17.891924112">
        <ele>108.4</ele>
        <time>2012-11-11T15:25:57Z</time>
      </trkpt>
      <trkpt lat="59.5042657242" lon="17.8919367686">
        <ele>109</ele>
        <time>2012-11-11T15:25:58Z</time>
      </trkpt>
      <trkpt lat="59.5042244853" lon="17.8919438932">
        <ele>109.4</ele>
        <time>2012-11-11T15:25:59Z</time>
      </trkpt>
      <trkpt lat="59.5041867667" lon="17.8919486709">
        <ele>109.8</ele>
        <time>2012-11-11T15:26:00Z</time>
      </trkpt>
      <trkpt lat="59.5041475394" lon="17.8919588968">
        <ele>110.2</ele>
        <time>2012-11-11T15:26:01Z</time>
      </trkpt>
      <trkpt lat="59.5039856011" lon="17.8921150516">
        <ele>110.2</ele>
        <time>2012-11-11T15:26:06Z</time>
      </trkpt>
      <trkpt lat="59.5038484732" lon="17.8922642495">
        <ele>110.2</ele>
        <time>2012-11-11T15:26:11Z</time>
      </trkpt>
      <trkpt lat="59.5038250039" lon="17.892293167">
        <ele>110.6</ele>
        <time>2012-11-11T15:26:12Z</time>
      </trkpt>
      <trkpt lat="59.5038006126" lon="17.892317726">
        <ele>111.2</ele>
        <time>2012-11-11T15:26:13Z</time>
      </trkpt>
      <trkpt lat="59.5037768918" lon="17.8923419497">
        <ele>111.6</ele>
        <time>2012-11-11T15:26:14Z</time>
      </trkpt>
      <trkpt lat="59.5037517461" lon="17.8923677659">
        <ele>112</ele>
        <time>2012-11-11T15:26:15Z</time>
      </trkpt>
      <trkpt lat="59.5037285282" lon="17.8923988628">
        <ele>112.4</ele>
        <time>2012-11-11T15:26:16Z</time>
      </trkpt>
      <trkpt lat="59.5036807514" lon="17.8924825141">
        <ele>113</ele>
        <time>2012-11-11T15:26:18Z</time>
      </trkpt>
      <trkpt lat="59.5036592099" lon="17.8925247589">
        <ele>113.4</ele>
        <time>2012-11-11T15:26:19Z</time>
      </trkpt>
      <trkpt lat="59.5036446254" lon="17.8925751341">
        <ele>113.8</ele>
        <time>2012-11-11T15:26:20Z</time>
      </trkpt>
      <trkpt lat="59.5036254309" lon="17.8926234977">
        <ele>114.2</ele>
        <time>2012-11-11T15:26:21Z</time>
      </trkpt>
      <trkpt lat="59.5036100082" lon="17.8926873678">
        <ele>114.6</ele>
        <time>2012-11-11T15:26:22Z</time>
      </trkpt>
      <trkpt lat="59.5035909813" lon="17.8928638068">
        <ele>114.6</ele>
        <time>2012-11-11T15:26:25Z</time>
      </trkpt>
      <trkpt lat="59.5035462219" lon="17.8931860908">
        <ele>115</ele>
        <time>2012-11-11T15:26:30Z</time>
      </trkpt>
      <trkpt lat="59.5035354931" lon="17.8932458538">
        <ele>115.4</ele>
        <time>2012-11-11T15:26:31Z</time>
      </trkpt>
      <trkpt lat="59.5035271112" lon="17.8933150883">
        <ele>116.2</ele>
        <time>2012-11-11T15:26:32Z</time>
      </trkpt>
      <trkpt lat="59.5035126943" lon="17.8933836522">
        <ele>116.8</ele>
        <time>2012-11-11T15:26:33Z</time>
      </trkpt>
      <trkpt lat="59.5034473155" lon="17.8937215266">
        <ele>116.8</ele>
        <time>2012-11-11T15:26:39Z</time>
      </trkpt>
      <trkpt lat="59.5033999578" lon="17.894021431">
        <ele>117.2</ele>
        <time>2012-11-11T15:26:45Z</time>
      </trkpt>
      <trkpt lat="59.503392917" lon="17.894076081">
        <ele>117.6</ele>
        <time>2012-11-11T15:26:46Z</time>
      </trkpt>
      <trkpt lat="59.5033876364" lon="17.8941280487">
        <ele>118</ele>
        <time>2012-11-11T15:26:47Z</time>
      </trkpt>
      <trkpt lat="59.5033843674" lon="17.8941803518">
        <ele>118.4</ele>
        <time>2012-11-11T15:26:48Z</time>
      </trkpt>
      <trkpt lat="59.5033811823" lon="17.8942232671">
        <ele>118.8</ele>
        <time>2012-11-11T15:26:49Z</time>
      </trkpt>
      <trkpt lat="59.5033741415" lon="17.8944448007">
        <ele>118.8</ele>
        <time>2012-11-11T15:26:53Z</time>
      </trkpt>
      <trkpt lat="59.5033802603" lon="17.8945774024">
        <ele>119.2</ele>
        <time>2012-11-11T15:26:55Z</time>
      </trkpt>
      <trkpt lat="59.50337389" lon="17.8946416077">
        <ele>119.6</ele>
        <time>2012-11-11T15:26:56Z</time>
      </trkpt>
      <trkpt lat="59.5033785839" lon="17.8947038014">
        <ele>120.4</ele>
        <time>2012-11-11T15:26:57Z</time>
      </trkpt>
      <trkpt lat="59.5033815176" lon="17.8947642349">
        <ele>120.8</ele>
        <time>2012-11-11T15:26:58Z</time>
      </trkpt>
      <trkpt lat="59.5034209963" lon="17.8951048754">
        <ele>121.2</ele>
        <time>2012-11-11T15:27:04Z</time>
      </trkpt>
      <trkpt lat="59.5034307193" lon="17.8951397441">
        <ele>121.6</ele>
        <time>2012-11-11T15:27:05Z</time>
      </trkpt>
      <trkpt lat="59.50344061" lon="17.8951720982">
        <ele>122</ele>
        <time>2012-11-11T15:27:06Z</time>
      </trkpt>
      <trkpt lat="59.503452177" lon="17.8952081404">
        <ele>122.4</ele>
        <time>2012-11-11T15:27:07Z</time>
      </trkpt>
      <trkpt lat="59.5034662586" lon="17.895240746">
        <ele>123</ele>
        <time>2012-11-11T15:27:08Z</time>
      </trkpt>
      <trkpt lat="59.5035214115" lon="17.8954031034">
        <ele>123</ele>
        <time>2012-11-11T15:27:11Z</time>
      </trkpt>
      <trkpt lat="59.5035531789" lon="17.8954760259">
        <ele>123</ele>
        <time>2012-11-11T15:27:12Z</time>
      </trkpt>
      <trkpt lat="59.5036297056" lon="17.8956758504">
        <ele>123</ele>
        <time>2012-11-11T15:27:15Z</time>
      </trkpt>
      <trkpt lat="59.5036535102" lon="17.8957547241">
        <ele>123</ele>
        <time>2012-11-11T15:27:16Z</time>
      </trkpt>
      <trkpt lat="59.5036941624" lon="17.8959249605">
        <ele>123</ele>
        <time>2012-11-11T15:27:18Z</time>
      </trkpt>
      <trkpt lat="59.503678153" lon="17.8961166545">
        <ele>123</ele>
        <time>2012-11-11T15:27:20Z</time>
      </trkpt>
      <trkpt lat="59.5035973515" lon="17.896406333">
        <ele>123</ele>
        <time>2012-11-11T15:27:24Z</time>
      </trkpt>
      <trkpt lat="59.5035753071" lon="17.8964682752">
        <ele>123</ele>
        <time>2012-11-11T15:27:25Z</time>
      </trkpt>
      <trkpt lat="59.5035111856" lon="17.8966555269">
        <ele>123.4</ele>
        <time>2012-11-11T15:27:28Z</time>
      </trkpt>
      <trkpt lat="59.5034924939" lon="17.8967210733">
        <ele>123.8</ele>
        <time>2012-11-11T15:27:29Z</time>
      </trkpt>
      <trkpt lat="59.5034769036" lon="17.8967900564">
        <ele>124.2</ele>
        <time>2012-11-11T15:27:30Z</time>
      </trkpt>
      <trkpt lat="59.5034606427" lon="17.8968622245">
        <ele>124.6</ele>
        <time>2012-11-11T15:27:31Z</time>
      </trkpt>
      <trkpt lat="59.5034425378" lon="17.8969341412">
        <ele>125</ele>
        <time>2012-11-11T15:27:32Z</time>
      </trkpt>
      <trkpt lat="59.5033555337" lon="17.8972798946">
        <ele>125</ele>
        <time>2012-11-11T15:27:37Z</time>
      </trkpt>
      <trkpt lat="59.5032744807" lon="17.8975735126">
        <ele>125</ele>
        <time>2012-11-11T15:27:41Z</time>
      </trkpt>
      <trkpt lat="59.5031933439" lon="17.8976911944">
        <ele>125</ele>
        <time>2012-11-11T15:27:43Z</time>
      </trkpt>
      <trkpt lat="59.5031464053" lon="17.8977429946">
        <ele>125</ele>
        <time>2012-11-11T15:27:44Z</time>
      </trkpt>
      <trkpt lat="59.5029516937" lon="17.8979154941">
        <ele>125</ele>
        <time>2012-11-11T15:27:48Z</time>
      </trkpt>
      <trkpt lat="59.5027510311" lon="17.8980797793">
        <ele>125</ele>
        <time>2012-11-11T15:27:52Z</time>
      </trkpt>
      <trkpt lat="59.5026259731" lon="17.8980921845">
        <ele>125</ele>
        <time>2012-11-11T15:27:54Z</time>
      </trkpt>
      <trkpt lat="59.5023850773" lon="17.8980616744">
        <ele>125</ele>
        <time>2012-11-11T15:27:58Z</time>
      </trkpt>
      <trkpt lat="59.5023263202" lon="17.8980651948">
        <ele>124.6</ele>
        <time>2012-11-11T15:27:59Z</time>
      </trkpt>
      <trkpt lat="59.5022738495" lon="17.8980642728">
        <ele>124.2</ele>
        <time>2012-11-11T15:28:00Z</time>
      </trkpt>
      <trkpt lat="59.5022232228" lon="17.8980636861">
        <ele>123.8</ele>
        <time>2012-11-11T15:28:01Z</time>
      </trkpt>
      <trkpt lat="59.5021758651" lon="17.8980578187">
        <ele>123.4</ele>
        <time>2012-11-11T15:28:02Z</time>
      </trkpt>
      <trkpt lat="59.5021311896" lon="17.8980472575">
        <ele>123</ele>
        <time>2012-11-11T15:28:03Z</time>
      </trkpt>
      <trkpt lat="59.5020902859" lon="17.8980588246">
        <ele>123</ele>
        <time>2012-11-11T15:28:04Z</time>
      </trkpt>
      <trkpt lat="59.5018655671" lon="17.8980630993">
        <ele>123</ele>
        <time>2012-11-11T15:28:08Z</time>
      </trkpt>
      <trkpt lat="59.5016126852" lon="17.898053544">
        <ele>122.2</ele>
        <time>2012-11-11T15:28:12Z</time>
      </trkpt>
      <trkpt lat="59.5015514974" lon="17.8980568129">
        <ele>121.8</ele>
        <time>2012-11-11T15:28:13Z</time>
      </trkpt>
      <trkpt lat="59.5014876273" lon="17.8980563938">
        <ele>121.4</ele>
        <time>2012-11-11T15:28:14Z</time>
      </trkpt>
      <trkpt lat="59.5014251821" lon="17.8980539631">
        <ele>120.8</ele>
        <time>2012-11-11T15:28:15Z</time>
      </trkpt>
      <trkpt lat="59.5009036603" lon="17.8980434857">
        <ele>120.4</ele>
        <time>2012-11-11T15:28:23Z</time>
      </trkpt>
      <trkpt lat="59.5008397064" lon="17.8980392947">
        <ele>120</ele>
        <time>2012-11-11T15:28:24Z</time>
      </trkpt>
      <trkpt lat="59.5007766745" lon="17.8980303261">
        <ele>119.6</ele>
        <time>2012-11-11T15:28:25Z</time>
      </trkpt>
      <trkpt lat="59.5007120501" lon="17.898024375">
        <ele>119.2</ele>
        <time>2012-11-11T15:28:26Z</time>
      </trkpt>
      <trkpt lat="59.5006477609" lon="17.8980273924">
        <ele>118.8</ele>
        <time>2012-11-11T15:28:27Z</time>
      </trkpt>
      <trkpt lat="59.5004536361" lon="17.8980249617">
        <ele>118.8</ele>
        <time>2012-11-11T15:28:30Z</time>
      </trkpt>
      <trkpt lat="59.4998590241" lon="17.8980018276">
        <ele>118.8</ele>
        <time>2012-11-11T15:28:40Z</time>
      </trkpt>
      <trkpt lat="59.4995695133" lon="17.8980001513">
        <ele>118.4</ele>
        <time>2012-11-11T15:28:45Z</time>
      </trkpt>
      <trkpt lat="59.4995143604" lon="17.8979981396">
        <ele>118</ele>
        <time>2012-11-11T15:28:46Z</time>
      </trkpt>
      <trkpt lat="59.4994573635" lon="17.8980017438">
        <ele>117.6</ele>
        <time>2012-11-11T15:28:47Z</time>
      </trkpt>
      <trkpt lat="59.49940154" lon="17.8979952059">
        <ele>117.2</ele>
        <time>2012-11-11T15:28:48Z</time>
      </trkpt>
      <trkpt lat="59.4993472253" lon="17.8979952059">
        <ele>116.8</ele>
        <time>2012-11-11T15:28:49Z</time>
      </trkpt>
      <trkpt lat="59.499113957" lon="17.8979996483">
        <ele>116.8</ele>
        <time>2012-11-11T15:28:54Z</time>
      </trkpt>
      <trkpt lat="59.4988738994" lon="17.8979874946">
        <ele>116.8</ele>
        <time>2012-11-11T15:28:59Z</time>
      </trkpt>
      <trkpt lat="59.4988200876" lon="17.8979844771">
        <ele>117.2</ele>
        <time>2012-11-11T15:29:00Z</time>
      </trkpt>
      <trkpt lat="59.4987672816" lon="17.8979737483">
        <ele>118</ele>
        <time>2012-11-11T15:29:01Z</time>
      </trkpt>
      <trkpt lat="59.4987189181" lon="17.8979798671">
        <ele>118.4</ele>
        <time>2012-11-11T15:29:02Z</time>
      </trkpt>
      <trkpt lat="59.4986633461" lon="17.8979797832">
        <ele>118.8</ele>
        <time>2012-11-11T15:29:03Z</time>
      </trkpt>
      <trkpt lat="59.4986107077" lon="17.8979738321">
        <ele>118.8</ele>
        <time>2012-11-11T15:29:04Z</time>
      </trkpt>
      <trkpt lat="59.498446171" lon="17.8979666237">
        <ele>118.8</ele>
        <time>2012-11-11T15:29:07Z</time>
      </trkpt>
      <trkpt lat="59.4983251364" lon="17.8979565654">
        <ele>118.8</ele>
        <time>2012-11-11T15:29:09Z</time>
      </trkpt>
      <trkpt lat="59.4982662955" lon="17.8979587447">
        <ele>119.2</ele>
        <time>2012-11-11T15:29:10Z</time>
      </trkpt>
      <trkpt lat="59.4982071193" lon="17.8979610078">
        <ele>119.8</ele>
        <time>2012-11-11T15:29:11Z</time>
      </trkpt>
      <trkpt lat="59.4981473563" lon="17.8979635224">
        <ele>120.2</ele>
        <time>2012-11-11T15:29:12Z</time>
      </trkpt>
      <trkpt lat="59.498089605" lon="17.8979577388">
        <ele>120.8</ele>
        <time>2012-11-11T15:29:13Z</time>
      </trkpt>
      <trkpt lat="59.4980336139" lon="17.8979565654">
        <ele>121.2</ele>
        <time>2012-11-11T15:29:14Z</time>
      </trkpt>
      <trkpt lat="59.4978600248" lon="17.8979555596">
        <ele>121.2</ele>
        <time>2012-11-11T15:29:17Z</time>
      </trkpt>
      <trkpt lat="59.4974854377" lon="17.89790904">
        <ele>121.2</ele>
        <time>2012-11-11T15:29:24Z</time>
      </trkpt>
      <trkpt lat="59.4972570309" lon="17.8977041864">
        <ele>121.2</ele>
        <time>2012-11-11T15:29:29Z</time>
      </trkpt>
      <trkpt lat="59.4969926658" lon="17.8974145079">
        <ele>121.2</ele>
        <time>2012-11-11T15:29:36Z</time>
      </trkpt>
      <trkpt lat="59.4967122074" lon="17.8970798186">
        <ele>121.2</ele>
        <time>2012-11-11T15:29:43Z</time>
      </trkpt>
      <trkpt lat="59.4963814576" lon="17.8966522579">
        <ele>121.2</ele>
        <time>2012-11-11T15:29:50Z</time>
      </trkpt>
      <trkpt lat="59.4962370375" lon="17.8964775791">
        <ele>121.2</ele>
        <time>2012-11-11T15:29:53Z</time>
      </trkpt>
      <trkpt lat="59.4960784519" lon="17.896460061">
        <ele>121.2</ele>
        <time>2012-11-11T15:29:56Z</time>
      </trkpt>
      <trkpt lat="59.4958602711" lon="17.8966592149">
        <ele>121.2</ele>
        <time>2012-11-11T15:30:00Z</time>
      </trkpt>
      <trkpt lat="59.4953652361" lon="17.8971154417">
        <ele>121.2</ele>
        <time>2012-11-11T15:30:09Z</time>
      </trkpt>
      <trkpt lat="59.4953095802" lon="17.8971644758">
        <ele>120.8</ele>
        <time>2012-11-11T15:30:10Z</time>
      </trkpt>
      <trkpt lat="59.4952545112" lon="17.8972200478">
        <ele>120.4</ele>
        <time>2012-11-11T15:30:11Z</time>
      </trkpt>
      <trkpt lat="59.4951997774" lon="17.897270004">
        <ele>120</ele>
        <time>2012-11-11T15:30:12Z</time>
      </trkpt>
      <trkpt lat="59.4951435348" lon="17.8973244025">
        <ele>119.6</ele>
        <time>2012-11-11T15:30:13Z</time>
      </trkpt>
      <trkpt lat="59.4950853644" lon="17.8973777952">
        <ele>119.2</ele>
        <time>2012-11-11T15:30:14Z</time>
      </trkpt>
      <trkpt lat="59.4949101827" lon="17.8975296752">
        <ele>119.2</ele>
        <time>2012-11-11T15:30:17Z</time>
      </trkpt>
      <trkpt lat="59.4945835401" lon="17.8978204433">
        <ele>119.2</ele>
        <time>2012-11-11T15:30:23Z</time>
      </trkpt>
      <trkpt lat="59.4942753376" lon="17.8981115467">
        <ele>119.2</ele>
        <time>2012-11-11T15:30:29Z</time>
      </trkpt>
      <trkpt lat="59.4938830647" lon="17.8984723875">
        <ele>119.2</ele>
        <time>2012-11-11T15:30:37Z</time>
      </trkpt>
      <trkpt lat="59.4933749539" lon="17.8989408519">
        <ele>119.2</ele>
        <time>2012-11-11T15:30:47Z</time>
      </trkpt>
      <trkpt lat="59.4929648275" lon="17.8993133435">
        <ele>119.2</ele>
        <time>2012-11-11T15:30:55Z</time>
      </trkpt>
      <trkpt lat="59.4929102614" lon="17.8993580191">
        <ele>118.6</ele>
        <time>2012-11-11T15:30:56Z</time>
      </trkpt>
      <trkpt lat="59.492856701" lon="17.8994088972">
        <ele>118.2</ele>
        <time>2012-11-11T15:30:57Z</time>
      </trkpt>
      <trkpt lat="59.492803476" lon="17.8994588533">
        <ele>117.8</ele>
        <time>2012-11-11T15:30:58Z</time>
      </trkpt>
      <trkpt lat="59.4927524302" lon="17.8994957337">
        <ele>117.4</ele>
        <time>2012-11-11T15:30:59Z</time>
      </trkpt>
      <trkpt lat="59.4926955171" lon="17.8995481206">
        <ele>117</ele>
        <time>2012-11-11T15:31:00Z</time>
      </trkpt>
      <trkpt lat="59.492642292" lon="17.8995922932">
        <ele>117</ele>
        <time>2012-11-11T15:31:01Z</time>
      </trkpt>
      <trkpt lat="59.4925474927" lon="17.8997258168">
        <ele>117</ele>
        <time>2012-11-11T15:31:03Z</time>
      </trkpt>
      <trkpt lat="59.4924781744" lon="17.8999120626">
        <ele>117</ele>
        <time>2012-11-11T15:31:05Z</time>
      </trkpt>
      <trkpt lat="59.4924155616" lon="17.9003408807">
        <ele>117</ele>
        <time>2012-11-11T15:31:09Z</time>
      </trkpt>
      <trkpt lat="59.4923817826" lon="17.9006619912">
        <ele>116.6</ele>
        <time>2012-11-11T15:31:12Z</time>
      </trkpt>
      <trkpt lat="59.4923697965" lon="17.900768609">
        <ele>116.2</ele>
        <time>2012-11-11T15:31:13Z</time>
      </trkpt>
      <trkpt lat="59.4923588162" lon="17.9008717902">
        <ele>115.8</ele>
        <time>2012-11-11T15:31:14Z</time>
      </trkpt>
      <trkpt lat="59.4923465786" lon="17.900965416">
        <ele>115.4</ele>
        <time>2012-11-11T15:31:15Z</time>
      </trkpt>
      <trkpt lat="59.4923331676" lon="17.9010708603">
        <ele>115</ele>
        <time>2012-11-11T15:31:16Z</time>
      </trkpt>
      <trkpt lat="59.4923071837" lon="17.9012494786">
        <ele>115</ele>
        <time>2012-11-11T15:31:18Z</time>
      </trkpt>
      <trkpt lat="59.4922355184" lon="17.9013752909">
        <ele>115</ele>
        <time>2012-11-11T15:31:20Z</time>
      </trkpt>
      <trkpt lat="59.4921281463" lon="17.9016503849">
        <ele>115</ele>
        <time>2012-11-11T15:31:24Z</time>
      </trkpt>
      <trkpt lat="59.4921161602" lon="17.901740658">
        <ele>115</ele>
        <time>2012-11-11T15:31:25Z</time>
      </trkpt>
      <trkpt lat="59.4920394658" lon="17.9023081126">
        <ele>115</ele>
        <time>2012-11-11T15:31:31Z</time>
      </trkpt>
      <trkpt lat="59.4919628552" lon="17.9029583804">
        <ele>115</ele>
        <time>2012-11-11T15:31:38Z</time>
      </trkpt>
      <trkpt lat="59.4919512882" lon="17.9030453845">
        <ele>115.4</ele>
        <time>2012-11-11T15:31:39Z</time>
      </trkpt>
      <trkpt lat="59.4919387992" lon="17.9031344003">
        <ele>115.8</ele>
        <time>2012-11-11T15:31:40Z</time>
      </trkpt>
      <trkpt lat="59.4919233765" lon="17.90323272">
        <ele>116.2</ele>
        <time>2012-11-11T15:31:41Z</time>
      </trkpt>
      <trkpt lat="59.4919109712" lon="17.9033301177">
        <ele>116.6</ele>
        <time>2012-11-11T15:31:42Z</time>
      </trkpt>
      <trkpt lat="59.4918992366" lon="17.9034264257">
        <ele>117</ele>
        <time>2012-11-11T15:31:43Z</time>
      </trkpt>
      <trkpt lat="59.4918807126" lon="17.9035986737">
        <ele>117</ele>
        <time>2012-11-11T15:31:45Z</time>
      </trkpt>
      <trkpt lat="59.4918617695" lon="17.9037697483">
        <ele>117</ele>
        <time>2012-11-11T15:31:47Z</time>
      </trkpt>
      <trkpt lat="59.4918512083" lon="17.9038557466">
        <ele>117.4</ele>
        <time>2012-11-11T15:31:48Z</time>
      </trkpt>
      <trkpt lat="59.4918437484" lon="17.9039406552">
        <ele>118</ele>
        <time>2012-11-11T15:31:49Z</time>
      </trkpt>
      <trkpt lat="59.4918421558" lon="17.9040214568">
        <ele>118.4</ele>
        <time>2012-11-11T15:31:50Z</time>
      </trkpt>
      <trkpt lat="59.4918284095" lon="17.9041144959">
        <ele>118.8</ele>
        <time>2012-11-11T15:31:51Z</time>
      </trkpt>
      <trkpt lat="59.491823548" lon="17.9042010809">
        <ele>119.2</ele>
        <time>2012-11-11T15:31:52Z</time>
      </trkpt>
      <trkpt lat="59.4918062813" lon="17.9043841416">
        <ele>119.2</ele>
        <time>2012-11-11T15:31:54Z</time>
      </trkpt>
      <trkpt lat="59.4917198639" lon="17.9050485748">
        <ele>119.2</ele>
        <time>2012-11-11T15:32:01Z</time>
      </trkpt>
      <trkpt lat="59.4916492045" lon="17.9056630519">
        <ele>119.2</ele>
        <time>2012-11-11T15:32:07Z</time>
      </trkpt>
      <trkpt lat="59.4915970691" lon="17.9060623656">
        <ele>119.2</ele>
        <time>2012-11-11T15:32:11Z</time>
      </trkpt>
      <trkpt lat="59.4915746056" lon="17.9062531376">
        <ele>119.2</ele>
        <time>2012-11-11T15:32:13Z</time>
      </trkpt>
      <trkpt lat="59.4915213805" lon="17.9066066862">
        <ele>119.6</ele>
        <time>2012-11-11T15:32:17Z</time>
      </trkpt>
      <trkpt lat="59.4915045329" lon="17.9066931036">
        <ele>120</ele>
        <time>2012-11-11T15:32:18Z</time>
      </trkpt>
      <trkpt lat="59.4914859251" lon="17.9067775093">
        <ele>120.8</ele>
        <time>2012-11-11T15:32:19Z</time>
      </trkpt>
      <trkpt lat="59.4914751124" lon="17.9068604901">
        <ele>121.2</ele>
        <time>2012-11-11T15:32:20Z</time>
      </trkpt>
      <trkpt lat="59.4914254078" lon="17.9072766514">
        <ele>121.8</ele>
        <time>2012-11-11T15:32:25Z</time>
      </trkpt>
      <trkpt lat="59.4914187861" lon="17.907353262">
        <ele>122.2</ele>
        <time>2012-11-11T15:32:26Z</time>
      </trkpt>
      <trkpt lat="59.4914088116" lon="17.9074260169">
        <ele>122.6</ele>
        <time>2012-11-11T15:32:27Z</time>
      </trkpt>
      <trkpt lat="59.4914003459" lon="17.9074929883">
        <ele>123</ele>
        <time>2012-11-11T15:32:28Z</time>
      </trkpt>
      <trkpt lat="59.4913908744" lon="17.907563061">
        <ele>123.4</ele>
        <time>2012-11-11T15:32:29Z</time>
      </trkpt>
      <trkpt lat="59.4913627112" lon="17.9077737819">
        <ele>123.8</ele>
        <time>2012-11-11T15:32:32Z</time>
      </trkpt>
      <trkpt lat="59.4913493839" lon="17.9078134283">
        <ele>124.4</ele>
        <time>2012-11-11T15:32:33Z</time>
      </trkpt>
      <trkpt lat="59.491324825" lon="17.9078669887">
        <ele>124.8</ele>
        <time>2012-11-11T15:32:34Z</time>
      </trkpt>
      <trkpt lat="59.4912988411" lon="17.9079037852">
        <ele>125.2</ele>
        <time>2012-11-11T15:32:35Z</time>
      </trkpt>
      <trkpt lat="59.491268331" lon="17.9079307749">
        <ele>125.6</ele>
        <time>2012-11-11T15:32:36Z</time>
      </trkpt>
      <trkpt lat="59.491100693" lon="17.9079667333">
        <ele>125.6</ele>
        <time>2012-11-11T15:32:40Z</time>
      </trkpt>
      <trkpt lat="59.4908196479" lon="17.9080689925">
        <ele>125.6</ele>
        <time>2012-11-11T15:32:45Z</time>
      </trkpt>
      <trkpt lat="59.4905328192" lon="17.9082950523">
        <ele>125.6</ele>
        <time>2012-11-11T15:32:50Z</time>
      </trkpt>
      <trkpt lat="59.4904772473" lon="17.9083463495">
        <ele>125.6</ele>
        <time>2012-11-11T15:32:51Z</time>
      </trkpt>
      <trkpt lat="59.4904198312" lon="17.9084020892">
        <ele>125.2</ele>
        <time>2012-11-11T15:32:52Z</time>
      </trkpt>
      <trkpt lat="59.4903574699" lon="17.908463277">
        <ele>124.8</ele>
        <time>2012-11-11T15:32:53Z</time>
      </trkpt>
      <trkpt lat="59.4902967011" lon="17.9085156639">
        <ele>124.4</ele>
        <time>2012-11-11T15:32:54Z</time>
      </trkpt>
      <trkpt lat="59.4902321605" lon="17.9085710683">
        <ele>123.8</ele>
        <time>2012-11-11T15:32:55Z</time>
      </trkpt>
      <trkpt lat="59.4901684581" lon="17.90863234">
        <ele>123.4</ele>
        <time>2012-11-11T15:32:56Z</time>
      </trkpt>
      <trkpt lat="59.4900328389" lon="17.908742981">
        <ele>123.4</ele>
        <time>2012-11-11T15:32:58Z</time>
      </trkpt>
      <trkpt lat="59.4896232993" lon="17.909077335">
        <ele>123.4</ele>
        <time>2012-11-11T15:33:04Z</time>
      </trkpt>
      <trkpt lat="59.4895572499" lon="17.9091364274">
        <ele>123</ele>
        <time>2012-11-11T15:33:05Z</time>
      </trkpt>
      <trkpt lat="59.4894919549" lon="17.9091904907">
        <ele>122.6</ele>
        <time>2012-11-11T15:33:06Z</time>
      </trkpt>
      <trkpt lat="59.4894286716" lon="17.9092557019">
        <ele>122.2</ele>
        <time>2012-11-11T15:33:07Z</time>
      </trkpt>
      <trkpt lat="59.4893652206" lon="17.9093265289">
        <ele>121.8</ele>
        <time>2012-11-11T15:33:08Z</time>
      </trkpt>
      <trkpt lat="59.4893026916" lon="17.9093987809">
        <ele>121</ele>
        <time>2012-11-11T15:33:09Z</time>
      </trkpt>
      <trkpt lat="59.4892422581" lon="17.9094703623">
        <ele>120.6</ele>
        <time>2012-11-11T15:33:10Z</time>
      </trkpt>
      <trkpt lat="59.4891834172" lon="17.9095457994">
        <ele>120.2</ele>
        <time>2012-11-11T15:33:11Z</time>
      </trkpt>
      <trkpt lat="59.4891275099" lon="17.9096238349">
        <ele>119.8</ele>
        <time>2012-11-11T15:33:12Z</time>
      </trkpt>
      <trkpt lat="59.4890703453" lon="17.9096961707">
        <ele>119.4</ele>
        <time>2012-11-11T15:33:13Z</time>
      </trkpt>
      <trkpt lat="59.4887764759" lon="17.9099943149">
        <ele>119.4</ele>
        <time>2012-11-11T15:33:18Z</time>
      </trkpt>
      <trkpt lat="59.4883672716" lon="17.9102803891">
        <ele>119.4</ele>
        <time>2012-11-11T15:33:25Z</time>
      </trkpt>
      <trkpt lat="59.4880479212" lon="17.9105568242">
        <ele>119.4</ele>
        <time>2012-11-11T15:33:31Z</time>
      </trkpt>
      <trkpt lat="59.4879471707" lon="17.9106719077">
        <ele>119.4</ele>
        <time>2012-11-11T15:33:33Z</time>
      </trkpt>
      <trkpt lat="59.4878535449" lon="17.9108036711">
        <ele>119.4</ele>
        <time>2012-11-11T15:33:35Z</time>
      </trkpt>
      <trkpt lat="59.4876187679" lon="17.9111281345">
        <ele>119.4</ele>
        <time>2012-11-11T15:33:40Z</time>
      </trkpt>
      <trkpt lat="59.4872282552" lon="17.9115399372">
        <ele>119.4</ele>
        <time>2012-11-11T15:33:47Z</time>
      </trkpt>
      <trkpt lat="59.4870401653" lon="17.9116587088">
        <ele>119</ele>
        <time>2012-11-11T15:33:50Z</time>
      </trkpt>
      <trkpt lat="59.4869705117" lon="17.9116918173">
        <ele>118.6</ele>
        <time>2012-11-11T15:33:51Z</time>
      </trkpt>
      <trkpt lat="59.4868985112" lon="17.9117244229">
        <ele>118</ele>
        <time>2012-11-11T15:33:52Z</time>
      </trkpt>
      <trkpt lat="59.4868275165" lon="17.9117556035">
        <ele>117.6</ele>
        <time>2012-11-11T15:33:53Z</time>
      </trkpt>
      <trkpt lat="59.4867506545" lon="17.9117830962">
        <ele>117.2</ele>
        <time>2012-11-11T15:33:54Z</time>
      </trkpt>
      <trkpt lat="59.48638227" lon="17.911982753">
        <ele>116.4</ele>
        <time>2012-11-11T15:33:59Z</time>
      </trkpt>
      <trkpt lat="59.4863120297" lon="17.9120315357">
        <ele>116</ele>
        <time>2012-11-11T15:34:00Z</time>
      </trkpt>
      <trkpt lat="59.486244723" lon="17.9120810727">
        <ele>115.6</ele>
        <time>2012-11-11T15:34:01Z</time>
      </trkpt>
      <trkpt lat="59.4861773326" lon="17.9121218087">
        <ele>115.2</ele>
        <time>2012-11-11T15:34:02Z</time>
      </trkpt>
      <trkpt lat="59.4859256241" lon="17.9122839147">
        <ele>115.2</ele>
        <time>2012-11-11T15:34:06Z</time>
      </trkpt>
      <trkpt lat="59.485547768" lon="17.9124787939">
        <ele>115.2</ele>
        <time>2012-11-11T15:34:12Z</time>
      </trkpt>
      <trkpt lat="59.4852454329" lon="17.912580131">
        <ele>115.2</ele>
        <time>2012-11-11T15:34:17Z</time>
      </trkpt>
      <trkpt lat="59.4848692532" lon="17.9125867527">
        <ele>115.2</ele>
        <time>2012-11-11T15:34:23Z</time>
      </trkpt>
      <trkpt lat="59.4848066404" lon="17.9126056958">
        <ele>115.2</ele>
        <time>2012-11-11T15:34:24Z</time>
      </trkpt>
      <trkpt lat="59.4846203946" lon="17.9128043469">
        <ele>115.2</ele>
        <time>2012-11-11T15:34:27Z</time>
      </trkpt>
      <trkpt lat="59.4845243381" lon="17.9130125533">
        <ele>115.2</ele>
        <time>2012-11-11T15:34:29Z</time>
      </trkpt>
      <trkpt lat="59.4844770641" lon="17.9131289778">
        <ele>114.8</ele>
        <time>2012-11-11T15:34:30Z</time>
      </trkpt>
      <trkpt lat="59.4844276109" lon="17.9132461568">
        <ele>114.4</ele>
        <time>2012-11-11T15:34:31Z</time>
      </trkpt>
      <trkpt lat="59.4843707816" lon="17.9133563788">
        <ele>114</ele>
        <time>2012-11-11T15:34:32Z</time>
      </trkpt>
      <trkpt lat="59.4843030559" lon="17.9134564587">
        <ele>113.6</ele>
        <time>2012-11-11T15:34:33Z</time>
      </trkpt>
      <trkpt lat="59.4842345758" lon="17.9135363382">
        <ele>113.2</ele>
        <time>2012-11-11T15:34:34Z</time>
      </trkpt>
      <trkpt lat="59.4841604798" lon="17.913605405">
        <ele>112.8</ele>
        <time>2012-11-11T15:34:35Z</time>
      </trkpt>
      <trkpt lat="59.4840846236" lon="17.9136805069">
        <ele>112.4</ele>
        <time>2012-11-11T15:34:36Z</time>
      </trkpt>
      <trkpt lat="59.4840117849" lon="17.9137533456">
        <ele>112</ele>
        <time>2012-11-11T15:34:37Z</time>
      </trkpt>
      <trkpt lat="59.4839391138" lon="17.9138214904">
        <ele>111.6</ele>
        <time>2012-11-11T15:34:38Z</time>
      </trkpt>
      <trkpt lat="59.4838697117" lon="17.913894413">
        <ele>111.2</ele>
        <time>2012-11-11T15:34:39Z</time>
      </trkpt>
      <trkpt lat="59.4838036623" lon="17.913980076">
        <ele>111.2</ele>
        <time>2012-11-11T15:34:40Z</time>
      </trkpt>
      <trkpt lat="59.4835794465" lon="17.9143917111">
        <ele>111.2</ele>
        <time>2012-11-11T15:34:44Z</time>
      </trkpt>
      <trkpt lat="59.4834113894" lon="17.9147288311">
        <ele>111.2</ele>
        <time>2012-11-11T15:34:48Z</time>
      </trkpt>
      <trkpt lat="59.4832213717" lon="17.9150321721">
        <ele>111.6</ele>
        <time>2012-11-11T15:34:53Z</time>
      </trkpt>
      <trkpt lat="59.4831854133" lon="17.9150767638">
        <ele>112</ele>
        <time>2012-11-11T15:34:54Z</time>
      </trkpt>
      <trkpt lat="59.4831514667" lon="17.9151174998">
        <ele>112.4</ele>
        <time>2012-11-11T15:34:55Z</time>
      </trkpt>
      <trkpt lat="59.4831138319" lon="17.9151629297">
        <ele>113</ele>
        <time>2012-11-11T15:34:56Z</time>
      </trkpt>
      <trkpt lat="59.4830757781" lon="17.9152050907">
        <ele>113.4</ele>
        <time>2012-11-11T15:34:57Z</time>
      </trkpt>
      <trkpt lat="59.4830347068" lon="17.9152455752">
        <ele>113.8</ele>
        <time>2012-11-11T15:34:58Z</time>
      </trkpt>
      <trkpt lat="59.4829912047" lon="17.9152900831">
        <ele>114.4</ele>
        <time>2012-11-11T15:34:59Z</time>
      </trkpt>
      <trkpt lat="59.4829491276" lon="17.9153451522">
        <ele>114.8</ele>
        <time>2012-11-11T15:35:00Z</time>
      </trkpt>
      <trkpt lat="59.4829047035" lon="17.9153982935">
        <ele>115.2</ele>
        <time>2012-11-11T15:35:01Z</time>
      </trkpt>
      <trkpt lat="59.4828581002" lon="17.9154559609">
        <ele>115.8</ele>
        <time>2012-11-11T15:35:02Z</time>
      </trkpt>
      <trkpt lat="59.4826327109" lon="17.9157006286">
        <ele>115.8</ele>
        <time>2012-11-11T15:35:06Z</time>
      </trkpt>
      <trkpt lat="59.4825701819" lon="17.9157580446">
        <ele>115.4</ele>
        <time>2012-11-11T15:35:07Z</time>
      </trkpt>
      <trkpt lat="59.482505306" lon="17.9158105153">
        <ele>114.8</ele>
        <time>2012-11-11T15:35:08Z</time>
      </trkpt>
      <trkpt lat="59.4824343113" lon="17.9158686019">
        <ele>114.4</ele>
        <time>2012-11-11T15:35:09Z</time>
      </trkpt>
      <trkpt lat="59.4823635681" lon="17.9159216593">
        <ele>114</ele>
        <time>2012-11-11T15:35:10Z</time>
      </trkpt>
      <trkpt lat="59.4822917352" lon="17.9159771475">
        <ele>113.6</ele>
        <time>2012-11-11T15:35:11Z</time>
      </trkpt>
      <trkpt lat="59.4822278651" lon="17.9160284447">
        <ele>113.6</ele>
        <time>2012-11-11T15:35:12Z</time>
      </trkpt>
      <trkpt lat="59.4821645817" lon="17.9160779817">
        <ele>113</ele>
        <time>2012-11-11T15:35:13Z</time>
      </trkpt>
      <trkpt lat="59.4821064952" lon="17.9161203103">
        <ele>112.6</ele>
        <time>2012-11-11T15:35:14Z</time>
      </trkpt>
      <trkpt lat="59.482055198" lon="17.9161576936">
        <ele>112.2</ele>
        <time>2012-11-11T15:35:15Z</time>
      </trkpt>
      <trkpt lat="59.4820080917" lon="17.9161891257">
        <ele>111.8</ele>
        <time>2012-11-11T15:35:16Z</time>
      </trkpt>
      <trkpt lat="59.4819659307" lon="17.9162044646">
        <ele>111.2</ele>
        <time>2012-11-11T15:35:17Z</time>
      </trkpt>
      <trkpt lat="59.4818591453" lon="17.9161300333">
        <ele>111.2</ele>
        <time>2012-11-11T15:35:20Z</time>
      </trkpt>
      <trkpt lat="59.4818064232" lon="17.9159836015">
        <ele>111.2</ele>
        <time>2012-11-11T15:35:22Z</time>
      </trkpt>
      <trkpt lat="59.4817495101" lon="17.9158131137">
        <ele>111.2</ele>
        <time>2012-11-11T15:35:24Z</time>
      </trkpt>
      <trkpt lat="59.4815425609" lon="17.9152580643">
        <ele>111.2</ele>
        <time>2012-11-11T15:35:30Z</time>
      </trkpt>
      <trkpt lat="59.4813706482" lon="17.9149177591">
        <ele>111.2</ele>
        <time>2012-11-11T15:35:34Z</time>
      </trkpt>
      <trkpt lat="59.4813120587" lon="17.9148681383">
        <ele>111.2</ele>
        <time>2012-11-11T15:35:35Z</time>
      </trkpt>
      <trkpt lat="59.481116509" lon="17.914777027">
        <ele>111.2</ele>
        <time>2012-11-11T15:35:38Z</time>
      </trkpt>
      <trkpt lat="59.4809763636" lon="17.9147093013">
        <ele>111.2</ele>
        <time>2012-11-11T15:35:40Z</time>
      </trkpt>
      <trkpt lat="59.480846528" lon="17.9146129932">
        <ele>110.8</ele>
        <time>2012-11-11T15:35:42Z</time>
      </trkpt>
      <trkpt lat="59.480786765" lon="17.9145521406">
        <ele>110.4</ele>
        <time>2012-11-11T15:35:43Z</time>
      </trkpt>
      <trkpt lat="59.4807310254" lon="17.9144900308">
        <ele>110</ele>
        <time>2012-11-11T15:35:44Z</time>
      </trkpt>
      <trkpt lat="59.4806749505" lon="17.914427418">
        <ele>109.6</ele>
        <time>2012-11-11T15:35:45Z</time>
      </trkpt>
      <trkpt lat="59.4806177021" lon="17.9143703372">
        <ele>109.2</ele>
        <time>2012-11-11T15:35:46Z</time>
      </trkpt>
      <trkpt lat="59.4805560951" lon="17.914325997">
        <ele>109.2</ele>
        <time>2012-11-11T15:35:47Z</time>
      </trkpt>
      <trkpt lat="59.480360294" lon="17.9142420942">
        <ele>109.6</ele>
        <time>2012-11-11T15:35:50Z</time>
      </trkpt>
      <trkpt lat="59.4802963401" lon="17.9142321197">
        <ele>110</ele>
        <time>2012-11-11T15:35:51Z</time>
      </trkpt>
      <trkpt lat="59.4802328891" lon="17.9142318682">
        <ele>110.4</ele>
        <time>2012-11-11T15:35:52Z</time>
      </trkpt>
      <trkpt lat="59.4801692705" lon="17.9142329579">
        <ele>110.8</ele>
        <time>2012-11-11T15:35:53Z</time>
      </trkpt>
      <trkpt lat="59.4801045622" lon="17.9142359754">
        <ele>111.2</ele>
        <time>2012-11-11T15:35:54Z</time>
      </trkpt>
      <trkpt lat="59.4799794204" lon="17.9142461175">
        <ele>111.2</ele>
        <time>2012-11-11T15:35:56Z</time>
      </trkpt>
      <trkpt lat="59.4799183164" lon="17.9142544156">
        <ele>110.8</ele>
        <time>2012-11-11T15:35:57Z</time>
      </trkpt>
      <trkpt lat="59.4798555359" lon="17.9142648929">
        <ele>110.4</ele>
        <time>2012-11-11T15:35:58Z</time>
      </trkpt>
      <trkpt lat="59.4797943481" lon="17.9142726043">
        <ele>110</ele>
        <time>2012-11-11T15:35:59Z</time>
      </trkpt>
      <trkpt lat="59.4797329087" lon="17.9142822435">
        <ele>109.6</ele>
        <time>2012-11-11T15:36:00Z</time>
      </trkpt>
      <trkpt lat="59.4796726429" lon="17.9142841713">
        <ele>109.2</ele>
        <time>2012-11-11T15:36:01Z</time>
      </trkpt>
      <trkpt lat="59.4795506024" lon="17.9142837522">
        <ele>109.2</ele>
        <time>2012-11-11T15:36:03Z</time>
      </trkpt>
      <trkpt lat="59.4793258837" lon="17.9142520686">
        <ele>109.2</ele>
        <time>2012-11-11T15:36:07Z</time>
      </trkpt>
      <trkpt lat="59.4792755923" lon="17.9142044594">
        <ele>109.2</ele>
        <time>2012-11-11T15:36:08Z</time>
      </trkpt>
      <trkpt lat="59.4791384644" lon="17.9138738773">
        <ele>109.2</ele>
        <time>2012-11-11T15:36:12Z</time>
      </trkpt>
      <trkpt lat="59.4791212815" lon="17.9137951713">
        <ele>109.2</ele>
        <time>2012-11-11T15:36:13Z</time>
      </trkpt>
      <trkpt lat="59.4791018355" lon="17.9137240927">
        <ele>109.2</ele>
        <time>2012-11-11T15:36:14Z</time>
      </trkpt>
      <trkpt lat="59.4790662962" lon="17.9135799241">
        <ele>109.2</ele>
        <time>2012-11-11T15:36:16Z</time>
      </trkpt>
      <trkpt lat="59.4789784539" lon="17.9131973742">
        <ele>110</ele>
        <time>2012-11-11T15:36:21Z</time>
      </trkpt>
      <trkpt lat="59.4789596785" lon="17.9131170755">
        <ele>110.4</ele>
        <time>2012-11-11T15:36:22Z</time>
      </trkpt>
      <trkpt lat="59.4789425794" lon="17.9130410517">
        <ele>110.8</ele>
        <time>2012-11-11T15:36:23Z</time>
      </trkpt>
      <trkpt lat="59.4789248936" lon="17.9129630162">
        <ele>111.2</ele>
        <time>2012-11-11T15:36:24Z</time>
      </trkpt>
      <trkpt lat="59.4788865883" lon="17.912805688">
        <ele>111.6</ele>
        <time>2012-11-11T15:36:26Z</time>
      </trkpt>
      <trkpt lat="59.4788680643" lon="17.9127272334">
        <ele>112.2</ele>
        <time>2012-11-11T15:36:27Z</time>
      </trkpt>
      <trkpt lat="59.4788507976" lon="17.9126460128">
        <ele>112.6</ele>
        <time>2012-11-11T15:36:28Z</time>
      </trkpt>
      <trkpt lat="59.4788312678" lon="17.9125642054">
        <ele>113</ele>
        <time>2012-11-11T15:36:29Z</time>
      </trkpt>
      <trkpt lat="59.4788094748" lon="17.9124823143">
        <ele>113.6</ele>
        <time>2012-11-11T15:36:30Z</time>
      </trkpt>
      <trkpt lat="59.4787678168" lon="17.9123157659">
        <ele>114</ele>
        <time>2012-11-11T15:36:32Z</time>
      </trkpt>
      <trkpt lat="59.4787493766" lon="17.9122394068">
        <ele>114.4</ele>
        <time>2012-11-11T15:36:33Z</time>
      </trkpt>
      <trkpt lat="59.4787329481" lon="17.9121658137">
        <ele>114.8</ele>
        <time>2012-11-11T15:36:34Z</time>
      </trkpt>
      <trkpt lat="59.4787171901" lon="17.9120916339">
        <ele>115.4</ele>
        <time>2012-11-11T15:36:35Z</time>
      </trkpt>
      <trkpt lat="59.4787009292" lon="17.9120161968">
        <ele>115.8</ele>
        <time>2012-11-11T15:36:36Z</time>
      </trkpt>
      <trkpt lat="59.4785907072" lon="17.911627109">
        <ele>115.8</ele>
        <time>2012-11-11T15:36:41Z</time>
      </trkpt>
      <trkpt lat="59.4784559263" lon="17.9115060744">
        <ele>115.8</ele>
        <time>2012-11-11T15:36:44Z</time>
      </trkpt>
      <trkpt lat="59.4783506496" lon="17.9114938368">
        <ele>115.8</ele>
        <time>2012-11-11T15:36:46Z</time>
      </trkpt>
      <trkpt lat="59.4782273519" lon="17.9114884724">
        <ele>115.4</ele>
        <time>2012-11-11T15:36:48Z</time>
      </trkpt>
      <trkpt lat="59.4781545131" lon="17.9114870475">
        <ele>114.8</ele>
        <time>2012-11-11T15:36:49Z</time>
      </trkpt>
      <trkpt lat="59.4780835185" lon="17.9114852034">
        <ele>114.4</ele>
        <time>2012-11-11T15:36:50Z</time>
      </trkpt>
      <trkpt lat="59.4780076623" lon="17.9114841976">
        <ele>114</ele>
        <time>2012-11-11T15:36:51Z</time>
      </trkpt>
      <trkpt lat="59.4779330634" lon="17.9114826889">
        <ele>113.4</ele>
        <time>2012-11-11T15:36:52Z</time>
      </trkpt>
      <trkpt lat="59.4778556984" lon="17.911481683">
        <ele>112.8</ele>
        <time>2012-11-11T15:36:53Z</time>
      </trkpt>
      <trkpt lat="59.4777738073" lon="17.9114835271">
        <ele>112.4</ele>
        <time>2012-11-11T15:36:54Z</time>
      </trkpt>
      <trkpt lat="59.4776936763" lon="17.9114852873">
        <ele>111.8</ele>
        <time>2012-11-11T15:36:55Z</time>
      </trkpt>
      <trkpt lat="59.4776166466" lon="17.9114802581">
        <ele>111.2</ele>
        <time>2012-11-11T15:36:56Z</time>
      </trkpt>
      <trkpt lat="59.4774149781" lon="17.911447904">
        <ele>111.2</ele>
        <time>2012-11-11T15:36:59Z</time>
      </trkpt>
      <trkpt lat="59.4773524491" lon="17.9114434616">
        <ele>111.2</ele>
        <time>2012-11-11T15:37:00Z</time>
      </trkpt>
      <trkpt lat="59.4771189294" lon="17.9114360017">
        <ele>111.2</ele>
        <time>2012-11-11T15:37:04Z</time>
      </trkpt>
      <trkpt lat="59.476821791" lon="17.9114085929">
        <ele>111.2</ele>
        <time>2012-11-11T15:37:10Z</time>
      </trkpt>
      <trkpt lat="59.4766688214" lon="17.9113976964">
        <ele>111.2</ele>
        <time>2012-11-11T15:37:13Z</time>
      </trkpt>
      <trkpt lat="59.4765156841" lon="17.9114210819">
        <ele>111.2</ele>
        <time>2012-11-11T15:37:16Z</time>
      </trkpt>
      <trkpt lat="59.4763324557" lon="17.9113345807">
        <ele>111.2</ele>
        <time>2012-11-11T15:37:20Z</time>
      </trkpt>
      <trkpt lat="59.4762418474" lon="17.9113323176">
        <ele>111.2</ele>
        <time>2012-11-11T15:37:22Z</time>
      </trkpt>
      <trkpt lat="59.4760899674" lon="17.9113263664">
        <ele>111.2</ele>
        <time>2012-11-11T15:37:25Z</time>
      </trkpt>
      <trkpt lat="59.4757589661" lon="17.9113629953">
        <ele>111.2</ele>
        <time>2012-11-11T15:37:32Z</time>
      </trkpt>
      <trkpt lat="59.4757313897" lon="17.9111907473">
        <ele>111.2</ele>
        <time>2012-11-11T15:37:35Z</time>
      </trkpt>
      <trkpt lat="59.4757313059" lon="17.911116316">
        <ele>111.2</ele>
        <time>2012-11-11T15:37:36Z</time>
      </trkpt>
      <trkpt lat="59.4757348263" lon="17.9110346763">
        <ele>111.2</ele>
        <time>2012-11-11T15:37:37Z</time>
      </trkpt>
      <trkpt lat="59.475740945" lon="17.9106851511">
        <ele>111.2</ele>
        <time>2012-11-11T15:37:41Z</time>
      </trkpt>
      <trkpt lat="59.4757401907" lon="17.9100166946">
        <ele>111.2</ele>
        <time>2012-11-11T15:37:48Z</time>
      </trkpt>
      <trkpt lat="59.4757283722" lon="17.909277411">
        <ele>111.2</ele>
        <time>2012-11-11T15:37:55Z</time>
      </trkpt>
      <trkpt lat="59.4757298809" lon="17.9087135606">
        <ele>111.8</ele>
        <time>2012-11-11T15:38:00Z</time>
      </trkpt>
      <trkpt lat="59.475727534" lon="17.908604093">
        <ele>112.2</ele>
        <time>2012-11-11T15:38:01Z</time>
      </trkpt>
      <trkpt lat="59.475722924" lon="17.9084973075">
        <ele>112.6</ele>
        <time>2012-11-11T15:38:02Z</time>
      </trkpt>
      <trkpt lat="59.4757198227" lon="17.9083945455">
        <ele>113.2</ele>
        <time>2012-11-11T15:38:03Z</time>
      </trkpt>
      <trkpt lat="59.4757177272" lon="17.9082973154">
        <ele>113.6</ele>
        <time>2012-11-11T15:38:04Z</time>
      </trkpt>
      <trkpt lat="59.4757206608" lon="17.908015013">
        <ele>113.6</ele>
        <time>2012-11-11T15:38:07Z</time>
      </trkpt>
      <trkpt lat="59.4757333175" lon="17.9076503165">
        <ele>114</ele>
        <time>2012-11-11T15:38:11Z</time>
      </trkpt>
      <trkpt lat="59.4757368379" lon="17.9075575289">
        <ele>114.4</ele>
        <time>2012-11-11T15:38:12Z</time>
      </trkpt>
      <trkpt lat="59.4757427891" lon="17.9074605503">
        <ele>115</ele>
        <time>2012-11-11T15:38:13Z</time>
      </trkpt>
      <trkpt lat="59.4757475667" lon="17.9073653319">
        <ele>115.4</ele>
        <time>2012-11-11T15:38:14Z</time>
      </trkpt>
      <trkpt lat="59.4757499975" lon="17.9072743045">
        <ele>115.8</ele>
        <time>2012-11-11T15:38:15Z</time>
      </trkpt>
      <trkpt lat="59.4757484888" lon="17.9067826223">
        <ele>115.8</ele>
        <time>2012-11-11T15:38:20Z</time>
      </trkpt>
      <trkpt lat="59.475753015" lon="17.9065778524">
        <ele>116.2</ele>
        <time>2012-11-11T15:38:22Z</time>
      </trkpt>
      <trkpt lat="59.4757541046" lon="17.9064746713">
        <ele>116.6</ele>
        <time>2012-11-11T15:38:23Z</time>
      </trkpt>
      <trkpt lat="59.4757562839" lon="17.9063702328">
        <ele>117.6</ele>
        <time>2012-11-11T15:38:24Z</time>
      </trkpt>
      <trkpt lat="59.4757577088" lon="17.9062686442">
        <ele>118</ele>
        <time>2012-11-11T15:38:25Z</time>
      </trkpt>
      <trkpt lat="59.4757605587" lon="17.9059553287">
        <ele>118</ele>
        <time>2012-11-11T15:38:28Z</time>
      </trkpt>
      <trkpt lat="59.4757653364" lon="17.9053994411">
        <ele>118</ele>
        <time>2012-11-11T15:38:33Z</time>
      </trkpt>
      <trkpt lat="59.4757587147" lon="17.9047022347">
        <ele>118</ele>
        <time>2012-11-11T15:38:40Z</time>
      </trkpt>
      <trkpt lat="59.4757407774" lon="17.904053308">
        <ele>118</ele>
        <time>2012-11-11T15:38:46Z</time>
      </trkpt>
      <trkpt lat="59.4756950961" lon="17.9031091708">
        <ele>118</ele>
        <time>2012-11-11T15:38:54Z</time>
      </trkpt>
      <trkpt lat="59.4756453076" lon="17.9022319211">
        <ele>118</ele>
        <time>2012-11-11T15:39:01Z</time>
      </trkpt>
      <trkpt lat="59.4756023922" lon="17.9016259936">
        <ele>118</ele>
        <time>2012-11-11T15:39:07Z</time>
      </trkpt>
      <trkpt lat="59.4755606504" lon="17.9011035497">
        <ele>118</ele>
        <time>2012-11-11T15:39:12Z</time>
      </trkpt>
      <trkpt lat="59.4755487481" lon="17.9007637475">
        <ele>118</ele>
        <time>2012-11-11T15:39:15Z</time>
      </trkpt>
      <trkpt lat="59.4755447248" lon="17.9006711275">
        <ele>117.6</ele>
        <time>2012-11-11T15:39:16Z</time>
      </trkpt>
      <trkpt lat="59.4755453115" lon="17.9006114484">
        <ele>117.2</ele>
        <time>2012-11-11T15:39:17Z</time>
      </trkpt>
      <trkpt lat="59.4755496701" lon="17.9005966962">
        <ele>116.6</ele>
        <time>2012-11-11T15:39:18Z</time>
      </trkpt>
      <trkpt lat="59.4755505921" lon="17.900594014">
        <ele>116.2</ele>
        <time>2012-11-11T15:39:19Z</time>
      </trkpt>
      <trkpt lat="59.4755505921" lon="17.900594014">
        <ele>115.8</ele>
        <time>2012-11-11T15:39:20Z</time>
      </trkpt>
      <trkpt lat="59.4755375163" lon="17.9004365181">
        <ele>115.8</ele>
        <time>2012-11-11T15:39:24Z</time>
      </trkpt>
      <trkpt lat="59.4754941819" lon="17.9000542197">
        <ele>115.8</ele>
        <time>2012-11-11T15:39:28Z</time>
      </trkpt>
      <trkpt lat="59.4754075131" lon="17.8993363099">
        <ele>115.8</ele>
        <time>2012-11-11T15:39:34Z</time>
      </trkpt>
      <trkpt lat="59.4752465806" lon="17.8983567173">
        <ele>115.8</ele>
        <time>2012-11-11T15:39:42Z</time>
      </trkpt>
      <trkpt lat="59.475073662" lon="17.8973529009">
        <ele>115.8</ele>
        <time>2012-11-11T15:39:50Z</time>
      </trkpt>
      <trkpt lat="59.4750521205" lon="17.8972285974">
        <ele>115.8</ele>
        <time>2012-11-11T15:39:51Z</time>
      </trkpt>
      <trkpt lat="59.474939803" lon="17.8966203229">
        <ele>116.2</ele>
        <time>2012-11-11T15:39:56Z</time>
      </trkpt>
      <trkpt lat="59.4749206923" lon="17.8965023057">
        <ele>116.6</ele>
        <time>2012-11-11T15:39:57Z</time>
      </trkpt>
      <trkpt lat="59.4748978935" lon="17.8963749847">
        <ele>117.2</ele>
        <time>2012-11-11T15:39:58Z</time>
      </trkpt>
      <trkpt lat="59.4748772741" lon="17.896252106">
        <ele>117.6</ele>
        <time>2012-11-11T15:39:59Z</time>
      </trkpt>
      <trkpt lat="59.4748542238" lon="17.8961298141">
        <ele>118</ele>
        <time>2012-11-11T15:40:00Z</time>
      </trkpt>
      <trkpt lat="59.4747702372" lon="17.8956331027">
        <ele>118</ele>
        <time>2012-11-11T15:40:04Z</time>
      </trkpt>
      <trkpt lat="59.474700416" lon="17.8952520615">
        <ele>117.6</ele>
        <time>2012-11-11T15:40:07Z</time>
      </trkpt>
      <trkpt lat="59.4746776172" lon="17.8951239861">
        <ele>117.2</ele>
        <time>2012-11-11T15:40:08Z</time>
      </trkpt>
      <trkpt lat="59.4746555728" lon="17.8949934799">
        <ele>116.8</ele>
        <time>2012-11-11T15:40:09Z</time>
      </trkpt>
      <trkpt lat="59.4746363783" lon="17.8948652368">
        <ele>116.2</ele>
        <time>2012-11-11T15:40:10Z</time>
      </trkpt>
      <trkpt lat="59.4746185248" lon="17.8947392569">
        <ele>115.8</ele>
        <time>2012-11-11T15:40:11Z</time>
      </trkpt>
      <trkpt lat="59.4745834885" lon="17.8944831898">
        <ele>115.8</ele>
        <time>2012-11-11T15:40:13Z</time>
      </trkpt>
      <trkpt lat="59.4744758649" lon="17.8938589059">
        <ele>115.8</ele>
        <time>2012-11-11T15:40:18Z</time>
      </trkpt>
      <trkpt lat="59.4743971588" lon="17.8936607578">
        <ele>115.8</ele>
        <time>2012-11-11T15:40:20Z</time>
      </trkpt>
      <trkpt lat="59.4743261641" lon="17.893377282">
        <ele>115.8</ele>
        <time>2012-11-11T15:40:23Z</time>
      </trkpt>
      <trkpt lat="59.4743096518" lon="17.8931699137">
        <ele>115.8</ele>
        <time>2012-11-11T15:40:25Z</time>
      </trkpt>
      <trkpt lat="59.4742720171" lon="17.8928747032">
        <ele>115.8</ele>
        <time>2012-11-11T15:40:28Z</time>
      </trkpt>
      <trkpt lat="59.4741500604" lon="17.8927438618">
        <ele>115.8</ele>
        <time>2012-11-11T15:40:31Z</time>
      </trkpt>
      <trkpt lat="59.4741019483" lon="17.8926994377">
        <ele>115.8</ele>
        <time>2012-11-11T15:40:32Z</time>
      </trkpt>
      <trkpt lat="59.4740102503" lon="17.8926239168">
        <ele>116.2</ele>
        <time>2012-11-11T15:40:34Z</time>
      </trkpt>
      <trkpt lat="59.4739638984" lon="17.8925854439">
        <ele>116.8</ele>
        <time>2012-11-11T15:40:35Z</time>
      </trkpt>
      <trkpt lat="59.4739257608" lon="17.8925672551">
        <ele>117.2</ele>
        <time>2012-11-11T15:40:36Z</time>
      </trkpt>
      <trkpt lat="59.4738893833" lon="17.8925864497">
        <ele>117.6</ele>
        <time>2012-11-11T15:40:37Z</time>
      </trkpt>
      <trkpt lat="59.4738514133" lon="17.8926194744">
        <ele>118</ele>
        <time>2012-11-11T15:40:38Z</time>
      </trkpt>
      <trkpt lat="59.47380942" lon="17.8926551813">
        <ele>118</ele>
        <time>2012-11-11T15:40:39Z</time>
      </trkpt>
      <trkpt lat="59.4737428677" lon="17.8927309536">
        <ele>118</ele>
        <time>2012-11-11T15:40:41Z</time>
      </trkpt>
      <trkpt lat="59.473729792" lon="17.8927953266">
        <ele>118</ele>
        <time>2012-11-11T15:40:42Z</time>
      </trkpt>
      <trkpt lat="59.4737169677" lon="17.8928755414">
        <ele>117.6</ele>
        <time>2012-11-11T15:40:43Z</time>
      </trkpt>
      <trkpt lat="59.4737073285" lon="17.8929553371">
        <ele>117.2</ele>
        <time>2012-11-11T15:40:44Z</time>
      </trkpt>
      <trkpt lat="59.473693666" lon="17.8930372283">
        <ele>116.6</ele>
        <time>2012-11-11T15:40:45Z</time>
      </trkpt>
      <trkpt lat="59.4736778242" lon="17.8931245677">
        <ele>116.2</ele>
        <time>2012-11-11T15:40:46Z</time>
      </trkpt>
      <trkpt lat="59.4736606413" lon="17.8932171038">
        <ele>115.8</ele>
        <time>2012-11-11T15:40:47Z</time>
      </trkpt>
      <trkpt lat="59.473649661" lon="17.8933540641">
        <ele>115.4</ele>
        <time>2012-11-11T15:40:49Z</time>
      </trkpt>
      <trkpt lat="59.4736553607" lon="17.8933951354">
        <ele>115</ele>
        <time>2012-11-11T15:40:50Z</time>
      </trkpt>
      <trkpt lat="59.4736719568" lon="17.8934142461">
        <ele>114.4</ele>
        <time>2012-11-11T15:40:51Z</time>
      </trkpt>
      <trkpt lat="59.4736926601" lon="17.8933997454">
        <ele>114</ele>
        <time>2012-11-11T15:40:52Z</time>
      </trkpt>
      <trkpt lat="59.4737062388" lon="17.8933512142">
        <ele>113.6</ele>
        <time>2012-11-11T15:40:53Z</time>
      </trkpt>
      <trkpt lat="59.4737446279" lon="17.8931320276">
        <ele>113.6</ele>
        <time>2012-11-11T15:40:56Z</time>
      </trkpt>
      <trkpt lat="59.4737821788" lon="17.8929613721">
        <ele>113.6</ele>
        <time>2012-11-11T15:40:58Z</time>
      </trkpt>
      <trkpt lat="59.4738987711" lon="17.8924403532">
        <ele>113.6</ele>
        <time>2012-11-11T15:41:03Z</time>
      </trkpt>
      <trkpt lat="59.4739881221" lon="17.8919192504">
        <ele>113</ele>
        <time>2012-11-11T15:41:07Z</time>
      </trkpt>
      <trkpt lat="59.4740001082" lon="17.8917826255">
        <ele>112.6</ele>
        <time>2012-11-11T15:41:08Z</time>
      </trkpt>
      <trkpt lat="59.4740108371" lon="17.8916394626">
        <ele>112.2</ele>
        <time>2012-11-11T15:41:09Z</time>
      </trkpt>
      <trkpt lat="59.4740193028" lon="17.891503592">
        <ele>111.6</ele>
        <time>2012-11-11T15:41:10Z</time>
      </trkpt>
      <trkpt lat="59.4740266789" lon="17.8913713256">
        <ele>111.2</ele>
        <time>2012-11-11T15:41:11Z</time>
      </trkpt>
      <trkpt lat="59.4740682531" lon="17.8907202197">
        <ele>111.2</ele>
        <time>2012-11-11T15:41:16Z</time>
      </trkpt>
      <trkpt lat="59.4741607054" lon="17.889858728">
        <ele>111.2</ele>
        <time>2012-11-11T15:41:23Z</time>
      </trkpt>
      <trkpt lat="59.4742865178" lon="17.8891756031">
        <ele>111.2</ele>
        <time>2012-11-11T15:41:29Z</time>
      </trkpt>
      <trkpt lat="59.4743143457" lon="17.8890731763">
        <ele>111.2</ele>
        <time>2012-11-11T15:41:30Z</time>
      </trkpt>
      <trkpt lat="59.4743471189" lon="17.888981646">
        <ele>111.2</ele>
        <time>2012-11-11T15:41:31Z</time>
      </trkpt>
      <trkpt lat="59.4744420858" lon="17.8887415045">
        <ele>111.2</ele>
        <time>2012-11-11T15:41:34Z</time>
      </trkpt>
      <trkpt lat="59.4744679859" lon="17.8886657321">
        <ele>111.2</ele>
        <time>2012-11-11T15:41:35Z</time>
      </trkpt>
      <trkpt lat="59.4745209595" lon="17.8885044644">
        <ele>111.2</ele>
        <time>2012-11-11T15:41:37Z</time>
      </trkpt>
      <trkpt lat="59.4745588457" lon="17.8883112616">
        <ele>111.6</ele>
        <time>2012-11-11T15:41:39Z</time>
      </trkpt>
      <trkpt lat="59.4745710833" lon="17.8882138639">
        <ele>112</ele>
        <time>2012-11-11T15:41:40Z</time>
      </trkpt>
      <trkpt lat="59.4745780402" lon="17.8881221659">
        <ele>112.4</ele>
        <time>2012-11-11T15:41:41Z</time>
      </trkpt>
      <trkpt lat="59.474583237" lon="17.8880361676">
        <ele>113.4</ele>
        <time>2012-11-11T15:41:42Z</time>
      </trkpt>
      <trkpt lat="59.4745903616" lon="17.8879458108">
        <ele>113.4</ele>
        <time>2012-11-11T15:41:43Z</time>
      </trkpt>
      <trkpt lat="59.4745970672" lon="17.8878537775">
        <ele>113.4</ele>
        <time>2012-11-11T15:41:44Z</time>
      </trkpt>
      <trkpt lat="59.4746164293" lon="17.8875879036">
        <ele>113.8</ele>
        <time>2012-11-11T15:41:47Z</time>
      </trkpt>
      <trkpt lat="59.4746198659" lon="17.8874927691">
        <ele>114.2</ele>
        <time>2012-11-11T15:41:48Z</time>
      </trkpt>
      <trkpt lat="59.4746256494" lon="17.88740434">
        <ele>114.6</ele>
        <time>2012-11-11T15:41:49Z</time>
      </trkpt>
      <trkpt lat="59.4746307624" lon="17.8873169168">
        <ele>115</ele>
        <time>2012-11-11T15:41:50Z</time>
      </trkpt>
      <trkpt lat="59.4746331093" lon="17.8872258055">
        <ele>115.4</ele>
        <time>2012-11-11T15:41:51Z</time>
      </trkpt>
      <trkpt lat="59.4746171837" lon="17.8868109015">
        <ele>115.4</ele>
        <time>2012-11-11T15:41:56Z</time>
      </trkpt>
      <trkpt lat="59.4746141662" lon="17.8867258252">
        <ele>115.8</ele>
        <time>2012-11-11T15:41:57Z</time>
      </trkpt>
      <trkpt lat="59.4746099753" lon="17.8866477897">
        <ele>116.2</ele>
        <time>2012-11-11T15:41:58Z</time>
      </trkpt>
      <trkpt lat="59.4746035212" lon="17.8865627973">
        <ele>116.8</ele>
        <time>2012-11-11T15:41:59Z</time>
      </trkpt>
      <trkpt lat="59.4745968995" lon="17.886479565">
        <ele>117.2</ele>
        <time>2012-11-11T15:42:00Z</time>
      </trkpt>
      <trkpt lat="59.4745873441" lon="17.8863999369">
        <ele>117.6</ele>
        <time>2012-11-11T15:42:01Z</time>
      </trkpt>
      <trkpt lat="59.4745740169" lon="17.8862411838">
        <ele>117.6</ele>
        <time>2012-11-11T15:42:03Z</time>
      </trkpt>
      <trkpt lat="59.4745350411" lon="17.8858373438">
        <ele>118</ele>
        <time>2012-11-11T15:42:08Z</time>
      </trkpt>
      <trkpt lat="59.4745261563" lon="17.8857503397">
        <ele>118.4</ele>
        <time>2012-11-11T15:42:09Z</time>
      </trkpt>
      <trkpt lat="59.4745135834" lon="17.8856558757">
        <ele>118.8</ele>
        <time>2012-11-11T15:42:10Z</time>
      </trkpt>
      <trkpt lat="59.4744991666" lon="17.885570045">
        <ele>119.2</ele>
        <time>2012-11-11T15:42:11Z</time>
      </trkpt>
      <trkpt lat="59.4744845821" lon="17.8854851364">
        <ele>119.6</ele>
        <time>2012-11-11T15:42:12Z</time>
      </trkpt>
      <trkpt lat="59.4744531499" lon="17.8852330088">
        <ele>119.6</ele>
        <time>2012-11-11T15:42:15Z</time>
      </trkpt>
      <trkpt lat="59.47440772" lon="17.8848950506">
        <ele>120</ele>
        <time>2012-11-11T15:42:19Z</time>
      </trkpt>
      <trkpt lat="59.4743949795" lon="17.8848033526">
        <ele>120.4</ele>
        <time>2012-11-11T15:42:20Z</time>
      </trkpt>
      <trkpt lat="59.4743835802" lon="17.8847111517">
        <ele>120.8</ele>
        <time>2012-11-11T15:42:21Z</time>
      </trkpt>
      <trkpt lat="59.4743707559" lon="17.8846191185">
        <ele>121.2</ele>
        <time>2012-11-11T15:42:22Z</time>
      </trkpt>
      <trkpt lat="59.474360949" lon="17.8845369758">
        <ele>121.6</ele>
        <time>2012-11-11T15:42:23Z</time>
      </trkpt>
      <trkpt lat="59.4743451911" lon="17.8844529054">
        <ele>121.6</ele>
        <time>2012-11-11T15:42:24Z</time>
      </trkpt>
      <trkpt lat="59.4743179499" lon="17.8842689227">
        <ele>121.6</ele>
        <time>2012-11-11T15:42:26Z</time>
      </trkpt>
      <trkpt lat="59.4743006832" lon="17.8840841018">
        <ele>121.6</ele>
        <time>2012-11-11T15:42:28Z</time>
      </trkpt>
      <trkpt lat="59.4742630484" lon="17.8837289607">
        <ele>122</ele>
        <time>2012-11-11T15:42:32Z</time>
      </trkpt>
      <trkpt lat="59.474247039" lon="17.8836411184">
        <ele>122.4</ele>
        <time>2012-11-11T15:42:33Z</time>
      </trkpt>
      <trkpt lat="59.4742317001" lon="17.8835471573">
        <ele>122.8</ele>
        <time>2012-11-11T15:42:34Z</time>
      </trkpt>
      <trkpt lat="59.4742194626" lon="17.8834536991">
        <ele>123.2</ele>
        <time>2012-11-11T15:42:35Z</time>
      </trkpt>
      <trkpt lat="59.4742083146" lon="17.8833589836">
        <ele>123.6</ele>
        <time>2012-11-11T15:42:36Z</time>
      </trkpt>
      <trkpt lat="59.4741659022" lon="17.882967968">
        <ele>123.6</ele>
        <time>2012-11-11T15:42:40Z</time>
      </trkpt>
      <trkpt lat="59.4740550097" lon="17.882163557">
        <ele>123.6</ele>
        <time>2012-11-11T15:42:48Z</time>
      </trkpt>
      <trkpt lat="59.4739348132" lon="17.8813140515">
        <ele>123.6</ele>
        <time>2012-11-11T15:42:56Z</time>
      </trkpt>
      <trkpt lat="59.473850156" lon="17.8806822239">
        <ele>123.6</ele>
        <time>2012-11-11T15:43:02Z</time>
      </trkpt>
      <trkpt lat="59.473745969" lon="17.8798953311">
        <ele>123.6</ele>
        <time>2012-11-11T15:43:09Z</time>
      </trkpt>
      <trkpt lat="59.4736514212" lon="17.879103493">
        <ele>123.6</ele>
        <time>2012-11-11T15:43:16Z</time>
      </trkpt>
      <trkpt lat="59.4736057398" lon="17.8787623497">
        <ele>124</ele>
        <time>2012-11-11T15:43:19Z</time>
      </trkpt>
      <trkpt lat="59.4735893951" lon="17.8786522115">
        <ele>124.4</ele>
        <time>2012-11-11T15:43:20Z</time>
      </trkpt>
      <trkpt lat="59.4735710388" lon="17.8785420733">
        <ele>125.2</ele>
        <time>2012-11-11T15:43:21Z</time>
      </trkpt>
      <trkpt lat="59.4735562866" lon="17.8784350365">
        <ele>125.8</ele>
        <time>2012-11-11T15:43:22Z</time>
      </trkpt>
      <trkpt lat="59.4735410316" lon="17.878327832">
        <ele>125.8</ele>
        <time>2012-11-11T15:43:23Z</time>
      </trkpt>
      <trkpt lat="59.4734411193" lon="17.8776936574">
        <ele>125.8</ele>
        <time>2012-11-11T15:43:29Z</time>
      </trkpt>
      <trkpt lat="59.473375992" lon="17.8771700401">
        <ele>125.8</ele>
        <time>2012-11-11T15:43:34Z</time>
      </trkpt>
      <trkpt lat="59.4732959448" lon="17.8765043496">
        <ele>125.8</ele>
        <time>2012-11-11T15:43:40Z</time>
      </trkpt>
      <trkpt lat="59.4732362657" lon="17.8759358053">
        <ele>125.8</ele>
        <time>2012-11-11T15:43:45Z</time>
      </trkpt>
      <trkpt lat="59.4732206754" lon="17.8755929856">
        <ele>126.2</ele>
        <time>2012-11-11T15:43:48Z</time>
      </trkpt>
      <trkpt lat="59.4732193342" lon="17.875477483">
        <ele>126.6</ele>
        <time>2012-11-11T15:43:49Z</time>
      </trkpt>
      <trkpt lat="59.4732184961" lon="17.8753586277">
        <ele>127</ele>
        <time>2012-11-11T15:43:50Z</time>
      </trkpt>
      <trkpt lat="59.4732191666" lon="17.8752474837">
        <ele>127.4</ele>
        <time>2012-11-11T15:43:51Z</time>
      </trkpt>
      <trkpt lat="59.473218999" lon="17.8751319811">
        <ele>127.8</ele>
        <time>2012-11-11T15:43:52Z</time>
      </trkpt>
      <trkpt lat="59.4732154786" lon="17.8747118803">
        <ele>127.8</ele>
        <time>2012-11-11T15:43:56Z</time>
      </trkpt>
      <trkpt lat="59.4732346731" lon="17.8742796257">
        <ele>127.8</ele>
        <time>2012-11-11T15:44:00Z</time>
      </trkpt>
      <trkpt lat="59.4732373553" lon="17.8740629536">
        <ele>127.8</ele>
        <time>2012-11-11T15:44:02Z</time>
      </trkpt>
      <trkpt lat="59.4732076834" lon="17.8738559207">
        <ele>127.8</ele>
        <time>2012-11-11T15:44:04Z</time>
      </trkpt>
      <trkpt lat="59.4731770057" lon="17.8737647256">
        <ele>128.4</ele>
        <time>2012-11-11T15:44:05Z</time>
      </trkpt>
      <trkpt lat="59.4731436457" lon="17.8736849299">
        <ele>128.8</ele>
        <time>2012-11-11T15:44:06Z</time>
      </trkpt>
      <trkpt lat="59.4731125488" lon="17.8736076488">
        <ele>129.4</ele>
        <time>2012-11-11T15:44:07Z</time>
      </trkpt>
      <trkpt lat="59.4730837151" lon="17.8735328822">
        <ele>129.8</ele>
        <time>2012-11-11T15:44:08Z</time>
      </trkpt>
      <trkpt lat="59.4730537917" lon="17.8734581995">
        <ele>130.2</ele>
        <time>2012-11-11T15:44:09Z</time>
      </trkpt>
      <trkpt lat="59.4730223596" lon="17.8733982689">
        <ele>130.2</ele>
        <time>2012-11-11T15:44:10Z</time>
      </trkpt>
      <trkpt lat="59.4729513649" lon="17.8733113486">
        <ele>130.2</ele>
        <time>2012-11-11T15:44:12Z</time>
      </trkpt>
      <trkpt lat="59.4727356986" lon="17.8731161342">
        <ele>130.2</ele>
        <time>2012-11-11T15:44:17Z</time>
      </trkpt>
      <trkpt lat="59.4726931186" lon="17.8730545272">
        <ele>130.2</ele>
        <time>2012-11-11T15:44:18Z</time>
      </trkpt>
      <trkpt lat="59.4725932901" lon="17.872912454">
        <ele>130.2</ele>
        <time>2012-11-11T15:44:20Z</time>
      </trkpt>
      <trkpt lat="59.4725393107" lon="17.872859648">
        <ele>130.2</ele>
        <time>2012-11-11T15:44:21Z</time>
      </trkpt>
      <trkpt lat="59.4722754485" lon="17.8727264596">
        <ele>130.2</ele>
        <time>2012-11-11T15:44:25Z</time>
      </trkpt>
      <trkpt lat="59.4722023583" lon="17.8727133001">
        <ele>130.2</ele>
        <time>2012-11-11T15:44:26Z</time>
      </trkpt>
      <trkpt lat="59.4719873626" lon="17.8728340832">
        <ele>130.2</ele>
        <time>2012-11-11T15:44:29Z</time>
      </trkpt>
      <trkpt lat="59.4718779788" lon="17.8730089297">
        <ele>130.2</ele>
        <time>2012-11-11T15:44:31Z</time>
      </trkpt>
      <trkpt lat="59.4718286094" lon="17.8730946765">
        <ele>129.8</ele>
        <time>2012-11-11T15:44:32Z</time>
      </trkpt>
      <trkpt lat="59.471777396" lon="17.8731757295">
        <ele>129.4</ele>
        <time>2012-11-11T15:44:33Z</time>
      </trkpt>
      <trkpt lat="59.4717195609" lon="17.8732507475">
        <ele>128.8</ele>
        <time>2012-11-11T15:44:34Z</time>
      </trkpt>
      <trkpt lat="59.4716506617" lon="17.8733281124">
        <ele>128.4</ele>
        <time>2012-11-11T15:44:35Z</time>
      </trkpt>
      <trkpt lat="59.4715798346" lon="17.8734002806">
        <ele>128</ele>
        <time>2012-11-11T15:44:36Z</time>
      </trkpt>
      <trkpt lat="59.4715063253" lon="17.8734737899">
        <ele>127.6</ele>
        <time>2012-11-11T15:44:37Z</time>
      </trkpt>
      <trkpt lat="59.4714297986" lon="17.873531122">
        <ele>127</ele>
        <time>2012-11-11T15:44:38Z</time>
      </trkpt>
      <trkpt lat="59.4713533557" lon="17.8735747917">
        <ele>126.6</ele>
        <time>2012-11-11T15:44:39Z</time>
      </trkpt>
      <trkpt lat="59.4712790082" lon="17.8736070621">
        <ele>126.2</ele>
        <time>2012-11-11T15:44:40Z</time>
      </trkpt>
      <trkpt lat="59.4712104443" lon="17.8736374884">
        <ele>125.8</ele>
        <time>2012-11-11T15:44:41Z</time>
      </trkpt>
      <trkpt lat="59.4708226976" lon="17.8737289349">
        <ele>125.8</ele>
        <time>2012-11-11T15:44:47Z</time>
      </trkpt>
      <trkpt lat="59.4706440793" lon="17.8737270071">
        <ele>125.8</ele>
        <time>2012-11-11T15:44:50Z</time>
      </trkpt>
      <trkpt lat="59.4705348631" lon="17.8736573535">
        <ele>125.8</ele>
        <time>2012-11-11T15:44:52Z</time>
      </trkpt>
      <trkpt lat="59.4703870064" lon="17.8735035456">
        <ele>125.8</ele>
        <time>2012-11-11T15:44:55Z</time>
      </trkpt>
      <trkpt lat="59.4702378086" lon="17.8733538449">
        <ele>125.8</ele>
        <time>2012-11-11T15:44:58Z</time>
      </trkpt>
      <trkpt lat="59.4698514868" lon="17.8729059161">
        <ele>125.8</ele>
        <time>2012-11-11T15:45:06Z</time>
      </trkpt>
      <trkpt lat="59.4696755507" lon="17.8726898307">
        <ele>125.8</ele>
        <time>2012-11-11T15:45:10Z</time>
      </trkpt>
      <trkpt lat="59.4696380837" lon="17.8726181655">
        <ele>126.2</ele>
        <time>2012-11-11T15:45:11Z</time>
      </trkpt>
      <trkpt lat="59.4696110939" lon="17.872526719">
        <ele>126.6</ele>
        <time>2012-11-11T15:45:12Z</time>
      </trkpt>
      <trkpt lat="59.4695935758" lon="17.8724242083">
        <ele>127.2</ele>
        <time>2012-11-11T15:45:13Z</time>
      </trkpt>
      <trkpt lat="59.4695914803" lon="17.8723232064">
        <ele>127.6</ele>
        <time>2012-11-11T15:45:14Z</time>
      </trkpt>
      <trkpt lat="59.469599024" lon="17.8722177621">
        <ele>128</ele>
        <time>2012-11-11T15:45:15Z</time>
      </trkpt>
      <trkpt lat="59.4696106748" lon="17.8721116473">
        <ele>128</ele>
        <time>2012-11-11T15:45:16Z</time>
      </trkpt>
      <trkpt lat="59.4696266005" lon="17.8720134952">
        <ele>128</ele>
        <time>2012-11-11T15:45:17Z</time>
      </trkpt>
      <trkpt lat="59.4696816695" lon="17.8717289297">
        <ele>128</ele>
        <time>2012-11-11T15:45:20Z</time>
      </trkpt>
      <trkpt lat="59.4698190489" lon="17.8712119341">
        <ele>128</ele>
        <time>2012-11-11T15:45:26Z</time>
      </trkpt>
      <trkpt lat="59.4698922229" lon="17.8707833676">
        <ele>128</ele>
        <time>2012-11-11T15:45:30Z</time>
      </trkpt>
      <trkpt lat="59.4699028679" lon="17.870677588">
        <ele>128</ele>
        <time>2012-11-11T15:45:31Z</time>
      </trkpt>
      <trkpt lat="59.4699964937" lon="17.8697965665">
        <ele>128</ele>
        <time>2012-11-11T15:45:39Z</time>
      </trkpt>
      <trkpt lat="59.4700155206" lon="17.8695751167">
        <ele>128</ele>
        <time>2012-11-11T15:45:41Z</time>
      </trkpt>
      <trkpt lat="59.4700192925" lon="17.8693537507">
        <ele>127.6</ele>
        <time>2012-11-11T15:45:43Z</time>
      </trkpt>
      <trkpt lat="59.4700187896" lon="17.8692487255">
        <ele>127.2</ele>
        <time>2012-11-11T15:45:44Z</time>
      </trkpt>
      <trkpt lat="59.4700166941" lon="17.8691439518">
        <ele>126.8</ele>
        <time>2012-11-11T15:45:45Z</time>
      </trkpt>
      <trkpt lat="59.4700145986" lon="17.8690432851">
        <ele>126.4</ele>
        <time>2012-11-11T15:45:46Z</time>
      </trkpt>
      <trkpt lat="59.4700092342" lon="17.8689434567">
        <ele>126</ele>
        <time>2012-11-11T15:45:47Z</time>
      </trkpt>
      <trkpt lat="59.469996829" lon="17.8688457238">
        <ele>126</ele>
        <time>2012-11-11T15:45:48Z</time>
      </trkpt>
      <trkpt lat="59.4699514829" lon="17.8686818576">
        <ele>126</ele>
        <time>2012-11-11T15:45:50Z</time>
      </trkpt>
      <trkpt lat="59.4698266764" lon="17.8685814425">
        <ele>126</ele>
        <time>2012-11-11T15:45:53Z</time>
      </trkpt>
      <trkpt lat="59.4697308713" lon="17.8685656007">
        <ele>126</ele>
        <time>2012-11-11T15:45:55Z</time>
      </trkpt>
      <trkpt lat="59.4696832621" lon="17.8685438077">
        <ele>126</ele>
        <time>2012-11-11T15:45:56Z</time>
      </trkpt>
      <trkpt lat="59.4695373332" lon="17.8684606593">
        <ele>126</ele>
        <time>2012-11-11T15:45:59Z</time>
      </trkpt>
      <trkpt lat="59.4692114449" lon="17.8682364435">
        <ele>126</ele>
        <time>2012-11-11T15:46:06Z</time>
      </trkpt>
      <trkpt lat="59.4691682782" lon="17.8682114654">
        <ele>126.4</ele>
        <time>2012-11-11T15:46:07Z</time>
      </trkpt>
      <trkpt lat="59.4691211719" lon="17.8681937796">
        <ele>126.8</ele>
        <time>2012-11-11T15:46:08Z</time>
      </trkpt>
      <trkpt lat="59.4690722216" lon="17.8681918517">
        <ele>127.2</ele>
        <time>2012-11-11T15:46:09Z</time>
      </trkpt>
      <trkpt lat="59.4690296415" lon="17.8681923547">
        <ele>127.6</ele>
        <time>2012-11-11T15:46:10Z</time>
      </trkpt>
      <trkpt lat="59.4689873968" lon="17.8681937796">
        <ele>128</ele>
        <time>2012-11-11T15:46:11Z</time>
      </trkpt>
      <trkpt lat="59.4687463333" lon="17.8682464179">
        <ele>128</ele>
        <time>2012-11-11T15:46:16Z</time>
      </trkpt>
      <trkpt lat="59.4686947846" lon="17.8682580688">
        <ele>128</ele>
        <time>2012-11-11T15:46:17Z</time>
      </trkpt>
      <trkpt lat="59.4685551422" lon="17.8682724018">
        <ele>128</ele>
        <time>2012-11-11T15:46:20Z</time>
      </trkpt>
      <trkpt lat="59.4685055213" lon="17.868276006">
        <ele>128</ele>
        <time>2012-11-11T15:46:21Z</time>
      </trkpt>
      <trkpt lat="59.4684140748" lon="17.8682920155">
        <ele>128</ele>
        <time>2012-11-11T15:46:23Z</time>
      </trkpt>
      <trkpt lat="59.4683139949" lon="17.8682978828">
        <ele>128</ele>
        <time>2012-11-11T15:46:25Z</time>
      </trkpt>
      <trkpt lat="59.4682206205" lon="17.8682955359">
        <ele>128</ele>
        <time>2012-11-11T15:46:27Z</time>
      </trkpt>
      <trkpt lat="59.4680775415" lon="17.8682698872">
        <ele>128</ele>
        <time>2012-11-11T15:46:30Z</time>
      </trkpt>
      <trkpt lat="59.4679441855" lon="17.86821398">
        <ele>128</ele>
        <time>2012-11-11T15:46:33Z</time>
      </trkpt>
      <trkpt lat="59.4679018569" lon="17.8681851462">
        <ele>128</ele>
        <time>2012-11-11T15:46:34Z</time>
      </trkpt>
      <trkpt lat="59.467824492" lon="17.8681355254">
        <ele>128.4</ele>
        <time>2012-11-11T15:46:36Z</time>
      </trkpt>
      <trkpt lat="59.4677872763" lon="17.8681077813">
        <ele>128.8</ele>
        <time>2012-11-11T15:46:37Z</time>
      </trkpt>
      <trkpt lat="59.4677482167" lon="17.8680866589">
        <ele>129.2</ele>
        <time>2012-11-11T15:46:38Z</time>
      </trkpt>
      <trkpt lat="59.4676997693" lon="17.868079199">
        <ele>129.6</ele>
        <time>2012-11-11T15:46:39Z</time>
      </trkpt>
      <trkpt lat="59.4676491426" lon="17.868077355">
        <ele>130</ele>
        <time>2012-11-11T15:46:40Z</time>
      </trkpt>
      <trkpt lat="59.4675561873" lon="17.8681025007">
        <ele>130</ele>
        <time>2012-11-11T15:46:42Z</time>
      </trkpt>
      <trkpt lat="59.4673878788" lon="17.8682408859">
        <ele>130</ele>
        <time>2012-11-11T15:46:46Z</time>
      </trkpt>
      <trkpt lat="59.4673169679" lon="17.8683115453">
        <ele>130.6</ele>
        <time>2012-11-11T15:46:48Z</time>
      </trkpt>
      <trkpt lat="59.4672897267" lon="17.8683416363">
        <ele>131</ele>
        <time>2012-11-11T15:46:49Z</time>
      </trkpt>
      <trkpt lat="59.4672613959" lon="17.868371895">
        <ele>131.4</ele>
        <time>2012-11-11T15:46:50Z</time>
      </trkpt>
      <trkpt lat="59.4672297123" lon="17.8684024889">
        <ele>131.8</ele>
        <time>2012-11-11T15:46:51Z</time>
      </trkpt>
      <trkpt lat="59.4671952627" lon="17.8684306521">
        <ele>132.2</ele>
        <time>2012-11-11T15:46:52Z</time>
      </trkpt>
      <trkpt lat="59.4671280399" lon="17.8684765011">
        <ele>132.6</ele>
        <time>2012-11-11T15:46:54Z</time>
      </trkpt>
      <trkpt lat="59.4670927521" lon="17.8684851344">
        <ele>133</ele>
        <time>2012-11-11T15:46:55Z</time>
      </trkpt>
      <trkpt lat="59.4670577996" lon="17.8684879005">
        <ele>133.4</ele>
        <time>2012-11-11T15:46:56Z</time>
      </trkpt>
      <trkpt lat="59.4670188237" lon="17.8684875652">
        <ele>133.8</ele>
        <time>2012-11-11T15:46:57Z</time>
      </trkpt>
      <trkpt lat="59.4669814404" lon="17.8684858888">
        <ele>134.2</ele>
        <time>2012-11-11T15:46:58Z</time>
      </trkpt>
      <trkpt lat="59.4667522793" lon="17.8684133015">
        <ele>134.2</ele>
        <time>2012-11-11T15:47:04Z</time>
      </trkpt>
      <trkpt lat="59.4667112918" lon="17.8683962025">
        <ele>134.6</ele>
        <time>2012-11-11T15:47:05Z</time>
      </trkpt>
      <trkpt lat="59.4666734894" lon="17.8683680393">
        <ele>135</ele>
        <time>2012-11-11T15:47:07Z</time>
      </trkpt>
      <trkpt lat="59.4666280595" lon="17.8683425583">
        <ele>135.4</ele>
        <time>2012-11-11T15:47:08Z</time>
      </trkpt>
      <trkpt lat="59.4665848089" lon="17.8683135569">
        <ele>135.8</ele>
        <time>2012-11-11T15:47:09Z</time>
      </trkpt>
      <trkpt lat="59.4665430671" lon="17.86829453">
        <ele>136.2</ele>
        <time>2012-11-11T15:47:10Z</time>
      </trkpt>
      <trkpt lat="59.4662611" lon="17.868216746">
        <ele>136.2</ele>
        <time>2012-11-11T15:47:16Z</time>
      </trkpt>
      <trkpt lat="59.4659374748" lon="17.8681061049">
        <ele>136.2</ele>
        <time>2012-11-11T15:47:23Z</time>
      </trkpt>
      <trkpt lat="59.4656399174" lon="17.8680391335">
        <ele>136.2</ele>
        <time>2012-11-11T15:47:29Z</time>
      </trkpt>
      <trkpt lat="59.4653633147" lon="17.8679960506">
        <ele>136.2</ele>
        <time>2012-11-11T15:47:35Z</time>
      </trkpt>
      <trkpt lat="59.4651219159" lon="17.8680175082">
        <ele>136.2</ele>
        <time>2012-11-11T15:47:40Z</time>
      </trkpt>
      <trkpt lat="59.4650209979" lon="17.8680237108">
        <ele>136.2</ele>
        <time>2012-11-11T15:47:42Z</time>
      </trkpt>
      <trkpt lat="59.4649205827" lon="17.8679885069">
        <ele>136.2</ele>
        <time>2012-11-11T15:47:44Z</time>
      </trkpt>
      <trkpt lat="59.4648615741" lon="17.8679533867">
        <ele>136.2</ele>
        <time>2012-11-11T15:47:45Z</time>
      </trkpt>
      <trkpt lat="59.4646635098" lon="17.8678753512">
        <ele>136.2</ele>
        <time>2012-11-11T15:47:48Z</time>
      </trkpt>
      <trkpt lat="59.4645279745" lon="17.8678559052">
        <ele>136.2</ele>
        <time>2012-11-11T15:47:50Z</time>
      </trkpt>
      <trkpt lat="59.4643104642" lon="17.8678317653">
        <ele>135.8</ele>
        <time>2012-11-11T15:47:53Z</time>
      </trkpt>
      <trkpt lat="59.4642367873" lon="17.8678321844">
        <ele>135.4</ele>
        <time>2012-11-11T15:47:54Z</time>
      </trkpt>
      <trkpt lat="59.4641639486" lon="17.8678326035">
        <ele>134.4</ele>
        <time>2012-11-11T15:47:55Z</time>
      </trkpt>
      <trkpt lat="59.4640939597" lon="17.8678424942">
        <ele>133.8</ele>
        <time>2012-11-11T15:47:56Z</time>
      </trkpt>
      <trkpt lat="59.4640243061" lon="17.8678539774">
        <ele>133.4</ele>
        <time>2012-11-11T15:47:57Z</time>
      </trkpt>
      <trkpt lat="59.4639554069" lon="17.8678725014">
        <ele>133</ele>
        <time>2012-11-11T15:47:58Z</time>
      </trkpt>
      <trkpt lat="59.463887765" lon="17.8678914445">
        <ele>132.6</ele>
        <time>2012-11-11T15:47:59Z</time>
      </trkpt>
      <trkpt lat="59.4638207098" lon="17.8679012513">
        <ele>132.2</ele>
        <time>2012-11-11T15:48:00Z</time>
      </trkpt>
      <trkpt lat="59.4637530678" lon="17.867901838">
        <ele>131.8</ele>
        <time>2012-11-11T15:48:01Z</time>
      </trkpt>
      <trkpt lat="59.4636930534" lon="17.8679164225">
        <ele>131.8</ele>
        <time>2012-11-11T15:48:02Z</time>
      </trkpt>
      <trkpt lat="59.4634285207" lon="17.8679610142">
        <ele>131.4</ele>
        <time>2012-11-11T15:48:07Z</time>
      </trkpt>
      <trkpt lat="59.4633770558" lon="17.8679771913">
        <ele>130.8</ele>
        <time>2012-11-11T15:48:08Z</time>
      </trkpt>
      <trkpt lat="59.463327435" lon="17.8680222021">
        <ele>130.4</ele>
        <time>2012-11-11T15:48:09Z</time>
      </trkpt>
      <trkpt lat="59.4632952485" lon="17.8680959628">
        <ele>130</ele>
        <time>2012-11-11T15:48:10Z</time>
      </trkpt>
      <trkpt lat="59.4632818374" lon="17.8681914327">
        <ele>129.6</ele>
        <time>2012-11-11T15:48:11Z</time>
      </trkpt>
      <trkpt lat="59.4633351463" lon="17.8684668619">
        <ele>129.6</ele>
        <time>2012-11-11T15:48:14Z</time>
      </trkpt>
      <trkpt lat="59.4633674166" lon="17.8685476634">
        <ele>129.6</ele>
        <time>2012-11-11T15:48:15Z</time>
      </trkpt>
      <trkpt lat="59.4635406705" lon="17.8690457159">
        <ele>129.6</ele>
        <time>2012-11-11T15:48:21Z</time>
      </trkpt>
      <trkpt lat="59.4635595298" lon="17.869136911">
        <ele>129.6</ele>
        <time>2012-11-11T15:48:22Z</time>
      </trkpt>
      <trkpt lat="59.4635787243" lon="17.8694303613">
        <ele>129.6</ele>
        <time>2012-11-11T15:48:25Z</time>
      </trkpt>
      <trkpt lat="59.4635514831" lon="17.8700884243">
        <ele>129.6</ele>
        <time>2012-11-11T15:48:31Z</time>
      </trkpt>
      <trkpt lat="59.4635088193" lon="17.8704567249">
        <ele>129.2</ele>
        <time>2012-11-11T15:48:34Z</time>
      </trkpt>
      <trkpt lat="59.4634921393" lon="17.8705817829">
        <ele>128.8</ele>
        <time>2012-11-11T15:48:35Z</time>
      </trkpt>
      <trkpt lat="59.4634758784" lon="17.8707039072">
        <ele>128.4</ele>
        <time>2012-11-11T15:48:36Z</time>
      </trkpt>
      <trkpt lat="59.463460791" lon="17.8708348325">
        <ele>128</ele>
        <time>2012-11-11T15:48:37Z</time>
      </trkpt>
      <trkpt lat="59.4634472961" lon="17.8709613153">
        <ele>127.6</ele>
        <time>2012-11-11T15:48:38Z</time>
      </trkpt>
      <trkpt lat="59.4634363997" lon="17.8712143649">
        <ele>127.6</ele>
        <time>2012-11-11T15:48:40Z</time>
      </trkpt>
      <trkpt lat="59.4634566839" lon="17.8714519918">
        <ele>127.6</ele>
        <time>2012-11-11T15:48:42Z</time>
      </trkpt>
      <trkpt lat="59.4635073105" lon="17.8720189435">
        <ele>127.6</ele>
        <time>2012-11-11T15:48:47Z</time>
      </trkpt>
      <trkpt lat="59.4634898762" lon="17.872104355">
        <ele>127.6</ele>
        <time>2012-11-11T15:48:48Z</time>
      </trkpt>
      <trkpt lat="59.4633810791" lon="17.8722060275">
        <ele>127.6</ele>
        <time>2012-11-11T15:48:51Z</time>
      </trkpt>
      <trkpt lat="59.4632222421" lon="17.8721606814">
        <ele>127.6</ele>
        <time>2012-11-11T15:48:55Z</time>
      </trkpt>
      <trkpt lat="59.4631834339" lon="17.8721383017">
        <ele>127.6</ele>
        <time>2012-11-11T15:48:56Z</time>
      </trkpt>
      <trkpt lat="59.4630808395" lon="17.8721448396">
        <ele>127.6</ele>
        <time>2012-11-11T15:49:00Z</time>
      </trkpt>
      <trkpt lat="59.4629396883" lon="17.8721406487">
        <ele>127.6</ele>
        <time>2012-11-11T15:49:04Z</time>
      </trkpt>
      <trkpt lat="59.462663337" lon="17.872103433">
        <ele>128</ele>
        <time>2012-11-11T15:49:10Z</time>
      </trkpt>
      <trkpt lat="59.4626113692" lon="17.8720889323">
        <ele>128.4</ele>
        <time>2012-11-11T15:49:11Z</time>
      </trkpt>
      <trkpt lat="59.4625624189" lon="17.8720686481">
        <ele>129</ele>
        <time>2012-11-11T15:49:12Z</time>
      </trkpt>
      <trkpt lat="59.4625109541" lon="17.8720533931">
        <ele>129.4</ele>
        <time>2012-11-11T15:49:13Z</time>
      </trkpt>
      <trkpt lat="59.4624569746" lon="17.8720412393">
        <ele>129.8</ele>
        <time>2012-11-11T15:49:14Z</time>
      </trkpt>
      <trkpt lat="59.4623407177" lon="17.8720142496">
        <ele>129.8</ele>
        <time>2012-11-11T15:49:16Z</time>
      </trkpt>
      <trkpt lat="59.4619183538" lon="17.871971921">
        <ele>129.8</ele>
        <time>2012-11-11T15:49:23Z</time>
      </trkpt>
      <trkpt lat="59.461733449" lon="17.8719372199">
        <ele>129.8</ele>
        <time>2012-11-11T15:49:26Z</time>
      </trkpt>
      <trkpt lat="59.4615559204" lon="17.8719236413">
        <ele>129.8</ele>
        <time>2012-11-11T15:49:29Z</time>
      </trkpt>
      <trkpt lat="59.4614997617" lon="17.8719095597">
        <ele>129.8</ele>
        <time>2012-11-11T15:49:30Z</time>
      </trkpt>
      <trkpt lat="59.4612668287" lon="17.8718875153">
        <ele>129.8</ele>
        <time>2012-11-11T15:49:34Z</time>
      </trkpt>
      <trkpt lat="59.4611548465" lon="17.871886258">
        <ele>129.8</ele>
        <time>2012-11-11T15:49:36Z</time>
      </trkpt>
      <trkpt lat="59.4609991108" lon="17.8718662253">
        <ele>129.8</ele>
        <time>2012-11-11T15:49:39Z</time>
      </trkpt>
      <trkpt lat="59.4606698697" lon="17.8718344578">
        <ele>129.8</ele>
        <time>2012-11-11T15:49:45Z</time>
      </trkpt>
      <trkpt lat="59.460560486" lon="17.8718637107">
        <ele>129.8</ele>
        <time>2012-11-11T15:49:47Z</time>
      </trkpt>
      <trkpt lat="59.4604034091" lon="17.8719079671">
        <ele>129.8</ele>
        <time>2012-11-11T15:49:50Z</time>
      </trkpt>
      <trkpt lat="59.4602675385" lon="17.8719415785">
        <ele>129.8</ele>
        <time>2012-11-11T15:49:53Z</time>
      </trkpt>
      <trkpt lat="59.4601877429" lon="17.8719549896">
        <ele>129.8</ele>
        <time>2012-11-11T15:49:55Z</time>
      </trkpt>
      <trkpt lat="59.460146001" lon="17.8719451827">
        <ele>129.8</ele>
        <time>2012-11-11T15:49:56Z</time>
      </trkpt>
      <trkpt lat="59.4599716575" lon="17.8719114875">
        <ele>129.8</ele>
        <time>2012-11-11T15:50:00Z</time>
      </trkpt>
      <trkpt lat="59.4598481921" lon="17.8718760321">
        <ele>130.2</ele>
        <time>2012-11-11T15:50:03Z</time>
      </trkpt>
      <trkpt lat="59.4598015049" lon="17.871861699">
        <ele>130.6</ele>
        <time>2012-11-11T15:50:04Z</time>
      </trkpt>
      <trkpt lat="59.4597536443" lon="17.8718570052">
        <ele>131</ele>
        <time>2012-11-11T15:50:05Z</time>
      </trkpt>
      <trkpt lat="59.4597025147" lon="17.871864968">
        <ele>131.6</ele>
        <time>2012-11-11T15:50:06Z</time>
      </trkpt>
      <trkpt lat="59.4596525585" lon="17.8718746072">
        <ele>132</ele>
        <time>2012-11-11T15:50:07Z</time>
      </trkpt>
      <trkpt lat="59.4596083859" lon="17.8718952266">
        <ele>132</ele>
        <time>2012-11-11T15:50:08Z</time>
      </trkpt>
      <trkpt lat="59.4594819869" lon="17.8720497889">
        <ele>132</ele>
        <time>2012-11-11T15:50:11Z</time>
      </trkpt>
      <trkpt lat="59.4594422567" lon="17.8721258965">
        <ele>132</ele>
        <time>2012-11-11T15:50:12Z</time>
      </trkpt>
      <trkpt lat="59.4592244949" lon="17.8724830493">
        <ele>132</ele>
        <time>2012-11-11T15:50:17Z</time>
      </trkpt>
      <trkpt lat="59.4589276918" lon="17.8728229353">
        <ele>132</ele>
        <time>2012-11-11T15:50:23Z</time>
      </trkpt>
      <trkpt lat="59.4588379217" lon="17.8729409525">
        <ele>132</ele>
        <time>2012-11-11T15:50:25Z</time>
      </trkpt>
      <trkpt lat="59.4586964352" lon="17.8730681059">
        <ele>132.4</ele>
        <time>2012-11-11T15:50:28Z</time>
      </trkpt>
      <trkpt lat="59.4586484907" lon="17.8730810978">
        <ele>132.8</ele>
        <time>2012-11-11T15:50:29Z</time>
      </trkpt>
      <trkpt lat="59.4585961877" lon="17.8730919105">
        <ele>133.2</ele>
        <time>2012-11-11T15:50:30Z</time>
      </trkpt>
      <trkpt lat="59.4585382688" lon="17.8731033099">
        <ele>133.6</ele>
        <time>2012-11-11T15:50:31Z</time>
      </trkpt>
      <trkpt lat="59.4584791764" lon="17.8731064112">
        <ele>134</ele>
        <time>2012-11-11T15:50:32Z</time>
      </trkpt>
      <trkpt lat="59.4584200002" lon="17.8731117756">
        <ele>134</ele>
        <time>2012-11-11T15:50:33Z</time>
      </trkpt>
      <trkpt lat="59.4582977082" lon="17.8731362507">
        <ele>134</ele>
        <time>2012-11-11T15:50:35Z</time>
      </trkpt>
      <trkpt lat="59.4581112948" lon="17.8732365821">
        <ele>134</ele>
        <time>2012-11-11T15:50:38Z</time>
      </trkpt>
      <trkpt lat="59.4580511966" lon="17.8732958421">
        <ele>134</ele>
        <time>2012-11-11T15:50:39Z</time>
      </trkpt>
      <trkpt lat="59.4579206904" lon="17.873539001">
        <ele>134</ele>
        <time>2012-11-11T15:50:42Z</time>
      </trkpt>
      <trkpt lat="59.457885654" lon="17.8736258375">
        <ele>134</ele>
        <time>2012-11-11T15:50:43Z</time>
      </trkpt>
      <trkpt lat="59.4577999072" lon="17.8737862671">
        <ele>134</ele>
        <time>2012-11-11T15:50:45Z</time>
      </trkpt>
      <trkpt lat="59.4576940438" lon="17.8738859279">
        <ele>134</ele>
        <time>2012-11-11T15:50:47Z</time>
      </trkpt>
      <trkpt lat="59.4576381365" lon="17.873926161">
        <ele>133.6</ele>
        <time>2012-11-11T15:50:48Z</time>
      </trkpt>
      <trkpt lat="59.4575853305" lon="17.8739533184">
        <ele>133.2</ele>
        <time>2012-11-11T15:50:49Z</time>
      </trkpt>
      <trkpt lat="59.4575277469" lon="17.873987768">
        <ele>132.8</ele>
        <time>2012-11-11T15:50:50Z</time>
      </trkpt>
      <trkpt lat="59.4574736836" lon="17.8740183619">
        <ele>132.2</ele>
        <time>2012-11-11T15:50:51Z</time>
      </trkpt>
      <trkpt lat="59.4574176925" lon="17.8740569186">
        <ele>131.8</ele>
        <time>2012-11-11T15:50:52Z</time>
      </trkpt>
      <trkpt lat="59.4573159363" lon="17.8741531428">
        <ele>131.8</ele>
        <time>2012-11-11T15:50:54Z</time>
      </trkpt>
      <trkpt lat="59.4571685825" lon="17.8743449207">
        <ele>131.8</ele>
        <time>2012-11-11T15:50:57Z</time>
      </trkpt>
      <trkpt lat="59.456825176" lon="17.8747472519">
        <ele>131.8</ele>
        <time>2012-11-11T15:51:04Z</time>
      </trkpt>
      <trkpt lat="59.4567294547" lon="17.8748218508">
        <ele>131.8</ele>
        <time>2012-11-11T15:51:06Z</time>
      </trkpt>
      <trkpt lat="59.4566508325" lon="17.8749210087">
        <ele>131.8</ele>
        <time>2012-11-11T15:51:08Z</time>
      </trkpt>
      <trkpt lat="59.4564467333" lon="17.8752800893">
        <ele>131.8</ele>
        <time>2012-11-11T15:51:13Z</time>
      </trkpt>
      <trkpt lat="59.4561230243" lon="17.8759316144">
        <ele>131.8</ele>
        <time>2012-11-11T15:51:21Z</time>
      </trkpt>
      <trkpt lat="59.4558825476" lon="17.8764267332">
        <ele>131.8</ele>
        <time>2012-11-11T15:51:27Z</time>
      </trkpt>
      <trkpt lat="59.4557361158" lon="17.8766528769">
        <ele>131.8</ele>
        <time>2012-11-11T15:51:30Z</time>
      </trkpt>
      <trkpt lat="59.4556295818" lon="17.876758405">
        <ele>131.8</ele>
        <time>2012-11-11T15:51:32Z</time>
      </trkpt>
      <trkpt lat="59.4553725089" lon="17.8769335867">
        <ele>131.8</ele>
        <time>2012-11-11T15:51:37Z</time>
      </trkpt>
      <trkpt lat="59.4550749515" lon="17.8770819463">
        <ele>131.8</ele>
        <time>2012-11-11T15:51:42Z</time>
      </trkpt>
      <trkpt lat="59.4547538409" lon="17.8772604808">
        <ele>131.8</ele>
        <time>2012-11-11T15:51:47Z</time>
      </trkpt>
      <trkpt lat="59.4546924016" lon="17.8773054916">
        <ele>131.8</ele>
        <time>2012-11-11T15:51:48Z</time>
      </trkpt>
      <trkpt lat="59.4543664295" lon="17.8774909831">
        <ele>131.8</ele>
        <time>2012-11-11T15:51:53Z</time>
      </trkpt>
      <trkpt lat="59.4540031579" lon="17.8777928991">
        <ele>131.8</ele>
        <time>2012-11-11T15:51:59Z</time>
      </trkpt>
      <trkpt lat="59.4539566384" lon="17.8778591161">
        <ele>131.8</ele>
        <time>2012-11-11T15:52:00Z</time>
      </trkpt>
      <trkpt lat="59.4538347656" lon="17.8781441007">
        <ele>131.8</ele>
        <time>2012-11-11T15:52:03Z</time>
      </trkpt>
      <trkpt lat="59.4537966279" lon="17.8782566696">
        <ele>131.8</ele>
        <time>2012-11-11T15:52:04Z</time>
      </trkpt>
      <trkpt lat="59.4536319236" lon="17.8786650358">
        <ele>131.8</ele>
        <time>2012-11-11T15:52:08Z</time>
      </trkpt>
      <trkpt lat="59.4535064466" lon="17.8789416385">
        <ele>131.8</ele>
        <time>2012-11-11T15:52:11Z</time>
      </trkpt>
      <trkpt lat="59.4534106414" lon="17.8791130484">
        <ele>131.8</ele>
        <time>2012-11-11T15:52:13Z</time>
      </trkpt>
      <trkpt lat="59.4531384811" lon="17.8795574567">
        <ele>131.8</ele>
        <time>2012-11-11T15:52:18Z</time>
      </trkpt>
      <trkpt lat="59.4530984157" lon="17.8796608893">
        <ele>131.8</ele>
        <time>2012-11-11T15:52:19Z</time>
      </trkpt>
      <trkpt lat="59.4530096513" lon="17.8799752106">
        <ele>131.8</ele>
        <time>2012-11-11T15:52:22Z</time>
      </trkpt>
      <trkpt lat="59.4529163608" lon="17.8805590937">
        <ele>131.8</ele>
        <time>2012-11-11T15:52:27Z</time>
      </trkpt>
      <trkpt lat="59.4529449431" lon="17.8810364429">
        <ele>131.8</ele>
        <time>2012-11-11T15:52:30Z</time>
      </trkpt>
      <trkpt lat="59.4530188714" lon="17.8814555379">
        <ele>131.8</ele>
        <time>2012-11-11T15:52:33Z</time>
      </trkpt>
      <trkpt lat="59.4530629602" lon="17.8817155445">
        <ele>131.8</ele>
        <time>2012-11-11T15:52:35Z</time>
      </trkpt>
      <trkpt lat="59.4531842463" lon="17.882377044">
        <ele>131.8</ele>
        <time>2012-11-11T15:52:40Z</time>
      </trkpt>
      <trkpt lat="59.4533174347" lon="17.8831212729">
        <ele>131.8</ele>
        <time>2012-11-11T15:52:46Z</time>
      </trkpt>
      <trkpt lat="59.4534141618" lon="17.8836471533">
        <ele>131.8</ele>
        <time>2012-11-11T15:52:50Z</time>
      </trkpt>
      <trkpt lat="59.4534144971" lon="17.8839280308">
        <ele>131.8</ele>
        <time>2012-11-11T15:52:52Z</time>
      </trkpt>
      <trkpt lat="59.4533996611" lon="17.8840714451">
        <ele>131.4</ele>
        <time>2012-11-11T15:52:53Z</time>
      </trkpt>
      <trkpt lat="59.4533806342" lon="17.8842049688">
        <ele>131</ele>
        <time>2012-11-11T15:52:54Z</time>
      </trkpt>
      <trkpt lat="59.4533540636" lon="17.8843412585">
        <ele>130.6</ele>
        <time>2012-11-11T15:52:55Z</time>
      </trkpt>
      <trkpt lat="59.4533273253" lon="17.8844837508">
        <ele>130.2</ele>
        <time>2012-11-11T15:52:56Z</time>
      </trkpt>
      <trkpt lat="59.4533000842" lon="17.8846114071">
        <ele>129.8</ele>
        <time>2012-11-11T15:52:57Z</time>
      </trkpt>
      <trkpt lat="59.4531559155" lon="17.8851586614">
        <ele>129.8</ele>
        <time>2012-11-11T15:53:01Z</time>
      </trkpt>
      <trkpt lat="59.4531124134" lon="17.8852796122">
        <ele>129.8</ele>
        <time>2012-11-11T15:53:02Z</time>
      </trkpt>
      <trkpt lat="59.4529918817" lon="17.8854744075">
        <ele>129.8</ele>
        <time>2012-11-11T15:53:04Z</time>
      </trkpt>
      <trkpt lat="59.4527626367" lon="17.8855763314">
        <ele>129.8</ele>
        <time>2012-11-11T15:53:07Z</time>
      </trkpt>
      <trkpt lat="59.4526151991" lon="17.8855594">
        <ele>129.8</ele>
        <time>2012-11-11T15:53:09Z</time>
      </trkpt>
      <trkpt lat="59.4524375867" lon="17.8855289737">
        <ele>129.8</ele>
        <time>2012-11-11T15:53:11Z</time>
      </trkpt>
      <trkpt lat="59.4521648396" lon="17.8855392834">
        <ele>129.4</ele>
        <time>2012-11-11T15:53:14Z</time>
      </trkpt>
      <trkpt lat="59.4520798472" lon="17.8855628366">
        <ele>129</ele>
        <time>2012-11-11T15:53:15Z</time>
      </trkpt>
      <trkpt lat="59.4519992133" lon="17.8855965318">
        <ele>128.2</ele>
        <time>2012-11-11T15:53:16Z</time>
      </trkpt>
      <trkpt lat="59.4519225189" lon="17.8856389442">
        <ele>127.8</ele>
        <time>2012-11-11T15:53:17Z</time>
      </trkpt>
      <trkpt lat="59.4516226145" lon="17.8858218373">
        <ele>127.8</ele>
        <time>2012-11-11T15:53:21Z</time>
      </trkpt>
      <trkpt lat="59.4512846563" lon="17.8861560236">
        <ele>127.8</ele>
        <time>2012-11-11T15:53:26Z</time>
      </trkpt>
      <trkpt lat="59.4510073831" lon="17.8867086423">
        <ele>127.8</ele>
        <time>2012-11-11T15:53:31Z</time>
      </trkpt>
      <trkpt lat="59.4508859293" lon="17.8871968042">
        <ele>127.8</ele>
        <time>2012-11-11T15:53:35Z</time>
      </trkpt>
      <trkpt lat="59.4508187903" lon="17.887430743">
        <ele>127.8</ele>
        <time>2012-11-11T15:53:37Z</time>
      </trkpt>
      <trkpt lat="59.4507441914" lon="17.8875860596">
        <ele>127.8</ele>
        <time>2012-11-11T15:53:39Z</time>
      </trkpt>
      <trkpt lat="59.4506509009" lon="17.8876844631">
        <ele>127.8</ele>
        <time>2012-11-11T15:53:41Z</time>
      </trkpt>
      <trkpt lat="59.4505082409" lon="17.8878521849">
        <ele>127.8</ele>
        <time>2012-11-11T15:53:44Z</time>
      </trkpt>
      <trkpt lat="59.4501972724" lon="17.8882102597">
        <ele>127.8</ele>
        <time>2012-11-11T15:53:51Z</time>
      </trkpt>
      <trkpt lat="59.4499365115" lon="17.8884154486">
        <ele>127.8</ele>
        <time>2012-11-11T15:53:57Z</time>
      </trkpt>
      <trkpt lat="59.4497165705" lon="17.8884918077">
        <ele>127.8</ele>
        <time>2012-11-11T15:54:02Z</time>
      </trkpt>
      <trkpt lat="59.4495532911" lon="17.8884950767">
        <ele>128.2</ele>
        <time>2012-11-11T15:54:05Z</time>
      </trkpt>
      <trkpt lat="59.4494969647" lon="17.888491221">
        <ele>129</ele>
        <time>2012-11-11T15:54:06Z</time>
      </trkpt>
      <trkpt lat="59.449433849" lon="17.8884857728">
        <ele>129.4</ele>
        <time>2012-11-11T15:54:07Z</time>
      </trkpt>
      <trkpt lat="59.4493744213" lon="17.8885058055">
        <ele>129.8</ele>
        <time>2012-11-11T15:54:08Z</time>
      </trkpt>
      <trkpt lat="59.4493156642" lon="17.8885287719">
        <ele>129.8</ele>
        <time>2012-11-11T15:54:09Z</time>
      </trkpt>
      <trkpt lat="59.4492615171" lon="17.8885735312">
        <ele>129.8</ele>
        <time>2012-11-11T15:54:10Z</time>
      </trkpt>
      <trkpt lat="59.4491769437" lon="17.8887063005">
        <ele>129.8</ele>
        <time>2012-11-11T15:54:12Z</time>
      </trkpt>
      <trkpt lat="59.4490961422" lon="17.8891123198">
        <ele>129.8</ele>
        <time>2012-11-11T15:54:16Z</time>
      </trkpt>
      <trkpt lat="59.4490923704" lon="17.889364615">
        <ele>129.8</ele>
        <time>2012-11-11T15:54:18Z</time>
      </trkpt>
      <trkpt lat="59.4490839885" lon="17.889477603">
        <ele>129.8</ele>
        <time>2012-11-11T15:54:19Z</time>
      </trkpt>
      <trkpt lat="59.4490766124" lon="17.8895895013">
        <ele>129.8</ele>
        <time>2012-11-11T15:54:20Z</time>
      </trkpt>
      <trkpt lat="59.4490030193" lon="17.8899789244">
        <ele>129.8</ele>
        <time>2012-11-11T15:54:24Z</time>
      </trkpt>
      <trkpt lat="59.4489757781" lon="17.8900650065">
        <ele>129.8</ele>
        <time>2012-11-11T15:54:25Z</time>
      </trkpt>
      <trkpt lat="59.4489269117" lon="17.8902369193">
        <ele>129.8</ele>
        <time>2012-11-11T15:54:27Z</time>
      </trkpt>
      <trkpt lat="59.4488839125" lon="17.8905082414">
        <ele>129.8</ele>
        <time>2012-11-11T15:54:30Z</time>
      </trkpt>
      <trkpt lat="59.448850804" lon="17.8906834231">
        <ele>130.2</ele>
        <time>2012-11-11T15:54:32Z</time>
      </trkpt>
      <trkpt lat="59.4488356328" lon="17.8907755402">
        <ele>130.6</ele>
        <time>2012-11-11T15:54:33Z</time>
      </trkpt>
      <trkpt lat="59.448822557" lon="17.8908700042">
        <ele>131</ele>
        <time>2012-11-11T15:54:34Z</time>
      </trkpt>
      <trkpt lat="59.4488078049" lon="17.8909706708">
        <ele>131.4</ele>
        <time>2012-11-11T15:54:35Z</time>
      </trkpt>
      <trkpt lat="59.4487938909" lon="17.8910704154">
        <ele>131.8</ele>
        <time>2012-11-11T15:54:36Z</time>
      </trkpt>
      <trkpt lat="59.4487460303" lon="17.8914353634">
        <ele>131.8</ele>
        <time>2012-11-11T15:54:40Z</time>
      </trkpt>
      <trkpt lat="59.4487471199" lon="17.8916263869">
        <ele>131.8</ele>
        <time>2012-11-11T15:54:42Z</time>
      </trkpt>
      <trkpt lat="59.4487552504" lon="17.8917144806">
        <ele>131.8</ele>
        <time>2012-11-11T15:54:43Z</time>
      </trkpt>
      <trkpt lat="59.448805877" lon="17.8919603218">
        <ele>131.8</ele>
        <time>2012-11-11T15:54:46Z</time>
      </trkpt>
      <trkpt lat="59.4488226408" lon="17.8920503434">
        <ele>131.8</ele>
        <time>2012-11-11T15:54:47Z</time>
      </trkpt>
      <trkpt lat="59.4488502173" lon="17.8922319791">
        <ele>131.8</ele>
        <time>2012-11-11T15:54:49Z</time>
      </trkpt>
      <trkpt lat="59.4488492953" lon="17.8925268544">
        <ele>131.8</ele>
        <time>2012-11-11T15:54:52Z</time>
      </trkpt>
      <trkpt lat="59.4487784682" lon="17.8928420976">
        <ele>131.8</ele>
        <time>2012-11-11T15:54:56Z</time>
      </trkpt>
      <trkpt lat="59.4487380675" lon="17.8929912955">
        <ele>131.8</ele>
        <time>2012-11-11T15:54:58Z</time>
      </trkpt>
      <trkpt lat="59.4486441064" lon="17.8933346181">
        <ele>131.8</ele>
        <time>2012-11-11T15:55:02Z</time>
      </trkpt>
      <trkpt lat="59.4485165338" lon="17.8938135598">
        <ele>131.8</ele>
        <time>2012-11-11T15:55:08Z</time>
      </trkpt>
      <trkpt lat="59.4484434437" lon="17.894002907">
        <ele>132.2</ele>
        <time>2012-11-11T15:55:11Z</time>
      </trkpt>
      <trkpt lat="59.448411341" lon="17.89405521">
        <ele>132.6</ele>
        <time>2012-11-11T15:55:12Z</time>
      </trkpt>
      <trkpt lat="59.4483716108" lon="17.8940949402">
        <ele>133</ele>
        <time>2012-11-11T15:55:13Z</time>
      </trkpt>
      <trkpt lat="59.4483285278" lon="17.8941481653">
        <ele>133.4</ele>
        <time>2012-11-11T15:55:14Z</time>
      </trkpt>
      <trkpt lat="59.4482769791" lon="17.8941990434">
        <ele>134</ele>
        <time>2012-11-11T15:55:15Z</time>
      </trkpt>
      <trkpt lat="59.4481771507" lon="17.8942836168">
        <ele>134</ele>
        <time>2012-11-11T15:55:17Z</time>
      </trkpt>
      <trkpt lat="59.4481282004" lon="17.8943153842">
        <ele>134</ele>
        <time>2012-11-11T15:55:18Z</time>
      </trkpt>
      <trkpt lat="59.447837097" lon="17.8944180625">
        <ele>134</ele>
        <time>2012-11-11T15:55:24Z</time>
      </trkpt>
      <trkpt lat="59.447463851" lon="17.8945716189">
        <ele>134</ele>
        <time>2012-11-11T15:55:31Z</time>
      </trkpt>
      <trkpt lat="59.4472108015" lon="17.8947704376">
        <ele>134</ele>
        <time>2012-11-11T15:55:37Z</time>
      </trkpt>
      <trkpt lat="59.4471644496" lon="17.8947867823">
        <ele>134</ele>
        <time>2012-11-11T15:55:38Z</time>
      </trkpt>
      <trkpt lat="59.4470061155" lon="17.8948044681">
        <ele>134</ele>
        <time>2012-11-11T15:55:41Z</time>
      </trkpt>
      <trkpt lat="59.4466928" lon="17.8948478025">
        <ele>134</ele>
        <time>2012-11-11T15:55:46Z</time>
      </trkpt>
      <trkpt lat="59.4466305225" lon="17.8948612973">
        <ele>134</ele>
        <time>2012-11-11T15:55:47Z</time>
      </trkpt>
      <trkpt lat="59.4465741123" lon="17.8948863592">
        <ele>134</ele>
        <time>2012-11-11T15:55:48Z</time>
      </trkpt>
      <trkpt lat="59.4463972542" lon="17.8950061366">
        <ele>134</ele>
        <time>2012-11-11T15:55:51Z</time>
      </trkpt>
      <trkpt lat="59.446340425" lon="17.895047627">
        <ele>133.6</ele>
        <time>2012-11-11T15:55:52Z</time>
      </trkpt>
      <trkpt lat="59.4462826737" lon="17.8950855132">
        <ele>133</ele>
        <time>2012-11-11T15:55:53Z</time>
      </trkpt>
      <trkpt lat="59.4462265149" lon="17.8951339606">
        <ele>132.6</ele>
        <time>2012-11-11T15:55:54Z</time>
      </trkpt>
      <trkpt lat="59.4461798278" lon="17.8951668176">
        <ele>132.2</ele>
        <time>2012-11-11T15:55:55Z</time>
      </trkpt>
      <trkpt lat="59.4461308775" lon="17.8952031112">
        <ele>131.8</ele>
        <time>2012-11-11T15:55:56Z</time>
      </trkpt>
      <trkpt lat="59.4460843579" lon="17.8952397401">
        <ele>131.8</ele>
        <time>2012-11-11T15:55:57Z</time>
      </trkpt>
      <trkpt lat="59.445772216" lon="17.8954433365">
        <ele>131.8</ele>
        <time>2012-11-11T15:56:03Z</time>
      </trkpt>
      <trkpt lat="59.445656881" lon="17.8955227131">
        <ele>131.4</ele>
        <time>2012-11-11T15:56:05Z</time>
      </trkpt>
      <trkpt lat="59.4456009737" lon="17.8955683106">
        <ele>131</ele>
        <time>2012-11-11T15:56:06Z</time>
      </trkpt>
      <trkpt lat="59.4455399535" lon="17.8956426581">
        <ele>130.6</ele>
        <time>2012-11-11T15:56:07Z</time>
      </trkpt>
      <trkpt lat="59.4454808611" lon="17.8956970566">
        <ele>130.2</ele>
        <time>2012-11-11T15:56:08Z</time>
      </trkpt>
      <trkpt lat="59.4454226069" lon="17.8957429894">
        <ele>129.8</ele>
        <time>2012-11-11T15:56:09Z</time>
      </trkpt>
      <trkpt lat="59.4451932781" lon="17.8959427301">
        <ele>129.8</ele>
        <time>2012-11-11T15:56:13Z</time>
      </trkpt>
      <trkpt lat="59.4450117262" lon="17.8960481744">
        <ele>129.4</ele>
        <time>2012-11-11T15:56:16Z</time>
      </trkpt>
      <trkpt lat="59.4449515441" lon="17.8960572268">
        <ele>129</ele>
        <time>2012-11-11T15:56:17Z</time>
      </trkpt>
      <trkpt lat="59.4448878417" lon="17.896043732">
        <ele>128.4</ele>
        <time>2012-11-11T15:56:18Z</time>
      </trkpt>
      <trkpt lat="59.4448170146" lon="17.8960189216">
        <ele>128</ele>
        <time>2012-11-11T15:56:19Z</time>
      </trkpt>
      <trkpt lat="59.4447333633" lon="17.8959560573">
        <ele>127.6</ele>
        <time>2012-11-11T15:56:20Z</time>
      </trkpt>
      <trkpt lat="59.4446160167" lon="17.8958827157">
        <ele>127.6</ele>
        <time>2012-11-11T15:56:22Z</time>
      </trkpt>
      <trkpt lat="59.4445637974" lon="17.8958333463">
        <ele>127.6</ele>
        <time>2012-11-11T15:56:23Z</time>
      </trkpt>
      <trkpt lat="59.4444310281" lon="17.8956253075">
        <ele>127.6</ele>
        <time>2012-11-11T15:56:26Z</time>
      </trkpt>
      <trkpt lat="59.4443860173" lon="17.895559342">
        <ele>127.6</ele>
        <time>2012-11-11T15:56:27Z</time>
      </trkpt>
      <trkpt lat="59.444341258" lon="17.8954980703">
        <ele>127.2</ele>
        <time>2012-11-11T15:56:28Z</time>
      </trkpt>
      <trkpt lat="59.4442928944" lon="17.8954424983">
        <ele>126.8</ele>
        <time>2012-11-11T15:56:29Z</time>
      </trkpt>
      <trkpt lat="59.4442392503" lon="17.8953934642">
        <ele>126.4</ele>
        <time>2012-11-11T15:56:30Z</time>
      </trkpt>
      <trkpt lat="59.4441810799" lon="17.8953549913">
        <ele>125.8</ele>
        <time>2012-11-11T15:56:31Z</time>
      </trkpt>
      <trkpt lat="59.4441234962" lon="17.8953212122">
        <ele>125.4</ele>
        <time>2012-11-11T15:56:32Z</time>
      </trkpt>
      <trkpt lat="59.4437779105" lon="17.8951840005">
        <ele>125.4</ele>
        <time>2012-11-11T15:56:38Z</time>
      </trkpt>
      <trkpt lat="59.4435499228" lon="17.8951094854">
        <ele>125.4</ele>
        <time>2012-11-11T15:56:42Z</time>
      </trkpt>
      <trkpt lat="59.4434598174" lon="17.8951251596">
        <ele>125.4</ele>
        <time>2012-11-11T15:56:44Z</time>
      </trkpt>
      <trkpt lat="59.4431894173" lon="17.8951540771">
        <ele>125</ele>
        <time>2012-11-11T15:56:50Z</time>
      </trkpt>
      <trkpt lat="59.4431658642" lon="17.8950824119">
        <ele>124.6</ele>
        <time>2012-11-11T15:56:51Z</time>
      </trkpt>
      <trkpt lat="59.4431578175" lon="17.8950016942">
        <ele>124.2</ele>
        <time>2012-11-11T15:56:52Z</time>
      </trkpt>
      <trkpt lat="59.4431648583" lon="17.8949145224">
        <ele>123.6</ele>
        <time>2012-11-11T15:56:53Z</time>
      </trkpt>
      <trkpt lat="59.4431841367" lon="17.894832296">
        <ele>123.2</ele>
        <time>2012-11-11T15:56:54Z</time>
      </trkpt>
      <trkpt lat="59.4432995555" lon="17.8945825992">
        <ele>123.2</ele>
        <time>2012-11-11T15:56:57Z</time>
      </trkpt>
      <trkpt lat="59.443568363" lon="17.8940326627">
        <ele>123.2</ele>
        <time>2012-11-11T15:57:04Z</time>
      </trkpt>
      <trkpt lat="59.4437882202" lon="17.8935304193">
        <ele>123.2</ele>
        <time>2012-11-11T15:57:10Z</time>
      </trkpt>
      <trkpt lat="59.4439127753" lon="17.8932089734">
        <ele>123.2</ele>
        <time>2012-11-11T15:57:14Z</time>
      </trkpt>
      <trkpt lat="59.4439613065" lon="17.8930287626">
        <ele>123.2</ele>
        <time>2012-11-11T15:57:16Z</time>
      </trkpt>
      <trkpt lat="59.4440088318" lon="17.8928715181">
        <ele>123.2</ele>
        <time>2012-11-11T15:57:18Z</time>
      </trkpt>
      <trkpt lat="59.4440316306" lon="17.8927866095">
        <ele>123.6</ele>
        <time>2012-11-11T15:57:19Z</time>
      </trkpt>
      <trkpt lat="59.4440552676" lon="17.8927086578">
        <ele>124.2</ele>
        <time>2012-11-11T15:57:20Z</time>
      </trkpt>
      <trkpt lat="59.4440799104" lon="17.8926248388">
        <ele>124.6</ele>
        <time>2012-11-11T15:57:21Z</time>
      </trkpt>
      <trkpt lat="59.4441065648" lon="17.8925338952">
        <ele>125.2</ele>
        <time>2012-11-11T15:57:22Z</time>
      </trkpt>
      <trkpt lat="59.444132884" lon="17.8924406884">
        <ele>125.6</ele>
        <time>2012-11-11T15:57:23Z</time>
      </trkpt>
      <trkpt lat="59.4442208939" lon="17.8921690311">
        <ele>125.6</ele>
        <time>2012-11-11T15:57:26Z</time>
      </trkpt>
      <trkpt lat="59.4443146036" lon="17.891919921">
        <ele>125.6</ele>
        <time>2012-11-11T15:57:29Z</time>
      </trkpt>
      <trkpt lat="59.444474614" lon="17.8914657058">
        <ele>125.6</ele>
        <time>2012-11-11T15:57:34Z</time>
      </trkpt>
      <trkpt lat="59.4445285096" lon="17.8912808011">
        <ele>125.6</ele>
        <time>2012-11-11T15:57:36Z</time>
      </trkpt>
      <trkpt lat="59.4446434255" lon="17.8908987541">
        <ele>125.6</ele>
        <time>2012-11-11T15:57:40Z</time>
      </trkpt>
      <trkpt lat="59.4446618657" lon="17.8907948186">
        <ele>125.6</ele>
        <time>2012-11-11T15:57:41Z</time>
      </trkpt>
      <trkpt lat="59.4446663081" lon="17.8904068204">
        <ele>125.6</ele>
        <time>2012-11-11T15:57:44Z</time>
      </trkpt>
      <trkpt lat="59.4446230575" lon="17.8895327559">
        <ele>125.6</ele>
        <time>2012-11-11T15:57:51Z</time>
      </trkpt>
      <trkpt lat="59.4446328643" lon="17.8892171773">
        <ele>125.6</ele>
        <time>2012-11-11T15:57:54Z</time>
      </trkpt>
      <trkpt lat="59.4446720078" lon="17.8890067917">
        <ele>125.6</ele>
        <time>2012-11-11T15:57:56Z</time>
      </trkpt>
      <trkpt lat="59.4447808048" lon="17.8887322006">
        <ele>125.6</ele>
        <time>2012-11-11T15:57:59Z</time>
      </trkpt>
      <trkpt lat="59.44480989" lon="17.8886522373">
        <ele>125.6</ele>
        <time>2012-11-11T15:58:00Z</time>
      </trkpt>
      <trkpt lat="59.4449072877" lon="17.8882273588">
        <ele>125.6</ele>
        <time>2012-11-11T15:58:04Z</time>
      </trkpt>
      <trkpt lat="59.4449321819" lon="17.8880988642">
        <ele>125.6</ele>
        <time>2012-11-11T15:58:05Z</time>
      </trkpt>
      <trkpt lat="59.4449636141" lon="17.8879777458">
        <ele>125.6</ele>
        <time>2012-11-11T15:58:06Z</time>
      </trkpt>
      <trkpt lat="59.4450946232" lon="17.8874771787">
        <ele>125.6</ele>
        <time>2012-11-11T15:58:10Z</time>
      </trkpt>
      <trkpt lat="59.4453245387" lon="17.8867836603">
        <ele>125.6</ele>
        <time>2012-11-11T15:58:15Z</time>
      </trkpt>
      <trkpt lat="59.4456340823" lon="17.8859169719">
        <ele>125.2</ele>
        <time>2012-11-11T15:58:21Z</time>
      </trkpt>
      <trkpt lat="59.4456870559" lon="17.8857533572">
        <ele>124.6</ele>
        <time>2012-11-11T15:58:22Z</time>
      </trkpt>
      <trkpt lat="59.4457404486" lon="17.8855946878">
        <ele>124.2</ele>
        <time>2012-11-11T15:58:23Z</time>
      </trkpt>
      <trkpt lat="59.4457932545" lon="17.8854372757">
        <ele>123.6</ele>
        <time>2012-11-11T15:58:24Z</time>
      </trkpt>
      <trkpt lat="59.4458449709" lon="17.8852830488">
        <ele>123</ele>
        <time>2012-11-11T15:58:25Z</time>
      </trkpt>
      <trkpt lat="59.4460478967" lon="17.8845012689">
        <ele>123</ele>
        <time>2012-11-11T15:58:30Z</time>
      </trkpt>
      <trkpt lat="59.4461566099" lon="17.8839177211">
        <ele>123</ele>
        <time>2012-11-11T15:58:34Z</time>
      </trkpt>
      <trkpt lat="59.4462039676" lon="17.8837898133">
        <ele>123</ele>
        <time>2012-11-11T15:58:35Z</time>
      </trkpt>
      <trkpt lat="59.4463317078" lon="17.8835761586">
        <ele>123</ele>
        <time>2012-11-11T15:58:37Z</time>
      </trkpt>
      <trkpt lat="59.446490461" lon="17.8832427267">
        <ele>123</ele>
        <time>2012-11-11T15:58:40Z</time>
      </trkpt>
      <trkpt lat="59.4465746991" lon="17.882983726">
        <ele>123</ele>
        <time>2012-11-11T15:58:42Z</time>
      </trkpt>
      <trkpt lat="59.4468356276" lon="17.8821632218">
        <ele>123</ele>
        <time>2012-11-11T15:58:49Z</time>
      </trkpt>
      <trkpt lat="59.4470223763" lon="17.8816693602">
        <ele>123</ele>
        <time>2012-11-11T15:58:54Z</time>
      </trkpt>
      <trkpt lat="59.4471387171" lon="17.8813759937">
        <ele>123</ele>
        <time>2012-11-11T15:58:58Z</time>
      </trkpt>
      <trkpt lat="59.4471629408" lon="17.8812708847">
        <ele>123</ele>
        <time>2012-11-11T15:58:59Z</time>
      </trkpt>
      <trkpt lat="59.4472282358" lon="17.8808966329">
        <ele>123</ele>
        <time>2012-11-11T15:59:02Z</time>
      </trkpt>
      <trkpt lat="59.4472235419" lon="17.880420038">
        <ele>123</ele>
        <time>2012-11-11T15:59:06Z</time>
      </trkpt>
      <trkpt lat="59.4472153277" lon="17.8799750429">
        <ele>123</ele>
        <time>2012-11-11T15:59:10Z</time>
      </trkpt>
      <trkpt lat="59.4472474304" lon="17.8797562754">
        <ele>123</ele>
        <time>2012-11-11T15:59:12Z</time>
      </trkpt>
      <trkpt lat="59.4473739971" lon="17.8791312371">
        <ele>123</ele>
        <time>2012-11-11T15:59:18Z</time>
      </trkpt>
      <trkpt lat="59.4475563872" lon="17.8782725952">
        <ele>123</ele>
        <time>2012-11-11T15:59:27Z</time>
      </trkpt>
      <trkpt lat="59.4476742367" lon="17.877701704">
        <ele>123</ele>
        <time>2012-11-11T15:59:34Z</time>
      </trkpt>
      <trkpt lat="59.4476853846" lon="17.8776227465">
        <ele>123</ele>
        <time>2012-11-11T15:59:35Z</time>
      </trkpt>
      <trkpt lat="59.4477402861" lon="17.8771898214">
        <ele>123</ele>
        <time>2012-11-11T15:59:40Z</time>
      </trkpt>
      <trkpt lat="59.4477625819" lon="17.8770192497">
        <ele>123</ele>
        <time>2012-11-11T15:59:42Z</time>
      </trkpt>
      <trkpt lat="59.4477930921" lon="17.8767744983">
        <ele>123</ele>
        <time>2012-11-11T15:59:45Z</time>
      </trkpt>
      <trkpt lat="59.4478974467" lon="17.8761697442">
        <ele>123</ele>
        <time>2012-11-11T15:59:52Z</time>
      </trkpt>
      <trkpt lat="59.4479484925" lon="17.875709997">
        <ele>123</ele>
        <time>2012-11-11T15:59:56Z</time>
      </trkpt>
      <trkpt lat="59.4479448883" lon="17.87559374">
        <ele>123</ele>
        <time>2012-11-11T15:59:57Z</time>
      </trkpt>
      <trkpt lat="59.4478707084" lon="17.8751481582">
        <ele>123</ele>
        <time>2012-11-11T16:00:01Z</time>
      </trkpt>
      <trkpt lat="59.4477992108" lon="17.8749675283">
        <ele>123.4</ele>
        <time>2012-11-11T16:00:03Z</time>
      </trkpt>
      <trkpt lat="59.4477676949" lon="17.8748770037">
        <ele>124</ele>
        <time>2012-11-11T16:00:04Z</time>
      </trkpt>
      <trkpt lat="59.4477262045" lon="17.8747756666">
        <ele>124.4</ele>
        <time>2012-11-11T16:00:05Z</time>
      </trkpt>
      <trkpt lat="59.4476845464" lon="17.8746765087">
        <ele>124.8</ele>
        <time>2012-11-11T16:00:06Z</time>
      </trkpt>
      <trkpt lat="59.4476456544" lon="17.8745655323">
        <ele>125.2</ele>
        <time>2012-11-11T16:00:07Z</time>
      </trkpt>
      <trkpt lat="59.4475578959" lon="17.8742598444">
        <ele>125.2</ele>
        <time>2012-11-11T16:00:10Z</time>
      </trkpt>
      <trkpt lat="59.4475381147" lon="17.8741534781">
        <ele>125.2</ele>
        <time>2012-11-11T16:00:11Z</time>
      </trkpt>
      <trkpt lat="59.4475004799" lon="17.8736691719">
        <ele>125.2</ele>
        <time>2012-11-11T16:00:15Z</time>
      </trkpt>
      <trkpt lat="59.4475389528" lon="17.8733398471">
        <ele>125.2</ele>
        <time>2012-11-11T16:00:18Z</time>
      </trkpt>
      <trkpt lat="59.4475601591" lon="17.8732322235">
        <ele>125.2</ele>
        <time>2012-11-11T16:00:19Z</time>
      </trkpt>
      <trkpt lat="59.4476544554" lon="17.8725917625">
        <ele>125.2</ele>
        <time>2012-11-11T16:00:25Z</time>
      </trkpt>
      <trkpt lat="59.4477509311" lon="17.8719259882">
        <ele>125.2</ele>
        <time>2012-11-11T16:00:31Z</time>
      </trkpt>
      <trkpt lat="59.4477549544" lon="17.8718124135">
        <ele>125.2</ele>
        <time>2012-11-11T16:00:32Z</time>
      </trkpt>
      <trkpt lat="59.4477956066" lon="17.8714980084">
        <ele>125.2</ele>
        <time>2012-11-11T16:00:35Z</time>
      </trkpt>
      <trkpt lat="59.4478930881" lon="17.8710277">
        <ele>125.2</ele>
        <time>2012-11-11T16:00:40Z</time>
      </trkpt>
      <trkpt lat="59.4479317287" lon="17.8708501713">
        <ele>125.2</ele>
        <time>2012-11-11T16:00:42Z</time>
      </trkpt>
      <trkpt lat="59.4479961855" lon="17.8705944396">
        <ele>125.2</ele>
        <time>2012-11-11T16:00:45Z</time>
      </trkpt>
      <trkpt lat="59.4481590458" lon="17.8701182638">
        <ele>125.2</ele>
        <time>2012-11-11T16:00:51Z</time>
      </trkpt>
      <trkpt lat="59.4482030508" lon="17.8700643682">
        <ele>125.2</ele>
        <time>2012-11-11T16:00:52Z</time>
      </trkpt>
      <trkpt lat="59.4483138595" lon="17.8699845725">
        <ele>125.2</ele>
        <time>2012-11-11T16:00:55Z</time>
      </trkpt>
      <trkpt lat="59.4484933998" lon="17.8698570838">
        <ele>125.2</ele>
        <time>2012-11-11T16:00:59Z</time>
      </trkpt>
      <trkpt lat="59.4485289391" lon="17.8698119054">
        <ele>125.2</ele>
        <time>2012-11-11T16:01:00Z</time>
      </trkpt>
      <trkpt lat="59.4486022807" lon="17.8696006815">
        <ele>125.6</ele>
        <time>2012-11-11T16:01:03Z</time>
      </trkpt>
      <trkpt lat="59.448627594" lon="17.8695273399">
        <ele>126</ele>
        <time>2012-11-11T16:01:04Z</time>
      </trkpt>
      <trkpt lat="59.4486650611" lon="17.8694390785">
        <ele>126.4</ele>
        <time>2012-11-11T16:01:05Z</time>
      </trkpt>
      <trkpt lat="59.4486938948" lon="17.8693458717">
        <ele>126.8</ele>
        <time>2012-11-11T16:01:06Z</time>
      </trkpt>
      <trkpt lat="59.4487240697" lon="17.8692574427">
        <ele>127.2</ele>
        <time>2012-11-11T16:01:07Z</time>
      </trkpt>
      <trkpt lat="59.4487565076" lon="17.8691557702">
        <ele>127.2</ele>
        <time>2012-11-11T16:01:08Z</time>
      </trkpt>
      <trkpt lat="59.4487824077" lon="17.8690468894">
        <ele>127.2</ele>
        <time>2012-11-11T16:01:09Z</time>
      </trkpt>
      <trkpt lat="59.448847116" lon="17.8688278703">
        <ele>127.2</ele>
        <time>2012-11-11T16:01:11Z</time>
      </trkpt>
      <trkpt lat="59.4489198709" lon="17.8686335779">
        <ele>127.2</ele>
        <time>2012-11-11T16:01:13Z</time>
      </trkpt>
      <trkpt lat="59.4491003332" lon="17.8684087753">
        <ele>127.2</ele>
        <time>2012-11-11T16:01:17Z</time>
      </trkpt>
      <trkpt lat="59.4493118085" lon="17.8683325">
        <ele>127.2</ele>
        <time>2012-11-11T16:01:21Z</time>
      </trkpt>
      <trkpt lat="59.4493641116" lon="17.8683066838">
        <ele>127.2</ele>
        <time>2012-11-11T16:01:22Z</time>
      </trkpt>
      <trkpt lat="59.4495297379" lon="17.8680497785">
        <ele>127.2</ele>
        <time>2012-11-11T16:01:26Z</time>
      </trkpt>
      <trkpt lat="59.4495631817" lon="17.8679636126">
        <ele>127.2</ele>
        <time>2012-11-11T16:01:27Z</time>
      </trkpt>
      <trkpt lat="59.4497206776" lon="17.8675010155">
        <ele>127.2</ele>
        <time>2012-11-11T16:01:32Z</time>
      </trkpt>
      <trkpt lat="59.4500096017" lon="17.8667396876">
        <ele>126.8</ele>
        <time>2012-11-11T16:01:40Z</time>
      </trkpt>
      <trkpt lat="59.450044638" lon="17.8666416193">
        <ele>126.4</ele>
        <time>2012-11-11T16:01:41Z</time>
      </trkpt>
      <trkpt lat="59.4500797582" lon="17.8665463171">
        <ele>126</ele>
        <time>2012-11-11T16:01:42Z</time>
      </trkpt>
      <trkpt lat="59.4501124476" lon="17.8664544515">
        <ele>125.6</ele>
        <time>2012-11-11T16:01:43Z</time>
      </trkpt>
      <trkpt lat="59.450144215" lon="17.8663605742">
        <ele>125.2</ele>
        <time>2012-11-11T16:01:44Z</time>
      </trkpt>
      <trkpt lat="59.4503153734" lon="17.8658704845">
        <ele>125.2</ele>
        <time>2012-11-11T16:01:49Z</time>
      </trkpt>
      <trkpt lat="59.4505333028" lon="17.8651808218">
        <ele>125.2</ele>
        <time>2012-11-11T16:01:56Z</time>
      </trkpt>
      <trkpt lat="59.4507165311" lon="17.8646227549">
        <ele>125.2</ele>
        <time>2012-11-11T16:02:02Z</time>
      </trkpt>
      <trkpt lat="59.4508954847" lon="17.8640082778">
        <ele>125.2</ele>
        <time>2012-11-11T16:02:08Z</time>
      </trkpt>
      <trkpt lat="59.4511297588" lon="17.8632342094">
        <ele>125.2</ele>
        <time>2012-11-11T16:02:16Z</time>
      </trkpt>
      <trkpt lat="59.4512455128" lon="17.8628461274">
        <ele>125.2</ele>
        <time>2012-11-11T16:02:20Z</time>
      </trkpt>
      <trkpt lat="59.4512770288" lon="17.8627475562">
        <ele>125.2</ele>
        <time>2012-11-11T16:02:21Z</time>
      </trkpt>
      <trkpt lat="59.4515030886" lon="17.8620303171">
        <ele>125.2</ele>
        <time>2012-11-11T16:02:28Z</time>
      </trkpt>
      <trkpt lat="59.4517292323" lon="17.8613620282">
        <ele>125.2</ele>
        <time>2012-11-11T16:02:35Z</time>
      </trkpt>
      <trkpt lat="59.451922016" lon="17.8608301128">
        <ele>125.2</ele>
        <time>2012-11-11T16:02:42Z</time>
      </trkpt>
      <trkpt lat="59.4519795158" lon="17.860639676">
        <ele>126</ele>
        <time>2012-11-11T16:02:45Z</time>
      </trkpt>
      <trkpt lat="59.4519956091" lon="17.8605604671">
        <ele>126.4</ele>
        <time>2012-11-11T16:02:46Z</time>
      </trkpt>
      <trkpt lat="59.452008601" lon="17.8604820963">
        <ele>126.8</ele>
        <time>2012-11-11T16:02:47Z</time>
      </trkpt>
      <trkpt lat="59.452021593" lon="17.8604001213">
        <ele>127.2</ele>
        <time>2012-11-11T16:02:48Z</time>
      </trkpt>
      <trkpt lat="59.4520657656" lon="17.8601596446">
        <ele>127.2</ele>
        <time>2012-11-11T16:02:51Z</time>
      </trkpt>
      <trkpt lat="59.4520940964" lon="17.8599893244">
        <ele>127.6</ele>
        <time>2012-11-11T16:02:53Z</time>
      </trkpt>
      <trkpt lat="59.452116057" lon="17.8599124624">
        <ele>128</ele>
        <time>2012-11-11T16:02:54Z</time>
      </trkpt>
      <trkpt lat="59.4521430467" lon="17.8598423059">
        <ele>128.6</ele>
        <time>2012-11-11T16:02:55Z</time>
      </trkpt>
      <trkpt lat="59.4521701202" lon="17.859764438">
        <ele>129</ele>
        <time>2012-11-11T16:02:56Z</time>
      </trkpt>
      <trkpt lat="59.452193841" lon="17.8596944492">
        <ele>129.4</ele>
        <time>2012-11-11T16:02:57Z</time>
      </trkpt>
      <trkpt lat="59.4522796717" lon="17.8594637793">
        <ele>129.4</ele>
        <time>2012-11-11T16:03:00Z</time>
      </trkpt>
      <trkpt lat="59.4523892231" lon="17.8589116635">
        <ele>129.4</ele>
        <time>2012-11-11T16:03:06Z</time>
      </trkpt>
      <trkpt lat="59.4523972697" lon="17.8588226477">
        <ele>129.4</ele>
        <time>2012-11-11T16:03:07Z</time>
      </trkpt>
      <trkpt lat="59.4524226669" lon="17.8584446241">
        <ele>129.4</ele>
        <time>2012-11-11T16:03:11Z</time>
      </trkpt>
      <trkpt lat="59.4524321384" lon="17.8582491581">
        <ele>129.4</ele>
        <time>2012-11-11T16:03:13Z</time>
      </trkpt>
      <trkpt lat="59.4524373352" lon="17.8579538638">
        <ele>129.4</ele>
        <time>2012-11-11T16:03:16Z</time>
      </trkpt>
      <trkpt lat="59.4524519197" lon="17.8577625889">
        <ele>129.4</ele>
        <time>2012-11-11T16:03:18Z</time>
      </trkpt>
      <trkpt lat="59.4524914823" lon="17.8574861538">
        <ele>129.4</ele>
        <time>2012-11-11T16:03:21Z</time>
      </trkpt>
      <trkpt lat="59.4525009538" lon="17.8573974733">
        <ele>129.4</ele>
        <time>2012-11-11T16:03:22Z</time>
      </trkpt>
      <trkpt lat="59.4525295361" lon="17.857156326">
        <ele>130</ele>
        <time>2012-11-11T16:03:25Z</time>
      </trkpt>
      <trkpt lat="59.4525386724" lon="17.8570808889">
        <ele>130.4</ele>
        <time>2012-11-11T16:03:26Z</time>
      </trkpt>
      <trkpt lat="59.4525494012" lon="17.8570029373">
        <ele>130.8</ele>
        <time>2012-11-11T16:03:27Z</time>
      </trkpt>
      <trkpt lat="59.45256013" lon="17.8569256561">
        <ele>131.2</ele>
        <time>2012-11-11T16:03:28Z</time>
      </trkpt>
      <trkpt lat="59.4525672547" lon="17.8568441003">
        <ele>131.6</ele>
        <time>2012-11-11T16:03:29Z</time>
      </trkpt>
      <trkpt lat="59.4526188033" lon="17.8563618895">
        <ele>131.6</ele>
        <time>2012-11-11T16:03:35Z</time>
      </trkpt>
      <trkpt lat="59.4526655743" lon="17.8559367596">
        <ele>131.6</ele>
        <time>2012-11-11T16:03:40Z</time>
      </trkpt>
      <trkpt lat="59.452692145" lon="17.855854617">
        <ele>131.6</ele>
        <time>2012-11-11T16:03:41Z</time>
      </trkpt>
      <trkpt lat="59.4528116709" lon="17.8557053353">
        <ele>131.6</ele>
        <time>2012-11-11T16:03:44Z</time>
      </trkpt>
      <trkpt lat="59.4528934782" lon="17.8556532837">
        <ele>131.6</ele>
        <time>2012-11-11T16:03:46Z</time>
      </trkpt>
      <trkpt lat="59.4530078073" lon="17.8555575624">
        <ele>131.6</ele>
        <time>2012-11-11T16:03:49Z</time>
      </trkpt>
      <trkpt lat="59.4530433466" lon="17.8555200953">
        <ele>131.6</ele>
        <time>2012-11-11T16:03:50Z</time>
      </trkpt>
      <trkpt lat="59.4532869246" lon="17.8553163313">
        <ele>131.6</ele>
        <time>2012-11-11T16:03:56Z</time>
      </trkpt>
      <trkpt lat="59.4535160857" lon="17.8551167583">
        <ele>131.6</ele>
        <time>2012-11-11T16:04:01Z</time>
      </trkpt>
      <trkpt lat="59.4536926924" lon="17.8549942987">
        <ele>131.6</ele>
        <time>2012-11-11T16:04:05Z</time>
      </trkpt>
      <trkpt lat="59.4538548821" lon="17.8548140041">
        <ele>131.6</ele>
        <time>2012-11-11T16:04:09Z</time>
      </trkpt>
      <trkpt lat="59.4538921816" lon="17.8547829072">
        <ele>132.2</ele>
        <time>2012-11-11T16:04:10Z</time>
      </trkpt>
      <trkpt lat="59.4539357675" lon="17.8547425903">
        <ele>132.6</ele>
        <time>2012-11-11T16:04:11Z</time>
      </trkpt>
      <trkpt lat="59.4539714744" lon="17.8547254074">
        <ele>133</ele>
        <time>2012-11-11T16:04:12Z</time>
      </trkpt>
      <trkpt lat="59.4540122104" lon="17.8546868506">
        <ele>133.4</ele>
        <time>2012-11-11T16:04:13Z</time>
      </trkpt>
      <trkpt lat="59.4540474982" lon="17.8546613697">
        <ele>133.8</ele>
        <time>2012-11-11T16:04:14Z</time>
      </trkpt>
      <trkpt lat="59.4541610729" lon="17.8545863517">
        <ele>133.8</ele>
        <time>2012-11-11T16:04:17Z</time>
      </trkpt>
      <trkpt lat="59.4542715464" lon="17.8544648979">
        <ele>133.8</ele>
        <time>2012-11-11T16:04:20Z</time>
      </trkpt>
      <trkpt lat="59.4543052416" lon="17.8544376568">
        <ele>134.2</ele>
        <time>2012-11-11T16:04:21Z</time>
      </trkpt>
      <trkpt lat="59.4543334048" lon="17.8544006088">
        <ele>134.6</ele>
        <time>2012-11-11T16:04:22Z</time>
      </trkpt>
      <trkpt lat="59.4543591372" lon="17.8543769718">
        <ele>135</ele>
        <time>2012-11-11T16:04:23Z</time>
      </trkpt>
      <trkpt lat="59.4543910723" lon="17.8543472161">
        <ele>135.8</ele>
        <time>2012-11-11T16:04:24Z</time>
      </trkpt>
      <trkpt lat="59.4544210795" lon="17.8543013671">
        <ele>135.8</ele>
        <time>2012-11-11T16:04:25Z</time>
      </trkpt>
      <trkpt lat="59.4545048985" lon="17.8541468886">
        <ele>136.2</ele>
        <time>2012-11-11T16:04:28Z</time>
      </trkpt>
      <trkpt lat="59.4545387614" lon="17.85409534">
        <ele>136.6</ele>
        <time>2012-11-11T16:04:29Z</time>
      </trkpt>
      <trkpt lat="59.4545694391" lon="17.8540479822">
        <ele>137</ele>
        <time>2012-11-11T16:04:30Z</time>
      </trkpt>
      <trkpt lat="59.4546012065" lon="17.8539978585">
        <ele>137.4</ele>
        <time>2012-11-11T16:04:31Z</time>
      </trkpt>
      <trkpt lat="59.4546401823" lon="17.853942035">
        <ele>137.8</ele>
        <time>2012-11-11T16:04:32Z</time>
      </trkpt>
      <trkpt lat="59.4548077365" lon="17.8536872253">
        <ele>138.4</ele>
        <time>2012-11-11T16:04:37Z</time>
      </trkpt>
      <trkpt lat="59.454834391" lon="17.8536519375">
        <ele>138.8</ele>
        <time>2012-11-11T16:04:38Z</time>
      </trkpt>
      <trkpt lat="59.454861716" lon="17.8536210921">
        <ele>139.2</ele>
        <time>2012-11-11T16:04:39Z</time>
      </trkpt>
      <trkpt lat="59.4548878675" lon="17.853591504">
        <ele>139.6</ele>
        <time>2012-11-11T16:04:40Z</time>
      </trkpt>
      <trkpt lat="59.4549183776" lon="17.8535595689">
        <ele>140</ele>
        <time>2012-11-11T16:04:41Z</time>
      </trkpt>
      <trkpt lat="59.4550619596" lon="17.8534231954">
        <ele>140.4</ele>
        <time>2012-11-11T16:04:45Z</time>
      </trkpt>
      <trkpt lat="59.4550957386" lon="17.8533884105">
        <ele>140.8</ele>
        <time>2012-11-11T16:04:46Z</time>
      </trkpt>
      <trkpt lat="59.4551258296" lon="17.8533630972">
        <ele>141.2</ele>
        <time>2012-11-11T16:04:47Z</time>
      </trkpt>
      <trkpt lat="59.4551655598" lon="17.853319176">
        <ele>141.6</ele>
        <time>2012-11-11T16:04:48Z</time>
      </trkpt>
      <trkpt lat="59.4552069664" lon="17.8532698066">
        <ele>142</ele>
        <time>2012-11-11T16:04:49Z</time>
      </trkpt>
      <trkpt lat="59.4552291785" lon="17.8532440742">
        <ele>142</ele>
        <time>2012-11-11T16:04:50Z</time>
      </trkpt>
      <trkpt lat="59.455382232" lon="17.8531141548">
        <ele>142</ele>
        <time>2012-11-11T16:04:54Z</time>
      </trkpt>
      <trkpt lat="59.4555228802" lon="17.8529901865">
        <ele>142.4</ele>
        <time>2012-11-11T16:04:58Z</time>
      </trkpt>
      <trkpt lat="59.45555909" lon="17.8529526355">
        <ele>142.8</ele>
        <time>2012-11-11T16:04:59Z</time>
      </trkpt>
      <trkpt lat="59.455597563" lon="17.8529197785">
        <ele>143.2</ele>
        <time>2012-11-11T16:05:00Z</time>
      </trkpt>
      <trkpt lat="59.4556325993" lon="17.8528858318">
        <ele>143.6</ele>
        <time>2012-11-11T16:05:01Z</time>
      </trkpt>
      <trkpt lat="59.4556768557" lon="17.8528348698">
        <ele>144</ele>
        <time>2012-11-11T16:05:02Z</time>
      </trkpt>
      <trkpt lat="59.4558058532" lon="17.8527046989">
        <ele>144</ele>
        <time>2012-11-11T16:05:05Z</time>
      </trkpt>
      <trkpt lat="59.4560450726" lon="17.8524664015">
        <ele>144</ele>
        <time>2012-11-11T16:05:11Z</time>
      </trkpt>
      <trkpt lat="59.4560987168" lon="17.8524361429">
        <ele>144</ele>
        <time>2012-11-11T16:05:12Z</time>
      </trkpt>
      <trkpt lat="59.4564015548" lon="17.8523493064">
        <ele>144</ele>
        <time>2012-11-11T16:05:18Z</time>
      </trkpt>
      <trkpt lat="59.4564594737" lon="17.8523845104">
        <ele>144</ele>
        <time>2012-11-11T16:05:19Z</time>
      </trkpt>
      <trkpt lat="59.4566096774" lon="17.8525233146">
        <ele>144</ele>
        <time>2012-11-11T16:05:22Z</time>
      </trkpt>
      <trkpt lat="59.4566592144" lon="17.8525520645">
        <ele>144</ele>
        <time>2012-11-11T16:05:23Z</time>
      </trkpt>
      <trkpt lat="59.4567033032" lon="17.8525838319">
        <ele>144</ele>
        <time>2012-11-11T16:05:24Z</time>
      </trkpt>
      <trkpt lat="59.4568680075" lon="17.8526667289">
        <ele>144</ele>
        <time>2012-11-11T16:05:27Z</time>
      </trkpt>
      <trkpt lat="59.4571879447" lon="17.8526995022">
        <ele>144</ele>
        <time>2012-11-11T16:05:33Z</time>
      </trkpt>
      <trkpt lat="59.4573538225" lon="17.8526618674">
        <ele>144</ele>
        <time>2012-11-11T16:05:36Z</time>
      </trkpt>
      <trkpt lat="59.457459183" lon="17.8526186168">
        <ele>144</ele>
        <time>2012-11-11T16:05:38Z</time>
      </trkpt>
      <trkpt lat="59.4577197762" lon="17.8524243244">
        <ele>144</ele>
        <time>2012-11-11T16:05:43Z</time>
      </trkpt>
      <trkpt lat="59.4579434891" lon="17.8522520763">
        <ele>144</ele>
        <time>2012-11-11T16:05:49Z</time>
      </trkpt>
      <trkpt lat="59.4581804454" lon="17.8520633998">
        <ele>144</ele>
        <time>2012-11-11T16:05:56Z</time>
      </trkpt>
      <trkpt lat="59.4582174096" lon="17.8520321353">
        <ele>144.6</ele>
        <time>2012-11-11T16:05:57Z</time>
      </trkpt>
      <trkpt lat="59.458255212" lon="17.8519955064">
        <ele>145</ele>
        <time>2012-11-11T16:05:58Z</time>
      </trkpt>
      <trkpt lat="59.4582926791" lon="17.8519536807">
        <ele>145.4</ele>
        <time>2012-11-11T16:05:59Z</time>
      </trkpt>
      <trkpt lat="59.4583336666" lon="17.8519086699">
        <ele>145.8</ele>
        <time>2012-11-11T16:06:00Z</time>
      </trkpt>
      <trkpt lat="59.4583740673" lon="17.851866928">
        <ele>146.2</ele>
        <time>2012-11-11T16:06:01Z</time>
      </trkpt>
      <trkpt lat="59.458454785" lon="17.8517962686">
        <ele>146.2</ele>
        <time>2012-11-11T16:06:03Z</time>
      </trkpt>
      <trkpt lat="59.4585738918" lon="17.8516690314">
        <ele>146.6</ele>
        <time>2012-11-11T16:06:06Z</time>
      </trkpt>
      <trkpt lat="59.4586219201" lon="17.8516324025">
        <ele>147</ele>
        <time>2012-11-11T16:06:07Z</time>
      </trkpt>
      <trkpt lat="59.4586656736" lon="17.8516010542">
        <ele>147.4</ele>
        <time>2012-11-11T16:06:08Z</time>
      </trkpt>
      <trkpt lat="59.4587013805" lon="17.8515490026">
        <ele>147.8</ele>
        <time>2012-11-11T16:06:09Z</time>
      </trkpt>
      <trkpt lat="59.458747481" lon="17.8515138824">
        <ele>148.2</ele>
        <time>2012-11-11T16:06:10Z</time>
      </trkpt>
      <trkpt lat="59.4589976807" lon="17.8512724837">
        <ele>148.2</ele>
        <time>2012-11-11T16:06:16Z</time>
      </trkpt>
      <trkpt lat="59.4591916379" lon="17.8511296561">
        <ele>148.2</ele>
        <time>2012-11-11T16:06:21Z</time>
      </trkpt>
      <trkpt lat="59.4592849284" lon="17.8510957932">
        <ele>148.2</ele>
        <time>2012-11-11T16:06:23Z</time>
      </trkpt>
      <trkpt lat="59.4594565897" lon="17.8510477649">
        <ele>148.2</ele>
        <time>2012-11-11T16:06:26Z</time>
      </trkpt>
      <trkpt lat="59.4595033607" lon="17.8510614274">
        <ele>148.2</ele>
        <time>2012-11-11T16:06:27Z</time>
      </trkpt>
      <trkpt lat="59.4596708311" lon="17.851076431">
        <ele>148.2</ele>
        <time>2012-11-11T16:06:30Z</time>
      </trkpt>
      <trkpt lat="59.4597191947" lon="17.8510890039">
        <ele>148.2</ele>
        <time>2012-11-11T16:06:31Z</time>
      </trkpt>
      <trkpt lat="59.4599909358" lon="17.851107025">
        <ele>148.2</ele>
        <time>2012-11-11T16:06:36Z</time>
      </trkpt>
      <trkpt lat="59.4600446638" lon="17.8511160774">
        <ele>148.2</ele>
        <time>2012-11-11T16:06:37Z</time>
      </trkpt>
      <trkpt lat="59.4604386131" lon="17.8512384532">
        <ele>148.2</ele>
        <time>2012-11-11T16:06:44Z</time>
      </trkpt>
      <trkpt lat="59.460537771" lon="17.8512527024">
        <ele>148.2</ele>
        <time>2012-11-11T16:06:46Z</time>
      </trkpt>
      <trkpt lat="59.4606319836" lon="17.8512935223">
        <ele>148.2</ele>
        <time>2012-11-11T16:06:48Z</time>
      </trkpt>
      <trkpt lat="59.4607349971" lon="17.8513142255">
        <ele>148.2</ele>
        <time>2012-11-11T16:06:50Z</time>
      </trkpt>
      <trkpt lat="59.4610079956" lon="17.8513630082">
        <ele>148.2</ele>
        <time>2012-11-11T16:06:55Z</time>
      </trkpt>
      <trkpt lat="59.4613420981" lon="17.8514597353">
        <ele>148.2</ele>
        <time>2012-11-11T16:07:01Z</time>
      </trkpt>
      <trkpt lat="59.4614037051" lon="17.8514691231">
        <ele>147.8</ele>
        <time>2012-11-11T16:07:02Z</time>
      </trkpt>
      <trkpt lat="59.4614735263" lon="17.8514869765">
        <ele>147.4</ele>
        <time>2012-11-11T16:07:03Z</time>
      </trkpt>
      <trkpt lat="59.461548209" lon="17.8515174028">
        <ele>147</ele>
        <time>2012-11-11T16:07:04Z</time>
      </trkpt>
      <trkpt lat="59.4616211316" lon="17.8515433029">
        <ele>146.6</ele>
        <time>2012-11-11T16:07:05Z</time>
      </trkpt>
      <trkpt lat="59.4616882706" lon="17.8515633356">
        <ele>146</ele>
        <time>2012-11-11T16:07:06Z</time>
      </trkpt>
      <trkpt lat="59.4618290865" lon="17.8515854638">
        <ele>145.6</ele>
        <time>2012-11-11T16:07:08Z</time>
      </trkpt>
      <trkpt lat="59.4618977343" lon="17.8515924208">
        <ele>145</ele>
        <time>2012-11-11T16:07:09Z</time>
      </trkpt>
      <trkpt lat="59.4619576649" lon="17.8516076759">
        <ele>144.6</ele>
        <time>2012-11-11T16:07:10Z</time>
      </trkpt>
      <trkpt lat="59.4620149971" lon="17.8516102743">
        <ele>144</ele>
        <time>2012-11-11T16:07:11Z</time>
      </trkpt>
      <trkpt lat="59.4620735865" lon="17.8516216736">
        <ele>143.6</ele>
        <time>2012-11-11T16:07:12Z</time>
      </trkpt>
      <trkpt lat="59.4621870775" lon="17.8516344979">
        <ele>143.2</ele>
        <time>2012-11-11T16:07:14Z</time>
      </trkpt>
      <trkpt lat="59.462229909" lon="17.8515942648">
        <ele>142.8</ele>
        <time>2012-11-11T16:07:15Z</time>
      </trkpt>
      <trkpt lat="59.4622556414" lon="17.8515231025">
        <ele>142.2</ele>
        <time>2012-11-11T16:07:16Z</time>
      </trkpt>
      <trkpt lat="59.4622875764" lon="17.8514619984">
        <ele>141.4</ele>
        <time>2012-11-11T16:07:17Z</time>
      </trkpt>
      <trkpt lat="59.4623336769" lon="17.8513300673">
        <ele>141.4</ele>
        <time>2012-11-11T16:07:19Z</time>
      </trkpt>
      <trkpt lat="59.4624219383" lon="17.8510896744">
        <ele>141.4</ele>
        <time>2012-11-11T16:07:22Z</time>
      </trkpt>
      <trkpt lat="59.4625665261" lon="17.8507439211">
        <ele>141.4</ele>
        <time>2012-11-11T16:07:26Z</time>
      </trkpt>
      <trkpt lat="59.462598042" lon="17.8506556597">
        <ele>141.4</ele>
        <time>2012-11-11T16:07:27Z</time>
      </trkpt>
      <trkpt lat="59.4627507602" lon="17.8501718564">
        <ele>141.4</ele>
        <time>2012-11-11T16:07:32Z</time>
      </trkpt>
      <trkpt lat="59.4629401912" lon="17.8496849518">
        <ele>141</ele>
        <time>2012-11-11T16:07:36Z</time>
      </trkpt>
      <trkpt lat="59.4629884709" lon="17.8495909907">
        <ele>140.6</ele>
        <time>2012-11-11T16:07:37Z</time>
      </trkpt>
      <trkpt lat="59.4630352419" lon="17.8495058306">
        <ele>140.2</ele>
        <time>2012-11-11T16:07:38Z</time>
      </trkpt>
      <trkpt lat="59.4630855333" lon="17.849426454">
        <ele>139.6</ele>
        <time>2012-11-11T16:07:39Z</time>
      </trkpt>
      <trkpt lat="59.4631433684" lon="17.8493547888">
        <ele>139.2</ele>
        <time>2012-11-11T16:07:40Z</time>
      </trkpt>
      <trkpt lat="59.4631890498" lon="17.8493055032">
        <ele>138.2</ele>
        <time>2012-11-11T16:07:41Z</time>
      </trkpt>
      <trkpt lat="59.4632414367" lon="17.8492609115">
        <ele>137.8</ele>
        <time>2012-11-11T16:07:42Z</time>
      </trkpt>
      <trkpt lat="59.4632951646" lon="17.8492097819">
        <ele>137.2</ele>
        <time>2012-11-11T16:07:43Z</time>
      </trkpt>
      <trkpt lat="59.463345959" lon="17.8491492646">
        <ele>136.4</ele>
        <time>2012-11-11T16:07:44Z</time>
      </trkpt>
      <trkpt lat="59.4633997708" lon="17.8490752524">
        <ele>135.8</ele>
        <time>2012-11-11T16:07:45Z</time>
      </trkpt>
      <trkpt lat="59.463458025" lon="17.8489914334">
        <ele>135</ele>
        <time>2012-11-11T16:07:46Z</time>
      </trkpt>
      <trkpt lat="59.463526086" lon="17.84891893">
        <ele>134.4</ele>
        <time>2012-11-11T16:07:47Z</time>
      </trkpt>
      <trkpt lat="59.4635880282" lon="17.8488405592">
        <ele>133.8</ele>
        <time>2012-11-11T16:07:48Z</time>
      </trkpt>
      <trkpt lat="59.4636461148" lon="17.8487638648">
        <ele>133.2</ele>
        <time>2012-11-11T16:07:49Z</time>
      </trkpt>
      <trkpt lat="59.4637103202" lon="17.8486747652">
        <ele>132.4</ele>
        <time>2012-11-11T16:07:50Z</time>
      </trkpt>
      <trkpt lat="59.4637769563" lon="17.8485792954">
        <ele>131.8</ele>
        <time>2012-11-11T16:07:51Z</time>
      </trkpt>
      <trkpt lat="59.4638439276" lon="17.8484528963">
        <ele>131.2</ele>
        <time>2012-11-11T16:07:52Z</time>
      </trkpt>
      <trkpt lat="59.4638990805" lon="17.8483329514">
        <ele>130.8</ele>
        <time>2012-11-11T16:07:53Z</time>
      </trkpt>
      <trkpt lat="59.4639427502" lon="17.8482371462">
        <ele>130.2</ele>
        <time>2012-11-11T16:07:54Z</time>
      </trkpt>
      <trkpt lat="59.4639999986" lon="17.8481136808">
        <ele>129.6</ele>
        <time>2012-11-11T16:07:55Z</time>
      </trkpt>
      <trkpt lat="59.4640615218" lon="17.8479884553">
        <ele>129</ele>
        <time>2012-11-11T16:07:56Z</time>
      </trkpt>
      <trkpt lat="59.4641227935" lon="17.8478835139">
        <ele>128.6</ele>
        <time>2012-11-11T16:07:57Z</time>
      </trkpt>
      <trkpt lat="59.46418088" lon="17.847772789">
        <ele>128</ele>
        <time>2012-11-11T16:07:58Z</time>
      </trkpt>
      <trkpt lat="59.4642465103" lon="17.8476473958">
        <ele>127.6</ele>
        <time>2012-11-11T16:07:59Z</time>
      </trkpt>
      <trkpt lat="59.4642921917" lon="17.8475691088">
        <ele>127.6</ele>
        <time>2012-11-11T16:08:00Z</time>
      </trkpt>
      <trkpt lat="59.4644433173" lon="17.847191588">
        <ele>127.6</ele>
        <time>2012-11-11T16:08:04Z</time>
      </trkpt>
      <trkpt lat="59.4644586562" lon="17.8470889936">
        <ele>127.6</ele>
        <time>2012-11-11T16:08:05Z</time>
      </trkpt>
      <trkpt lat="59.4644739951" lon="17.8468467567">
        <ele>127.6</ele>
        <time>2012-11-11T16:08:07Z</time>
      </trkpt>
      <trkpt lat="59.4644812035" lon="17.8467186812">
        <ele>127.6</ele>
        <time>2012-11-11T16:08:08Z</time>
      </trkpt>
      <trkpt lat="59.4644825446" lon="17.8465809666">
        <ele>127.6</ele>
        <time>2012-11-11T16:08:09Z</time>
      </trkpt>
      <trkpt lat="59.464486065" lon="17.8460544157">
        <ele>127.6</ele>
        <time>2012-11-11T16:08:13Z</time>
      </trkpt>
      <trkpt lat="59.4644998113" lon="17.8456054811">
        <ele>127.6</ele>
        <time>2012-11-11T16:08:17Z</time>
      </trkpt>
      <trkpt lat="59.4645065168" lon="17.8455282">
        <ele>127.6</ele>
        <time>2012-11-11T16:08:18Z</time>
      </trkpt>
      <trkpt lat="59.4645167428" lon="17.845211448">
        <ele>128</ele>
        <time>2012-11-11T16:08:22Z</time>
      </trkpt>
      <trkpt lat="59.4645260467" lon="17.8451320714">
        <ele>128.4</ele>
        <time>2012-11-11T16:08:23Z</time>
      </trkpt>
      <trkpt lat="59.4645321654" lon="17.8450496773">
        <ele>128.8</ele>
        <time>2012-11-11T16:08:24Z</time>
      </trkpt>
      <trkpt lat="59.4645369431" lon="17.8449635114">
        <ele>129.4</ele>
        <time>2012-11-11T16:08:25Z</time>
      </trkpt>
      <trkpt lat="59.4645480911" lon="17.8448890801">
        <ele>129.8</ele>
        <time>2012-11-11T16:08:26Z</time>
      </trkpt>
      <trkpt lat="59.4645683753" lon="17.8446730785">
        <ele>129.8</ele>
        <time>2012-11-11T16:08:29Z</time>
      </trkpt>
      <trkpt lat="59.4646122126" lon="17.8442488706">
        <ele>129.8</ele>
        <time>2012-11-11T16:08:35Z</time>
      </trkpt>
      <trkpt lat="59.4646252045" lon="17.8441719247">
        <ele>130.2</ele>
        <time>2012-11-11T16:08:36Z</time>
      </trkpt>
      <trkpt lat="59.4646356819" lon="17.8440896983">
        <ele>130.6</ele>
        <time>2012-11-11T16:08:37Z</time>
      </trkpt>
      <trkpt lat="59.4646462431" lon="17.8440153508">
        <ele>131.2</ele>
        <time>2012-11-11T16:08:38Z</time>
      </trkpt>
      <trkpt lat="59.4646571396" lon="17.8439416739">
        <ele>131.6</ele>
        <time>2012-11-11T16:08:39Z</time>
      </trkpt>
      <trkpt lat="59.4646662758" lon="17.8438739482">
        <ele>132</ele>
        <time>2012-11-11T16:08:40Z</time>
      </trkpt>
      <trkpt lat="59.4647000549" lon="17.8437357307">
        <ele>132</ele>
        <time>2012-11-11T16:08:42Z</time>
      </trkpt>
      <trkpt lat="59.4647562136" lon="17.8436385006">
        <ele>132</ele>
        <time>2012-11-11T16:08:44Z</time>
      </trkpt>
      <trkpt lat="59.4648179044" lon="17.8435861137">
        <ele>132</ele>
        <time>2012-11-11T16:08:46Z</time>
      </trkpt>
      <trkpt lat="59.4648873904" lon="17.8435626444">
        <ele>132</ele>
        <time>2012-11-11T16:08:48Z</time>
      </trkpt>
      <trkpt lat="59.4649180681" lon="17.8435259317">
        <ele>132.4</ele>
        <time>2012-11-11T16:08:49Z</time>
      </trkpt>
      <trkpt lat="59.4649568763" lon="17.8434946672">
        <ele>132.8</ele>
        <time>2012-11-11T16:08:50Z</time>
      </trkpt>
      <trkpt lat="59.4649869673" lon="17.8434698568">
        <ele>133.2</ele>
        <time>2012-11-11T16:08:51Z</time>
      </trkpt>
      <trkpt lat="59.46501446" lon="17.8434383408">
        <ele>133.6</ele>
        <time>2012-11-11T16:08:52Z</time>
      </trkpt>
      <trkpt lat="59.4650395219" lon="17.8433973534">
        <ele>134.2</ele>
        <time>2012-11-11T16:08:53Z</time>
      </trkpt>
      <trkpt lat="59.4651460558" lon="17.8432387678">
        <ele>134.2</ele>
        <time>2012-11-11T16:08:57Z</time>
      </trkpt>
      <trkpt lat="59.4653131909" lon="17.8428975407">
        <ele>134.6</ele>
        <time>2012-11-11T16:09:03Z</time>
      </trkpt>
      <trkpt lat="59.4653364088" lon="17.8428340897">
        <ele>135</ele>
        <time>2012-11-11T16:09:04Z</time>
      </trkpt>
      <trkpt lat="59.465364069" lon="17.8427674536">
        <ele>135.4</ele>
        <time>2012-11-11T16:09:05Z</time>
      </trkpt>
      <trkpt lat="59.4653970937" lon="17.8426915136">
        <ele>135.8</ele>
        <time>2012-11-11T16:09:06Z</time>
      </trkpt>
      <trkpt lat="59.4654288611" lon="17.842620938">
        <ele>136.2</ele>
        <time>2012-11-11T16:09:07Z</time>
      </trkpt>
      <trkpt lat="59.4655207267" lon="17.8424108037">
        <ele>136.2</ele>
        <time>2012-11-11T16:09:10Z</time>
      </trkpt>
      <trkpt lat="59.4656652307" lon="17.8420563332">
        <ele>136.2</ele>
        <time>2012-11-11T16:09:15Z</time>
      </trkpt>
      <trkpt lat="59.4657540788" lon="17.8418520663">
        <ele>136.2</ele>
        <time>2012-11-11T16:09:18Z</time>
      </trkpt>
      <trkpt lat="59.4658347127" lon="17.8416578577">
        <ele>136.6</ele>
        <time>2012-11-11T16:09:21Z</time>
      </trkpt>
      <trkpt lat="59.4658523985" lon="17.8415962507">
        <ele>137</ele>
        <time>2012-11-11T16:09:22Z</time>
      </trkpt>
      <trkpt lat="59.4658741915" lon="17.8415304528">
        <ele>137.6</ele>
        <time>2012-11-11T16:09:23Z</time>
      </trkpt>
      <trkpt lat="59.4659026061" lon="17.8414739588">
        <ele>138</ele>
        <time>2012-11-11T16:09:24Z</time>
      </trkpt>
      <trkpt lat="59.465925824" lon="17.8414112622">
        <ele>138.4</ele>
        <time>2012-11-11T16:09:25Z</time>
      </trkpt>
      <trkpt lat="59.4660541509" lon="17.8411270319">
        <ele>138.4</ele>
        <time>2012-11-11T16:09:30Z</time>
      </trkpt>
      <trkpt lat="59.4660792127" lon="17.8410452246">
        <ele>138.4</ele>
        <time>2012-11-11T16:09:31Z</time>
      </trkpt>
      <trkpt lat="59.466117518" lon="17.8409964419">
        <ele>138.8</ele>
        <time>2012-11-11T16:09:32Z</time>
      </trkpt>
      <trkpt lat="59.4661458488" lon="17.8409391097">
        <ele>139.2</ele>
        <time>2012-11-11T16:09:33Z</time>
      </trkpt>
      <trkpt lat="59.4661761075" lon="17.8408730604">
        <ele>139.6</ele>
        <time>2012-11-11T16:09:34Z</time>
      </trkpt>
      <trkpt lat="59.4662080425" lon="17.8407984614">
        <ele>140</ele>
        <time>2012-11-11T16:09:35Z</time>
      </trkpt>
      <trkpt lat="59.4662377145" lon="17.8407253713">
        <ele>140.4</ele>
        <time>2012-11-11T16:09:36Z</time>
      </trkpt>
      <trkpt lat="59.46632036" lon="17.8405217749">
        <ele>140.4</ele>
        <time>2012-11-11T16:09:39Z</time>
      </trkpt>
      <trkpt lat="59.466437036" lon="17.8402478544">
        <ele>140.8</ele>
        <time>2012-11-11T16:09:43Z</time>
      </trkpt>
      <trkpt lat="59.4664689711" lon="17.8401760215">
        <ele>141.2</ele>
        <time>2012-11-11T16:09:44Z</time>
      </trkpt>
      <trkpt lat="59.4665004032" lon="17.8401098045">
        <ele>141.6</ele>
        <time>2012-11-11T16:09:45Z</time>
      </trkpt>
      <trkpt lat="59.4665340146" lon="17.8400393966">
        <ele>142.4</ele>
        <time>2012-11-11T16:09:46Z</time>
      </trkpt>
      <trkpt lat="59.4666454939" lon="17.839783581">
        <ele>142.4</ele>
        <time>2012-11-11T16:09:49Z</time>
      </trkpt>
      <trkpt lat="59.4667169915" lon="17.8396331259">
        <ele>142.4</ele>
        <time>2012-11-11T16:09:51Z</time>
      </trkpt>
      <trkpt lat="59.4668887366" lon="17.8392360753">
        <ele>142.4</ele>
        <time>2012-11-11T16:09:56Z</time>
      </trkpt>
      <trkpt lat="59.4669094399" lon="17.8391346543">
        <ele>142.4</ele>
        <time>2012-11-11T16:09:57Z</time>
      </trkpt>
      <trkpt lat="59.4669230186" lon="17.8387257014">
        <ele>142.4</ele>
        <time>2012-11-11T16:10:01Z</time>
      </trkpt>
      <trkpt lat="59.466907093" lon="17.8386224364">
        <ele>142</ele>
        <time>2012-11-11T16:10:02Z</time>
      </trkpt>
      <trkpt lat="59.4668868926" lon="17.8385320795">
        <ele>141.6</ele>
        <time>2012-11-11T16:10:03Z</time>
      </trkpt>
      <trkpt lat="59.4668675304" lon="17.8384462488">
        <ele>141.2</ele>
        <time>2012-11-11T16:10:04Z</time>
      </trkpt>
      <trkpt lat="59.4668537003" lon="17.8383678781">
        <ele>140.8</ele>
        <time>2012-11-11T16:10:05Z</time>
      </trkpt>
      <trkpt lat="59.4668412951" lon="17.8382972187">
        <ele>140.4</ele>
        <time>2012-11-11T16:10:06Z</time>
      </trkpt>
      <trkpt lat="59.4667594877" lon="17.8380430795">
        <ele>140.4</ele>
        <time>2012-11-11T16:10:10Z</time>
      </trkpt>
      <trkpt lat="59.4665906763" lon="17.837492221">
        <ele>140.4</ele>
        <time>2012-11-11T16:10:17Z</time>
      </trkpt>
      <trkpt lat="59.4664295762" lon="17.8369539354">
        <ele>140.4</ele>
        <time>2012-11-11T16:10:23Z</time>
      </trkpt>
      <trkpt lat="59.4662640336" lon="17.8363256281">
        <ele>140.4</ele>
        <time>2012-11-11T16:10:29Z</time>
      </trkpt>
      <trkpt lat="59.4662068691" lon="17.8361329283">
        <ele>140</ele>
        <time>2012-11-11T16:10:31Z</time>
      </trkpt>
      <trkpt lat="59.4661773648" lon="17.8360341057">
        <ele>139.6</ele>
        <time>2012-11-11T16:10:32Z</time>
      </trkpt>
      <trkpt lat="59.4661503751" lon="17.8359487779">
        <ele>139.2</ele>
        <time>2012-11-11T16:10:33Z</time>
      </trkpt>
      <trkpt lat="59.4661212061" lon="17.8358707424">
        <ele>138.8</ele>
        <time>2012-11-11T16:10:34Z</time>
      </trkpt>
      <trkpt lat="59.466089271" lon="17.8358009212">
        <ele>138.4</ele>
        <time>2012-11-11T16:10:35Z</time>
      </trkpt>
      <trkpt lat="59.465951724" lon="17.8355057107">
        <ele>138.4</ele>
        <time>2012-11-11T16:10:39Z</time>
      </trkpt>
      <trkpt lat="59.4658847527" lon="17.8353787249">
        <ele>138.4</ele>
        <time>2012-11-11T16:10:41Z</time>
      </trkpt>
      <trkpt lat="59.4658176975" lon="17.8352380766">
        <ele>138.8</ele>
        <time>2012-11-11T16:10:43Z</time>
      </trkpt>
      <trkpt lat="59.4657805656" lon="17.8351658246">
        <ele>139.2</ele>
        <time>2012-11-11T16:10:44Z</time>
      </trkpt>
      <trkpt lat="59.4657432662" lon="17.8350921477">
        <ele>139.6</ele>
        <time>2012-11-11T16:10:45Z</time>
      </trkpt>
      <trkpt lat="59.4657089004" lon="17.8350256793">
        <ele>140</ele>
        <time>2012-11-11T16:10:46Z</time>
      </trkpt>
      <trkpt lat="59.4656731097" lon="17.8349597137">
        <ele>140.4</ele>
        <time>2012-11-11T16:10:47Z</time>
      </trkpt>
      <trkpt lat="59.4655019513" lon="17.8346245215">
        <ele>140.4</ele>
        <time>2012-11-11T16:10:52Z</time>
      </trkpt>
      <trkpt lat="59.4654719441" lon="17.834542798">
        <ele>140.4</ele>
        <time>2012-11-11T16:10:53Z</time>
      </trkpt>
      <trkpt lat="59.4654056432" lon="17.8341947815">
        <ele>140.4</ele>
        <time>2012-11-11T16:10:56Z</time>
      </trkpt>
      <trkpt lat="59.4653940762" lon="17.8340543009">
        <ele>140.4</ele>
        <time>2012-11-11T16:10:57Z</time>
      </trkpt>
      <trkpt lat="59.4653660807" lon="17.8335793824">
        <ele>140.4</ele>
        <time>2012-11-11T16:11:00Z</time>
      </trkpt>
      <trkpt lat="59.4653046414" lon="17.8327651647">
        <ele>140</ele>
        <time>2012-11-11T16:11:05Z</time>
      </trkpt>
      <trkpt lat="59.4652922361" lon="17.8326136199">
        <ele>139.6</ele>
        <time>2012-11-11T16:11:06Z</time>
      </trkpt>
      <trkpt lat="59.4652801662" lon="17.8324626619">
        <ele>139.2</ele>
        <time>2012-11-11T16:11:07Z</time>
      </trkpt>
      <trkpt lat="59.465267761" lon="17.8323172359">
        <ele>138.8</ele>
        <time>2012-11-11T16:11:08Z</time>
      </trkpt>
      <trkpt lat="59.4652556072" lon="17.832177342">
        <ele>138.4</ele>
        <time>2012-11-11T16:11:09Z</time>
      </trkpt>
      <trkpt lat="59.4652416095" lon="17.8320371966">
        <ele>138</ele>
        <time>2012-11-11T16:11:10Z</time>
      </trkpt>
      <trkpt lat="59.4652263544" lon="17.8318900105">
        <ele>137.4</ele>
        <time>2012-11-11T16:11:11Z</time>
      </trkpt>
      <trkpt lat="59.4652100097" lon="17.8317467638">
        <ele>137</ele>
        <time>2012-11-11T16:11:12Z</time>
      </trkpt>
      <trkpt lat="59.4651952576" lon="17.8316137431">
        <ele>136.6</ele>
        <time>2012-11-11T16:11:13Z</time>
      </trkpt>
      <trkpt lat="59.4651819303" lon="17.8314818958">
        <ele>136.2</ele>
        <time>2012-11-11T16:11:14Z</time>
      </trkpt>
      <trkpt lat="59.4651591316" lon="17.8312293491">
        <ele>136.2</ele>
        <time>2012-11-11T16:11:16Z</time>
      </trkpt>
      <trkpt lat="59.4650831916" lon="17.8306652473">
        <ele>136.2</ele>
        <time>2012-11-11T16:11:21Z</time>
      </trkpt>
      <trkpt lat="59.4650617339" lon="17.8305624852">
        <ele>136.2</ele>
        <time>2012-11-11T16:11:22Z</time>
      </trkpt>
      <trkpt lat="59.4649090995" lon="17.8298333437">
        <ele>135.8</ele>
        <time>2012-11-11T16:11:29Z</time>
      </trkpt>
      <trkpt lat="59.4648878933" lon="17.8297383768">
        <ele>135.4</ele>
        <time>2012-11-11T16:11:30Z</time>
      </trkpt>
      <trkpt lat="59.4648654298" lon="17.8296427393">
        <ele>135</ele>
        <time>2012-11-11T16:11:31Z</time>
      </trkpt>
      <trkpt lat="59.4648403679" lon="17.8295434138">
        <ele>134.4</ele>
        <time>2012-11-11T16:11:32Z</time>
      </trkpt>
      <trkpt lat="59.464814384" lon="17.8294350358">
        <ele>134</ele>
        <time>2012-11-11T16:11:33Z</time>
      </trkpt>
      <trkpt lat="59.4647165672" lon="17.8289594468">
        <ele>134</ele>
        <time>2012-11-11T16:11:37Z</time>
      </trkpt>
      <trkpt lat="59.4645267172" lon="17.8280833706">
        <ele>134</ele>
        <time>2012-11-11T16:11:45Z</time>
      </trkpt>
      <trkpt lat="59.464461506" lon="17.8277912614">
        <ele>134</ele>
        <time>2012-11-11T16:11:48Z</time>
      </trkpt>
      <trkpt lat="59.4644001505" lon="17.8275048519">
        <ele>134</ele>
        <time>2012-11-11T16:11:51Z</time>
      </trkpt>
      <trkpt lat="59.4643279824" lon="17.8272226333">
        <ele>134</ele>
        <time>2012-11-11T16:11:54Z</time>
      </trkpt>
      <trkpt lat="59.4642690576" lon="17.8269366429">
        <ele>134</ele>
        <time>2012-11-11T16:11:57Z</time>
      </trkpt>
      <trkpt lat="59.4641253918" lon="17.8263556096">
        <ele>134</ele>
        <time>2012-11-11T16:12:04Z</time>
      </trkpt>
      <trkpt lat="59.4639458515" lon="17.8258084391">
        <ele>134</ele>
        <time>2012-11-11T16:12:12Z</time>
      </trkpt>
      <trkpt lat="59.4638621164" lon="17.82562278">
        <ele>134.4</ele>
        <time>2012-11-11T16:12:15Z</time>
      </trkpt>
      <trkpt lat="59.4638350428" lon="17.8255534617">
        <ele>134.8</ele>
        <time>2012-11-11T16:12:16Z</time>
      </trkpt>
      <trkpt lat="59.463809478" lon="17.8254817965">
        <ele>135.2</ele>
        <time>2012-11-11T16:12:17Z</time>
      </trkpt>
      <trkpt lat="59.4637811472" lon="17.82541164">
        <ele>135.6</ele>
        <time>2012-11-11T16:12:18Z</time>
      </trkpt>
      <trkpt lat="59.463752984" lon="17.8253506197">
        <ele>136.2</ele>
        <time>2012-11-11T16:12:19Z</time>
      </trkpt>
      <trkpt lat="59.4636081448" lon="17.8250440937">
        <ele>136.2</ele>
        <time>2012-11-11T16:12:24Z</time>
      </trkpt>
      <trkpt lat="59.4635535786" lon="17.8249295969">
        <ele>136.2</ele>
        <time>2012-11-11T16:12:26Z</time>
      </trkpt>
      <trkpt lat="59.4633516587" lon="17.8245713545">
        <ele>136.2</ele>
        <time>2012-11-11T16:12:32Z</time>
      </trkpt>
      <trkpt lat="59.4632424425" lon="17.8243618908">
        <ele>136.6</ele>
        <time>2012-11-11T16:12:35Z</time>
      </trkpt>
      <trkpt lat="59.4632054783" lon="17.8242966796">
        <ele>137</ele>
        <time>2012-11-11T16:12:36Z</time>
      </trkpt>
      <trkpt lat="59.4631640717" lon="17.8242272775">
        <ele>138</ele>
        <time>2012-11-11T16:12:37Z</time>
      </trkpt>
      <trkpt lat="59.4631203182" lon="17.8241561152">
        <ele>138.4</ele>
        <time>2012-11-11T16:12:38Z</time>
      </trkpt>
      <trkpt lat="59.4628897321" lon="17.8237542031">
        <ele>138.4</ele>
        <time>2012-11-11T16:12:44Z</time>
      </trkpt>
      <trkpt lat="59.4626641752" lon="17.8233479324">
        <ele>138.8</ele>
        <time>2012-11-11T16:12:51Z</time>
      </trkpt>
      <trkpt lat="59.4626353415" lon="17.8233063582">
        <ele>139.4</ele>
        <time>2012-11-11T16:12:52Z</time>
      </trkpt>
      <trkpt lat="59.4626166498" lon="17.8232732496">
        <ele>139.8</ele>
        <time>2012-11-11T16:12:53Z</time>
      </trkpt>
      <trkpt lat="59.4626079327" lon="17.823254558">
        <ele>140.2</ele>
        <time>2012-11-11T16:12:54Z</time>
      </trkpt>
      <trkpt lat="59.4625999699" lon="17.8232451703">
        <ele>140.6</ele>
        <time>2012-11-11T16:12:55Z</time>
      </trkpt>
      <trkpt lat="59.4625876485" lon="17.8232297476">
        <ele>140.6</ele>
        <time>2012-11-11T16:12:58Z</time>
      </trkpt>
      <trkpt lat="59.4625481697" lon="17.8231918614">
        <ele>140.6</ele>
        <time>2012-11-11T16:13:00Z</time>
      </trkpt>
      <trkpt lat="59.4624247043" lon="17.8232282388">
        <ele>140.6</ele>
        <time>2012-11-11T16:13:03Z</time>
      </trkpt>
      <trkpt lat="59.4623286478" lon="17.8233106329">
        <ele>140.6</ele>
        <time>2012-11-11T16:13:05Z</time>
      </trkpt>
      <trkpt lat="59.4622727405" lon="17.8233456693">
        <ele>140.6</ele>
        <time>2012-11-11T16:13:06Z</time>
      </trkpt>
      <trkpt lat="59.4622174199" lon="17.8233465075">
        <ele>140.6</ele>
        <time>2012-11-11T16:13:07Z</time>
      </trkpt>
      <trkpt lat="59.4620760173" lon="17.8231605131">
        <ele>140.6</ele>
        <time>2012-11-11T16:13:10Z</time>
      </trkpt>
      <trkpt lat="59.4620212835" lon="17.8229734291">
        <ele>140.6</ele>
        <time>2012-11-11T16:13:12Z</time>
      </trkpt>
      <trkpt lat="59.4619329383" lon="17.822701185">
        <ele>140.6</ele>
        <time>2012-11-11T16:13:15Z</time>
      </trkpt>
      <trkpt lat="59.4618989916" lon="17.8226166954">
        <ele>140.6</ele>
        <time>2012-11-11T16:13:16Z</time>
      </trkpt>
      <trkpt lat="59.4617487879" lon="17.8223254244">
        <ele>140.6</ele>
        <time>2012-11-11T16:13:20Z</time>
      </trkpt>
      <trkpt lat="59.4614415913" lon="17.8219536871">
        <ele>140.6</ele>
        <time>2012-11-11T16:13:26Z</time>
      </trkpt>
      <trkpt lat="59.4613280165" lon="17.8218047408">
        <ele>140.2</ele>
        <time>2012-11-11T16:13:28Z</time>
      </trkpt>
      <trkpt lat="59.4612764679" lon="17.8217431338">
        <ele>139.8</ele>
        <time>2012-11-11T16:13:29Z</time>
      </trkpt>
      <trkpt lat="59.4612247515" lon="17.8216863045">
        <ele>139.4</ele>
        <time>2012-11-11T16:13:30Z</time>
      </trkpt>
      <trkpt lat="59.4611715265" lon="17.8216314031">
        <ele>138.8</ele>
        <time>2012-11-11T16:13:31Z</time>
      </trkpt>
      <trkpt lat="59.4611196425" lon="17.8215774236">
        <ele>138.4</ele>
        <time>2012-11-11T16:13:32Z</time>
      </trkpt>
      <trkpt lat="59.4610325546" lon="17.8214629269">
        <ele>138.4</ele>
        <time>2012-11-11T16:13:34Z</time>
      </trkpt>
      <trkpt lat="59.4609903098" lon="17.8212180916">
        <ele>138.4</ele>
        <time>2012-11-11T16:13:37Z</time>
      </trkpt>
      <trkpt lat="59.4610377513" lon="17.8210201111">
        <ele>138.4</ele>
        <time>2012-11-11T16:13:40Z</time>
      </trkpt>
      <trkpt lat="59.4610589575" lon="17.8209557381">
        <ele>138.4</ele>
        <time>2012-11-11T16:13:41Z</time>
      </trkpt>
      <trkpt lat="59.4611214865" lon="17.8207394013">
        <ele>138.4</ele>
        <time>2012-11-11T16:13:44Z</time>
      </trkpt>
      <trkpt lat="59.4611734543" lon="17.8205867669">
        <ele>138.8</ele>
        <time>2012-11-11T16:13:46Z</time>
      </trkpt>
      <trkpt lat="59.4611993544" lon="17.8204957394">
        <ele>139.2</ele>
        <time>2012-11-11T16:13:47Z</time>
      </trkpt>
      <trkpt lat="59.4612253383" lon="17.8203999343">
        <ele>139.6</ele>
        <time>2012-11-11T16:13:48Z</time>
      </trkpt>
      <trkpt lat="59.4612533338" lon="17.820302369">
        <ele>140</ele>
        <time>2012-11-11T16:13:49Z</time>
      </trkpt>
      <trkpt lat="59.4612813294" lon="17.8202050552">
        <ele>140.6</ele>
        <time>2012-11-11T16:13:50Z</time>
      </trkpt>
      <trkpt lat="59.4613131806" lon="17.8201020416">
        <ele>141.6</ele>
        <time>2012-11-11T16:13:51Z</time>
      </trkpt>
      <trkpt lat="59.4613488875" lon="17.8200052307">
        <ele>142.2</ele>
        <time>2012-11-11T16:13:52Z</time>
      </trkpt>
      <trkpt lat="59.4613868575" lon="17.8199218308">
        <ele>142.6</ele>
        <time>2012-11-11T16:13:53Z</time>
      </trkpt>
      <trkpt lat="59.4614247437" lon="17.819850417">
        <ele>143.2</ele>
        <time>2012-11-11T16:13:54Z</time>
      </trkpt>
      <trkpt lat="59.4614615402" lon="17.8197874689">
        <ele>143.8</ele>
        <time>2012-11-11T16:13:55Z</time>
      </trkpt>
      <trkpt lat="59.461495906" lon="17.8197234312">
        <ele>144.4</ele>
        <time>2012-11-11T16:13:56Z</time>
      </trkpt>
      <trkpt lat="59.4615275058" lon="17.8196644226">
        <ele>144.8</ele>
        <time>2012-11-11T16:13:57Z</time>
      </trkpt>
      <trkpt lat="59.4616065471" lon="17.8195334135">
        <ele>145.4</ele>
        <time>2012-11-11T16:14:00Z</time>
      </trkpt>
      <trkpt lat="59.461627418" lon="17.819486391">
        <ele>145.8</ele>
        <time>2012-11-11T16:14:01Z</time>
      </trkpt>
      <trkpt lat="59.461651977" lon="17.8194411288">
        <ele>146.2</ele>
        <time>2012-11-11T16:14:02Z</time>
      </trkpt>
      <trkpt lat="59.4616791343" lon="17.8194015662">
        <ele>146.6</ele>
        <time>2012-11-11T16:14:03Z</time>
      </trkpt>
      <trkpt lat="59.4617068784" lon="17.8193589023">
        <ele>147</ele>
        <time>2012-11-11T16:14:04Z</time>
      </trkpt>
      <trkpt lat="59.461735796" lon="17.8193143106">
        <ele>147</ele>
        <time>2012-11-11T16:14:05Z</time>
      </trkpt>
      <trkpt lat="59.4618598481" lon="17.8191405539">
        <ele>147.4</ele>
        <time>2012-11-11T16:14:08Z</time>
      </trkpt>
      <trkpt lat="59.4619019252" lon="17.8190655358">
        <ele>148</ele>
        <time>2012-11-11T16:14:09Z</time>
      </trkpt>
      <trkpt lat="59.4619428289" lon="17.8189810463">
        <ele>148.4</ele>
        <time>2012-11-11T16:14:10Z</time>
      </trkpt>
      <trkpt lat="59.4619792063" lon="17.818894126">
        <ele>148.8</ele>
        <time>2012-11-11T16:14:11Z</time>
      </trkpt>
      <trkpt lat="59.4620075372" lon="17.8188067866">
        <ele>149.4</ele>
        <time>2012-11-11T16:14:12Z</time>
      </trkpt>
      <trkpt lat="59.4620281566" lon="17.8187151724">
        <ele>150</ele>
        <time>2012-11-11T16:14:13Z</time>
      </trkpt>
      <trkpt lat="59.4620441661" lon="17.8186175233">
        <ele>150.6</ele>
        <time>2012-11-11T16:14:14Z</time>
      </trkpt>
      <trkpt lat="59.4620546434" lon="17.8185285075">
        <ele>151.2</ele>
        <time>2012-11-11T16:14:15Z</time>
      </trkpt>
      <trkpt lat="59.4620636121" lon="17.8184392403">
        <ele>151.6</ele>
        <time>2012-11-11T16:14:16Z</time>
      </trkpt>
      <trkpt lat="59.4620683898" lon="17.8183487158">
        <ele>151.6</ele>
        <time>2012-11-11T16:14:17Z</time>
      </trkpt>
      <trkpt lat="59.4620688089" lon="17.8182581912">
        <ele>151.6</ele>
        <time>2012-11-11T16:14:18Z</time>
      </trkpt>
      <trkpt lat="59.462061349" lon="17.8179851089">
        <ele>152</ele>
        <time>2012-11-11T16:14:21Z</time>
      </trkpt>
      <trkpt lat="59.4620557331" lon="17.8178964284">
        <ele>152.6</ele>
        <time>2012-11-11T16:14:22Z</time>
      </trkpt>
      <trkpt lat="59.4620490276" lon="17.8178010424">
        <ele>153</ele>
        <time>2012-11-11T16:14:23Z</time>
      </trkpt>
      <trkpt lat="59.4620434117" lon="17.8177119428">
        <ele>153.4</ele>
        <time>2012-11-11T16:14:24Z</time>
      </trkpt>
      <trkpt lat="59.462038634" lon="17.817622927">
        <ele>153.8</ele>
        <time>2012-11-11T16:14:25Z</time>
      </trkpt>
      <trkpt lat="59.4619833973" lon="17.816919518">
        <ele>153.8</ele>
        <time>2012-11-11T16:14:32Z</time>
      </trkpt>
      <trkpt lat="59.461939057" lon="17.8162263349">
        <ele>153.2</ele>
        <time>2012-11-11T16:14:37Z</time>
      </trkpt>
      <trkpt lat="59.4619262327" lon="17.8160724432">
        <ele>152.8</ele>
        <time>2012-11-11T16:14:38Z</time>
      </trkpt>
      <trkpt lat="59.4619170126" lon="17.8159158693">
        <ele>152.4</ele>
        <time>2012-11-11T16:14:39Z</time>
      </trkpt>
      <trkpt lat="59.4619092175" lon="17.8157552721">
        <ele>151.8</ele>
        <time>2012-11-11T16:14:40Z</time>
      </trkpt>
      <trkpt lat="59.4618965608" lon="17.8156000393">
        <ele>150.8</ele>
        <time>2012-11-11T16:14:41Z</time>
      </trkpt>
      <trkpt lat="59.4618802999" lon="17.8154425434">
        <ele>150.4</ele>
        <time>2012-11-11T16:14:42Z</time>
      </trkpt>
      <trkpt lat="59.4618643743" lon="17.8152793478">
        <ele>150</ele>
        <time>2012-11-11T16:14:43Z</time>
      </trkpt>
      <trkpt lat="59.46185155" lon="17.8151106202">
        <ele>149.4</ele>
        <time>2012-11-11T16:14:44Z</time>
      </trkpt>
      <trkpt lat="59.4618386419" lon="17.8149378692">
        <ele>149</ele>
        <time>2012-11-11T16:14:45Z</time>
      </trkpt>
      <trkpt lat="59.4618253985" lon="17.8147588318">
        <ele>148.4</ele>
        <time>2012-11-11T16:14:46Z</time>
      </trkpt>
      <trkpt lat="59.4618130771" lon="17.8145960553">
        <ele>147.8</ele>
        <time>2012-11-11T16:14:47Z</time>
      </trkpt>
      <trkpt lat="59.4618010072" lon="17.8144402358">
        <ele>147.2</ele>
        <time>2012-11-11T16:14:48Z</time>
      </trkpt>
      <trkpt lat="59.4617886019" lon="17.8142876014">
        <ele>146.6</ele>
        <time>2012-11-11T16:14:49Z</time>
      </trkpt>
      <trkpt lat="59.4617735145" lon="17.814139577">
        <ele>145.8</ele>
        <time>2012-11-11T16:14:50Z</time>
      </trkpt>
      <trkpt lat="59.4617522245" lon="17.8139973362">
        <ele>145.2</ele>
        <time>2012-11-11T16:14:51Z</time>
      </trkpt>
      <trkpt lat="59.4617262406" lon="17.813858951">
        <ele>144.6</ele>
        <time>2012-11-11T16:14:52Z</time>
      </trkpt>
      <trkpt lat="59.4617010111" lon="17.8137240024">
        <ele>143.8</ele>
        <time>2012-11-11T16:14:53Z</time>
      </trkpt>
      <trkpt lat="59.461676955" lon="17.8135859525">
        <ele>143.2</ele>
        <time>2012-11-11T16:14:54Z</time>
      </trkpt>
      <trkpt lat="59.461655665" lon="17.8134579609">
        <ele>142.4</ele>
        <time>2012-11-11T16:14:55Z</time>
      </trkpt>
      <trkpt lat="59.4616151804" lon="17.8132414565">
        <ele>142.4</ele>
        <time>2012-11-11T16:14:57Z</time>
      </trkpt>
      <trkpt lat="59.4615868496" lon="17.8131599006">
        <ele>142.4</ele>
        <time>2012-11-11T16:14:58Z</time>
      </trkpt>
      <trkpt lat="59.4614590256" lon="17.8130720583">
        <ele>142.4</ele>
        <time>2012-11-11T16:15:01Z</time>
      </trkpt>
      <trkpt lat="59.461351402" lon="17.813150429">
        <ele>142.4</ele>
        <time>2012-11-11T16:15:03Z</time>
      </trkpt>
      <trkpt lat="59.4611960016" lon="17.8132827792">
        <ele>142.4</ele>
        <time>2012-11-11T16:15:06Z</time>
      </trkpt>
      <trkpt lat="59.4610974305" lon="17.8133683584">
        <ele>142.4</ele>
        <time>2012-11-11T16:15:08Z</time>
      </trkpt>
      <trkpt lat="59.4610488154" lon="17.8134045682">
        <ele>142</ele>
        <time>2012-11-11T16:15:09Z</time>
      </trkpt>
      <trkpt lat="59.4610039723" lon="17.8134479026">
        <ele>141.4</ele>
        <time>2012-11-11T16:15:10Z</time>
      </trkpt>
      <trkpt lat="59.4609579557" lon="17.8134960148">
        <ele>141</ele>
        <time>2012-11-11T16:15:11Z</time>
      </trkpt>
      <trkpt lat="59.4609103465" lon="17.8135423667">
        <ele>140.6</ele>
        <time>2012-11-11T16:15:12Z</time>
      </trkpt>
      <trkpt lat="59.4608611447" lon="17.8135818454">
        <ele>140</ele>
        <time>2012-11-11T16:15:13Z</time>
      </trkpt>
      <trkpt lat="59.4607136233" lon="17.8137029639">
        <ele>140</ele>
        <time>2012-11-11T16:15:16Z</time>
      </trkpt>
      <trkpt lat="59.4606619069" lon="17.8137516627">
        <ele>139.6</ele>
        <time>2012-11-11T16:15:17Z</time>
      </trkpt>
      <trkpt lat="59.4606143816" lon="17.8137804964">
        <ele>139.2</ele>
        <time>2012-11-11T16:15:18Z</time>
      </trkpt>
      <trkpt lat="59.4605658504" lon="17.8137773951">
        <ele>138.8</ele>
        <time>2012-11-11T16:15:19Z</time>
      </trkpt>
      <trkpt lat="59.4605200014" lon="17.8137321329">
        <ele>138.4</ele>
        <time>2012-11-11T16:15:20Z</time>
      </trkpt>
      <trkpt lat="59.4604799359" lon="17.8136631498">
        <ele>137.8</ele>
        <time>2012-11-11T16:15:21Z</time>
      </trkpt>
      <trkpt lat="59.4604170716" lon="17.8134912371">
        <ele>137.8</ele>
        <time>2012-11-11T16:15:23Z</time>
      </trkpt>
      <trkpt lat="59.4603876512" lon="17.8133983656">
        <ele>137.8</ele>
        <time>2012-11-11T16:15:24Z</time>
      </trkpt>
      <trkpt lat="59.4602066021" lon="17.8127395483">
        <ele>137.8</ele>
        <time>2012-11-11T16:15:31Z</time>
      </trkpt>
      <trkpt lat="59.4599738368" lon="17.812080228">
        <ele>137.8</ele>
        <time>2012-11-11T16:15:39Z</time>
      </trkpt>
      <trkpt lat="59.4599426561" lon="17.8119928048">
        <ele>137.8</ele>
        <time>2012-11-11T16:15:40Z</time>
      </trkpt>
      <trkpt lat="59.4598089648" lon="17.8117087422">
        <ele>137.8</ele>
        <time>2012-11-11T16:15:44Z</time>
      </trkpt>
      <trkpt lat="59.4596375549" lon="17.8113364182">
        <ele>138.4</ele>
        <time>2012-11-11T16:15:49Z</time>
      </trkpt>
      <trkpt lat="59.459606039" lon="17.8112696983">
        <ele>138.8</ele>
        <time>2012-11-11T16:15:50Z</time>
      </trkpt>
      <trkpt lat="59.4595774567" lon="17.8112043195">
        <ele>139.2</ele>
        <time>2012-11-11T16:15:51Z</time>
      </trkpt>
      <trkpt lat="59.459551389" lon="17.8111344144">
        <ele>139.6</ele>
        <time>2012-11-11T16:15:52Z</time>
      </trkpt>
      <trkpt lat="59.4595253213" lon="17.8110667725">
        <ele>140</ele>
        <time>2012-11-11T16:15:53Z</time>
      </trkpt>
      <trkpt lat="59.4594058792" lon="17.8107629286">
        <ele>140</ele>
        <time>2012-11-11T16:15:57Z</time>
      </trkpt>
      <trkpt lat="59.4593763749" lon="17.8106812051">
        <ele>140</ele>
        <time>2012-11-11T16:15:58Z</time>
      </trkpt>
      <trkpt lat="59.4592538316" lon="17.8103077076">
        <ele>140</ele>
        <time>2012-11-11T16:16:02Z</time>
      </trkpt>
      <trkpt lat="59.4591795679" lon="17.8099871">
        <ele>140.4</ele>
        <time>2012-11-11T16:16:05Z</time>
      </trkpt>
      <trkpt lat="59.4591581941" lon="17.8098862657">
        <ele>140.8</ele>
        <time>2012-11-11T16:16:06Z</time>
      </trkpt>
      <trkpt lat="59.4591417656" lon="17.8097757084">
        <ele>141.4</ele>
        <time>2012-11-11T16:16:07Z</time>
      </trkpt>
      <trkpt lat="59.4591283545" lon="17.8096545062">
        <ele>141.8</ele>
        <time>2012-11-11T16:16:08Z</time>
      </trkpt>
      <trkpt lat="59.4591132671" lon="17.8095285262">
        <ele>142.2</ele>
        <time>2012-11-11T16:16:09Z</time>
      </trkpt>
      <trkpt lat="59.4590800748" lon="17.8092691064">
        <ele>142.2</ele>
        <time>2012-11-11T16:16:11Z</time>
      </trkpt>
      <trkpt lat="59.4590469663" lon="17.8090020591">
        <ele>142.2</ele>
        <time>2012-11-11T16:16:13Z</time>
      </trkpt>
      <trkpt lat="59.4589876224" lon="17.8081129909">
        <ele>142.2</ele>
        <time>2012-11-11T16:16:19Z</time>
      </trkpt>
      <trkpt lat="59.4589800787" lon="17.8079602727">
        <ele>141.8</ele>
        <time>2012-11-11T16:16:20Z</time>
      </trkpt>
      <trkpt lat="59.458973457" lon="17.807804537">
        <ele>141.4</ele>
        <time>2012-11-11T16:16:21Z</time>
      </trkpt>
      <trkpt lat="59.4589678411" lon="17.8076391621">
        <ele>141</ele>
        <time>2012-11-11T16:16:22Z</time>
      </trkpt>
      <trkpt lat="59.4589654942" lon="17.8074750445">
        <ele>140.4</ele>
        <time>2012-11-11T16:16:23Z</time>
      </trkpt>
      <trkpt lat="59.4589651589" lon="17.8073029641">
        <ele>140</ele>
        <time>2012-11-11T16:16:24Z</time>
      </trkpt>
      <trkpt lat="59.4589654942" lon="17.8071443786">
        <ele>139.6</ele>
        <time>2012-11-11T16:16:25Z</time>
      </trkpt>
      <trkpt lat="59.4589673382" lon="17.8069976115">
        <ele>139.2</ele>
        <time>2012-11-11T16:16:26Z</time>
      </trkpt>
      <trkpt lat="59.4589652427" lon="17.806873727">
        <ele>138.8</ele>
        <time>2012-11-11T16:16:27Z</time>
      </trkpt>
      <trkpt lat="59.4589625605" lon="17.8067671093">
        <ele>138.2</ele>
        <time>2012-11-11T16:16:28Z</time>
      </trkpt>
      <trkpt lat="59.4589611356" lon="17.8066749084">
        <ele>137.8</ele>
        <time>2012-11-11T16:16:29Z</time>
      </trkpt>
      <trkpt lat="59.4589615547" lon="17.8062263929">
        <ele>137.8</ele>
        <time>2012-11-11T16:16:34Z</time>
      </trkpt>
      <trkpt lat="59.4589741276" lon="17.8061255586">
        <ele>137.8</ele>
        <time>2012-11-11T16:16:35Z</time>
      </trkpt>
      <trkpt lat="59.4590316274" lon="17.8058430048">
        <ele>137.8</ele>
        <time>2012-11-11T16:16:38Z</time>
      </trkpt>
      <trkpt lat="59.4590747942" lon="17.8054925575">
        <ele>137.8</ele>
        <time>2012-11-11T16:16:42Z</time>
      </trkpt>
      <trkpt lat="59.4590856906" lon="17.8054064754">
        <ele>137.8</ele>
        <time>2012-11-11T16:16:43Z</time>
      </trkpt>
      <trkpt lat="59.4591181286" lon="17.8050663379">
        <ele>137.8</ele>
        <time>2012-11-11T16:16:47Z</time>
      </trkpt>
      <trkpt lat="59.4591203079" lon="17.8047206684">
        <ele>137.4</ele>
        <time>2012-11-11T16:16:51Z</time>
      </trkpt>
      <trkpt lat="59.4591241636" lon="17.804659229">
        <ele>137</ele>
        <time>2012-11-11T16:16:52Z</time>
      </trkpt>
      <trkpt lat="59.4591215652" lon="17.8046055849">
        <ele>136.4</ele>
        <time>2012-11-11T16:16:53Z</time>
      </trkpt>
      <trkpt lat="59.4591120936" lon="17.8045736498">
        <ele>136</ele>
        <time>2012-11-11T16:16:54Z</time>
      </trkpt>
      <trkpt lat="59.4590955813" lon="17.8045496776">
        <ele>135.4</ele>
        <time>2012-11-11T16:16:55Z</time>
      </trkpt>
      <trkpt lat="59.4590749618" lon="17.8045293096">
        <ele>135</ele>
        <time>2012-11-11T16:16:56Z</time>
      </trkpt>
      <trkpt lat="59.4590525821" lon="17.8045035772">
        <ele>134.4</ele>
        <time>2012-11-11T16:16:57Z</time>
      </trkpt>
      <trkpt lat="59.4590324656" lon="17.8044903338">
        <ele>134</ele>
        <time>2012-11-11T16:16:58Z</time>
      </trkpt>
      <trkpt lat="59.4590126843" lon="17.8044718098">
        <ele>133.4</ele>
        <time>2012-11-11T16:16:59Z</time>
      </trkpt>
      <trkpt lat="59.4589942441" lon="17.8044403776">
        <ele>132.8</ele>
        <time>2012-11-11T16:17:00Z</time>
      </trkpt>
      <trkpt lat="59.4589820065" lon="17.8044040002">
        <ele>132.2</ele>
        <time>2012-11-11T16:17:01Z</time>
      </trkpt>
      <trkpt lat="59.4589777318" lon="17.8043709755">
        <ele>131.8</ele>
        <time>2012-11-11T16:17:02Z</time>
      </trkpt>
    </trkseg>
  </trk>
</gpx>